<?xml version='1.0' encoding='UTF-8'?><gpx version="1.1" creator="JPX - https://github.com/jenetics/jpx" xmlns="http://www.topografix.com/GPX/1/1"><trk><trkseg><trkpt lat="43.1689546" lon="11.7753914"><ele>280.0</ele><time>2026-04-19T06:32:32.862Z</time></trkpt><trkpt lat="43.1689191" lon="11.7752951"><ele>280.0</ele><time>2026-04-19T06:32:33.862Z</time></trkpt><trkpt lat="43.168861" lon="11.7751939"><ele>280.0</ele><time>2026-04-19T06:32:34.862Z</time></trkpt><trkpt lat="43.1688039" lon="11.7750904"><ele>280.0</ele><time>2026-04-19T06:32:35.862Z</time></trkpt><trkpt lat="43.1687457" lon="11.7750053"><ele>280.0</ele><time>2026-04-19T06:32:36.862Z</time></trkpt><trkpt lat="43.168683" lon="11.7749671"><ele>280.0</ele><time>2026-04-19T06:32:37.862Z</time></trkpt><trkpt lat="43.1686084" lon="11.7749819"><ele>281.4</ele><time>2026-04-19T06:32:38.862Z</time></trkpt><trkpt lat="43.168515" lon="11.775041"><ele>282.8</ele><time>2026-04-19T06:32:39.862Z</time></trkpt><trkpt lat="43.1684298" lon="11.7750934"><ele>284.2</ele><time>2026-04-19T06:32:40.863Z</time></trkpt><trkpt lat="43.1683553" lon="11.7751319"><ele>285.6</ele><time>2026-04-19T06:32:41.863Z</time></trkpt><trkpt lat="43.1682747" lon="11.7751213"><ele>287.0</ele><time>2026-04-19T06:32:42.862Z</time></trkpt><trkpt lat="43.1681924" lon="11.7750562"><ele>287.0</ele><time>2026-04-19T06:32:43.863Z</time></trkpt><trkpt lat="43.1681189" lon="11.7749669"><ele>287.0</ele><time>2026-04-19T06:32:44.862Z</time></trkpt><trkpt lat="43.1680391" lon="11.7748726"><ele>287.0</ele><time>2026-04-19T06:32:45.862Z</time></trkpt><trkpt lat="43.1679521" lon="11.774761"><ele>287.0</ele><time>2026-04-19T06:32:46.862Z</time></trkpt><trkpt lat="43.1678653" lon="11.7746542"><ele>287.0</ele><time>2026-04-19T06:32:47.863Z</time></trkpt><trkpt lat="43.167781" lon="11.7745532"><ele>287.0</ele><time>2026-04-19T06:32:48.863Z</time></trkpt><trkpt lat="43.1677051" lon="11.7744641"><ele>287.0</ele><time>2026-04-19T06:32:49.863Z</time></trkpt><trkpt lat="43.1676347" lon="11.7743807"><ele>287.0</ele><time>2026-04-19T06:32:50.862Z</time></trkpt><trkpt lat="43.1675563" lon="11.7742989"><ele>287.0</ele><time>2026-04-19T06:32:51.862Z</time></trkpt><trkpt lat="43.1674721" lon="11.7742123"><ele>287.0</ele><time>2026-04-19T06:32:52.863Z</time></trkpt><trkpt lat="43.1673804" lon="11.7741048"><ele>287.6</ele><time>2026-04-19T06:32:53.862Z</time></trkpt><trkpt lat="43.1672901" lon="11.7740102"><ele>288.2</ele><time>2026-04-19T06:32:54.862Z</time></trkpt><trkpt lat="43.1672068" lon="11.7739257"><ele>288.8</ele><time>2026-04-19T06:32:55.862Z</time></trkpt><trkpt lat="43.1671233" lon="11.7738379"><ele>289.4</ele><time>2026-04-19T06:32:56.862Z</time></trkpt><trkpt lat="43.1670439" lon="11.7737441"><ele>290.0</ele><time>2026-04-19T06:32:57.862Z</time></trkpt><trkpt lat="43.1669692" lon="11.7736501"><ele>290.0</ele><time>2026-04-19T06:32:58.863Z</time></trkpt><trkpt lat="43.1669023" lon="11.7735737"><ele>290.0</ele><time>2026-04-19T06:32:59.862Z</time></trkpt><trkpt lat="43.1668326" lon="11.7734957"><ele>290.0</ele><time>2026-04-19T06:33:00.862Z</time></trkpt><trkpt lat="43.1667634" lon="11.7734092"><ele>290.0</ele><time>2026-04-19T06:33:01.863Z</time></trkpt><trkpt lat="43.1666809" lon="11.7733181"><ele>290.0</ele><time>2026-04-19T06:33:02.862Z</time></trkpt><trkpt lat="43.1665871" lon="11.7732256"><ele>291.6</ele><time>2026-04-19T06:33:03.862Z</time></trkpt><trkpt lat="43.1664868" lon="11.7731173"><ele>293.2</ele><time>2026-04-19T06:33:04.863Z</time></trkpt><trkpt lat="43.1663905" lon="11.7730152"><ele>294.8</ele><time>2026-04-19T06:33:05.863Z</time></trkpt><trkpt lat="43.1663185" lon="11.7729304"><ele>296.4</ele><time>2026-04-19T06:33:06.862Z</time></trkpt><trkpt lat="43.166253" lon="11.7728514"><ele>298.0</ele><time>2026-04-19T06:33:07.862Z</time></trkpt><trkpt lat="43.1661846" lon="11.7727833"><ele>298.0</ele><time>2026-04-19T06:33:08.863Z</time></trkpt><trkpt lat="43.1661222" lon="11.7727027"><ele>298.0</ele><time>2026-04-19T06:33:09.863Z</time></trkpt><trkpt lat="43.166069" lon="11.7726161"><ele>298.0</ele><time>2026-04-19T06:33:10.863Z</time></trkpt><trkpt lat="43.1660246" lon="11.772548"><ele>298.0</ele><time>2026-04-19T06:33:11.862Z</time></trkpt><trkpt lat="43.1659639" lon="11.7724461"><ele>298.0</ele><time>2026-04-19T06:33:13.862Z</time></trkpt><trkpt lat="43.1658926" lon="11.7724509"><ele>298.0</ele><time>2026-04-19T06:33:16.862Z</time></trkpt><trkpt lat="43.1658038" lon="11.7724881"><ele>297.0</ele><time>2026-04-19T06:33:18.862Z</time></trkpt><trkpt lat="43.1657129" lon="11.7724733"><ele>296.0</ele><time>2026-04-19T06:33:19.862Z</time></trkpt><trkpt lat="43.1656183" lon="11.7724363"><ele>295.0</ele><time>2026-04-19T06:33:20.862Z</time></trkpt><trkpt lat="43.1655126" lon="11.7723639"><ele>294.0</ele><time>2026-04-19T06:33:21.862Z</time></trkpt><trkpt lat="43.165408" lon="11.7722599"><ele>293.0</ele><time>2026-04-19T06:33:22.862Z</time></trkpt><trkpt lat="43.1653027" lon="11.77213"><ele>293.0</ele><time>2026-04-19T06:33:23.862Z</time></trkpt><trkpt lat="43.1651995" lon="11.7720049"><ele>293.0</ele><time>2026-04-19T06:33:24.863Z</time></trkpt><trkpt lat="43.1650996" lon="11.7718821"><ele>293.0</ele><time>2026-04-19T06:33:25.862Z</time></trkpt><trkpt lat="43.164995" lon="11.7717843"><ele>293.0</ele><time>2026-04-19T06:33:26.863Z</time></trkpt><trkpt lat="43.1648893" lon="11.7717173"><ele>294.4</ele><time>2026-04-19T06:33:27.862Z</time></trkpt><trkpt lat="43.1647781" lon="11.7716863"><ele>295.8</ele><time>2026-04-19T06:33:28.862Z</time></trkpt><trkpt lat="43.1646742" lon="11.7716717"><ele>297.2</ele><time>2026-04-19T06:33:29.862Z</time></trkpt><trkpt lat="43.1645755" lon="11.7716812"><ele>298.6</ele><time>2026-04-19T06:33:30.863Z</time></trkpt><trkpt lat="43.1644829" lon="11.7716827"><ele>300.0</ele><time>2026-04-19T06:33:31.862Z</time></trkpt><trkpt lat="43.1643887" lon="11.7716997"><ele>300.0</ele><time>2026-04-19T06:33:32.863Z</time></trkpt><trkpt lat="43.1642819" lon="11.7717254"><ele>300.0</ele><time>2026-04-19T06:33:33.862Z</time></trkpt><trkpt lat="43.1641727" lon="11.7717637"><ele>300.0</ele><time>2026-04-19T06:33:34.862Z</time></trkpt><trkpt lat="43.1640759" lon="11.7717896"><ele>300.0</ele><time>2026-04-19T06:33:35.862Z</time></trkpt><trkpt lat="43.1639888" lon="11.7717915"><ele>300.0</ele><time>2026-04-19T06:33:36.863Z</time></trkpt><trkpt lat="43.1639186" lon="11.7717871"><ele>299.85714285714283</ele><time>2026-04-19T06:33:37.863Z</time></trkpt><trkpt lat="43.1638456" lon="11.7717708"><ele>299.7142857142857</ele><time>2026-04-19T06:33:38.862Z</time></trkpt><trkpt lat="43.1637747" lon="11.7717431"><ele>299.57142857142856</ele><time>2026-04-19T06:33:39.862Z</time></trkpt><trkpt lat="43.1637051" lon="11.7717192"><ele>299.42857142857144</ele><time>2026-04-19T06:33:40.862Z</time></trkpt><trkpt lat="43.1636362" lon="11.7716825"><ele>299.2857142857143</ele><time>2026-04-19T06:33:41.862Z</time></trkpt><trkpt lat="43.1635726" lon="11.7716374"><ele>299.1428571428571</ele><time>2026-04-19T06:33:42.862Z</time></trkpt><trkpt lat="43.1635115" lon="11.771587"><ele>299.0</ele><time>2026-04-19T06:33:43.862Z</time></trkpt><trkpt lat="43.1634426" lon="11.7715348"><ele>299.0</ele><time>2026-04-19T06:33:44.862Z</time></trkpt><trkpt lat="43.1633819" lon="11.7714771"><ele>299.0</ele><time>2026-04-19T06:33:45.863Z</time></trkpt><trkpt lat="43.1633228" lon="11.7714348"><ele>299.0</ele><time>2026-04-19T06:33:46.862Z</time></trkpt><trkpt lat="43.1632641" lon="11.7713898"><ele>299.0</ele><time>2026-04-19T06:33:47.862Z</time></trkpt><trkpt lat="43.1632019" lon="11.771342"><ele>299.0</ele><time>2026-04-19T06:33:48.863Z</time></trkpt><trkpt lat="43.1631354" lon="11.7713"><ele>299.0</ele><time>2026-04-19T06:33:49.863Z</time></trkpt><trkpt lat="43.1630663" lon="11.7712633"><ele>299.0</ele><time>2026-04-19T06:33:50.862Z</time></trkpt><trkpt lat="43.1629959" lon="11.7712275"><ele>297.33333333333337</ele><time>2026-04-19T06:33:51.862Z</time></trkpt><trkpt lat="43.1629164" lon="11.7712034"><ele>295.6666666666667</ele><time>2026-04-19T06:33:52.862Z</time></trkpt><trkpt lat="43.162828" lon="11.77119"><ele>294.0</ele><time>2026-04-19T06:33:53.862Z</time></trkpt><trkpt lat="43.1627421" lon="11.7711732"><ele>292.3333333333333</ele><time>2026-04-19T06:33:54.862Z</time></trkpt><trkpt lat="43.1626578" lon="11.7711577"><ele>290.66666666666663</ele><time>2026-04-19T06:33:55.862Z</time></trkpt><trkpt lat="43.1625652" lon="11.771152"><ele>289.0</ele><time>2026-04-19T06:33:56.863Z</time></trkpt><trkpt lat="43.1624728" lon="11.7711405"><ele>289.0</ele><time>2026-04-19T06:33:57.862Z</time></trkpt><trkpt lat="43.1623801" lon="11.7711131"><ele>289.0</ele><time>2026-04-19T06:33:58.863Z</time></trkpt><trkpt lat="43.1622854" lon="11.7710804"><ele>289.0</ele><time>2026-04-19T06:33:59.862Z</time></trkpt><trkpt lat="43.1621855" lon="11.7710436"><ele>289.0</ele><time>2026-04-19T06:34:00.862Z</time></trkpt><trkpt lat="43.1620801" lon="11.7710135"><ele>289.0</ele><time>2026-04-19T06:34:01.862Z</time></trkpt><trkpt lat="43.1619744" lon="11.7710181"><ele>287.59999999999997</ele><time>2026-04-19T06:34:02.863Z</time></trkpt><trkpt lat="43.1618815" lon="11.7710744"><ele>286.2</ele><time>2026-04-19T06:34:03.862Z</time></trkpt><trkpt lat="43.1617964" lon="11.7711701"><ele>284.79999999999995</ele><time>2026-04-19T06:34:04.862Z</time></trkpt><trkpt lat="43.1617137" lon="11.7712764"><ele>283.4</ele><time>2026-04-19T06:34:05.862Z</time></trkpt><trkpt lat="43.1616408" lon="11.7713829"><ele>282.0</ele><time>2026-04-19T06:34:06.862Z</time></trkpt><trkpt lat="43.1615754" lon="11.7714777"><ele>281.4</ele><time>2026-04-19T06:34:07.862Z</time></trkpt><trkpt lat="43.1615199" lon="11.7715606"><ele>280.79999999999995</ele><time>2026-04-19T06:34:08.862Z</time></trkpt><trkpt lat="43.1614647" lon="11.7716242"><ele>280.2</ele><time>2026-04-19T06:34:09.862Z</time></trkpt><trkpt lat="43.1613621" lon="11.7716876"><ele>279.59999999999997</ele><time>2026-04-19T06:34:11.862Z</time></trkpt><trkpt lat="43.1612173" lon="11.7716629"><ele>279.0</ele><time>2026-04-19T06:34:13.862Z</time></trkpt><trkpt lat="43.1611115" lon="11.7716191"><ele>279.0</ele><time>2026-04-19T06:34:14.862Z</time></trkpt><trkpt lat="43.160981" lon="11.7715647"><ele>279.0</ele><time>2026-04-19T06:34:15.862Z</time></trkpt><trkpt lat="43.160849" lon="11.7715166"><ele>279.0</ele><time>2026-04-19T06:34:16.862Z</time></trkpt><trkpt lat="43.160726" lon="11.7714629"><ele>279.0</ele><time>2026-04-19T06:34:17.862Z</time></trkpt><trkpt lat="43.1606084" lon="11.7714172"><ele>279.59999999999997</ele><time>2026-04-19T06:34:18.862Z</time></trkpt><trkpt lat="43.1605022" lon="11.7713759"><ele>280.2</ele><time>2026-04-19T06:34:19.862Z</time></trkpt><trkpt lat="43.1603979" lon="11.7713277"><ele>280.79999999999995</ele><time>2026-04-19T06:34:20.862Z</time></trkpt><trkpt lat="43.1602958" lon="11.7712789"><ele>281.4</ele><time>2026-04-19T06:34:21.862Z</time></trkpt><trkpt lat="43.1601912" lon="11.7712174"><ele>282.0</ele><time>2026-04-19T06:34:22.862Z</time></trkpt><trkpt lat="43.1600803" lon="11.7711526"><ele>282.0</ele><time>2026-04-19T06:34:23.862Z</time></trkpt><trkpt lat="43.1599803" lon="11.7710899"><ele>282.0</ele><time>2026-04-19T06:34:24.863Z</time></trkpt><trkpt lat="43.1599011" lon="11.7710399"><ele>282.0</ele><time>2026-04-19T06:34:25.863Z</time></trkpt><trkpt lat="43.1598452" lon="11.7709922"><ele>282.0</ele><time>2026-04-19T06:34:26.862Z</time></trkpt><trkpt lat="43.1597552" lon="11.7709038"><ele>282.0</ele><time>2026-04-19T06:34:28.862Z</time></trkpt><trkpt lat="43.159667" lon="11.7708137"><ele>281.25</ele><time>2026-04-19T06:34:30.862Z</time></trkpt><trkpt lat="43.1595627" lon="11.7706921"><ele>280.5</ele><time>2026-04-19T06:34:32.862Z</time></trkpt><trkpt lat="43.1594962" lon="11.7706035"><ele>279.75</ele><time>2026-04-19T06:34:33.862Z</time></trkpt><trkpt lat="43.1594168" lon="11.7704929"><ele>279.0</ele><time>2026-04-19T06:34:34.863Z</time></trkpt><trkpt lat="43.1593274" lon="11.7703713"><ele>279.0</ele><time>2026-04-19T06:34:35.862Z</time></trkpt><trkpt lat="43.1592414" lon="11.7702441"><ele>279.0</ele><time>2026-04-19T06:34:36.862Z</time></trkpt><trkpt lat="43.1591574" lon="11.7701108"><ele>279.0</ele><time>2026-04-19T06:34:37.862Z</time></trkpt><trkpt lat="43.1590754" lon="11.7699862"><ele>279.0</ele><time>2026-04-19T06:34:38.862Z</time></trkpt><trkpt lat="43.1590016" lon="11.7698643"><ele>279.25</ele><time>2026-04-19T06:34:39.862Z</time></trkpt><trkpt lat="43.1589279" lon="11.7697461"><ele>279.5</ele><time>2026-04-19T06:34:40.863Z</time></trkpt><trkpt lat="43.1588546" lon="11.7696141"><ele>279.75</ele><time>2026-04-19T06:34:41.862Z</time></trkpt><trkpt lat="43.1587802" lon="11.7694556"><ele>280.0</ele><time>2026-04-19T06:34:42.862Z</time></trkpt><trkpt lat="43.1587094" lon="11.769275"><ele>280.5</ele><time>2026-04-19T06:34:43.862Z</time></trkpt><trkpt lat="43.1586522" lon="11.7690971"><ele>281.0</ele><time>2026-04-19T06:34:44.862Z</time></trkpt><trkpt lat="43.1586037" lon="11.7689246"><ele>281.5</ele><time>2026-04-19T06:34:45.862Z</time></trkpt><trkpt lat="43.158556" lon="11.76876"><ele>282.0</ele><time>2026-04-19T06:34:46.862Z</time></trkpt><trkpt lat="43.1585094" lon="11.7685961"><ele>282.5</ele><time>2026-04-19T06:34:47.862Z</time></trkpt><trkpt lat="43.158458" lon="11.7684239"><ele>283.0</ele><time>2026-04-19T06:34:48.862Z</time></trkpt><trkpt lat="43.1584039" lon="11.7682455"><ele>283.5</ele><time>2026-04-19T06:34:49.862Z</time></trkpt><trkpt lat="43.1583422" lon="11.7680762"><ele>284.0</ele><time>2026-04-19T06:34:50.862Z</time></trkpt><trkpt lat="43.1582764" lon="11.7679358"><ele>283.59999999999997</ele><time>2026-04-19T06:34:51.862Z</time></trkpt><trkpt lat="43.1582004" lon="11.7678175"><ele>283.2</ele><time>2026-04-19T06:34:52.862Z</time></trkpt><trkpt lat="43.1581421" lon="11.7677145"><ele>282.79999999999995</ele><time>2026-04-19T06:34:53.862Z</time></trkpt><trkpt lat="43.1580976" lon="11.7676092"><ele>282.4</ele><time>2026-04-19T06:34:54.862Z</time></trkpt><trkpt lat="43.1580661" lon="11.7674851"><ele>282.0</ele><time>2026-04-19T06:34:55.862Z</time></trkpt><trkpt lat="43.1580481" lon="11.7673592"><ele>282.0</ele><time>2026-04-19T06:34:56.862Z</time></trkpt><trkpt lat="43.1580347" lon="11.7672302"><ele>282.0</ele><time>2026-04-19T06:34:57.862Z</time></trkpt><trkpt lat="43.1580258" lon="11.7670924"><ele>282.0</ele><time>2026-04-19T06:34:58.862Z</time></trkpt><trkpt lat="43.1580111" lon="11.7669596"><ele>282.0</ele><time>2026-04-19T06:34:59.862Z</time></trkpt><trkpt lat="43.1579932" lon="11.76683"><ele>282.0</ele><time>2026-04-19T06:35:00.862Z</time></trkpt><trkpt lat="43.1579748" lon="11.7667008"><ele>282.6</ele><time>2026-04-19T06:35:01.862Z</time></trkpt><trkpt lat="43.1579464" lon="11.7665803"><ele>283.2</ele><time>2026-04-19T06:35:02.862Z</time></trkpt><trkpt lat="43.1579173" lon="11.7664621"><ele>283.8</ele><time>2026-04-19T06:35:03.862Z</time></trkpt><trkpt lat="43.1578824" lon="11.7663464"><ele>284.4</ele><time>2026-04-19T06:35:04.862Z</time></trkpt><trkpt lat="43.1578441" lon="11.7662299"><ele>285.0</ele><time>2026-04-19T06:35:05.862Z</time></trkpt><trkpt lat="43.1578011" lon="11.7661156"><ele>285.4</ele><time>2026-04-19T06:35:06.862Z</time></trkpt><trkpt lat="43.1577539" lon="11.7659998"><ele>285.8</ele><time>2026-04-19T06:35:07.863Z</time></trkpt><trkpt lat="43.1577061" lon="11.765889"><ele>286.2</ele><time>2026-04-19T06:35:08.862Z</time></trkpt><trkpt lat="43.1576545" lon="11.7657864"><ele>286.6</ele><time>2026-04-19T06:35:09.862Z</time></trkpt><trkpt lat="43.1576029" lon="11.7656884"><ele>287.0</ele><time>2026-04-19T06:35:10.862Z</time></trkpt><trkpt lat="43.1575498" lon="11.765591"><ele>287.0</ele><time>2026-04-19T06:35:11.862Z</time></trkpt><trkpt lat="43.1575001" lon="11.7655002"><ele>287.0</ele><time>2026-04-19T06:35:12.862Z</time></trkpt><trkpt lat="43.1574541" lon="11.7654186"><ele>287.0</ele><time>2026-04-19T06:35:13.862Z</time></trkpt><trkpt lat="43.1574096" lon="11.7653415"><ele>287.0</ele><time>2026-04-19T06:35:14.863Z</time></trkpt><trkpt lat="43.1573663" lon="11.7652648"><ele>287.0</ele><time>2026-04-19T06:35:15.862Z</time></trkpt><trkpt lat="43.1573243" lon="11.7651896"><ele>287.0</ele><time>2026-04-19T06:35:16.862Z</time></trkpt><trkpt lat="43.1572745" lon="11.7651135"><ele>287.0</ele><time>2026-04-19T06:35:17.862Z</time></trkpt><trkpt lat="43.1572276" lon="11.7650383"><ele>287.0</ele><time>2026-04-19T06:35:18.862Z</time></trkpt><trkpt lat="43.1571924" lon="11.7649478"><ele>287.0</ele><time>2026-04-19T06:35:19.862Z</time></trkpt><trkpt lat="43.1571614" lon="11.764857"><ele>287.0</ele><time>2026-04-19T06:35:20.862Z</time></trkpt><trkpt lat="43.1571318" lon="11.7647596"><ele>287.0</ele><time>2026-04-19T06:35:21.862Z</time></trkpt><trkpt lat="43.1571041" lon="11.7646477"><ele>287.0</ele><time>2026-04-19T06:35:22.863Z</time></trkpt><trkpt lat="43.15708" lon="11.7645256"><ele>287.0</ele><time>2026-04-19T06:35:23.862Z</time></trkpt><trkpt lat="43.1570541" lon="11.7643961"><ele>287.25</ele><time>2026-04-19T06:35:24.862Z</time></trkpt><trkpt lat="43.157025" lon="11.7642561"><ele>287.5</ele><time>2026-04-19T06:35:25.862Z</time></trkpt><trkpt lat="43.1569907" lon="11.7641107"><ele>287.75</ele><time>2026-04-19T06:35:26.863Z</time></trkpt><trkpt lat="43.1569555" lon="11.763962"><ele>288.0</ele><time>2026-04-19T06:35:27.862Z</time></trkpt><trkpt lat="43.1569163" lon="11.7638072"><ele>288.0</ele><time>2026-04-19T06:35:28.862Z</time></trkpt><trkpt lat="43.1568668" lon="11.7636328"><ele>288.0</ele><time>2026-04-19T06:35:29.862Z</time></trkpt><trkpt lat="43.1568171" lon="11.7634096"><ele>288.0</ele><time>2026-04-19T06:35:30.862Z</time></trkpt><trkpt lat="43.1567655" lon="11.7631831"><ele>288.0</ele><time>2026-04-19T06:35:31.862Z</time></trkpt><trkpt lat="43.1567189" lon="11.7629863"><ele>288.0</ele><time>2026-04-19T06:35:32.862Z</time></trkpt><trkpt lat="43.1566804" lon="11.7628223"><ele>288.0</ele><time>2026-04-19T06:35:33.862Z</time></trkpt><trkpt lat="43.1566501" lon="11.7626597"><ele>288.0</ele><time>2026-04-19T06:35:34.862Z</time></trkpt><trkpt lat="43.1566334" lon="11.7624991"><ele>288.0</ele><time>2026-04-19T06:35:35.862Z</time></trkpt><trkpt lat="43.1566198" lon="11.7623411"><ele>288.0</ele><time>2026-04-19T06:35:36.862Z</time></trkpt><trkpt lat="43.1565958" lon="11.762205"><ele>288.0</ele><time>2026-04-19T06:35:37.863Z</time></trkpt><trkpt lat="43.1565571" lon="11.7620955"><ele>288.0</ele><time>2026-04-19T06:35:38.862Z</time></trkpt><trkpt lat="43.1564887" lon="11.7619986"><ele>288.0</ele><time>2026-04-19T06:35:39.862Z</time></trkpt><trkpt lat="43.1564" lon="11.7619244"><ele>288.25</ele><time>2026-04-19T06:35:40.862Z</time></trkpt><trkpt lat="43.1562797" lon="11.7618618"><ele>288.5</ele><time>2026-04-19T06:35:41.863Z</time></trkpt><trkpt lat="43.1561386" lon="11.761806"><ele>288.75</ele><time>2026-04-19T06:35:42.862Z</time></trkpt><trkpt lat="43.1559814" lon="11.7617304"><ele>289.0</ele><time>2026-04-19T06:35:43.862Z</time></trkpt><trkpt lat="43.1558188" lon="11.7616547"><ele>289.25</ele><time>2026-04-19T06:35:44.863Z</time></trkpt><trkpt lat="43.1556694" lon="11.7615797"><ele>289.5</ele><time>2026-04-19T06:35:45.862Z</time></trkpt><trkpt lat="43.1555366" lon="11.7615056"><ele>289.75</ele><time>2026-04-19T06:35:46.863Z</time></trkpt><trkpt lat="43.1554112" lon="11.7614275"><ele>290.0</ele><time>2026-04-19T06:35:47.862Z</time></trkpt><trkpt lat="43.1552924" lon="11.7613416"><ele>290.0</ele><time>2026-04-19T06:35:48.862Z</time></trkpt><trkpt lat="43.1551851" lon="11.7612503"><ele>290.0</ele><time>2026-04-19T06:35:49.862Z</time></trkpt><trkpt lat="43.155074" lon="11.7611455"><ele>290.0</ele><time>2026-04-19T06:35:50.862Z</time></trkpt><trkpt lat="43.1549699" lon="11.7610363"><ele>290.0</ele><time>2026-04-19T06:35:51.862Z</time></trkpt><trkpt lat="43.1548639" lon="11.7609219"><ele>290.25</ele><time>2026-04-19T06:35:52.862Z</time></trkpt><trkpt lat="43.1547642" lon="11.7608021"><ele>290.5</ele><time>2026-04-19T06:35:53.862Z</time></trkpt><trkpt lat="43.1546596" lon="11.7606755"><ele>290.75</ele><time>2026-04-19T06:35:54.863Z</time></trkpt><trkpt lat="43.1545614" lon="11.7605499"><ele>291.0</ele><time>2026-04-19T06:35:55.862Z</time></trkpt><trkpt lat="43.1544707" lon="11.7604359"><ele>291.0</ele><time>2026-04-19T06:35:56.863Z</time></trkpt><trkpt lat="43.1543822" lon="11.7603197"><ele>291.0</ele><time>2026-04-19T06:35:57.863Z</time></trkpt><trkpt lat="43.1542887" lon="11.7602133"><ele>291.0</ele><time>2026-04-19T06:35:58.862Z</time></trkpt><trkpt lat="43.1541952" lon="11.7601059"><ele>291.0</ele><time>2026-04-19T06:35:59.862Z</time></trkpt><trkpt lat="43.1541019" lon="11.7599987"><ele>291.6</ele><time>2026-04-19T06:36:00.862Z</time></trkpt><trkpt lat="43.1540161" lon="11.7598983"><ele>292.20000000000005</ele><time>2026-04-19T06:36:01.862Z</time></trkpt><trkpt lat="43.1539261" lon="11.7598013"><ele>292.79999999999995</ele><time>2026-04-19T06:36:02.863Z</time></trkpt><trkpt lat="43.153844" lon="11.759701"><ele>293.4</ele><time>2026-04-19T06:36:03.862Z</time></trkpt><trkpt lat="43.1537582" lon="11.7596025"><ele>294.0</ele><time>2026-04-19T06:36:04.862Z</time></trkpt><trkpt lat="43.153667" lon="11.7594981"><ele>294.0</ele><time>2026-04-19T06:36:05.862Z</time></trkpt><trkpt lat="43.1535731" lon="11.7593916"><ele>294.0</ele><time>2026-04-19T06:36:06.862Z</time></trkpt><trkpt lat="43.1534799" lon="11.7592848"><ele>294.0</ele><time>2026-04-19T06:36:07.863Z</time></trkpt><trkpt lat="43.1533783" lon="11.7591714"><ele>294.0</ele><time>2026-04-19T06:36:08.862Z</time></trkpt><trkpt lat="43.1532721" lon="11.7590537"><ele>294.25</ele><time>2026-04-19T06:36:09.863Z</time></trkpt><trkpt lat="43.153169" lon="11.7589447"><ele>294.5</ele><time>2026-04-19T06:36:10.862Z</time></trkpt><trkpt lat="43.1530756" lon="11.758842"><ele>294.75</ele><time>2026-04-19T06:36:11.862Z</time></trkpt><trkpt lat="43.1529901" lon="11.7587376"><ele>295.0</ele><time>2026-04-19T06:36:12.862Z</time></trkpt><trkpt lat="43.1529187" lon="11.7586357"><ele>296.0</ele><time>2026-04-19T06:36:13.862Z</time></trkpt><trkpt lat="43.1528648" lon="11.7585148"><ele>297.0</ele><time>2026-04-19T06:36:14.863Z</time></trkpt><trkpt lat="43.1528131" lon="11.7583565"><ele>298.0</ele><time>2026-04-19T06:36:15.862Z</time></trkpt><trkpt lat="43.1527751" lon="11.7581744"><ele>299.0</ele><time>2026-04-19T06:36:16.863Z</time></trkpt><trkpt lat="43.1527427" lon="11.7579706"><ele>299.0</ele><time>2026-04-19T06:36:17.863Z</time></trkpt><trkpt lat="43.1527093" lon="11.7577693"><ele>299.0</ele><time>2026-04-19T06:36:18.862Z</time></trkpt><trkpt lat="43.1526779" lon="11.757592"><ele>299.0</ele><time>2026-04-19T06:36:19.862Z</time></trkpt><trkpt lat="43.1526589" lon="11.7574289"><ele>299.0</ele><time>2026-04-19T06:36:20.862Z</time></trkpt><trkpt lat="43.1526616" lon="11.7572859"><ele>299.75</ele><time>2026-04-19T06:36:21.862Z</time></trkpt><trkpt lat="43.1526871" lon="11.757128"><ele>300.5</ele><time>2026-04-19T06:36:22.863Z</time></trkpt><trkpt lat="43.1527145" lon="11.7569783"><ele>301.25</ele><time>2026-04-19T06:36:23.862Z</time></trkpt><trkpt lat="43.1527279" lon="11.7568274"><ele>302.0</ele><time>2026-04-19T06:36:24.863Z</time></trkpt><trkpt lat="43.1527149" lon="11.7566715"><ele>302.0</ele><time>2026-04-19T06:36:25.863Z</time></trkpt><trkpt lat="43.1526796" lon="11.756499"><ele>302.0</ele><time>2026-04-19T06:36:26.862Z</time></trkpt><trkpt lat="43.1526331" lon="11.7563293"><ele>302.0</ele><time>2026-04-19T06:36:27.862Z</time></trkpt><trkpt lat="43.1525711" lon="11.7561785"><ele>302.0</ele><time>2026-04-19T06:36:28.863Z</time></trkpt><trkpt lat="43.1524901" lon="11.7560329"><ele>301.33333333333337</ele><time>2026-04-19T06:36:29.862Z</time></trkpt><trkpt lat="43.1523887" lon="11.7558991"><ele>300.6666666666667</ele><time>2026-04-19T06:36:30.862Z</time></trkpt><trkpt lat="43.1522594" lon="11.7557784"><ele>300.0</ele><time>2026-04-19T06:36:31.862Z</time></trkpt><trkpt lat="43.1521185" lon="11.7556562"><ele>303.0</ele><time>2026-04-19T06:36:32.862Z</time></trkpt><trkpt lat="43.1519771" lon="11.7555389"><ele>306.0</ele><time>2026-04-19T06:36:33.863Z</time></trkpt><trkpt lat="43.1518413" lon="11.7554449"><ele>309.0</ele><time>2026-04-19T06:36:34.862Z</time></trkpt><trkpt lat="43.1517124" lon="11.7553774"><ele>309.0</ele><time>2026-04-19T06:36:35.862Z</time></trkpt><trkpt lat="43.1515764" lon="11.7553121"><ele>309.0</ele><time>2026-04-19T06:36:36.863Z</time></trkpt><trkpt lat="43.1514456" lon="11.7552629"><ele>309.0</ele><time>2026-04-19T06:36:37.862Z</time></trkpt><trkpt lat="43.151345" lon="11.7552138"><ele>309.0</ele><time>2026-04-19T06:36:38.862Z</time></trkpt><trkpt lat="43.1512779" lon="11.7551518"><ele>311.14285714285717</ele><time>2026-04-19T06:36:39.862Z</time></trkpt><trkpt lat="43.1512366" lon="11.7550557"><ele>313.2857142857143</ele><time>2026-04-19T06:36:40.862Z</time></trkpt><trkpt lat="43.1512119" lon="11.7549598"><ele>315.42857142857144</ele><time>2026-04-19T06:36:41.862Z</time></trkpt><trkpt lat="43.1512055" lon="11.7548541"><ele>317.57142857142856</ele><time>2026-04-19T06:36:42.862Z</time></trkpt><trkpt lat="43.1512164" lon="11.7547572"><ele>319.7142857142857</ele><time>2026-04-19T06:36:43.862Z</time></trkpt><trkpt lat="43.1512289" lon="11.7546638"><ele>321.8571428571429</ele><time>2026-04-19T06:36:44.862Z</time></trkpt><trkpt lat="43.1512425" lon="11.7545648"><ele>324.0</ele><time>2026-04-19T06:36:45.862Z</time></trkpt><trkpt lat="43.1512536" lon="11.7544508"><ele>326.4</ele><time>2026-04-19T06:36:46.862Z</time></trkpt><trkpt lat="43.1512616" lon="11.7543288"><ele>328.79999999999995</ele><time>2026-04-19T06:36:47.862Z</time></trkpt><trkpt lat="43.1512541" lon="11.7542264"><ele>331.20000000000005</ele><time>2026-04-19T06:36:48.862Z</time></trkpt><trkpt lat="43.1512198" lon="11.7541535"><ele>333.6</ele><time>2026-04-19T06:36:49.863Z</time></trkpt><trkpt lat="43.1510792" lon="11.7541226"><ele>336.0</ele><time>2026-04-19T06:36:51.863Z</time></trkpt><trkpt lat="43.150976" lon="11.7541263"><ele>336.0</ele><time>2026-04-19T06:36:52.863Z</time></trkpt><trkpt lat="43.1508611" lon="11.7541347"><ele>336.0</ele><time>2026-04-19T06:36:53.863Z</time></trkpt><trkpt lat="43.1507442" lon="11.7541338"><ele>336.0</ele><time>2026-04-19T06:36:54.863Z</time></trkpt><trkpt lat="43.1506408" lon="11.7541089"><ele>336.0</ele><time>2026-04-19T06:36:55.864Z</time></trkpt><trkpt lat="43.1505524" lon="11.754049"><ele>336.0</ele><time>2026-04-19T06:36:56.863Z</time></trkpt><trkpt lat="43.1504696" lon="11.7539716"><ele>338.25</ele><time>2026-04-19T06:36:57.863Z</time></trkpt><trkpt lat="43.1503725" lon="11.753877"><ele>340.5</ele><time>2026-04-19T06:36:58.863Z</time></trkpt><trkpt lat="43.150269" lon="11.7537743"><ele>342.75</ele><time>2026-04-19T06:36:59.863Z</time></trkpt><trkpt lat="43.1501697" lon="11.753683"><ele>345.0</ele><time>2026-04-19T06:37:00.863Z</time></trkpt><trkpt lat="43.1500809" lon="11.7536306"><ele>345.0</ele><time>2026-04-19T06:37:01.864Z</time></trkpt><trkpt lat="43.150011" lon="11.7536157"><ele>345.0</ele><time>2026-04-19T06:37:02.863Z</time></trkpt><trkpt lat="43.1499297" lon="11.7536348"><ele>345.0</ele><time>2026-04-19T06:37:03.863Z</time></trkpt><trkpt lat="43.1498445" lon="11.7536762"><ele>345.0</ele><time>2026-04-19T06:37:04.863Z</time></trkpt><trkpt lat="43.1497508" lon="11.7537109"><ele>345.0</ele><time>2026-04-19T06:37:05.863Z</time></trkpt><trkpt lat="43.1496638" lon="11.7537257"><ele>345.0</ele><time>2026-04-19T06:37:06.863Z</time></trkpt><trkpt lat="43.1495637" lon="11.7537204"><ele>346.2</ele><time>2026-04-19T06:37:07.863Z</time></trkpt><trkpt lat="43.1494674" lon="11.7536821"><ele>347.4</ele><time>2026-04-19T06:37:08.863Z</time></trkpt><trkpt lat="43.149372" lon="11.7536233"><ele>348.6</ele><time>2026-04-19T06:37:09.863Z</time></trkpt><trkpt lat="43.1492765" lon="11.753556"><ele>349.8</ele><time>2026-04-19T06:37:10.863Z</time></trkpt><trkpt lat="43.149168" lon="11.7534995"><ele>351.0</ele><time>2026-04-19T06:37:11.863Z</time></trkpt><trkpt lat="43.1490414" lon="11.7534664"><ele>355.3333333333333</ele><time>2026-04-19T06:37:12.864Z</time></trkpt><trkpt lat="43.1489006" lon="11.7534524"><ele>359.66666666666663</ele><time>2026-04-19T06:37:13.863Z</time></trkpt><trkpt lat="43.1487483" lon="11.7534421"><ele>364.0</ele><time>2026-04-19T06:37:14.863Z</time></trkpt><trkpt lat="43.1485912" lon="11.7534251"><ele>364.0</ele><time>2026-04-19T06:37:15.863Z</time></trkpt><trkpt lat="43.1484248" lon="11.7534097"><ele>364.0</ele><time>2026-04-19T06:37:16.864Z</time></trkpt><trkpt lat="43.1482552" lon="11.7533942"><ele>364.0</ele><time>2026-04-19T06:37:17.863Z</time></trkpt><trkpt lat="43.1480928" lon="11.7533823"><ele>368.0</ele><time>2026-04-19T06:37:18.864Z</time></trkpt><trkpt lat="43.1479346" lon="11.753374"><ele>372.0</ele><time>2026-04-19T06:37:19.863Z</time></trkpt><trkpt lat="43.1477796" lon="11.7533645"><ele>376.0</ele><time>2026-04-19T06:37:20.863Z</time></trkpt><trkpt lat="43.1476329" lon="11.7533516"><ele>376.0</ele><time>2026-04-19T06:37:21.864Z</time></trkpt><trkpt lat="43.1474966" lon="11.7533384"><ele>376.0</ele><time>2026-04-19T06:37:22.864Z</time></trkpt><trkpt lat="43.1473536" lon="11.7533251"><ele>376.0</ele><time>2026-04-19T06:37:23.863Z</time></trkpt><trkpt lat="43.1472059" lon="11.7533152"><ele>376.0</ele><time>2026-04-19T06:37:24.864Z</time></trkpt><trkpt lat="43.1470498" lon="11.7533088"><ele>378.75</ele><time>2026-04-19T06:37:25.863Z</time></trkpt><trkpt lat="43.1468956" lon="11.7533051"><ele>381.5</ele><time>2026-04-19T06:37:26.864Z</time></trkpt><trkpt lat="43.146748" lon="11.7532954"><ele>384.25</ele><time>2026-04-19T06:37:27.863Z</time></trkpt><trkpt lat="43.146608" lon="11.7532769"><ele>387.0</ele><time>2026-04-19T06:37:28.863Z</time></trkpt><trkpt lat="43.1464797" lon="11.753262"><ele>387.20000000000005</ele><time>2026-04-19T06:37:29.863Z</time></trkpt><trkpt lat="43.146365" lon="11.7532554"><ele>387.4</ele><time>2026-04-19T06:37:30.864Z</time></trkpt><trkpt lat="43.1462605" lon="11.7532474"><ele>387.6</ele><time>2026-04-19T06:37:31.863Z</time></trkpt><trkpt lat="43.146172" lon="11.7532421"><ele>387.79999999999995</ele><time>2026-04-19T06:37:32.863Z</time></trkpt><trkpt lat="43.1461002" lon="11.7532342"><ele>388.0</ele><time>2026-04-19T06:37:33.863Z</time></trkpt><trkpt lat="43.1460191" lon="11.7532042"><ele>388.00000000000006</ele><time>2026-04-19T06:37:35.863Z</time></trkpt><trkpt lat="43.1459721" lon="11.7530943"><ele>388.0</ele><time>2026-04-19T06:37:38.863Z</time></trkpt><trkpt lat="43.1459197" lon="11.7530396"><ele>388.0</ele><time>2026-04-19T06:37:41.863Z</time></trkpt><trkpt lat="43.1458677" lon="11.7531847"><ele>388.0</ele><time>2026-04-19T06:37:43.863Z</time></trkpt><trkpt lat="43.1458456" lon="11.7532961"><ele>388.00000000000006</ele><time>2026-04-19T06:37:44.864Z</time></trkpt><trkpt lat="43.145828" lon="11.7534012"><ele>388.0</ele><time>2026-04-19T06:37:45.863Z</time></trkpt><trkpt lat="43.1458129" lon="11.753506"><ele>387.59999999999997</ele><time>2026-04-19T06:37:46.863Z</time></trkpt><trkpt lat="43.1458057" lon="11.753608"><ele>387.2</ele><time>2026-04-19T06:37:47.863Z</time></trkpt><trkpt lat="43.1457913" lon="11.7536957"><ele>386.8</ele><time>2026-04-19T06:37:48.863Z</time></trkpt><trkpt lat="43.1457413" lon="11.7538034"><ele>386.4</ele><time>2026-04-19T06:37:50.863Z</time></trkpt><trkpt lat="43.145647" lon="11.753823"><ele>386.0</ele><time>2026-04-19T06:37:52.864Z</time></trkpt><trkpt lat="43.1455184" lon="11.7538043"><ele>383.16666666666663</ele><time>2026-04-19T06:37:54.864Z</time></trkpt><trkpt lat="43.1454405" lon="11.7537803"><ele>380.3333333333333</ele><time>2026-04-19T06:37:55.863Z</time></trkpt><trkpt lat="43.1453612" lon="11.7537536"><ele>377.5</ele><time>2026-04-19T06:37:56.864Z</time></trkpt><trkpt lat="43.1452786" lon="11.7537209"><ele>374.66666666666663</ele><time>2026-04-19T06:37:57.863Z</time></trkpt><trkpt lat="43.145197" lon="11.7536773"><ele>371.8333333333333</ele><time>2026-04-19T06:37:58.863Z</time></trkpt><trkpt lat="43.1451216" lon="11.7536315"><ele>369.0</ele><time>2026-04-19T06:37:59.863Z</time></trkpt><trkpt lat="43.1450568" lon="11.7535817"><ele>369.1428571428571</ele><time>2026-04-19T06:38:00.863Z</time></trkpt><trkpt lat="43.1449961" lon="11.7535308"><ele>369.2857142857143</ele><time>2026-04-19T06:38:01.863Z</time></trkpt><trkpt lat="43.1449358" lon="11.7534771"><ele>369.42857142857144</ele><time>2026-04-19T06:38:02.863Z</time></trkpt><trkpt lat="43.1448798" lon="11.7534259"><ele>369.57142857142856</ele><time>2026-04-19T06:38:03.864Z</time></trkpt><trkpt lat="43.1448152" lon="11.7533723"><ele>369.7142857142857</ele><time>2026-04-19T06:38:04.863Z</time></trkpt><trkpt lat="43.144743" lon="11.753328"><ele>369.85714285714283</ele><time>2026-04-19T06:38:05.863Z</time></trkpt><trkpt lat="43.1446748" lon="11.7532951"><ele>370.0</ele><time>2026-04-19T06:38:06.863Z</time></trkpt><trkpt lat="43.1446102" lon="11.7532713"><ele>367.0</ele><time>2026-04-19T06:38:07.864Z</time></trkpt><trkpt lat="43.1445001" lon="11.753268"><ele>364.0</ele><time>2026-04-19T06:38:09.863Z</time></trkpt><trkpt lat="43.1444066" lon="11.75337"><ele>361.0</ele><time>2026-04-19T06:38:11.863Z</time></trkpt><trkpt lat="43.1443535" lon="11.7534361"><ele>358.0</ele><time>2026-04-19T06:38:12.863Z</time></trkpt><trkpt lat="43.1442992" lon="11.7534941"><ele>355.0</ele><time>2026-04-19T06:38:13.863Z</time></trkpt><trkpt lat="43.1442396" lon="11.7535275"><ele>352.0</ele><time>2026-04-19T06:38:14.863Z</time></trkpt><trkpt lat="43.144126" lon="11.753538"><ele>352.25</ele><time>2026-04-19T06:38:16.863Z</time></trkpt><trkpt lat="43.1440113" lon="11.7535276"><ele>352.5</ele><time>2026-04-19T06:38:18.863Z</time></trkpt><trkpt lat="43.1439131" lon="11.7534733"><ele>352.75</ele><time>2026-04-19T06:38:20.863Z</time></trkpt><trkpt lat="43.143846" lon="11.7533483"><ele>353.0</ele><time>2026-04-19T06:38:22.863Z</time></trkpt><trkpt lat="43.1438565" lon="11.7531739"><ele>353.0</ele><time>2026-04-19T06:38:24.863Z</time></trkpt><trkpt lat="43.1438864" lon="11.753074"><ele>353.0</ele><time>2026-04-19T06:38:25.863Z</time></trkpt><trkpt lat="43.1439259" lon="11.7529713"><ele>353.0</ele><time>2026-04-19T06:38:26.863Z</time></trkpt><trkpt lat="43.1439671" lon="11.7528539"><ele>353.0</ele><time>2026-04-19T06:38:27.863Z</time></trkpt><trkpt lat="43.1439948" lon="11.7527295"><ele>353.0</ele><time>2026-04-19T06:38:28.863Z</time></trkpt><trkpt lat="43.1440068" lon="11.7525913"><ele>354.0</ele><time>2026-04-19T06:38:29.863Z</time></trkpt><trkpt lat="43.1440036" lon="11.752442"><ele>355.0</ele><time>2026-04-19T06:38:30.863Z</time></trkpt><trkpt lat="43.1439943" lon="11.7522816"><ele>356.0</ele><time>2026-04-19T06:38:31.864Z</time></trkpt><trkpt lat="43.1439831" lon="11.7521179"><ele>357.0</ele><time>2026-04-19T06:38:32.864Z</time></trkpt><trkpt lat="43.1439743" lon="11.7519615"><ele>358.25</ele><time>2026-04-19T06:38:33.863Z</time></trkpt><trkpt lat="43.1439715" lon="11.7518084"><ele>359.5</ele><time>2026-04-19T06:38:34.863Z</time></trkpt><trkpt lat="43.1439795" lon="11.751659"><ele>360.75</ele><time>2026-04-19T06:38:35.863Z</time></trkpt><trkpt lat="43.1439907" lon="11.7514987"><ele>362.0</ele><time>2026-04-19T06:38:36.864Z</time></trkpt><trkpt lat="43.1440052" lon="11.7513378"><ele>362.0</ele><time>2026-04-19T06:38:37.863Z</time></trkpt><trkpt lat="43.1440159" lon="11.7511863"><ele>362.0</ele><time>2026-04-19T06:38:38.864Z</time></trkpt><trkpt lat="43.1440147" lon="11.7510458"><ele>362.0</ele><time>2026-04-19T06:38:39.863Z</time></trkpt><trkpt lat="43.1440012" lon="11.7509117"><ele>362.0</ele><time>2026-04-19T06:38:40.864Z</time></trkpt><trkpt lat="43.1439755" lon="11.7507662"><ele>362.0</ele><time>2026-04-19T06:38:41.863Z</time></trkpt><trkpt lat="43.1439425" lon="11.7506064"><ele>364.5</ele><time>2026-04-19T06:38:42.863Z</time></trkpt><trkpt lat="43.1439101" lon="11.7504404"><ele>367.0</ele><time>2026-04-19T06:38:43.863Z</time></trkpt><trkpt lat="43.1438815" lon="11.7502693"><ele>369.5</ele><time>2026-04-19T06:38:44.863Z</time></trkpt><trkpt lat="43.1438536" lon="11.7500938"><ele>372.0</ele><time>2026-04-19T06:38:45.863Z</time></trkpt><trkpt lat="43.1438294" lon="11.7499208"><ele>373.25</ele><time>2026-04-19T06:38:46.863Z</time></trkpt><trkpt lat="43.1438019" lon="11.7497469"><ele>374.5</ele><time>2026-04-19T06:38:47.863Z</time></trkpt><trkpt lat="43.1437751" lon="11.7495678"><ele>375.75</ele><time>2026-04-19T06:38:48.863Z</time></trkpt><trkpt lat="43.1437487" lon="11.749386"><ele>377.0</ele><time>2026-04-19T06:38:49.863Z</time></trkpt><trkpt lat="43.1437252" lon="11.7492126"><ele>377.40000000000003</ele><time>2026-04-19T06:38:50.863Z</time></trkpt><trkpt lat="43.1437007" lon="11.7490494"><ele>377.8</ele><time>2026-04-19T06:38:51.864Z</time></trkpt><trkpt lat="43.1436801" lon="11.7488976"><ele>378.2</ele><time>2026-04-19T06:38:52.863Z</time></trkpt><trkpt lat="43.1436628" lon="11.7487531"><ele>378.6</ele><time>2026-04-19T06:38:53.864Z</time></trkpt><trkpt lat="43.1436458" lon="11.7486115"><ele>379.0</ele><time>2026-04-19T06:38:54.863Z</time></trkpt><trkpt lat="43.1436324" lon="11.7484773"><ele>380.3333333333333</ele><time>2026-04-19T06:38:55.863Z</time></trkpt><trkpt lat="43.1436218" lon="11.7483455"><ele>381.66666666666663</ele><time>2026-04-19T06:38:56.863Z</time></trkpt><trkpt lat="43.1436193" lon="11.7482289"><ele>383.0</ele><time>2026-04-19T06:38:57.864Z</time></trkpt><trkpt lat="43.143631" lon="11.7481151"><ele>384.3333333333333</ele><time>2026-04-19T06:38:58.864Z</time></trkpt><trkpt lat="43.1436472" lon="11.7480124"><ele>385.6666666666667</ele><time>2026-04-19T06:38:59.863Z</time></trkpt><trkpt lat="43.143671" lon="11.7479142"><ele>387.0</ele><time>2026-04-19T06:39:00.864Z</time></trkpt><trkpt lat="43.1437011" lon="11.747827"><ele>387.0</ele><time>2026-04-19T06:39:01.863Z</time></trkpt><trkpt lat="43.1437348" lon="11.7477379"><ele>387.0</ele><time>2026-04-19T06:39:02.863Z</time></trkpt><trkpt lat="43.1437741" lon="11.7476431"><ele>387.0</ele><time>2026-04-19T06:39:03.863Z</time></trkpt><trkpt lat="43.1438188" lon="11.7475461"><ele>387.0</ele><time>2026-04-19T06:39:04.864Z</time></trkpt><trkpt lat="43.1438652" lon="11.7474491"><ele>387.0</ele><time>2026-04-19T06:39:05.863Z</time></trkpt><trkpt lat="43.143913" lon="11.747365"><ele>387.0</ele><time>2026-04-19T06:39:06.863Z</time></trkpt><trkpt lat="43.1439668" lon="11.7472968"><ele>389.1666666666667</ele><time>2026-04-19T06:39:07.863Z</time></trkpt><trkpt lat="43.1440225" lon="11.7472355"><ele>391.33333333333337</ele><time>2026-04-19T06:39:08.863Z</time></trkpt><trkpt lat="43.1440724" lon="11.7471711"><ele>393.5</ele><time>2026-04-19T06:39:09.863Z</time></trkpt><trkpt lat="43.1441229" lon="11.7471114"><ele>395.6666666666667</ele><time>2026-04-19T06:39:10.863Z</time></trkpt><trkpt lat="43.1441972" lon="11.7469888"><ele>397.83333333333337</ele><time>2026-04-19T06:39:12.863Z</time></trkpt><trkpt lat="43.1442248" lon="11.7469103"><ele>400.0</ele><time>2026-04-19T06:39:13.863Z</time></trkpt><trkpt lat="43.1442421" lon="11.7468221"><ele>402.6666666666667</ele><time>2026-04-19T06:39:14.863Z</time></trkpt><trkpt lat="43.1442541" lon="11.7467369"><ele>405.33333333333337</ele><time>2026-04-19T06:39:15.863Z</time></trkpt><trkpt lat="43.1442639" lon="11.7466475"><ele>408.0</ele><time>2026-04-19T06:39:16.863Z</time></trkpt><trkpt lat="43.1442657" lon="11.7464809"><ele>410.66666666666663</ele><time>2026-04-19T06:39:18.863Z</time></trkpt><trkpt lat="43.1442525" lon="11.7463931"><ele>413.3333333333333</ele><time>2026-04-19T06:39:19.863Z</time></trkpt><trkpt lat="43.1442264" lon="11.7463056"><ele>416.0</ele><time>2026-04-19T06:39:20.863Z</time></trkpt><trkpt lat="43.1441756" lon="11.7461999"><ele>416.0</ele><time>2026-04-19T06:39:21.863Z</time></trkpt><trkpt lat="43.1441166" lon="11.7460849"><ele>416.0</ele><time>2026-04-19T06:39:22.863Z</time></trkpt><trkpt lat="43.1440503" lon="11.745976"><ele>416.0</ele><time>2026-04-19T06:39:23.863Z</time></trkpt><trkpt lat="43.1439711" lon="11.7458564"><ele>416.0</ele><time>2026-04-19T06:39:24.863Z</time></trkpt><trkpt lat="43.1438887" lon="11.74574"><ele>416.0</ele><time>2026-04-19T06:39:25.863Z</time></trkpt><trkpt lat="43.1438128" lon="11.7456238"><ele>419.4</ele><time>2026-04-19T06:39:26.863Z</time></trkpt><trkpt lat="43.1437415" lon="11.7455264"><ele>422.8</ele><time>2026-04-19T06:39:27.863Z</time></trkpt><trkpt lat="43.1436674" lon="11.7454431"><ele>426.19999999999993</ele><time>2026-04-19T06:39:28.863Z</time></trkpt><trkpt lat="43.1435934" lon="11.7453565"><ele>429.59999999999997</ele><time>2026-04-19T06:39:29.864Z</time></trkpt><trkpt lat="43.1435227" lon="11.7452989"><ele>433.0</ele><time>2026-04-19T06:39:30.863Z</time></trkpt><trkpt lat="43.1434556" lon="11.745249"><ele>435.6666666666667</ele><time>2026-04-19T06:39:31.863Z</time></trkpt><trkpt lat="43.1433795" lon="11.7451389"><ele>438.33333333333337</ele><time>2026-04-19T06:39:33.863Z</time></trkpt><trkpt lat="43.1433365" lon="11.7450614"><ele>441.0</ele><time>2026-04-19T06:39:34.863Z</time></trkpt><trkpt lat="43.1432955" lon="11.7449773"><ele>443.66666666666663</ele><time>2026-04-19T06:39:35.863Z</time></trkpt><trkpt lat="43.1432636" lon="11.7448733"><ele>446.3333333333333</ele><time>2026-04-19T06:39:36.863Z</time></trkpt><trkpt lat="43.1432402" lon="11.7447495"><ele>449.0</ele><time>2026-04-19T06:39:37.864Z</time></trkpt><trkpt lat="43.1432157" lon="11.744612"><ele>448.75</ele><time>2026-04-19T06:39:38.863Z</time></trkpt><trkpt lat="43.1431775" lon="11.7444756"><ele>448.5</ele><time>2026-04-19T06:39:39.863Z</time></trkpt><trkpt lat="43.143118" lon="11.7443238"><ele>448.25</ele><time>2026-04-19T06:39:40.863Z</time></trkpt><trkpt lat="43.143044" lon="11.7441731"><ele>448.0</ele><time>2026-04-19T06:39:41.863Z</time></trkpt><trkpt lat="43.1429683" lon="11.7440222"><ele>450.75</ele><time>2026-04-19T06:39:42.863Z</time></trkpt><trkpt lat="43.1428937" lon="11.7438712"><ele>453.5</ele><time>2026-04-19T06:39:43.863Z</time></trkpt><trkpt lat="43.1428183" lon="11.7437145"><ele>456.25</ele><time>2026-04-19T06:39:44.863Z</time></trkpt><trkpt lat="43.1427414" lon="11.7435539"><ele>459.0</ele><time>2026-04-19T06:39:45.863Z</time></trkpt><trkpt lat="43.1426653" lon="11.7433918"><ele>460.79999999999995</ele><time>2026-04-19T06:39:46.863Z</time></trkpt><trkpt lat="43.1425934" lon="11.7432353"><ele>462.59999999999997</ele><time>2026-04-19T06:39:47.863Z</time></trkpt><trkpt lat="43.1425278" lon="11.7430972"><ele>464.4</ele><time>2026-04-19T06:39:48.863Z</time></trkpt><trkpt lat="43.1424843" lon="11.7429851"><ele>466.2</ele><time>2026-04-19T06:39:49.863Z</time></trkpt><trkpt lat="43.1424512" lon="11.7428831"><ele>468.0</ele><time>2026-04-19T06:39:50.863Z</time></trkpt><trkpt lat="43.1424258" lon="11.7427681"><ele>468.2</ele><time>2026-04-19T06:39:51.864Z</time></trkpt><trkpt lat="43.1423927" lon="11.7426297"><ele>468.4</ele><time>2026-04-19T06:39:52.863Z</time></trkpt><trkpt lat="43.1423444" lon="11.7424977"><ele>468.59999999999997</ele><time>2026-04-19T06:39:53.863Z</time></trkpt><trkpt lat="43.1422939" lon="11.7423791"><ele>468.79999999999995</ele><time>2026-04-19T06:39:54.864Z</time></trkpt><trkpt lat="43.1422501" lon="11.7422662"><ele>469.0</ele><time>2026-04-19T06:39:55.864Z</time></trkpt><trkpt lat="43.1422091" lon="11.742156"><ele>469.00000000000006</ele><time>2026-04-19T06:39:56.863Z</time></trkpt><trkpt lat="43.1421711" lon="11.7420444"><ele>469.0</ele><time>2026-04-19T06:39:57.864Z</time></trkpt><trkpt lat="43.1421353" lon="11.7419324"><ele>469.0</ele><time>2026-04-19T06:39:58.863Z</time></trkpt><trkpt lat="43.1421029" lon="11.7418244"><ele>469.0</ele><time>2026-04-19T06:39:59.863Z</time></trkpt><trkpt lat="43.1420735" lon="11.741713"><ele>469.00000000000006</ele><time>2026-04-19T06:40:00.863Z</time></trkpt><trkpt lat="43.1420475" lon="11.7415905"><ele>469.0</ele><time>2026-04-19T06:40:01.864Z</time></trkpt><trkpt lat="43.1420209" lon="11.7414671"><ele>472.79999999999995</ele><time>2026-04-19T06:40:02.864Z</time></trkpt><trkpt lat="43.1419981" lon="11.7413589"><ele>476.59999999999997</ele><time>2026-04-19T06:40:03.863Z</time></trkpt><trkpt lat="43.1419763" lon="11.7412405"><ele>480.4</ele><time>2026-04-19T06:40:04.863Z</time></trkpt><trkpt lat="43.1419463" lon="11.741111"><ele>484.2</ele><time>2026-04-19T06:40:05.864Z</time></trkpt><trkpt lat="43.1419088" lon="11.7409688"><ele>488.0</ele><time>2026-04-19T06:40:06.863Z</time></trkpt><trkpt lat="43.1418651" lon="11.740832"><ele>490.3333333333333</ele><time>2026-04-19T06:40:07.864Z</time></trkpt><trkpt lat="43.1418157" lon="11.7407147"><ele>492.66666666666663</ele><time>2026-04-19T06:40:08.863Z</time></trkpt><trkpt lat="43.1417671" lon="11.740625"><ele>495.0</ele><time>2026-04-19T06:40:09.863Z</time></trkpt><trkpt lat="43.1417238" lon="11.7405422"><ele>497.33333333333337</ele><time>2026-04-19T06:40:10.864Z</time></trkpt><trkpt lat="43.1416895" lon="11.7404409"><ele>499.6666666666667</ele><time>2026-04-19T06:40:11.863Z</time></trkpt><trkpt lat="43.1416589" lon="11.740322"><ele>502.0</ele><time>2026-04-19T06:40:12.863Z</time></trkpt><trkpt lat="43.1416354" lon="11.7401781"><ele>503.20000000000005</ele><time>2026-04-19T06:40:13.863Z</time></trkpt><trkpt lat="43.1416107" lon="11.7400235"><ele>504.40000000000003</ele><time>2026-04-19T06:40:14.864Z</time></trkpt><trkpt lat="43.1415893" lon="11.7399205"><ele>505.59999999999997</ele><time>2026-04-19T06:40:15.864Z</time></trkpt><trkpt lat="43.1415302" lon="11.7398495"><ele>506.79999999999995</ele><time>2026-04-19T06:40:16.864Z</time></trkpt><trkpt lat="43.1414406" lon="11.7397777"><ele>508.0</ele><time>2026-04-19T06:40:17.863Z</time></trkpt><trkpt lat="43.1413497" lon="11.7396777"><ele>509.75</ele><time>2026-04-19T06:40:18.863Z</time></trkpt><trkpt lat="43.1412468" lon="11.739544"><ele>511.5</ele><time>2026-04-19T06:40:19.864Z</time></trkpt><trkpt lat="43.1411503" lon="11.7393831"><ele>513.25</ele><time>2026-04-19T06:40:20.863Z</time></trkpt><trkpt lat="43.1410577" lon="11.7392224"><ele>515.0</ele><time>2026-04-19T06:40:21.863Z</time></trkpt><trkpt lat="43.140978" lon="11.7390677"><ele>515.0</ele><time>2026-04-19T06:40:22.863Z</time></trkpt><trkpt lat="43.1409054" lon="11.7389338"><ele>515.0</ele><time>2026-04-19T06:40:23.863Z</time></trkpt><trkpt lat="43.1408396" lon="11.7388044"><ele>515.0</ele><time>2026-04-19T06:40:24.864Z</time></trkpt><trkpt lat="43.1407857" lon="11.7386592"><ele>515.0</ele><time>2026-04-19T06:40:25.863Z</time></trkpt><trkpt lat="43.1407389" lon="11.7385093"><ele>512.25</ele><time>2026-04-19T06:40:26.863Z</time></trkpt><trkpt lat="43.1406944" lon="11.7383604"><ele>509.5</ele><time>2026-04-19T06:40:27.863Z</time></trkpt><trkpt lat="43.1406457" lon="11.738213"><ele>506.75</ele><time>2026-04-19T06:40:28.863Z</time></trkpt><trkpt lat="43.1405917" lon="11.7380613"><ele>504.0</ele><time>2026-04-19T06:40:29.864Z</time></trkpt><trkpt lat="43.1405259" lon="11.7378936"><ele>505.66666666666663</ele><time>2026-04-19T06:40:30.863Z</time></trkpt><trkpt lat="43.140444" lon="11.7377157"><ele>507.3333333333333</ele><time>2026-04-19T06:40:31.863Z</time></trkpt><trkpt lat="43.1403445" lon="11.7375325"><ele>509.0</ele><time>2026-04-19T06:40:32.863Z</time></trkpt><trkpt lat="43.1402388" lon="11.7373558"><ele>509.0</ele><time>2026-04-19T06:40:33.863Z</time></trkpt><trkpt lat="43.1401328" lon="11.7371843"><ele>509.0</ele><time>2026-04-19T06:40:34.863Z</time></trkpt><trkpt lat="43.1400323" lon="11.737015"><ele>509.0</ele><time>2026-04-19T06:40:35.864Z</time></trkpt><trkpt lat="43.139933" lon="11.7368582"><ele>511.5</ele><time>2026-04-19T06:40:36.863Z</time></trkpt><trkpt lat="43.1398278" lon="11.7367033"><ele>514.0</ele><time>2026-04-19T06:40:37.863Z</time></trkpt><trkpt lat="43.1397266" lon="11.7365651"><ele>516.5</ele><time>2026-04-19T06:40:38.863Z</time></trkpt><trkpt lat="43.1396256" lon="11.7364316"><ele>519.0</ele><time>2026-04-19T06:40:39.863Z</time></trkpt><trkpt lat="43.139537" lon="11.7363043"><ele>519.0</ele><time>2026-04-19T06:40:40.863Z</time></trkpt><trkpt lat="43.1394619" lon="11.7361975"><ele>519.0</ele><time>2026-04-19T06:40:41.863Z</time></trkpt><trkpt lat="43.139394" lon="11.7361063"><ele>519.0</ele><time>2026-04-19T06:40:42.863Z</time></trkpt><trkpt lat="43.13934" lon="11.7360257"><ele>519.0</ele><time>2026-04-19T06:40:43.864Z</time></trkpt><trkpt lat="43.1392954" lon="11.7359515"><ele>519.0</ele><time>2026-04-19T06:40:44.863Z</time></trkpt><trkpt lat="43.1392361" lon="11.7358553"><ele>519.0</ele><time>2026-04-19T06:40:46.863Z</time></trkpt><trkpt lat="43.1391451" lon="11.7358605"><ele>519.2</ele><time>2026-04-19T06:41:10.863Z</time></trkpt><trkpt lat="43.139032" lon="11.7359221"><ele>519.4</ele><time>2026-04-19T06:41:12.863Z</time></trkpt><trkpt lat="43.1389449" lon="11.7360546"><ele>519.6</ele><time>2026-04-19T06:41:14.864Z</time></trkpt><trkpt lat="43.1389261" lon="11.736182"><ele>519.8</ele><time>2026-04-19T06:41:15.863Z</time></trkpt><trkpt lat="43.1389179" lon="11.7363156"><ele>520.0</ele><time>2026-04-19T06:41:16.863Z</time></trkpt><trkpt lat="43.1389097" lon="11.7364337"><ele>520.0000000000001</ele><time>2026-04-19T06:41:17.863Z</time></trkpt><trkpt lat="43.1388994" lon="11.7365421"><ele>520.0</ele><time>2026-04-19T06:41:18.863Z</time></trkpt><trkpt lat="43.1388954" lon="11.7366378"><ele>520.0</ele><time>2026-04-19T06:41:19.863Z</time></trkpt><trkpt lat="43.1388952" lon="11.7367284"><ele>520.0</ele><time>2026-04-19T06:41:20.863Z</time></trkpt><trkpt lat="43.1388997" lon="11.7368182"><ele>520.0</ele><time>2026-04-19T06:41:21.863Z</time></trkpt><trkpt lat="43.1389083" lon="11.73691"><ele>520.0000000000001</ele><time>2026-04-19T06:41:22.864Z</time></trkpt><trkpt lat="43.1389134" lon="11.7370027"><ele>520.0</ele><time>2026-04-19T06:41:23.864Z</time></trkpt><trkpt lat="43.1389146" lon="11.7371019"><ele>519.0000000000001</ele><time>2026-04-19T06:41:24.863Z</time></trkpt><trkpt lat="43.1389103" lon="11.7372008"><ele>518.0</ele><time>2026-04-19T06:41:25.863Z</time></trkpt><trkpt lat="43.1389045" lon="11.7372953"><ele>517.0</ele><time>2026-04-19T06:41:26.863Z</time></trkpt><trkpt lat="43.1389004" lon="11.7373834"><ele>516.0</ele><time>2026-04-19T06:41:27.863Z</time></trkpt><trkpt lat="43.138894" lon="11.7374729"><ele>515.0</ele><time>2026-04-19T06:41:28.863Z</time></trkpt><trkpt lat="43.138892" lon="11.7375703"><ele>514.0000000000001</ele><time>2026-04-19T06:41:29.863Z</time></trkpt><trkpt lat="43.1388865" lon="11.7376833"><ele>513.0</ele><time>2026-04-19T06:41:30.864Z</time></trkpt><trkpt lat="43.1388756" lon="11.7377883"><ele>510.79999999999995</ele><time>2026-04-19T06:41:31.863Z</time></trkpt><trkpt lat="43.1388614" lon="11.7378819"><ele>508.59999999999997</ele><time>2026-04-19T06:41:32.863Z</time></trkpt><trkpt lat="43.1388422" lon="11.7379658"><ele>506.40000000000003</ele><time>2026-04-19T06:41:33.863Z</time></trkpt><trkpt lat="43.1387764" lon="11.7380978"><ele>504.20000000000005</ele><time>2026-04-19T06:41:35.863Z</time></trkpt><trkpt lat="43.1386765" lon="11.7381716"><ele>502.0</ele><time>2026-04-19T06:41:37.863Z</time></trkpt><trkpt lat="43.1385796" lon="11.7381991"><ele>502.00000000000006</ele><time>2026-04-19T06:41:39.863Z</time></trkpt><trkpt lat="43.1384595" lon="11.7381676"><ele>502.0</ele><time>2026-04-19T06:41:41.863Z</time></trkpt><trkpt lat="43.1383972" lon="11.7381408"><ele>502.0</ele><time>2026-04-19T06:41:42.864Z</time></trkpt><trkpt lat="43.1383317" lon="11.7381061"><ele>502.0</ele><time>2026-04-19T06:41:43.863Z</time></trkpt><trkpt lat="43.1382708" lon="11.738066"><ele>502.00000000000006</ele><time>2026-04-19T06:41:44.863Z</time></trkpt><trkpt lat="43.1381604" lon="11.7379906"><ele>502.0</ele><time>2026-04-19T06:41:46.863Z</time></trkpt><trkpt lat="43.138095" lon="11.737951"><ele>502.6</ele><time>2026-04-19T06:41:47.864Z</time></trkpt><trkpt lat="43.1380306" lon="11.7379216"><ele>503.20000000000005</ele><time>2026-04-19T06:41:48.863Z</time></trkpt><trkpt lat="43.1379336" lon="11.7378739"><ele>503.8</ele><time>2026-04-19T06:41:50.863Z</time></trkpt><trkpt lat="43.1379072" lon="11.7379745"><ele>504.4</ele><time>2026-04-19T06:41:54.863Z</time></trkpt><trkpt lat="43.137932" lon="11.7381231"><ele>505.0</ele><time>2026-04-19T06:41:56.863Z</time></trkpt><trkpt lat="43.1379659" lon="11.7382987"><ele>505.0</ele><time>2026-04-19T06:41:58.863Z</time></trkpt><trkpt lat="43.137987" lon="11.7384028"><ele>505.0</ele><time>2026-04-19T06:41:59.863Z</time></trkpt><trkpt lat="43.1380125" lon="11.7384961"><ele>505.0</ele><time>2026-04-19T06:42:00.864Z</time></trkpt><trkpt lat="43.1380312" lon="11.7385812"><ele>505.0</ele><time>2026-04-19T06:42:01.864Z</time></trkpt><trkpt lat="43.1380452" lon="11.738739"><ele>505.0</ele><time>2026-04-19T06:42:03.863Z</time></trkpt><trkpt lat="43.1380338" lon="11.7389021"><ele>504.0</ele><time>2026-04-19T06:42:05.863Z</time></trkpt><trkpt lat="43.1379732" lon="11.7390662"><ele>503.0</ele><time>2026-04-19T06:42:07.863Z</time></trkpt><trkpt lat="43.1379272" lon="11.7391489"><ele>502.0</ele><time>2026-04-19T06:42:08.863Z</time></trkpt><trkpt lat="43.1378673" lon="11.7392452"><ele>501.0</ele><time>2026-04-19T06:42:09.863Z</time></trkpt><trkpt lat="43.1377952" lon="11.7393343"><ele>500.0</ele><time>2026-04-19T06:42:10.863Z</time></trkpt><trkpt lat="43.1377341" lon="11.7394183"><ele>499.49999999999994</ele><time>2026-04-19T06:42:11.863Z</time></trkpt><trkpt lat="43.1376834" lon="11.7394769"><ele>499.0</ele><time>2026-04-19T06:42:12.863Z</time></trkpt><trkpt lat="43.1376241" lon="11.739519"><ele>498.5</ele><time>2026-04-19T06:42:13.863Z</time></trkpt><trkpt lat="43.1375406" lon="11.7395487"><ele>498.0</ele><time>2026-04-19T06:42:14.863Z</time></trkpt><trkpt lat="43.1374438" lon="11.7395827"><ele>497.49999999999994</ele><time>2026-04-19T06:42:15.863Z</time></trkpt><trkpt lat="43.1373438" lon="11.7396245"><ele>497.0</ele><time>2026-04-19T06:42:16.863Z</time></trkpt><trkpt lat="43.1372504" lon="11.739674"><ele>496.16666666666663</ele><time>2026-04-19T06:42:17.863Z</time></trkpt><trkpt lat="43.1371682" lon="11.7397263"><ele>495.3333333333333</ele><time>2026-04-19T06:42:18.863Z</time></trkpt><trkpt lat="43.1371049" lon="11.7397541"><ele>494.5</ele><time>2026-04-19T06:42:19.863Z</time></trkpt><trkpt lat="43.1369901" lon="11.7396964"><ele>493.66666666666663</ele><time>2026-04-19T06:42:21.863Z</time></trkpt><trkpt lat="43.1369295" lon="11.7396313"><ele>492.8333333333333</ele><time>2026-04-19T06:42:22.864Z</time></trkpt><trkpt lat="43.1368726" lon="11.7395733"><ele>492.0</ele><time>2026-04-19T06:42:23.863Z</time></trkpt><trkpt lat="43.1367788" lon="11.7395399"><ele>492.0</ele><time>2026-04-19T06:42:25.863Z</time></trkpt><trkpt lat="43.1366896" lon="11.739553"><ele>492.00000000000006</ele><time>2026-04-19T06:42:27.863Z</time></trkpt><trkpt lat="43.136587" lon="11.7395852"><ele>492.00000000000006</ele><time>2026-04-19T06:42:29.863Z</time></trkpt><trkpt lat="43.1365094" lon="11.7396611"><ele>492.0</ele><time>2026-04-19T06:42:31.863Z</time></trkpt><trkpt lat="43.1364161" lon="11.7397015"><ele>492.0</ele><time>2026-04-19T06:42:33.863Z</time></trkpt><trkpt lat="43.1363311" lon="11.7397683"><ele>492.20000000000005</ele><time>2026-04-19T06:42:35.863Z</time></trkpt><trkpt lat="43.136215" lon="11.7398401"><ele>492.40000000000003</ele><time>2026-04-19T06:42:37.864Z</time></trkpt><trkpt lat="43.1361524" lon="11.7398831"><ele>492.59999999999997</ele><time>2026-04-19T06:42:38.863Z</time></trkpt><trkpt lat="43.1360845" lon="11.7399315"><ele>492.79999999999995</ele><time>2026-04-19T06:42:39.863Z</time></trkpt><trkpt lat="43.1360036" lon="11.739953"><ele>493.0</ele><time>2026-04-19T06:42:40.864Z</time></trkpt><trkpt lat="43.1359018" lon="11.7399679"><ele>493.00000000000006</ele><time>2026-04-19T06:42:41.864Z</time></trkpt><trkpt lat="43.1358042" lon="11.7399653"><ele>493.0</ele><time>2026-04-19T06:42:42.863Z</time></trkpt><trkpt lat="43.1357128" lon="11.7399605"><ele>493.0</ele><time>2026-04-19T06:42:43.863Z</time></trkpt><trkpt lat="43.1356299" lon="11.7399633"><ele>493.0</ele><time>2026-04-19T06:42:44.863Z</time></trkpt><trkpt lat="43.1355543" lon="11.739979"><ele>493.00000000000006</ele><time>2026-04-19T06:42:45.863Z</time></trkpt><trkpt lat="43.1354821" lon="11.7399738"><ele>493.0</ele><time>2026-04-19T06:42:46.863Z</time></trkpt><trkpt lat="43.135407" lon="11.7399645"><ele>492.1666666666667</ele><time>2026-04-19T06:42:47.863Z</time></trkpt><trkpt lat="43.1353344" lon="11.7399765"><ele>491.33333333333337</ele><time>2026-04-19T06:42:48.863Z</time></trkpt><trkpt lat="43.13527" lon="11.7399936"><ele>490.5</ele><time>2026-04-19T06:42:49.863Z</time></trkpt><trkpt lat="43.1352066" lon="11.7400027"><ele>489.66666666666663</ele><time>2026-04-19T06:42:50.863Z</time></trkpt><trkpt lat="43.1350926" lon="11.7400327"><ele>488.8333333333333</ele><time>2026-04-19T06:42:52.863Z</time></trkpt><trkpt lat="43.1349696" lon="11.7400168"><ele>488.0</ele><time>2026-04-19T06:42:54.864Z</time></trkpt><trkpt lat="43.1349034" lon="11.7399704"><ele>486.2</ele><time>2026-04-19T06:42:55.863Z</time></trkpt><trkpt lat="43.1348465" lon="11.7399158"><ele>484.4</ele><time>2026-04-19T06:42:56.863Z</time></trkpt><trkpt lat="43.1347629" lon="11.7398196"><ele>482.59999999999997</ele><time>2026-04-19T06:42:58.863Z</time></trkpt><trkpt lat="43.1346805" lon="11.7397683"><ele>480.79999999999995</ele><time>2026-04-19T06:43:00.863Z</time></trkpt><trkpt lat="43.1345761" lon="11.7398283"><ele>479.0</ele><time>2026-04-19T06:43:02.863Z</time></trkpt><trkpt lat="43.1344804" lon="11.7398727"><ele>479.0</ele><time>2026-04-19T06:43:04.863Z</time></trkpt><trkpt lat="43.1344129" lon="11.7400003"><ele>479.0</ele><time>2026-04-19T06:43:06.863Z</time></trkpt><trkpt lat="43.1343508" lon="11.7401264"><ele>479.0</ele><time>2026-04-19T06:43:08.863Z</time></trkpt><trkpt lat="43.134277" lon="11.7402409"><ele>479.0</ele><time>2026-04-19T06:43:10.864Z</time></trkpt><trkpt lat="43.1342123" lon="11.7403083"><ele>479.0</ele><time>2026-04-19T06:43:12.863Z</time></trkpt><trkpt lat="43.134131" lon="11.7402992"><ele>476.66666666666663</ele><time>2026-04-19T06:43:14.863Z</time></trkpt><trkpt lat="43.1340207" lon="11.7402435"><ele>474.3333333333333</ele><time>2026-04-19T06:43:16.864Z</time></trkpt><trkpt lat="43.1339615" lon="11.7402124"><ele>472.0</ele><time>2026-04-19T06:43:17.863Z</time></trkpt><trkpt lat="43.1339027" lon="11.7401713"><ele>469.66666666666663</ele><time>2026-04-19T06:43:18.864Z</time></trkpt><trkpt lat="43.1338422" lon="11.7401221"><ele>467.3333333333333</ele><time>2026-04-19T06:43:19.863Z</time></trkpt><trkpt lat="43.1337882" lon="11.7400419"><ele>465.0</ele><time>2026-04-19T06:43:20.863Z</time></trkpt><trkpt lat="43.1337498" lon="11.7399457"><ele>465.0</ele><time>2026-04-19T06:43:21.863Z</time></trkpt><trkpt lat="43.1337171" lon="11.7398286"><ele>465.0</ele><time>2026-04-19T06:43:22.863Z</time></trkpt><trkpt lat="43.1336611" lon="11.7396922"><ele>465.0</ele><time>2026-04-19T06:43:23.863Z</time></trkpt><trkpt lat="43.1336029" lon="11.739544"><ele>465.0</ele><time>2026-04-19T06:43:24.864Z</time></trkpt><trkpt lat="43.1335554" lon="11.739412"><ele>465.0</ele><time>2026-04-19T06:43:25.863Z</time></trkpt><trkpt lat="43.1335154" lon="11.7392991"><ele>464.8333333333333</ele><time>2026-04-19T06:43:26.863Z</time></trkpt><trkpt lat="43.1334778" lon="11.7392181"><ele>464.66666666666663</ele><time>2026-04-19T06:43:27.864Z</time></trkpt><trkpt lat="43.1334342" lon="11.7391366"><ele>464.5</ele><time>2026-04-19T06:43:28.863Z</time></trkpt><trkpt lat="43.1333798" lon="11.7390523"><ele>464.3333333333333</ele><time>2026-04-19T06:43:29.863Z</time></trkpt><trkpt lat="43.1333218" lon="11.7389903"><ele>464.16666666666663</ele><time>2026-04-19T06:43:30.863Z</time></trkpt><trkpt lat="43.1332443" lon="11.7389021"><ele>464.0</ele><time>2026-04-19T06:43:32.863Z</time></trkpt><trkpt lat="43.1332049" lon="11.7387774"><ele>464.0</ele><time>2026-04-19T06:43:34.864Z</time></trkpt><trkpt lat="43.1331799" lon="11.7386524"><ele>464.0</ele><time>2026-04-19T06:43:36.863Z</time></trkpt><trkpt lat="43.1331379" lon="11.7385402"><ele>464.0</ele><time>2026-04-19T06:43:38.864Z</time></trkpt><trkpt lat="43.1330218" lon="11.7384581"><ele>464.0</ele><time>2026-04-19T06:43:40.863Z</time></trkpt><trkpt lat="43.1329585" lon="11.7384063"><ele>464.0</ele><time>2026-04-19T06:43:41.863Z</time></trkpt><trkpt lat="43.1328973" lon="11.7383555"><ele>464.8333333333333</ele><time>2026-04-19T06:43:42.863Z</time></trkpt><trkpt lat="43.1328348" lon="11.7383129"><ele>465.66666666666663</ele><time>2026-04-19T06:43:43.863Z</time></trkpt><trkpt lat="43.1327336" lon="11.7382428"><ele>466.5</ele><time>2026-04-19T06:43:45.864Z</time></trkpt><trkpt lat="43.1326204" lon="11.738243"><ele>467.33333333333337</ele><time>2026-04-19T06:43:47.863Z</time></trkpt><trkpt lat="43.1325547" lon="11.7382699"><ele>468.1666666666667</ele><time>2026-04-19T06:43:48.863Z</time></trkpt><trkpt lat="43.1324905" lon="11.7383302"><ele>469.0</ele><time>2026-04-19T06:43:49.864Z</time></trkpt><trkpt lat="43.1324383" lon="11.7384171"><ele>468.0</ele><time>2026-04-19T06:43:50.863Z</time></trkpt><trkpt lat="43.1324008" lon="11.7385536"><ele>467.0</ele><time>2026-04-19T06:43:51.864Z</time></trkpt><trkpt lat="43.1323686" lon="11.7387111"><ele>466.0</ele><time>2026-04-19T06:43:52.864Z</time></trkpt><trkpt lat="43.1323505" lon="11.7388244"><ele>465.0</ele><time>2026-04-19T06:43:53.863Z</time></trkpt><trkpt lat="43.1323206" lon="11.738924"><ele>464.0</ele><time>2026-04-19T06:43:55.863Z</time></trkpt><trkpt lat="43.1322611" lon="11.7388656"><ele>468.49999999999994</ele><time>2026-04-19T06:44:04.863Z</time></trkpt><trkpt lat="43.1322489" lon="11.7387646"><ele>473.0</ele><time>2026-04-19T06:44:05.863Z</time></trkpt><trkpt lat="43.1322373" lon="11.7386381"><ele>477.5</ele><time>2026-04-19T06:44:06.863Z</time></trkpt><trkpt lat="43.1322273" lon="11.7385026"><ele>482.0</ele><time>2026-04-19T06:44:07.863Z</time></trkpt><trkpt lat="43.132218" lon="11.7383709"><ele>486.49999999999994</ele><time>2026-04-19T06:44:08.863Z</time></trkpt><trkpt lat="43.1321949" lon="11.7382707"><ele>491.0</ele><time>2026-04-19T06:44:09.863Z</time></trkpt><trkpt lat="43.1321657" lon="11.7381778"><ele>492.3333333333333</ele><time>2026-04-19T06:44:10.863Z</time></trkpt><trkpt lat="43.132116" lon="11.7380748"><ele>493.66666666666663</ele><time>2026-04-19T06:44:11.863Z</time></trkpt><trkpt lat="43.1320669" lon="11.7379759"><ele>495.0</ele><time>2026-04-19T06:44:12.863Z</time></trkpt><trkpt lat="43.132032" lon="11.7378786"><ele>496.33333333333337</ele><time>2026-04-19T06:44:13.863Z</time></trkpt><trkpt lat="43.132008" lon="11.7377909"><ele>497.6666666666667</ele><time>2026-04-19T06:44:14.863Z</time></trkpt><trkpt lat="43.1319617" lon="11.7376415"><ele>499.0</ele><time>2026-04-19T06:44:16.863Z</time></trkpt><trkpt lat="43.1319231" lon="11.7375306"><ele>499.1666666666667</ele><time>2026-04-19T06:44:17.863Z</time></trkpt><trkpt lat="43.1318865" lon="11.7374149"><ele>499.33333333333337</ele><time>2026-04-19T06:44:18.863Z</time></trkpt><trkpt lat="43.1318561" lon="11.7373062"><ele>499.5</ele><time>2026-04-19T06:44:19.863Z</time></trkpt><trkpt lat="43.1318313" lon="11.7371907"><ele>499.66666666666663</ele><time>2026-04-19T06:44:20.863Z</time></trkpt><trkpt lat="43.1318091" lon="11.7370753"><ele>499.8333333333333</ele><time>2026-04-19T06:44:21.863Z</time></trkpt><trkpt lat="43.1317831" lon="11.7369548"><ele>500.0</ele><time>2026-04-19T06:44:22.863Z</time></trkpt><trkpt lat="43.1317676" lon="11.7368463"><ele>499.99999999999994</ele><time>2026-04-19T06:44:23.863Z</time></trkpt><trkpt lat="43.131751" lon="11.7367414"><ele>500.0</ele><time>2026-04-19T06:44:24.863Z</time></trkpt><trkpt lat="43.1317209" lon="11.736627"><ele>500.0</ele><time>2026-04-19T06:44:25.863Z</time></trkpt><trkpt lat="43.1316822" lon="11.7365206"><ele>500.0</ele><time>2026-04-19T06:44:26.863Z</time></trkpt><trkpt lat="43.1316522" lon="11.7364156"><ele>499.99999999999994</ele><time>2026-04-19T06:44:27.863Z</time></trkpt><trkpt lat="43.1316329" lon="11.7363141"><ele>500.0</ele><time>2026-04-19T06:44:28.864Z</time></trkpt><trkpt lat="43.1316262" lon="11.7362241"><ele>499.99999999999994</ele><time>2026-04-19T06:44:29.863Z</time></trkpt><trkpt lat="43.1316156" lon="11.7361305"><ele>500.0</ele><time>2026-04-19T06:44:30.864Z</time></trkpt><trkpt lat="43.1316138" lon="11.7360297"><ele>500.0</ele><time>2026-04-19T06:44:31.863Z</time></trkpt><trkpt lat="43.1316221" lon="11.7359159"><ele>500.0</ele><time>2026-04-19T06:44:32.863Z</time></trkpt><trkpt lat="43.1316496" lon="11.735773"><ele>499.99999999999994</ele><time>2026-04-19T06:44:33.863Z</time></trkpt><trkpt lat="43.1316858" lon="11.7356369"><ele>500.0</ele><time>2026-04-19T06:44:34.863Z</time></trkpt><trkpt lat="43.1317355" lon="11.7355267"><ele>500.0</ele><time>2026-04-19T06:44:35.863Z</time></trkpt><trkpt lat="43.1317965" lon="11.7354409"><ele>500.0</ele><time>2026-04-19T06:44:36.863Z</time></trkpt><trkpt lat="43.1318543" lon="11.7353569"><ele>500.0</ele><time>2026-04-19T06:44:37.863Z</time></trkpt><trkpt lat="43.1319005" lon="11.7352427"><ele>500.0</ele><time>2026-04-19T06:44:38.863Z</time></trkpt><trkpt lat="43.1319468" lon="11.735121"><ele>500.0</ele><time>2026-04-19T06:44:39.864Z</time></trkpt><trkpt lat="43.1319829" lon="11.7349953"><ele>500.2</ele><time>2026-04-19T06:44:40.863Z</time></trkpt><trkpt lat="43.1320097" lon="11.7348673"><ele>500.4</ele><time>2026-04-19T06:44:41.863Z</time></trkpt><trkpt lat="43.1320381" lon="11.7347384"><ele>500.6</ele><time>2026-04-19T06:44:42.863Z</time></trkpt><trkpt lat="43.1320609" lon="11.7345981"><ele>500.8</ele><time>2026-04-19T06:44:43.864Z</time></trkpt><trkpt lat="43.1320829" lon="11.7344484"><ele>501.0</ele><time>2026-04-19T06:44:44.863Z</time></trkpt><trkpt lat="43.1321143" lon="11.7342951"><ele>500.0</ele><time>2026-04-19T06:44:45.863Z</time></trkpt><trkpt lat="43.1321464" lon="11.7341374"><ele>499.0</ele><time>2026-04-19T06:44:46.863Z</time></trkpt><trkpt lat="43.1321667" lon="11.7340042"><ele>498.0</ele><time>2026-04-19T06:44:47.863Z</time></trkpt><trkpt lat="43.1321693" lon="11.7338803"><ele>497.0</ele><time>2026-04-19T06:44:48.863Z</time></trkpt><trkpt lat="43.1321609" lon="11.733768"><ele>496.0</ele><time>2026-04-19T06:44:49.863Z</time></trkpt><trkpt lat="43.1321573" lon="11.7336592"><ele>496.00000000000006</ele><time>2026-04-19T06:44:50.863Z</time></trkpt><trkpt lat="43.1321539" lon="11.7335589"><ele>496.0</ele><time>2026-04-19T06:44:51.864Z</time></trkpt><trkpt lat="43.1321464" lon="11.7334514"><ele>496.0</ele><time>2026-04-19T06:44:52.863Z</time></trkpt><trkpt lat="43.1321309" lon="11.7333445"><ele>496.0</ele><time>2026-04-19T06:44:53.863Z</time></trkpt><trkpt lat="43.13212" lon="11.7332272"><ele>496.00000000000006</ele><time>2026-04-19T06:44:54.863Z</time></trkpt><trkpt lat="43.1321018" lon="11.7331187"><ele>496.0</ele><time>2026-04-19T06:44:55.863Z</time></trkpt><trkpt lat="43.132082" lon="11.7330036"><ele>495.6</ele><time>2026-04-19T06:44:56.863Z</time></trkpt><trkpt lat="43.1320554" lon="11.7328982"><ele>495.20000000000005</ele><time>2026-04-19T06:44:57.864Z</time></trkpt><trkpt lat="43.1320242" lon="11.7327866"><ele>494.79999999999995</ele><time>2026-04-19T06:44:58.863Z</time></trkpt><trkpt lat="43.1319788" lon="11.7326725"><ele>494.4</ele><time>2026-04-19T06:44:59.863Z</time></trkpt><trkpt lat="43.1319317" lon="11.7325448"><ele>494.0</ele><time>2026-04-19T06:45:00.863Z</time></trkpt><trkpt lat="43.131884" lon="11.7324014"><ele>495.4</ele><time>2026-04-19T06:45:01.864Z</time></trkpt><trkpt lat="43.131844" lon="11.7322566"><ele>496.79999999999995</ele><time>2026-04-19T06:45:02.864Z</time></trkpt><trkpt lat="43.1318202" lon="11.7321142"><ele>498.20000000000005</ele><time>2026-04-19T06:45:03.864Z</time></trkpt><trkpt lat="43.1318076" lon="11.7319839"><ele>499.6</ele><time>2026-04-19T06:45:04.864Z</time></trkpt><trkpt lat="43.1318294" lon="11.7318719"><ele>501.0</ele><time>2026-04-19T06:45:05.865Z</time></trkpt><trkpt lat="43.1318966" lon="11.7317884"><ele>502.75</ele><time>2026-04-19T06:45:06.864Z</time></trkpt><trkpt lat="43.1319842" lon="11.7316979"><ele>504.5</ele><time>2026-04-19T06:45:07.864Z</time></trkpt><trkpt lat="43.132101" lon="11.7316309"><ele>506.25</ele><time>2026-04-19T06:45:08.864Z</time></trkpt><trkpt lat="43.1322164" lon="11.7315803"><ele>508.0</ele><time>2026-04-19T06:45:09.864Z</time></trkpt><trkpt lat="43.1323215" lon="11.7315368"><ele>506.79999999999995</ele><time>2026-04-19T06:45:10.865Z</time></trkpt><trkpt lat="43.1324155" lon="11.7314946"><ele>505.59999999999997</ele><time>2026-04-19T06:45:11.864Z</time></trkpt><trkpt lat="43.1325042" lon="11.7314302"><ele>504.40000000000003</ele><time>2026-04-19T06:45:12.865Z</time></trkpt><trkpt lat="43.1325814" lon="11.7313464"><ele>503.20000000000005</ele><time>2026-04-19T06:45:13.864Z</time></trkpt><trkpt lat="43.1326465" lon="11.7312432"><ele>502.0</ele><time>2026-04-19T06:45:14.864Z</time></trkpt><trkpt lat="43.1327107" lon="11.7311279"><ele>504.20000000000005</ele><time>2026-04-19T06:45:15.864Z</time></trkpt><trkpt lat="43.1327646" lon="11.7310258"><ele>506.40000000000003</ele><time>2026-04-19T06:45:16.864Z</time></trkpt><trkpt lat="43.1328122" lon="11.730925"><ele>508.59999999999997</ele><time>2026-04-19T06:45:17.865Z</time></trkpt><trkpt lat="43.1328694" lon="11.7308148"><ele>510.79999999999995</ele><time>2026-04-19T06:45:18.864Z</time></trkpt><trkpt lat="43.1329241" lon="11.7306994"><ele>513.0</ele><time>2026-04-19T06:45:19.864Z</time></trkpt><trkpt lat="43.1329824" lon="11.7305814"><ele>513.0</ele><time>2026-04-19T06:45:20.864Z</time></trkpt><trkpt lat="43.1330397" lon="11.7304602"><ele>513.0</ele><time>2026-04-19T06:45:21.864Z</time></trkpt><trkpt lat="43.1330875" lon="11.7303447"><ele>513.0</ele><time>2026-04-19T06:45:22.864Z</time></trkpt><trkpt lat="43.1331331" lon="11.7302339"><ele>513.0</ele><time>2026-04-19T06:45:23.865Z</time></trkpt><trkpt lat="43.1331807" lon="11.7301298"><ele>513.0</ele><time>2026-04-19T06:45:24.864Z</time></trkpt><trkpt lat="43.1332468" lon="11.7300329"><ele>512.8333333333334</ele><time>2026-04-19T06:45:25.864Z</time></trkpt><trkpt lat="43.1333164" lon="11.7299494"><ele>512.6666666666666</ele><time>2026-04-19T06:45:26.864Z</time></trkpt><trkpt lat="43.1333815" lon="11.7298829"><ele>512.5</ele><time>2026-04-19T06:45:27.864Z</time></trkpt><trkpt lat="43.1334347" lon="11.72983"><ele>512.3333333333333</ele><time>2026-04-19T06:45:28.865Z</time></trkpt><trkpt lat="43.1334911" lon="11.7297878"><ele>512.1666666666666</ele><time>2026-04-19T06:45:29.865Z</time></trkpt><trkpt lat="43.1335572" lon="11.7297552"><ele>512.0</ele><time>2026-04-19T06:45:30.864Z</time></trkpt><trkpt lat="43.13363" lon="11.7297262"><ele>511.99999999999994</ele><time>2026-04-19T06:45:31.864Z</time></trkpt><trkpt lat="43.1337129" lon="11.7296848"><ele>512.0</ele><time>2026-04-19T06:45:32.864Z</time></trkpt><trkpt lat="43.1337925" lon="11.7296524"><ele>512.0</ele><time>2026-04-19T06:45:33.864Z</time></trkpt><trkpt lat="43.1338646" lon="11.7296307"><ele>512.0</ele><time>2026-04-19T06:45:34.864Z</time></trkpt><trkpt lat="43.1339717" lon="11.7295895"><ele>511.99999999999994</ele><time>2026-04-19T06:45:36.864Z</time></trkpt><trkpt lat="43.1340338" lon="11.7295658"><ele>512.0</ele><time>2026-04-19T06:45:38.864Z</time></trkpt><trkpt lat="43.1341141" lon="11.7295231"><ele>512.6</ele><time>2026-04-19T06:45:40.864Z</time></trkpt><trkpt lat="43.1341708" lon="11.7294035"><ele>513.2</ele><time>2026-04-19T06:45:42.864Z</time></trkpt><trkpt lat="43.1341499" lon="11.729233"><ele>513.8</ele><time>2026-04-19T06:45:44.864Z</time></trkpt><trkpt lat="43.1341372" lon="11.729138"><ele>514.4</ele><time>2026-04-19T06:45:45.865Z</time></trkpt><trkpt lat="43.1341256" lon="11.7290326"><ele>515.0</ele><time>2026-04-19T06:45:46.864Z</time></trkpt><trkpt lat="43.1341167" lon="11.7289124"><ele>515.0</ele><time>2026-04-19T06:45:47.864Z</time></trkpt><trkpt lat="43.1341049" lon="11.728787"><ele>515.0</ele><time>2026-04-19T06:45:48.865Z</time></trkpt><trkpt lat="43.1340966" lon="11.7286657"><ele>515.0</ele><time>2026-04-19T06:45:49.864Z</time></trkpt><trkpt lat="43.1340915" lon="11.7285401"><ele>515.0</ele><time>2026-04-19T06:45:50.864Z</time></trkpt><trkpt lat="43.13409" lon="11.7284142"><ele>515.0</ele><time>2026-04-19T06:45:51.865Z</time></trkpt><trkpt lat="43.1340976" lon="11.7282873"><ele>514.8</ele><time>2026-04-19T06:45:52.864Z</time></trkpt><trkpt lat="43.1341122" lon="11.728157"><ele>514.6</ele><time>2026-04-19T06:45:53.864Z</time></trkpt><trkpt lat="43.1341301" lon="11.7280205"><ele>514.4</ele><time>2026-04-19T06:45:54.864Z</time></trkpt><trkpt lat="43.1341482" lon="11.7278769"><ele>514.2</ele><time>2026-04-19T06:45:55.864Z</time></trkpt><trkpt lat="43.1341622" lon="11.7277294"><ele>514.0</ele><time>2026-04-19T06:45:56.864Z</time></trkpt><trkpt lat="43.1341692" lon="11.7275849"><ele>514.0</ele><time>2026-04-19T06:45:57.864Z</time></trkpt><trkpt lat="43.1341763" lon="11.727436"><ele>514.0</ele><time>2026-04-19T06:45:58.864Z</time></trkpt><trkpt lat="43.1341815" lon="11.7272873"><ele>514.0</ele><time>2026-04-19T06:45:59.864Z</time></trkpt><trkpt lat="43.1341779" lon="11.7271571"><ele>514.0</ele><time>2026-04-19T06:46:00.864Z</time></trkpt><trkpt lat="43.1341721" lon="11.7270279"><ele>514.0</ele><time>2026-04-19T06:46:01.864Z</time></trkpt><trkpt lat="43.1341589" lon="11.7268951"><ele>513.0</ele><time>2026-04-19T06:46:02.864Z</time></trkpt><trkpt lat="43.1341507" lon="11.7267625"><ele>512.0</ele><time>2026-04-19T06:46:03.864Z</time></trkpt><trkpt lat="43.1341408" lon="11.7266289"><ele>511.0</ele><time>2026-04-19T06:46:04.864Z</time></trkpt><trkpt lat="43.1341304" lon="11.7264959"><ele>510.0</ele><time>2026-04-19T06:46:05.864Z</time></trkpt><trkpt lat="43.134128" lon="11.7263584"><ele>509.0</ele><time>2026-04-19T06:46:06.864Z</time></trkpt><trkpt lat="43.1341291" lon="11.7262265"><ele>509.0</ele><time>2026-04-19T06:46:07.864Z</time></trkpt><trkpt lat="43.1341265" lon="11.7260904"><ele>509.0</ele><time>2026-04-19T06:46:08.864Z</time></trkpt><trkpt lat="43.134126" lon="11.7259552"><ele>509.0</ele><time>2026-04-19T06:46:09.864Z</time></trkpt><trkpt lat="43.1341257" lon="11.7258188"><ele>509.0</ele><time>2026-04-19T06:46:10.864Z</time></trkpt><trkpt lat="43.1341179" lon="11.7256873"><ele>509.0</ele><time>2026-04-19T06:46:11.864Z</time></trkpt><trkpt lat="43.1341086" lon="11.7255489"><ele>507.79999999999995</ele><time>2026-04-19T06:46:12.864Z</time></trkpt><trkpt lat="43.1341005" lon="11.7254221"><ele>506.59999999999997</ele><time>2026-04-19T06:46:13.864Z</time></trkpt><trkpt lat="43.1340763" lon="11.725297"><ele>505.4</ele><time>2026-04-19T06:46:14.864Z</time></trkpt><trkpt lat="43.134042" lon="11.7251742"><ele>504.2</ele><time>2026-04-19T06:46:15.864Z</time></trkpt><trkpt lat="43.1339936" lon="11.7250574"><ele>503.0</ele><time>2026-04-19T06:46:16.864Z</time></trkpt><trkpt lat="43.1339402" lon="11.7249517"><ele>502.59999999999997</ele><time>2026-04-19T06:46:17.864Z</time></trkpt><trkpt lat="43.1338777" lon="11.7248587"><ele>502.19999999999993</ele><time>2026-04-19T06:46:18.864Z</time></trkpt><trkpt lat="43.1338156" lon="11.7247675"><ele>501.8</ele><time>2026-04-19T06:46:19.864Z</time></trkpt><trkpt lat="43.1337485" lon="11.7246691"><ele>501.4</ele><time>2026-04-19T06:46:20.865Z</time></trkpt><trkpt lat="43.1336733" lon="11.7245649"><ele>501.0</ele><time>2026-04-19T06:46:21.864Z</time></trkpt><trkpt lat="43.1335954" lon="11.7244526"><ele>500.0</ele><time>2026-04-19T06:46:22.865Z</time></trkpt><trkpt lat="43.1335308" lon="11.7243228"><ele>499.0</ele><time>2026-04-19T06:46:23.864Z</time></trkpt><trkpt lat="43.133483" lon="11.7241859"><ele>498.0</ele><time>2026-04-19T06:46:24.865Z</time></trkpt><trkpt lat="43.1334506" lon="11.7240443"><ele>497.0</ele><time>2026-04-19T06:46:25.864Z</time></trkpt><trkpt lat="43.1334365" lon="11.7239111"><ele>496.0</ele><time>2026-04-19T06:46:26.864Z</time></trkpt><trkpt lat="43.1334237" lon="11.7237658"><ele>496.0</ele><time>2026-04-19T06:46:27.865Z</time></trkpt><trkpt lat="43.1334157" lon="11.7236121"><ele>496.0</ele><time>2026-04-19T06:46:28.864Z</time></trkpt><trkpt lat="43.1334163" lon="11.7234512"><ele>496.0</ele><time>2026-04-19T06:46:29.864Z</time></trkpt><trkpt lat="43.1334181" lon="11.7232905"><ele>496.0</ele><time>2026-04-19T06:46:30.864Z</time></trkpt><trkpt lat="43.1334249" lon="11.7231295"><ele>495.25</ele><time>2026-04-19T06:46:31.864Z</time></trkpt><trkpt lat="43.1334325" lon="11.7229727"><ele>494.5</ele><time>2026-04-19T06:46:32.865Z</time></trkpt><trkpt lat="43.1334366" lon="11.7228052"><ele>493.75</ele><time>2026-04-19T06:46:33.864Z</time></trkpt><trkpt lat="43.1334383" lon="11.7226372"><ele>493.0</ele><time>2026-04-19T06:46:34.864Z</time></trkpt><trkpt lat="43.1334375" lon="11.7224725"><ele>492.4</ele><time>2026-04-19T06:46:35.864Z</time></trkpt><trkpt lat="43.1334314" lon="11.7223262"><ele>491.79999999999995</ele><time>2026-04-19T06:46:36.864Z</time></trkpt><trkpt lat="43.1334186" lon="11.7221814"><ele>491.2</ele><time>2026-04-19T06:46:37.864Z</time></trkpt><trkpt lat="43.1333907" lon="11.7220381"><ele>490.6</ele><time>2026-04-19T06:46:38.864Z</time></trkpt><trkpt lat="43.133349" lon="11.7218984"><ele>490.0</ele><time>2026-04-19T06:46:39.865Z</time></trkpt><trkpt lat="43.1333006" lon="11.7217573"><ele>489.6</ele><time>2026-04-19T06:46:40.864Z</time></trkpt><trkpt lat="43.1332486" lon="11.7216188"><ele>489.2</ele><time>2026-04-19T06:46:41.864Z</time></trkpt><trkpt lat="43.1331974" lon="11.7214876"><ele>488.79999999999995</ele><time>2026-04-19T06:46:42.865Z</time></trkpt><trkpt lat="43.1331567" lon="11.7213631"><ele>488.4</ele><time>2026-04-19T06:46:43.864Z</time></trkpt><trkpt lat="43.133118" lon="11.7212438"><ele>488.0</ele><time>2026-04-19T06:46:44.864Z</time></trkpt><trkpt lat="43.1330861" lon="11.7211458"><ele>487.0</ele><time>2026-04-19T06:46:45.864Z</time></trkpt><trkpt lat="43.133055" lon="11.7210659"><ele>485.99999999999994</ele><time>2026-04-19T06:46:46.865Z</time></trkpt><trkpt lat="43.1329814" lon="11.7209646"><ele>484.99999999999994</ele><time>2026-04-19T06:46:48.864Z</time></trkpt><trkpt lat="43.1328586" lon="11.7209071"><ele>484.0</ele><time>2026-04-19T06:46:50.865Z</time></trkpt><trkpt lat="43.1327824" lon="11.7208715"><ele>483.0</ele><time>2026-04-19T06:46:51.865Z</time></trkpt><trkpt lat="43.1327138" lon="11.7208358"><ele>483.0</ele><time>2026-04-19T06:46:52.865Z</time></trkpt><trkpt lat="43.1326434" lon="11.7207925"><ele>483.0</ele><time>2026-04-19T06:46:53.865Z</time></trkpt><trkpt lat="43.1325781" lon="11.7207493"><ele>483.0</ele><time>2026-04-19T06:46:54.864Z</time></trkpt><trkpt lat="43.1325156" lon="11.720683"><ele>483.0</ele><time>2026-04-19T06:46:55.864Z</time></trkpt><trkpt lat="43.1324603" lon="11.720598"><ele>483.0</ele><time>2026-04-19T06:46:56.864Z</time></trkpt><trkpt lat="43.1324013" lon="11.7204994"><ele>483.0</ele><time>2026-04-19T06:46:57.864Z</time></trkpt><trkpt lat="43.1323511" lon="11.7203864"><ele>480.0</ele><time>2026-04-19T06:46:58.864Z</time></trkpt><trkpt lat="43.1323076" lon="11.7202488"><ele>477.0</ele><time>2026-04-19T06:46:59.865Z</time></trkpt><trkpt lat="43.1322541" lon="11.7200855"><ele>474.0</ele><time>2026-04-19T06:47:00.864Z</time></trkpt><trkpt lat="43.1322105" lon="11.7199255"><ele>471.0</ele><time>2026-04-19T06:47:01.864Z</time></trkpt><trkpt lat="43.1321736" lon="11.7197694"><ele>471.0</ele><time>2026-04-19T06:47:02.864Z</time></trkpt><trkpt lat="43.1321358" lon="11.7196072"><ele>471.0</ele><time>2026-04-19T06:47:03.864Z</time></trkpt><trkpt lat="43.1321029" lon="11.7194582"><ele>471.0</ele><time>2026-04-19T06:47:04.864Z</time></trkpt><trkpt lat="43.132062" lon="11.7193138"><ele>471.0</ele><time>2026-04-19T06:47:05.864Z</time></trkpt><trkpt lat="43.1320222" lon="11.7191893"><ele>471.6</ele><time>2026-04-19T06:47:06.864Z</time></trkpt><trkpt lat="43.1319717" lon="11.719062"><ele>472.20000000000005</ele><time>2026-04-19T06:47:07.864Z</time></trkpt><trkpt lat="43.1319059" lon="11.7189506"><ele>472.79999999999995</ele><time>2026-04-19T06:47:08.865Z</time></trkpt><trkpt lat="43.1318397" lon="11.7188626"><ele>473.4</ele><time>2026-04-19T06:47:09.864Z</time></trkpt><trkpt lat="43.131771" lon="11.7187982"><ele>474.0</ele><time>2026-04-19T06:47:10.864Z</time></trkpt><trkpt lat="43.1317141" lon="11.7187328"><ele>474.0</ele><time>2026-04-19T06:47:11.865Z</time></trkpt><trkpt lat="43.1316721" lon="11.7186438"><ele>474.0</ele><time>2026-04-19T06:47:12.865Z</time></trkpt><trkpt lat="43.1316567" lon="11.7185285"><ele>474.0</ele><time>2026-04-19T06:47:13.864Z</time></trkpt><trkpt lat="43.1316348" lon="11.7183922"><ele>474.0</ele><time>2026-04-19T06:47:14.864Z</time></trkpt><trkpt lat="43.1315939" lon="11.7182626"><ele>474.0</ele><time>2026-04-19T06:47:15.864Z</time></trkpt><trkpt lat="43.131545" lon="11.7181564"><ele>471.2</ele><time>2026-04-19T06:47:16.865Z</time></trkpt><trkpt lat="43.1314902" lon="11.718057"><ele>468.4</ele><time>2026-04-19T06:47:17.865Z</time></trkpt><trkpt lat="43.1314429" lon="11.7179219"><ele>465.6</ele><time>2026-04-19T06:47:18.865Z</time></trkpt><trkpt lat="43.1314039" lon="11.717764"><ele>462.8</ele><time>2026-04-19T06:47:19.864Z</time></trkpt><trkpt lat="43.1313669" lon="11.7176195"><ele>460.0</ele><time>2026-04-19T06:47:20.865Z</time></trkpt><trkpt lat="43.1313403" lon="11.7174883"><ele>459.6666666666667</ele><time>2026-04-19T06:47:21.864Z</time></trkpt><trkpt lat="43.1313173" lon="11.717371"><ele>459.33333333333337</ele><time>2026-04-19T06:47:22.864Z</time></trkpt><trkpt lat="43.1313033" lon="11.7172812"><ele>459.0</ele><time>2026-04-19T06:47:23.864Z</time></trkpt><trkpt lat="43.1312223" lon="11.7171582"><ele>458.66666666666663</ele><time>2026-04-19T06:47:25.864Z</time></trkpt><trkpt lat="43.1311546" lon="11.717116"><ele>458.3333333333333</ele><time>2026-04-19T06:47:26.864Z</time></trkpt><trkpt lat="43.1310887" lon="11.7170717"><ele>458.0</ele><time>2026-04-19T06:47:27.865Z</time></trkpt><trkpt lat="43.131021" lon="11.7170264"><ele>457.99999999999994</ele><time>2026-04-19T06:47:28.864Z</time></trkpt><trkpt lat="43.1309617" lon="11.716989"><ele>458.0</ele><time>2026-04-19T06:47:29.865Z</time></trkpt><trkpt lat="43.1309042" lon="11.7169501"><ele>458.0</ele><time>2026-04-19T06:47:30.864Z</time></trkpt><trkpt lat="43.130844" lon="11.7169242"><ele>458.0</ele><time>2026-04-19T06:47:31.864Z</time></trkpt><trkpt lat="43.1307543" lon="11.7168691"><ele>457.99999999999994</ele><time>2026-04-19T06:47:33.864Z</time></trkpt><trkpt lat="43.1307309" lon="11.7167556"><ele>458.0</ele><time>2026-04-19T06:47:35.864Z</time></trkpt><trkpt lat="43.1307143" lon="11.7165995"><ele>457.3333333333333</ele><time>2026-04-19T06:47:37.864Z</time></trkpt><trkpt lat="43.1307011" lon="11.7165142"><ele>456.66666666666663</ele><time>2026-04-19T06:47:38.864Z</time></trkpt><trkpt lat="43.1306593" lon="11.71636"><ele>456.0</ele><time>2026-04-19T06:47:40.864Z</time></trkpt><trkpt lat="43.1306845" lon="11.7162433"><ele>455.33333333333337</ele><time>2026-04-19T06:47:42.864Z</time></trkpt><trkpt lat="43.1307441" lon="11.7161906"><ele>454.6666666666667</ele><time>2026-04-19T06:47:44.865Z</time></trkpt><trkpt lat="43.1308311" lon="11.7162076"><ele>454.0</ele><time>2026-04-19T06:47:46.864Z</time></trkpt><trkpt lat="43.1309009" lon="11.7162297"><ele>454.0</ele><time>2026-04-19T06:47:47.865Z</time></trkpt><trkpt lat="43.1309609" lon="11.7162603"><ele>454.0</ele><time>2026-04-19T06:47:48.865Z</time></trkpt><trkpt lat="43.1310718" lon="11.7162919"><ele>454.0</ele><time>2026-04-19T06:47:50.864Z</time></trkpt><trkpt lat="43.1311409" lon="11.7162926"><ele>454.0</ele><time>2026-04-19T06:47:51.864Z</time></trkpt><trkpt lat="43.1312632" lon="11.7162849"><ele>454.0</ele><time>2026-04-19T06:47:53.864Z</time></trkpt><trkpt lat="43.1313756" lon="11.7162703"><ele>454.00000000000006</ele><time>2026-04-19T06:47:55.865Z</time></trkpt><trkpt lat="43.1313293" lon="11.7161452"><ele>454.0</ele><time>2026-04-19T06:47:59.864Z</time></trkpt><trkpt lat="43.1312418" lon="11.716086"><ele>454.0</ele><time>2026-04-19T06:48:01.864Z</time></trkpt><trkpt lat="43.1311807" lon="11.7159835"><ele>454.0</ele><time>2026-04-19T06:48:03.864Z</time></trkpt><trkpt lat="43.1311485" lon="11.7158954"><ele>454.00000000000006</ele><time>2026-04-19T06:48:04.864Z</time></trkpt><trkpt lat="43.1311156" lon="11.7158214"><ele>454.0</ele><time>2026-04-19T06:48:05.864Z</time></trkpt><trkpt lat="43.1310787" lon="11.7157487"><ele>451.79999999999995</ele><time>2026-04-19T06:48:06.864Z</time></trkpt><trkpt lat="43.1309927" lon="11.7156263"><ele>449.59999999999997</ele><time>2026-04-19T06:48:08.864Z</time></trkpt><trkpt lat="43.1309103" lon="11.7155944"><ele>447.4</ele><time>2026-04-19T06:48:09.864Z</time></trkpt><trkpt lat="43.1308082" lon="11.715583"><ele>445.2</ele><time>2026-04-19T06:48:10.864Z</time></trkpt><trkpt lat="43.1307046" lon="11.7155691"><ele>443.0</ele><time>2026-04-19T06:48:11.865Z</time></trkpt><trkpt lat="43.1306032" lon="11.7155495"><ele>440.8333333333333</ele><time>2026-04-19T06:48:12.864Z</time></trkpt><trkpt lat="43.1305256" lon="11.7154902"><ele>438.66666666666663</ele><time>2026-04-19T06:48:13.864Z</time></trkpt><trkpt lat="43.130464" lon="11.7154288"><ele>436.5</ele><time>2026-04-19T06:48:14.864Z</time></trkpt><trkpt lat="43.1304114" lon="11.7153628"><ele>434.33333333333337</ele><time>2026-04-19T06:48:15.864Z</time></trkpt><trkpt lat="43.130357" lon="11.7153178"><ele>432.1666666666667</ele><time>2026-04-19T06:48:16.864Z</time></trkpt><trkpt lat="43.1302658" lon="11.7152954"><ele>430.0</ele><time>2026-04-19T06:48:18.864Z</time></trkpt><trkpt lat="43.1302033" lon="11.7153339"><ele>430.0</ele><time>2026-04-19T06:48:21.864Z</time></trkpt><trkpt lat="43.1301391" lon="11.7153882"><ele>430.0</ele><time>2026-04-19T06:48:58.865Z</time></trkpt><trkpt lat="43.130122" lon="11.7153049"><ele>430.0</ele><time>2026-04-19T06:49:02.864Z</time></trkpt><trkpt lat="43.1300964" lon="11.7151974"><ele>430.0</ele><time>2026-04-19T06:49:05.864Z</time></trkpt><trkpt lat="43.1300302" lon="11.7151934"><ele>430.0</ele><time>2026-04-19T06:49:07.864Z</time></trkpt><trkpt lat="43.1299649" lon="11.7151879"><ele>430.0</ele><time>2026-04-19T06:49:09.865Z</time></trkpt><trkpt lat="43.1298876" lon="11.7151683"><ele>430.0</ele><time>2026-04-19T06:49:11.864Z</time></trkpt><trkpt lat="43.1298246" lon="11.7150892"><ele>429.1666666666667</ele><time>2026-04-19T06:49:14.864Z</time></trkpt><trkpt lat="43.1298527" lon="11.7149569"><ele>428.33333333333337</ele><time>2026-04-19T06:49:17.864Z</time></trkpt><trkpt lat="43.1298883" lon="11.7148344"><ele>427.5</ele><time>2026-04-19T06:49:19.865Z</time></trkpt><trkpt lat="43.1299142" lon="11.7147267"><ele>426.66666666666663</ele><time>2026-04-19T06:49:21.864Z</time></trkpt><trkpt lat="43.1298695" lon="11.7146586"><ele>425.8333333333333</ele><time>2026-04-19T06:49:23.864Z</time></trkpt><trkpt lat="43.1298003" lon="11.7145959"><ele>425.0</ele><time>2026-04-19T06:49:25.864Z</time></trkpt><trkpt lat="43.1297765" lon="11.7145007"><ele>426.66666666666663</ele><time>2026-04-19T06:49:27.864Z</time></trkpt><trkpt lat="43.1298147" lon="11.7143603"><ele>428.33333333333337</ele><time>2026-04-19T06:49:29.865Z</time></trkpt><trkpt lat="43.12982" lon="11.7142337"><ele>430.0</ele><time>2026-04-19T06:49:31.865Z</time></trkpt><trkpt lat="43.130122" lon="11.7153049"><ele>429.1666666666667</ele><time>2026-04-19T06:49:02.864Z</time></trkpt><trkpt lat="43.1300964" lon="11.7151974"><ele>428.33333333333337</ele><time>2026-04-19T06:49:05.864Z</time></trkpt><trkpt lat="43.1300302" lon="11.7151934"><ele>427.5</ele><time>2026-04-19T06:49:07.864Z</time></trkpt><trkpt lat="43.1299649" lon="11.7151879"><ele>426.66666666666663</ele><time>2026-04-19T06:49:09.865Z</time></trkpt><trkpt lat="43.1298876" lon="11.7151683"><ele>425.8333333333333</ele><time>2026-04-19T06:49:11.864Z</time></trkpt><trkpt lat="43.1298246" lon="11.7150892"><ele>425.0</ele><time>2026-04-19T06:49:14.864Z</time></trkpt><trkpt lat="43.1298527" lon="11.7149569"><ele>424.99999999999994</ele><time>2026-04-19T06:49:17.864Z</time></trkpt><trkpt lat="43.1298883" lon="11.7148344"><ele>425.0</ele><time>2026-04-19T06:49:19.865Z</time></trkpt><trkpt lat="43.1299142" lon="11.7147267"><ele>425.0</ele><time>2026-04-19T06:49:21.864Z</time></trkpt><trkpt lat="43.1298695" lon="11.7146586"><ele>425.0</ele><time>2026-04-19T06:49:23.864Z</time></trkpt><trkpt lat="43.1298003" lon="11.7145959"><ele>424.99999999999994</ele><time>2026-04-19T06:49:25.864Z</time></trkpt><trkpt lat="43.1297765" lon="11.7145007"><ele>425.0</ele><time>2026-04-19T06:49:27.864Z</time></trkpt><trkpt lat="43.1298147" lon="11.7143603"><ele>423.16666666666663</ele><time>2026-04-19T06:49:29.865Z</time></trkpt><trkpt lat="43.12982" lon="11.7142337"><ele>421.3333333333333</ele><time>2026-04-19T06:49:31.865Z</time></trkpt><trkpt lat="43.1297777" lon="11.7141622"><ele>419.5</ele><time>2026-04-19T06:49:34.864Z</time></trkpt><trkpt lat="43.1297218" lon="11.7140528"><ele>417.66666666666663</ele><time>2026-04-19T06:49:36.865Z</time></trkpt><trkpt lat="43.1296897" lon="11.7139546"><ele>415.8333333333333</ele><time>2026-04-19T06:49:37.865Z</time></trkpt><trkpt lat="43.129647" lon="11.713863"><ele>414.0</ele><time>2026-04-19T06:49:38.865Z</time></trkpt><trkpt lat="43.1296096" lon="11.713758"><ele>414.0</ele><time>2026-04-19T06:49:39.864Z</time></trkpt><trkpt lat="43.1295815" lon="11.7136593"><ele>414.0</ele><time>2026-04-19T06:49:40.864Z</time></trkpt><trkpt lat="43.1296066" lon="11.7135027"><ele>414.0</ele><time>2026-04-19T06:49:42.864Z</time></trkpt><trkpt lat="43.1296497" lon="11.713354"><ele>414.0</ele><time>2026-04-19T06:49:44.864Z</time></trkpt><trkpt lat="43.1296386" lon="11.7132656"><ele>414.0</ele><time>2026-04-19T06:49:45.864Z</time></trkpt><trkpt lat="43.1296325" lon="11.7131657"><ele>414.6666666666667</ele><time>2026-04-19T06:49:46.864Z</time></trkpt><trkpt lat="43.1296417" lon="11.713078"><ele>415.33333333333337</ele><time>2026-04-19T06:49:47.864Z</time></trkpt><trkpt lat="43.1296782" lon="11.7129515"><ele>416.0</ele><time>2026-04-19T06:49:49.864Z</time></trkpt><trkpt lat="43.1298058" lon="11.7129389"><ele>416.6666666666667</ele><time>2026-04-19T06:49:56.864Z</time></trkpt><trkpt lat="43.129879" lon="11.7129384"><ele>417.33333333333337</ele><time>2026-04-19T06:49:57.864Z</time></trkpt><trkpt lat="43.129946" lon="11.7129323"><ele>418.0</ele><time>2026-04-19T06:49:58.864Z</time></trkpt><trkpt lat="43.1300256" lon="11.7129412"><ele>418.0</ele><time>2026-04-19T06:49:59.864Z</time></trkpt><trkpt lat="43.1301222" lon="11.712956"><ele>418.0</ele><time>2026-04-19T06:50:00.864Z</time></trkpt><trkpt lat="43.1302284" lon="11.7129919"><ele>418.0</ele><time>2026-04-19T06:50:01.865Z</time></trkpt><trkpt lat="43.1303299" lon="11.7130639"><ele>418.0</ele><time>2026-04-19T06:50:02.865Z</time></trkpt><trkpt lat="43.130409" lon="11.7131549"><ele>418.0</ele><time>2026-04-19T06:50:03.864Z</time></trkpt><trkpt lat="43.1304872" lon="11.7132178"><ele>418.00000000000006</ele><time>2026-04-19T06:50:04.864Z</time></trkpt><trkpt lat="43.1305679" lon="11.7132224"><ele>418.0</ele><time>2026-04-19T06:50:05.865Z</time></trkpt><trkpt lat="43.1306502" lon="11.7132051"><ele>418.0</ele><time>2026-04-19T06:50:06.864Z</time></trkpt><trkpt lat="43.130731" lon="11.7131836"><ele>418.0</ele><time>2026-04-19T06:50:07.864Z</time></trkpt><trkpt lat="43.1308206" lon="11.7131395"><ele>418.00000000000006</ele><time>2026-04-19T06:50:08.864Z</time></trkpt><trkpt lat="43.1308933" lon="11.7131007"><ele>418.0</ele><time>2026-04-19T06:50:09.864Z</time></trkpt><trkpt lat="43.1309573" lon="11.7130846"><ele>420.6666666666667</ele><time>2026-04-19T06:50:10.864Z</time></trkpt><trkpt lat="43.1310674" lon="11.7131061"><ele>423.33333333333337</ele><time>2026-04-19T06:50:12.865Z</time></trkpt><trkpt lat="43.1311314" lon="11.7131115"><ele>426.0</ele><time>2026-04-19T06:50:13.864Z</time></trkpt><trkpt lat="43.1312295" lon="11.7131209"><ele>428.66666666666663</ele><time>2026-04-19T06:50:15.864Z</time></trkpt><trkpt lat="43.1312757" lon="11.713198"><ele>431.3333333333333</ele><time>2026-04-19T06:50:17.864Z</time></trkpt><trkpt lat="43.1312901" lon="11.7133105"><ele>434.0</ele><time>2026-04-19T06:50:18.864Z</time></trkpt><trkpt lat="43.1313184" lon="11.7134301"><ele>434.0</ele><time>2026-04-19T06:50:19.865Z</time></trkpt><trkpt lat="43.1313562" lon="11.7135432"><ele>434.0</ele><time>2026-04-19T06:50:20.864Z</time></trkpt><trkpt lat="43.1314122" lon="11.7136433"><ele>434.0</ele><time>2026-04-19T06:50:21.864Z</time></trkpt><trkpt lat="43.1314875" lon="11.713726"><ele>434.0</ele><time>2026-04-19T06:50:22.864Z</time></trkpt><trkpt lat="43.1315911" lon="11.7137917"><ele>434.0</ele><time>2026-04-19T06:50:23.864Z</time></trkpt><trkpt lat="43.1316888" lon="11.7138394"><ele>433.6</ele><time>2026-04-19T06:50:24.865Z</time></trkpt><trkpt lat="43.1317798" lon="11.713852"><ele>433.2</ele><time>2026-04-19T06:50:25.864Z</time></trkpt><trkpt lat="43.1318704" lon="11.7138492"><ele>432.80000000000007</ele><time>2026-04-19T06:50:26.864Z</time></trkpt><trkpt lat="43.1319571" lon="11.713832"><ele>432.40000000000003</ele><time>2026-04-19T06:50:27.865Z</time></trkpt><trkpt lat="43.1320525" lon="11.7138083"><ele>432.0</ele><time>2026-04-19T06:50:28.864Z</time></trkpt><trkpt lat="43.1321581" lon="11.7137901"><ele>432.0</ele><time>2026-04-19T06:50:29.864Z</time></trkpt><trkpt lat="43.1322541" lon="11.7137885"><ele>432.0</ele><time>2026-04-19T06:50:30.864Z</time></trkpt><trkpt lat="43.1323272" lon="11.7138119"><ele>432.0</ele><time>2026-04-19T06:50:31.864Z</time></trkpt><trkpt lat="43.1323976" lon="11.7138833"><ele>432.0</ele><time>2026-04-19T06:50:32.864Z</time></trkpt><trkpt lat="43.13247" lon="11.7139658"><ele>432.0</ele><time>2026-04-19T06:50:33.865Z</time></trkpt><trkpt lat="43.1325324" lon="11.714052"><ele>432.0</ele><time>2026-04-19T06:50:34.865Z</time></trkpt><trkpt lat="43.1325706" lon="11.7141337"><ele>433.8333333333333</ele><time>2026-04-19T06:50:35.864Z</time></trkpt><trkpt lat="43.1326425" lon="11.7142306"><ele>435.66666666666663</ele><time>2026-04-19T06:50:37.865Z</time></trkpt><trkpt lat="43.1327211" lon="11.7141947"><ele>437.5</ele><time>2026-04-19T06:50:38.864Z</time></trkpt><trkpt lat="43.132812" lon="11.7141381"><ele>439.3333333333333</ele><time>2026-04-19T06:50:39.864Z</time></trkpt><trkpt lat="43.1328895" lon="11.7140934"><ele>441.16666666666663</ele><time>2026-04-19T06:50:40.864Z</time></trkpt><trkpt lat="43.132967" lon="11.7140724"><ele>443.0</ele><time>2026-04-19T06:50:41.865Z</time></trkpt><trkpt lat="43.1330503" lon="11.7140607"><ele>443.0</ele><time>2026-04-19T06:50:42.864Z</time></trkpt><trkpt lat="43.1331275" lon="11.7140421"><ele>442.99999999999994</ele><time>2026-04-19T06:50:43.865Z</time></trkpt><trkpt lat="43.1331983" lon="11.7139859"><ele>442.99999999999994</ele><time>2026-04-19T06:50:44.864Z</time></trkpt><trkpt lat="43.1332593" lon="11.7138896"><ele>443.0</ele><time>2026-04-19T06:50:45.865Z</time></trkpt><trkpt lat="43.1333174" lon="11.7138254"><ele>443.0</ele><time>2026-04-19T06:50:46.864Z</time></trkpt><trkpt lat="43.1334349" lon="11.7138708"><ele>444.49999999999994</ele><time>2026-04-19T06:50:48.864Z</time></trkpt><trkpt lat="43.1335142" lon="11.7139427"><ele>446.0</ele><time>2026-04-19T06:50:49.864Z</time></trkpt><trkpt lat="43.1335833" lon="11.7140014"><ele>447.5</ele><time>2026-04-19T06:50:50.864Z</time></trkpt><trkpt lat="43.1336456" lon="11.7140201"><ele>449.0</ele><time>2026-04-19T06:50:51.864Z</time></trkpt><trkpt lat="43.133709" lon="11.7140365"><ele>450.49999999999994</ele><time>2026-04-19T06:50:52.864Z</time></trkpt><trkpt lat="43.1337648" lon="11.7140811"><ele>452.0</ele><time>2026-04-19T06:50:53.865Z</time></trkpt><trkpt lat="43.1339144" lon="11.7141035"><ele>452.0</ele><time>2026-04-19T06:50:55.864Z</time></trkpt><trkpt lat="43.1340156" lon="11.7140358"><ele>452.00000000000006</ele><time>2026-04-19T06:50:56.864Z</time></trkpt><trkpt lat="43.1340923" lon="11.71393"><ele>452.00000000000006</ele><time>2026-04-19T06:50:57.865Z</time></trkpt><trkpt lat="43.1341485" lon="11.7137971"><ele>452.0</ele><time>2026-04-19T06:50:58.865Z</time></trkpt><trkpt lat="43.1341975" lon="11.7136748"><ele>452.0</ele><time>2026-04-19T06:50:59.864Z</time></trkpt><trkpt lat="43.1342367" lon="11.7135908"><ele>452.99999999999994</ele><time>2026-04-19T06:51:00.864Z</time></trkpt><trkpt lat="43.134271" lon="11.7135143"><ele>454.0</ele><time>2026-04-19T06:51:03.864Z</time></trkpt><trkpt lat="43.1343527" lon="11.7135659"><ele>455.0</ele><time>2026-04-19T06:51:18.864Z</time></trkpt><trkpt lat="43.1344101" lon="11.7136107"><ele>456.0</ele><time>2026-04-19T06:51:19.864Z</time></trkpt><trkpt lat="43.1344819" lon="11.7136622"><ele>456.99999999999994</ele><time>2026-04-19T06:51:20.864Z</time></trkpt><trkpt lat="43.134556" lon="11.7137223"><ele>458.0</ele><time>2026-04-19T06:51:21.864Z</time></trkpt><trkpt lat="43.1346108" lon="11.7137944"><ele>458.0</ele><time>2026-04-19T06:51:22.864Z</time></trkpt><trkpt lat="43.1346464" lon="11.7138808"><ele>457.99999999999994</ele><time>2026-04-19T06:51:23.864Z</time></trkpt><trkpt lat="43.1346702" lon="11.7140414"><ele>457.99999999999994</ele><time>2026-04-19T06:51:25.864Z</time></trkpt><trkpt lat="43.1346478" lon="11.7142034"><ele>458.0</ele><time>2026-04-19T06:51:27.865Z</time></trkpt><trkpt lat="43.1346082" lon="11.7143683"><ele>458.0</ele><time>2026-04-19T06:51:29.864Z</time></trkpt><trkpt lat="43.1345487" lon="11.7145148"><ele>455.8333333333333</ele><time>2026-04-19T06:51:31.864Z</time></trkpt><trkpt lat="43.1345059" lon="11.714667"><ele>453.66666666666663</ele><time>2026-04-19T06:51:33.864Z</time></trkpt><trkpt lat="43.1344567" lon="11.7147811"><ele>451.5</ele><time>2026-04-19T06:51:35.864Z</time></trkpt><trkpt lat="43.1344217" lon="11.7148702"><ele>449.33333333333337</ele><time>2026-04-19T06:51:37.865Z</time></trkpt><trkpt lat="43.1343622" lon="11.7149146"><ele>447.1666666666667</ele><time>2026-04-19T06:51:39.864Z</time></trkpt><trkpt lat="43.1343088" lon="11.7149972"><ele>445.0</ele><time>2026-04-19T06:51:41.864Z</time></trkpt><trkpt lat="43.1343313" lon="11.7151619"><ele>443.50000000000006</ele><time>2026-04-19T06:51:51.864Z</time></trkpt><trkpt lat="43.1343808" lon="11.7152383"><ele>442.0</ele><time>2026-04-19T06:51:54.864Z</time></trkpt><trkpt lat="43.1344613" lon="11.7152596"><ele>440.5</ele><time>2026-04-19T06:51:57.864Z</time></trkpt><trkpt lat="43.1345129" lon="11.7153223"><ele>439.0</ele><time>2026-04-19T06:52:01.865Z</time></trkpt><trkpt lat="43.1345747" lon="11.7153966"><ele>437.50000000000006</ele><time>2026-04-19T06:52:03.864Z</time></trkpt><trkpt lat="43.1346399" lon="11.7154871"><ele>436.0</ele><time>2026-04-19T06:52:05.864Z</time></trkpt><trkpt lat="43.1347112" lon="11.7155254"><ele>436.00000000000006</ele><time>2026-04-19T06:52:08.865Z</time></trkpt><trkpt lat="43.13479" lon="11.7155082"><ele>436.0</ele><time>2026-04-19T06:52:10.864Z</time></trkpt><trkpt lat="43.1348577" lon="11.7154467"><ele>436.0</ele><time>2026-04-19T06:52:12.864Z</time></trkpt><trkpt lat="43.1349172" lon="11.7153652"><ele>436.0</ele><time>2026-04-19T06:52:14.864Z</time></trkpt><trkpt lat="43.1349848" lon="11.715353"><ele>436.00000000000006</ele><time>2026-04-19T06:52:17.865Z</time></trkpt><trkpt lat="43.1350363" lon="11.7154522"><ele>436.0</ele><time>2026-04-19T06:52:23.865Z</time></trkpt><trkpt lat="43.1350302" lon="11.7156137"><ele>435.83333333333337</ele><time>2026-04-19T06:52:25.865Z</time></trkpt><trkpt lat="43.1350035" lon="11.7157684"><ele>435.6666666666667</ele><time>2026-04-19T06:52:27.866Z</time></trkpt><trkpt lat="43.1349965" lon="11.7158968"><ele>435.5</ele><time>2026-04-19T06:52:29.865Z</time></trkpt><trkpt lat="43.1350586" lon="11.7159744"><ele>435.33333333333337</ele><time>2026-04-19T06:52:32.866Z</time></trkpt><trkpt lat="43.1351097" lon="11.7160266"><ele>435.1666666666667</ele><time>2026-04-19T06:52:34.866Z</time></trkpt><trkpt lat="43.1351767" lon="11.7160833"><ele>435.0</ele><time>2026-04-19T06:52:36.865Z</time></trkpt><trkpt lat="43.1352598" lon="11.7161787"><ele>435.0</ele><time>2026-04-19T06:52:38.865Z</time></trkpt><trkpt lat="43.1353254" lon="11.7162289"><ele>435.0</ele><time>2026-04-19T06:52:40.866Z</time></trkpt><trkpt lat="43.1353817" lon="11.7162753"><ele>435.0</ele><time>2026-04-19T06:52:42.865Z</time></trkpt><trkpt lat="43.1354329" lon="11.7163559"><ele>435.0</ele><time>2026-04-19T06:52:45.865Z</time></trkpt><trkpt lat="43.1355682" lon="11.7164515"><ele>435.0</ele><time>2026-04-19T06:53:32.865Z</time></trkpt><trkpt lat="43.1356243" lon="11.7165556"><ele>435.0</ele><time>2026-04-19T06:53:39.865Z</time></trkpt><trkpt lat="43.1356494" lon="11.7166563"><ele>435.0</ele><time>2026-04-19T06:53:43.866Z</time></trkpt><trkpt lat="43.1357127" lon="11.7166363"><ele>435.0</ele><time>2026-04-19T06:56:50.865Z</time></trkpt><trkpt lat="43.1357393" lon="11.7167336"><ele>435.0</ele><time>2026-04-19T06:58:23.848Z</time></trkpt><trkpt lat="43.135796" lon="11.7168108"><ele>435.0</ele><time>2026-04-19T06:58:27.202Z</time></trkpt><trkpt lat="43.1359713" lon="11.7169454"><ele>435.6</ele><time>2026-04-19T06:58:28.865Z</time></trkpt><trkpt lat="43.1360882" lon="11.717039"><ele>436.2</ele><time>2026-04-19T06:58:30.865Z</time></trkpt><trkpt lat="43.1361584" lon="11.7171285"><ele>436.79999999999995</ele><time>2026-04-19T06:58:32.865Z</time></trkpt><trkpt lat="43.1361836" lon="11.7172224"><ele>437.4</ele><time>2026-04-19T06:58:38.865Z</time></trkpt><trkpt lat="43.1362501" lon="11.7172743"><ele>438.0</ele><time>2026-04-19T06:58:41.865Z</time></trkpt><trkpt lat="43.1362674" lon="11.7174115"><ele>438.0</ele><time>2026-04-19T06:58:43.865Z</time></trkpt><trkpt lat="43.1362934" lon="11.7174922"><ele>438.0</ele><time>2026-04-19T06:58:44.865Z</time></trkpt><trkpt lat="43.1363672" lon="11.7175942"><ele>438.0</ele><time>2026-04-19T06:58:46.865Z</time></trkpt><trkpt lat="43.136429" lon="11.7176472"><ele>438.0</ele><time>2026-04-19T06:58:48.865Z</time></trkpt><trkpt lat="43.1365171" lon="11.717697"><ele>438.0</ele><time>2026-04-19T06:58:50.866Z</time></trkpt><trkpt lat="43.1365811" lon="11.717721"><ele>438.0</ele><time>2026-04-19T06:58:51.865Z</time></trkpt><trkpt lat="43.1366567" lon="11.717714"><ele>438.1666666666667</ele><time>2026-04-19T06:58:52.865Z</time></trkpt><trkpt lat="43.1367651" lon="11.7176933"><ele>438.33333333333337</ele><time>2026-04-19T06:58:54.866Z</time></trkpt><trkpt lat="43.1368491" lon="11.7177357"><ele>438.5</ele><time>2026-04-19T06:58:56.865Z</time></trkpt><trkpt lat="43.1368964" lon="11.7178283"><ele>438.6666666666667</ele><time>2026-04-19T06:58:58.866Z</time></trkpt><trkpt lat="43.1369306" lon="11.7179117"><ele>438.83333333333337</ele><time>2026-04-19T06:59:00.865Z</time></trkpt><trkpt lat="43.1369851" lon="11.7180095"><ele>439.0</ele><time>2026-04-19T06:59:03.865Z</time></trkpt><trkpt lat="43.1370574" lon="11.7180132"><ele>439.0</ele><time>2026-04-19T06:59:05.865Z</time></trkpt><trkpt lat="43.1371096" lon="11.7179524"><ele>439.0</ele><time>2026-04-19T06:59:07.865Z</time></trkpt><trkpt lat="43.1371131" lon="11.7178199"><ele>439.0</ele><time>2026-04-19T06:59:11.865Z</time></trkpt><trkpt lat="43.1371234" lon="11.7176884"><ele>439.0</ele><time>2026-04-19T06:59:13.865Z</time></trkpt><trkpt lat="43.1372322" lon="11.7176433"><ele>439.0</ele><time>2026-04-19T06:59:15.865Z</time></trkpt><trkpt lat="43.1373362" lon="11.717629"><ele>443.33333333333337</ele><time>2026-04-19T06:59:17.865Z</time></trkpt><trkpt lat="43.1374182" lon="11.7176049"><ele>447.6666666666667</ele><time>2026-04-19T06:59:19.865Z</time></trkpt><trkpt lat="43.137485" lon="11.7175124"><ele>452.0</ele><time>2026-04-19T06:59:21.865Z</time></trkpt><trkpt lat="43.1375281" lon="11.7174456"><ele>456.33333333333337</ele><time>2026-04-19T06:59:22.865Z</time></trkpt><trkpt lat="43.1375655" lon="11.717372"><ele>460.6666666666667</ele><time>2026-04-19T06:59:23.865Z</time></trkpt><trkpt lat="43.1375937" lon="11.7172939"><ele>465.0</ele><time>2026-04-19T06:59:24.866Z</time></trkpt><trkpt lat="43.1376411" lon="11.7171583"><ele>465.0</ele><time>2026-04-19T06:59:26.865Z</time></trkpt><trkpt lat="43.1376769" lon="11.7170548"><ele>465.0</ele><time>2026-04-19T06:59:28.865Z</time></trkpt><trkpt lat="43.1377086" lon="11.7169778"><ele>465.0</ele><time>2026-04-19T06:59:31.865Z</time></trkpt><trkpt lat="43.1376401" lon="11.7169133"><ele>465.0</ele><time>2026-04-19T06:59:39.866Z</time></trkpt><trkpt lat="43.1375883" lon="11.7169644"><ele>465.0</ele><time>2026-04-19T06:59:42.865Z</time></trkpt><trkpt lat="43.1375446" lon="11.7170526"><ele>465.0</ele><time>2026-04-19T06:59:45.866Z</time></trkpt><trkpt lat="43.1375005" lon="11.7171212"><ele>465.0</ele><time>2026-04-19T06:59:47.866Z</time></trkpt><trkpt lat="43.1374481" lon="11.7171795"><ele>465.0</ele><time>2026-04-19T06:59:49.866Z</time></trkpt><trkpt lat="43.1373864" lon="11.7172249"><ele>465.0</ele><time>2026-04-19T06:59:51.865Z</time></trkpt><trkpt lat="43.1372528" lon="11.7172712"><ele>465.0</ele><time>2026-04-19T06:59:58.865Z</time></trkpt><trkpt lat="43.1371898" lon="11.7173217"><ele>465.0</ele><time>2026-04-19T07:00:02.865Z</time></trkpt><trkpt lat="43.1371232" lon="11.7173658"><ele>465.0</ele><time>2026-04-19T07:00:05.865Z</time></trkpt><trkpt lat="43.1370558" lon="11.7174107"><ele>465.0</ele><time>2026-04-19T07:00:08.865Z</time></trkpt><trkpt lat="43.1369905" lon="11.717426"><ele>463.1666666666667</ele><time>2026-04-19T07:00:10.866Z</time></trkpt><trkpt lat="43.1369093" lon="11.7174045"><ele>461.33333333333337</ele><time>2026-04-19T07:00:12.865Z</time></trkpt><trkpt lat="43.1368331" lon="11.7174012"><ele>459.5</ele><time>2026-04-19T07:00:14.866Z</time></trkpt><trkpt lat="43.136749" lon="11.717397"><ele>457.6666666666667</ele><time>2026-04-19T07:00:16.866Z</time></trkpt><trkpt lat="43.1366525" lon="11.7173875"><ele>455.83333333333337</ele><time>2026-04-19T07:00:18.865Z</time></trkpt><trkpt lat="43.1365713" lon="11.7173626"><ele>454.0</ele><time>2026-04-19T07:00:20.865Z</time></trkpt><trkpt lat="43.1365034" lon="11.7173421"><ele>453.4</ele><time>2026-04-19T07:00:22.865Z</time></trkpt><trkpt lat="43.1364437" lon="11.7172583"><ele>452.79999999999995</ele><time>2026-04-19T07:00:29.866Z</time></trkpt><trkpt lat="43.1363811" lon="11.7171894"><ele>452.20000000000005</ele><time>2026-04-19T07:00:31.865Z</time></trkpt><trkpt lat="43.1363112" lon="11.7170555"><ele>451.6</ele><time>2026-04-19T07:00:33.865Z</time></trkpt><trkpt lat="43.1362305" lon="11.7169566"><ele>451.0</ele><time>2026-04-19T07:00:35.865Z</time></trkpt><trkpt lat="43.1361337" lon="11.7168795"><ele>451.0</ele><time>2026-04-19T07:00:37.865Z</time></trkpt><trkpt lat="43.1360654" lon="11.7168226"><ele>451.0</ele><time>2026-04-19T07:00:38.865Z</time></trkpt><trkpt lat="43.1360009" lon="11.7167346"><ele>451.0</ele><time>2026-04-19T07:00:39.865Z</time></trkpt><trkpt lat="43.1359538" lon="11.7166165"><ele>451.0</ele><time>2026-04-19T07:00:40.865Z</time></trkpt><trkpt lat="43.1359222" lon="11.7164865"><ele>451.0</ele><time>2026-04-19T07:00:41.866Z</time></trkpt><trkpt lat="43.1358802" lon="11.7163629"><ele>451.00000000000006</ele><time>2026-04-19T07:00:42.865Z</time></trkpt><trkpt lat="43.1358252" lon="11.7162593"><ele>451.0</ele><time>2026-04-19T07:00:43.865Z</time></trkpt><trkpt lat="43.13578" lon="11.7161613"><ele>451.0</ele><time>2026-04-19T07:00:44.866Z</time></trkpt><trkpt lat="43.1357603" lon="11.7160583"><ele>451.0</ele><time>2026-04-19T07:00:45.866Z</time></trkpt><trkpt lat="43.1357676" lon="11.7159551"><ele>451.00000000000006</ele><time>2026-04-19T07:00:46.865Z</time></trkpt><trkpt lat="43.1357623" lon="11.7158489"><ele>451.0</ele><time>2026-04-19T07:00:48.865Z</time></trkpt><trkpt lat="43.1356521" lon="11.7158154"><ele>450.0</ele><time>2026-04-19T07:00:50.865Z</time></trkpt><trkpt lat="43.1355687" lon="11.715692"><ele>449.0</ele><time>2026-04-19T07:00:52.865Z</time></trkpt><trkpt lat="43.1355469" lon="11.7155705"><ele>448.0</ele><time>2026-04-19T07:00:53.866Z</time></trkpt><trkpt lat="43.1355164" lon="11.7154152"><ele>447.0</ele><time>2026-04-19T07:00:54.866Z</time></trkpt><trkpt lat="43.1354743" lon="11.7152597"><ele>449.0</ele><time>2026-04-19T07:00:55.865Z</time></trkpt><trkpt lat="43.1354296" lon="11.715111"><ele>451.00000000000006</ele><time>2026-04-19T07:00:56.865Z</time></trkpt><trkpt lat="43.1353838" lon="11.7149811"><ele>453.00000000000006</ele><time>2026-04-19T07:00:57.865Z</time></trkpt><trkpt lat="43.1353292" lon="11.7148645"><ele>455.0</ele><time>2026-04-19T07:00:58.865Z</time></trkpt><trkpt lat="43.1352815" lon="11.7147469"><ele>457.0</ele><time>2026-04-19T07:00:59.865Z</time></trkpt><trkpt lat="43.135239" lon="11.7146158"><ele>457.0</ele><time>2026-04-19T07:01:00.866Z</time></trkpt><trkpt lat="43.1352053" lon="11.714494"><ele>457.00000000000006</ele><time>2026-04-19T07:01:01.865Z</time></trkpt><trkpt lat="43.1351826" lon="11.7144058"><ele>457.00000000000006</ele><time>2026-04-19T07:01:02.865Z</time></trkpt><trkpt lat="43.1351548" lon="11.7142776"><ele>457.0</ele><time>2026-04-19T07:01:04.865Z</time></trkpt><trkpt lat="43.1350913" lon="11.7141369"><ele>457.0</ele><time>2026-04-19T07:01:06.865Z</time></trkpt><trkpt lat="43.1350346" lon="11.7140636"><ele>457.1666666666667</ele><time>2026-04-19T07:01:07.865Z</time></trkpt><trkpt lat="43.1349837" lon="11.7139878"><ele>457.33333333333337</ele><time>2026-04-19T07:01:08.865Z</time></trkpt><trkpt lat="43.1349253" lon="11.7138916"><ele>457.5</ele><time>2026-04-19T07:01:09.865Z</time></trkpt><trkpt lat="43.1348602" lon="11.713829"><ele>457.66666666666663</ele><time>2026-04-19T07:01:10.865Z</time></trkpt><trkpt lat="43.1348001" lon="11.7137836"><ele>457.8333333333333</ele><time>2026-04-19T07:01:11.865Z</time></trkpt><trkpt lat="43.1347015" lon="11.7137427"><ele>458.0</ele><time>2026-04-19T07:01:13.865Z</time></trkpt><trkpt lat="43.1346511" lon="11.7136648"><ele>459.99999999999994</ele><time>2026-04-19T07:01:21.866Z</time></trkpt><trkpt lat="43.1346927" lon="11.7135657"><ele>462.0</ele><time>2026-04-19T07:01:22.866Z</time></trkpt><trkpt lat="43.1347293" lon="11.7134384"><ele>464.0</ele><time>2026-04-19T07:01:23.865Z</time></trkpt><trkpt lat="43.1347534" lon="11.7133253"><ele>466.0</ele><time>2026-04-19T07:01:24.865Z</time></trkpt><trkpt lat="43.1347836" lon="11.7132203"><ele>467.99999999999994</ele><time>2026-04-19T07:01:25.866Z</time></trkpt><trkpt lat="43.1348363" lon="11.7131114"><ele>470.0</ele><time>2026-04-19T07:01:26.865Z</time></trkpt><trkpt lat="43.1348911" lon="11.712992"><ele>471.0</ele><time>2026-04-19T07:01:27.865Z</time></trkpt><trkpt lat="43.1349532" lon="11.7128803"><ele>472.0</ele><time>2026-04-19T07:01:28.866Z</time></trkpt><trkpt lat="43.1350121" lon="11.712753"><ele>473.0</ele><time>2026-04-19T07:01:29.865Z</time></trkpt><trkpt lat="43.1350722" lon="11.7126518"><ele>474.0</ele><time>2026-04-19T07:01:30.865Z</time></trkpt><trkpt lat="43.1351391" lon="11.7125931"><ele>475.0</ele><time>2026-04-19T07:01:31.865Z</time></trkpt><trkpt lat="43.1351912" lon="11.7125437"><ele>476.50000000000006</ele><time>2026-04-19T07:01:32.866Z</time></trkpt><trkpt lat="43.1352738" lon="11.7124617"><ele>478.0</ele><time>2026-04-19T07:01:34.866Z</time></trkpt><trkpt lat="43.1352762" lon="11.7123588"><ele>479.5</ele><time>2026-04-19T07:01:37.866Z</time></trkpt><trkpt lat="43.135198" lon="11.7122507"><ele>481.0</ele><time>2026-04-19T07:02:36.866Z</time></trkpt><trkpt lat="43.1351392" lon="11.7121902"><ele>482.50000000000006</ele><time>2026-04-19T07:02:37.866Z</time></trkpt><trkpt lat="43.1350638" lon="11.7121292"><ele>484.0</ele><time>2026-04-19T07:02:38.866Z</time></trkpt><trkpt lat="43.1349861" lon="11.7120717"><ele>484.00000000000006</ele><time>2026-04-19T07:02:39.866Z</time></trkpt><trkpt lat="43.1349185" lon="11.712006"><ele>484.0</ele><time>2026-04-19T07:02:40.866Z</time></trkpt><trkpt lat="43.1348534" lon="11.7119539"><ele>484.0</ele><time>2026-04-19T07:02:41.867Z</time></trkpt><trkpt lat="43.1347772" lon="11.7118932"><ele>484.0</ele><time>2026-04-19T07:02:42.866Z</time></trkpt><trkpt lat="43.1347024" lon="11.7118335"><ele>484.00000000000006</ele><time>2026-04-19T07:02:43.867Z</time></trkpt><trkpt lat="43.1346263" lon="11.7117676"><ele>484.0</ele><time>2026-04-19T07:02:44.867Z</time></trkpt><trkpt lat="43.1345427" lon="11.7116834"><ele>486.0</ele><time>2026-04-19T07:02:45.866Z</time></trkpt><trkpt lat="43.1344531" lon="11.7115951"><ele>488.0</ele><time>2026-04-19T07:02:46.867Z</time></trkpt><trkpt lat="43.1343566" lon="11.7115178"><ele>490.0</ele><time>2026-04-19T07:02:47.867Z</time></trkpt><trkpt lat="43.1342603" lon="11.7114549"><ele>492.0</ele><time>2026-04-19T07:02:48.866Z</time></trkpt><trkpt lat="43.1341453" lon="11.711382"><ele>493.0</ele><time>2026-04-19T07:02:49.866Z</time></trkpt><trkpt lat="43.1340309" lon="11.7113104"><ele>494.0</ele><time>2026-04-19T07:02:50.866Z</time></trkpt><trkpt lat="43.1339311" lon="11.7112399"><ele>495.0</ele><time>2026-04-19T07:02:51.867Z</time></trkpt><trkpt lat="43.133828" lon="11.7111897"><ele>496.0</ele><time>2026-04-19T07:02:52.866Z</time></trkpt><trkpt lat="43.1337143" lon="11.7111602"><ele>496.0</ele><time>2026-04-19T07:02:53.866Z</time></trkpt><trkpt lat="43.1335981" lon="11.7111338"><ele>496.0</ele><time>2026-04-19T07:02:54.866Z</time></trkpt><trkpt lat="43.1335016" lon="11.7110809"><ele>496.0</ele><time>2026-04-19T07:02:55.866Z</time></trkpt><trkpt lat="43.1333987" lon="11.710993"><ele>496.0</ele><time>2026-04-19T07:02:56.866Z</time></trkpt><trkpt lat="43.1333151" lon="11.710887"><ele>496.20000000000005</ele><time>2026-04-19T07:02:57.866Z</time></trkpt><trkpt lat="43.1332559" lon="11.7107846"><ele>496.40000000000003</ele><time>2026-04-19T07:02:58.866Z</time></trkpt><trkpt lat="43.1332192" lon="11.7106419"><ele>496.6</ele><time>2026-04-19T07:02:59.867Z</time></trkpt><trkpt lat="43.133192" lon="11.7104815"><ele>496.8</ele><time>2026-04-19T07:03:00.866Z</time></trkpt><trkpt lat="43.1331752" lon="11.7103355"><ele>497.0</ele><time>2026-04-19T07:03:01.867Z</time></trkpt><trkpt lat="43.133155" lon="11.7102079"><ele>496.3333333333333</ele><time>2026-04-19T07:03:02.866Z</time></trkpt><trkpt lat="43.1331289" lon="11.7101108"><ele>495.66666666666663</ele><time>2026-04-19T07:03:03.866Z</time></trkpt><trkpt lat="43.1330848" lon="11.7100408"><ele>495.0</ele><time>2026-04-19T07:03:04.866Z</time></trkpt><trkpt lat="43.1330179" lon="11.7099837"><ele>494.33333333333337</ele><time>2026-04-19T07:03:05.866Z</time></trkpt><trkpt lat="43.1329492" lon="11.709931"><ele>493.6666666666667</ele><time>2026-04-19T07:03:06.866Z</time></trkpt><trkpt lat="43.1328878" lon="11.7098876"><ele>493.0</ele><time>2026-04-19T07:03:07.866Z</time></trkpt><trkpt lat="43.1328043" lon="11.7098022"><ele>493.0</ele><time>2026-04-19T07:03:09.866Z</time></trkpt><trkpt lat="43.1328339" lon="11.7096721"><ele>492.99999999999994</ele><time>2026-04-19T07:03:12.867Z</time></trkpt><trkpt lat="43.1328965" lon="11.7095291"><ele>492.99999999999994</ele><time>2026-04-19T07:03:14.866Z</time></trkpt><trkpt lat="43.1329057" lon="11.7094231"><ele>493.0</ele><time>2026-04-19T07:03:15.867Z</time></trkpt><trkpt lat="43.132918" lon="11.7092977"><ele>493.0</ele><time>2026-04-19T07:03:16.867Z</time></trkpt><trkpt lat="43.1329446" lon="11.7091645"><ele>491.1666666666667</ele><time>2026-04-19T07:03:17.866Z</time></trkpt><trkpt lat="43.1329709" lon="11.7090489"><ele>489.33333333333337</ele><time>2026-04-19T07:03:18.866Z</time></trkpt><trkpt lat="43.1329933" lon="11.7089535"><ele>487.5</ele><time>2026-04-19T07:03:19.866Z</time></trkpt><trkpt lat="43.1329752" lon="11.7088556"><ele>485.66666666666663</ele><time>2026-04-19T07:03:20.866Z</time></trkpt><trkpt lat="43.1329264" lon="11.7087562"><ele>483.8333333333333</ele><time>2026-04-19T07:03:21.866Z</time></trkpt><trkpt lat="43.1328685" lon="11.7086711"><ele>482.0</ele><time>2026-04-19T07:03:22.867Z</time></trkpt><trkpt lat="43.1328266" lon="11.7085855"><ele>479.40000000000003</ele><time>2026-04-19T07:03:23.866Z</time></trkpt><trkpt lat="43.1327839" lon="11.7084551"><ele>476.80000000000007</ele><time>2026-04-19T07:03:25.866Z</time></trkpt><trkpt lat="43.1327532" lon="11.7083056"><ele>474.2</ele><time>2026-04-19T07:03:27.867Z</time></trkpt><trkpt lat="43.1326857" lon="11.708184"><ele>471.6</ele><time>2026-04-19T07:03:29.866Z</time></trkpt><trkpt lat="43.1326174" lon="11.7080604"><ele>469.0</ele><time>2026-04-19T07:03:31.867Z</time></trkpt><trkpt lat="43.1325857" lon="11.7079807"><ele>469.00000000000006</ele><time>2026-04-19T07:03:32.866Z</time></trkpt><trkpt lat="43.1325205" lon="11.7078703"><ele>469.0</ele><time>2026-04-19T07:03:34.866Z</time></trkpt><trkpt lat="43.1324876" lon="11.7077792"><ele>469.0</ele><time>2026-04-19T07:03:36.866Z</time></trkpt><trkpt lat="43.1325291" lon="11.707702"><ele>469.0</ele><time>2026-04-19T07:03:40.867Z</time></trkpt><trkpt lat="43.1325986" lon="11.7077185"><ele>469.00000000000006</ele><time>2026-04-19T07:03:41.867Z</time></trkpt><trkpt lat="43.1326779" lon="11.7077741"><ele>469.0</ele><time>2026-04-19T07:03:42.867Z</time></trkpt><trkpt lat="43.1327622" lon="11.7078409"><ele>469.00000000000006</ele><time>2026-04-19T07:03:43.866Z</time></trkpt><trkpt lat="43.1328434" lon="11.7078791"><ele>469.0</ele><time>2026-04-19T07:03:44.867Z</time></trkpt><trkpt lat="43.1329152" lon="11.7078959"><ele>469.0</ele><time>2026-04-19T07:03:45.867Z</time></trkpt><trkpt lat="43.1329862" lon="11.7079098"><ele>469.0</ele><time>2026-04-19T07:03:46.866Z</time></trkpt><trkpt lat="43.1330511" lon="11.7079211"><ele>469.00000000000006</ele><time>2026-04-19T07:03:47.866Z</time></trkpt><trkpt lat="43.133165" lon="11.7079383"><ele>469.0</ele><time>2026-04-19T07:03:49.867Z</time></trkpt><trkpt lat="43.1332538" lon="11.7079925"><ele>467.00000000000006</ele><time>2026-04-19T07:03:51.866Z</time></trkpt><trkpt lat="43.1333515" lon="11.7081019"><ele>465.0</ele><time>2026-04-19T07:03:53.866Z</time></trkpt><trkpt lat="43.1334136" lon="11.7081646"><ele>463.0</ele><time>2026-04-19T07:03:54.867Z</time></trkpt><trkpt lat="43.1334813" lon="11.7082255"><ele>461.0</ele><time>2026-04-19T07:03:55.866Z</time></trkpt><trkpt lat="43.1335431" lon="11.7082754"><ele>459.00000000000006</ele><time>2026-04-19T07:03:56.866Z</time></trkpt><trkpt lat="43.133615" lon="11.7083442"><ele>457.0</ele><time>2026-04-19T07:03:57.866Z</time></trkpt><trkpt lat="43.1336849" lon="11.7084156"><ele>457.0</ele><time>2026-04-19T07:03:58.866Z</time></trkpt><trkpt lat="43.1337426" lon="11.7084856"><ele>457.00000000000006</ele><time>2026-04-19T07:03:59.866Z</time></trkpt><trkpt lat="43.1338555" lon="11.708479"><ele>457.00000000000006</ele><time>2026-04-19T07:04:01.866Z</time></trkpt><trkpt lat="43.1339646" lon="11.7084038"><ele>457.0</ele><time>2026-04-19T07:04:03.866Z</time></trkpt><trkpt lat="43.1340267" lon="11.7083371"><ele>457.0</ele><time>2026-04-19T07:04:04.866Z</time></trkpt><trkpt lat="43.1340915" lon="11.7082625"><ele>454.0</ele><time>2026-04-19T07:04:05.867Z</time></trkpt><trkpt lat="43.1341576" lon="11.7081909"><ele>451.00000000000006</ele><time>2026-04-19T07:04:06.866Z</time></trkpt><trkpt lat="43.1342275" lon="11.7081386"><ele>448.00000000000006</ele><time>2026-04-19T07:04:07.866Z</time></trkpt><trkpt lat="43.1343205" lon="11.7081117"><ele>445.0</ele><time>2026-04-19T07:04:08.866Z</time></trkpt><trkpt lat="43.1344314" lon="11.7081065"><ele>442.0</ele><time>2026-04-19T07:04:09.866Z</time></trkpt><trkpt lat="43.1345308" lon="11.7080941"><ele>442.00000000000006</ele><time>2026-04-19T07:04:10.866Z</time></trkpt><trkpt lat="43.1346067" lon="11.708075"><ele>442.0</ele><time>2026-04-19T07:04:11.866Z</time></trkpt><trkpt lat="43.1346752" lon="11.70804"><ele>442.0</ele><time>2026-04-19T07:04:12.866Z</time></trkpt><trkpt lat="43.134738" lon="11.7080015"><ele>442.0</ele><time>2026-04-19T07:04:13.867Z</time></trkpt><trkpt lat="43.1348022" lon="11.7079605"><ele>442.0</ele><time>2026-04-19T07:04:14.866Z</time></trkpt><trkpt lat="43.1348644" lon="11.7079225"><ele>442.00000000000006</ele><time>2026-04-19T07:04:15.866Z</time></trkpt><trkpt lat="43.1349266" lon="11.7078846"><ele>442.0</ele><time>2026-04-19T07:04:16.866Z</time></trkpt><trkpt lat="43.1350513" lon="11.7078704"><ele>442.33333333333337</ele><time>2026-04-19T07:04:18.867Z</time></trkpt><trkpt lat="43.135116" lon="11.7078834"><ele>442.6666666666667</ele><time>2026-04-19T07:04:19.867Z</time></trkpt><trkpt lat="43.1352157" lon="11.7079238"><ele>443.0</ele><time>2026-04-19T07:04:21.866Z</time></trkpt><trkpt lat="43.1352746" lon="11.7079644"><ele>443.33333333333337</ele><time>2026-04-19T07:04:23.866Z</time></trkpt><trkpt lat="43.1353404" lon="11.7080385"><ele>443.6666666666667</ele><time>2026-04-19T07:04:26.866Z</time></trkpt><trkpt lat="43.1353564" lon="11.707935"><ele>444.0</ele><time>2026-04-19T07:04:33.866Z</time></trkpt><trkpt lat="43.135317" lon="11.7078248"><ele>443.2</ele><time>2026-04-19T07:04:34.866Z</time></trkpt><trkpt lat="43.1352669" lon="11.7077175"><ele>442.4</ele><time>2026-04-19T07:04:35.866Z</time></trkpt><trkpt lat="43.1352113" lon="11.7076107"><ele>441.6</ele><time>2026-04-19T07:04:36.866Z</time></trkpt><trkpt lat="43.1351473" lon="11.7075291"><ele>440.8</ele><time>2026-04-19T07:04:37.866Z</time></trkpt><trkpt lat="43.1350598" lon="11.7074759"><ele>440.0</ele><time>2026-04-19T07:04:38.866Z</time></trkpt><trkpt lat="43.1349608" lon="11.7074442"><ele>437.0</ele><time>2026-04-19T07:04:39.866Z</time></trkpt><trkpt lat="43.1348611" lon="11.7074161"><ele>434.0</ele><time>2026-04-19T07:04:40.866Z</time></trkpt><trkpt lat="43.1347684" lon="11.7073714"><ele>431.0</ele><time>2026-04-19T07:04:41.867Z</time></trkpt><trkpt lat="43.1346739" lon="11.7073182"><ele>428.0</ele><time>2026-04-19T07:04:42.866Z</time></trkpt><trkpt lat="43.1345979" lon="11.7072516"><ele>425.0</ele><time>2026-04-19T07:04:43.867Z</time></trkpt><trkpt lat="43.134554" lon="11.7071534"><ele>424.99999999999994</ele><time>2026-04-19T07:04:45.866Z</time></trkpt><trkpt lat="43.1345653" lon="11.70699"><ele>425.0</ele><time>2026-04-19T07:04:47.866Z</time></trkpt><trkpt lat="43.1345694" lon="11.7068862"><ele>425.0</ele><time>2026-04-19T07:04:48.866Z</time></trkpt><trkpt lat="43.1345686" lon="11.7067799"><ele>425.0</ele><time>2026-04-19T07:04:49.867Z</time></trkpt><trkpt lat="43.1345574" lon="11.7066751"><ele>424.99999999999994</ele><time>2026-04-19T07:04:50.866Z</time></trkpt><trkpt lat="43.1345419" lon="11.7065691"><ele>425.0</ele><time>2026-04-19T07:04:51.866Z</time></trkpt><trkpt lat="43.134507" lon="11.7064815"><ele>426.8333333333333</ele><time>2026-04-19T07:04:52.866Z</time></trkpt><trkpt lat="43.1344634" lon="11.7063984"><ele>428.66666666666663</ele><time>2026-04-19T07:04:53.866Z</time></trkpt><trkpt lat="43.1344088" lon="11.7063184"><ele>430.5</ele><time>2026-04-19T07:04:54.866Z</time></trkpt><trkpt lat="43.134351" lon="11.7062215"><ele>432.33333333333337</ele><time>2026-04-19T07:04:55.867Z</time></trkpt><trkpt lat="43.1343043" lon="11.7061263"><ele>434.1666666666667</ele><time>2026-04-19T07:04:56.867Z</time></trkpt><trkpt lat="43.1342645" lon="11.7060336"><ele>436.0</ele><time>2026-04-19T07:04:57.866Z</time></trkpt><trkpt lat="43.1342329" lon="11.7059434"><ele>435.83333333333337</ele><time>2026-04-19T07:04:58.866Z</time></trkpt><trkpt lat="43.1341918" lon="11.705807"><ele>435.6666666666667</ele><time>2026-04-19T07:05:00.866Z</time></trkpt><trkpt lat="43.1341568" lon="11.7056681"><ele>435.5</ele><time>2026-04-19T07:05:02.866Z</time></trkpt><trkpt lat="43.134133" lon="11.7055849"><ele>435.33333333333337</ele><time>2026-04-19T07:05:03.866Z</time></trkpt><trkpt lat="43.1340972" lon="11.7054986"><ele>435.1666666666667</ele><time>2026-04-19T07:05:04.866Z</time></trkpt><trkpt lat="43.1340503" lon="11.705416"><ele>435.0</ele><time>2026-04-19T07:05:05.866Z</time></trkpt><trkpt lat="43.1339947" lon="11.7053564"><ele>435.0</ele><time>2026-04-19T07:05:06.866Z</time></trkpt><trkpt lat="43.1339318" lon="11.7052988"><ele>435.0</ele><time>2026-04-19T07:05:07.866Z</time></trkpt><trkpt lat="43.1338669" lon="11.7052548"><ele>435.0</ele><time>2026-04-19T07:05:08.866Z</time></trkpt><trkpt lat="43.1337737" lon="11.7051742"><ele>435.0</ele><time>2026-04-19T07:05:10.866Z</time></trkpt><trkpt lat="43.1337121" lon="11.7050874"><ele>435.0</ele><time>2026-04-19T07:05:12.867Z</time></trkpt><trkpt lat="43.1337074" lon="11.7049528"><ele>435.0</ele><time>2026-04-19T07:05:14.867Z</time></trkpt><trkpt lat="43.1337273" lon="11.7047771"><ele>439.8</ele><time>2026-04-19T07:05:16.866Z</time></trkpt><trkpt lat="43.1337681" lon="11.7046851"><ele>444.6</ele><time>2026-04-19T07:05:18.866Z</time></trkpt><trkpt lat="43.1338372" lon="11.704751"><ele>449.4</ele><time>2026-04-19T07:05:21.866Z</time></trkpt><trkpt lat="43.1339183" lon="11.7048451"><ele>454.2</ele><time>2026-04-19T07:05:23.866Z</time></trkpt><trkpt lat="43.1339984" lon="11.7049082"><ele>459.0</ele><time>2026-04-19T07:05:25.867Z</time></trkpt><trkpt lat="43.1340796" lon="11.7049668"><ele>463.4</ele><time>2026-04-19T07:05:27.866Z</time></trkpt><trkpt lat="43.1341878" lon="11.7050244"><ele>467.79999999999995</ele><time>2026-04-19T07:05:29.866Z</time></trkpt><trkpt lat="43.1342945" lon="11.7050674"><ele>472.20000000000005</ele><time>2026-04-19T07:05:31.866Z</time></trkpt><trkpt lat="43.134356" lon="11.7050925"><ele>476.6</ele><time>2026-04-19T07:05:32.866Z</time></trkpt><trkpt lat="43.134466" lon="11.7050902"><ele>481.0</ele><time>2026-04-19T07:05:34.866Z</time></trkpt><trkpt lat="43.1345224" lon="11.7050487"><ele>481.00000000000006</ele><time>2026-04-19T07:05:35.866Z</time></trkpt><trkpt lat="43.1346228" lon="11.7050075"><ele>481.0</ele><time>2026-04-19T07:05:37.866Z</time></trkpt><trkpt lat="43.1346982" lon="11.7050452"><ele>481.0</ele><time>2026-04-19T07:05:39.866Z</time></trkpt><trkpt lat="43.1347488" lon="11.7049851"><ele>481.0</ele><time>2026-04-19T07:05:42.867Z</time></trkpt><trkpt lat="43.1347923" lon="11.7048929"><ele>481.00000000000006</ele><time>2026-04-19T07:05:44.866Z</time></trkpt><trkpt lat="43.1348791" lon="11.7048192"><ele>481.0</ele><time>2026-04-19T07:05:46.866Z</time></trkpt><trkpt lat="43.1349808" lon="11.7047447"><ele>484.8</ele><time>2026-04-19T07:05:48.866Z</time></trkpt><trkpt lat="43.1351144" lon="11.7047025"><ele>488.6</ele><time>2026-04-19T07:06:15.866Z</time></trkpt><trkpt lat="43.1351971" lon="11.7047178"><ele>492.4</ele><time>2026-04-19T07:06:16.866Z</time></trkpt><trkpt lat="43.1352792" lon="11.7047178"><ele>496.2</ele><time>2026-04-19T07:06:17.866Z</time></trkpt><trkpt lat="43.135381" lon="11.7047103"><ele>500.0</ele><time>2026-04-19T07:06:18.866Z</time></trkpt><trkpt lat="43.1354787" lon="11.7047187"><ele>500.0</ele><time>2026-04-19T07:06:19.866Z</time></trkpt><trkpt lat="43.1355723" lon="11.7047351"><ele>500.0</ele><time>2026-04-19T07:06:20.866Z</time></trkpt><trkpt lat="43.135654" lon="11.7047556"><ele>500.0</ele><time>2026-04-19T07:06:21.866Z</time></trkpt><trkpt lat="43.1357176" lon="11.7047753"><ele>500.0</ele><time>2026-04-19T07:06:22.867Z</time></trkpt><trkpt lat="43.1357794" lon="11.7047921"><ele>500.0</ele><time>2026-04-19T07:06:23.866Z</time></trkpt><trkpt lat="43.1358443" lon="11.7048108"><ele>500.0</ele><time>2026-04-19T07:06:24.866Z</time></trkpt><trkpt lat="43.1359141" lon="11.7048321"><ele>500.0</ele><time>2026-04-19T07:06:25.866Z</time></trkpt><trkpt lat="43.1359845" lon="11.7048537"><ele>501.99999999999994</ele><time>2026-04-19T07:06:26.866Z</time></trkpt><trkpt lat="43.1360499" lon="11.704876"><ele>504.0</ele><time>2026-04-19T07:06:27.866Z</time></trkpt><trkpt lat="43.1361178" lon="11.7049066"><ele>506.0</ele><time>2026-04-19T07:06:28.866Z</time></trkpt><trkpt lat="43.1361897" lon="11.7049405"><ele>508.0</ele><time>2026-04-19T07:06:29.866Z</time></trkpt><trkpt lat="43.1362721" lon="11.7049852"><ele>509.99999999999994</ele><time>2026-04-19T07:06:30.866Z</time></trkpt><trkpt lat="43.136339" lon="11.7050347"><ele>512.0</ele><time>2026-04-19T07:06:31.867Z</time></trkpt><trkpt lat="43.1363936" lon="11.7051025"><ele>511.99999999999994</ele><time>2026-04-19T07:06:32.866Z</time></trkpt><trkpt lat="43.1364312" lon="11.7052044"><ele>512.0</ele><time>2026-04-19T07:06:33.866Z</time></trkpt><trkpt lat="43.1364815" lon="11.7053077"><ele>512.0</ele><time>2026-04-19T07:06:34.866Z</time></trkpt><trkpt lat="43.1365306" lon="11.7054082"><ele>512.0</ele><time>2026-04-19T07:06:35.867Z</time></trkpt><trkpt lat="43.1365732" lon="11.7055004"><ele>511.99999999999994</ele><time>2026-04-19T07:06:36.866Z</time></trkpt><trkpt lat="43.136599" lon="11.7056269"><ele>512.0</ele><time>2026-04-19T07:06:38.866Z</time></trkpt><trkpt lat="43.1366274" lon="11.7057078"><ele>514.5</ele><time>2026-04-19T07:06:39.866Z</time></trkpt><trkpt lat="43.1366855" lon="11.7057976"><ele>517.0</ele><time>2026-04-19T07:06:40.866Z</time></trkpt><trkpt lat="43.1367572" lon="11.7058829"><ele>519.5</ele><time>2026-04-19T07:06:41.867Z</time></trkpt><trkpt lat="43.1368251" lon="11.7059425"><ele>522.0</ele><time>2026-04-19T07:06:42.867Z</time></trkpt><trkpt lat="43.1368922" lon="11.7059909"><ele>524.5</ele><time>2026-04-19T07:06:43.866Z</time></trkpt><trkpt lat="43.1369545" lon="11.7060344"><ele>527.0</ele><time>2026-04-19T07:06:44.866Z</time></trkpt><trkpt lat="43.137051" lon="11.706064"><ele>527.0</ele><time>2026-04-19T07:06:46.866Z</time></trkpt><trkpt lat="43.1371467" lon="11.7061381"><ele>527.0</ele><time>2026-04-19T07:08:17.866Z</time></trkpt><trkpt lat="43.1372008" lon="11.7062842"><ele>527.0</ele><time>2026-04-19T07:08:19.866Z</time></trkpt><trkpt lat="43.137233" lon="11.7063655"><ele>527.0</ele><time>2026-04-19T07:08:20.866Z</time></trkpt><trkpt lat="43.1372749" lon="11.7064524"><ele>527.0</ele><time>2026-04-19T07:08:21.866Z</time></trkpt><trkpt lat="43.1373212" lon="11.7065282"><ele>527.0</ele><time>2026-04-19T07:08:22.866Z</time></trkpt><trkpt lat="43.1373717" lon="11.7065972"><ele>527.1666666666666</ele><time>2026-04-19T07:08:23.867Z</time></trkpt><trkpt lat="43.1374134" lon="11.7066703"><ele>527.3333333333333</ele><time>2026-04-19T07:08:24.866Z</time></trkpt><trkpt lat="43.137457" lon="11.7067676"><ele>527.5</ele><time>2026-04-19T07:08:25.866Z</time></trkpt><trkpt lat="43.1375096" lon="11.7068728"><ele>527.6666666666666</ele><time>2026-04-19T07:08:26.866Z</time></trkpt><trkpt lat="43.1375657" lon="11.7069847"><ele>527.8333333333334</ele><time>2026-04-19T07:08:27.866Z</time></trkpt><trkpt lat="43.137619" lon="11.7070864"><ele>528.0</ele><time>2026-04-19T07:08:28.866Z</time></trkpt><trkpt lat="43.1376748" lon="11.7071688"><ele>528.0</ele><time>2026-04-19T07:08:29.866Z</time></trkpt><trkpt lat="43.1377282" lon="11.7072425"><ele>528.0</ele><time>2026-04-19T07:08:30.866Z</time></trkpt><trkpt lat="43.1377964" lon="11.7073023"><ele>528.0</ele><time>2026-04-19T07:08:31.866Z</time></trkpt><trkpt lat="43.1378687" lon="11.7073611"><ele>528.0</ele><time>2026-04-19T07:08:32.866Z</time></trkpt><trkpt lat="43.1379401" lon="11.7074244"><ele>528.0</ele><time>2026-04-19T07:08:33.867Z</time></trkpt><trkpt lat="43.1380051" lon="11.7075206"><ele>528.0</ele><time>2026-04-19T07:08:34.866Z</time></trkpt><trkpt lat="43.1380742" lon="11.7076344"><ele>528.0</ele><time>2026-04-19T07:08:35.867Z</time></trkpt><trkpt lat="43.1381618" lon="11.7076991"><ele>528.0</ele><time>2026-04-19T07:08:36.866Z</time></trkpt><trkpt lat="43.1382786" lon="11.7077427"><ele>528.0</ele><time>2026-04-19T07:08:37.866Z</time></trkpt><trkpt lat="43.1384217" lon="11.7077788"><ele>528.0</ele><time>2026-04-19T07:08:38.866Z</time></trkpt><trkpt lat="43.1385548" lon="11.7078154"><ele>528.6</ele><time>2026-04-19T07:08:39.866Z</time></trkpt><trkpt lat="43.1386746" lon="11.7078539"><ele>529.1999999999999</ele><time>2026-04-19T07:08:40.866Z</time></trkpt><trkpt lat="43.1387633" lon="11.7078524"><ele>529.8</ele><time>2026-04-19T07:08:41.866Z</time></trkpt><trkpt lat="43.1388255" lon="11.7078282"><ele>530.4</ele><time>2026-04-19T07:08:42.866Z</time></trkpt><trkpt lat="43.1389091" lon="11.7077754"><ele>531.0</ele><time>2026-04-19T07:08:43.866Z</time></trkpt><trkpt lat="43.1389912" lon="11.7077141"><ele>531.0</ele><time>2026-04-19T07:08:44.866Z</time></trkpt><trkpt lat="43.1390499" lon="11.7076302"><ele>531.0</ele><time>2026-04-19T07:08:45.867Z</time></trkpt><trkpt lat="43.1390674" lon="11.7075271"><ele>531.0</ele><time>2026-04-19T07:08:46.866Z</time></trkpt><trkpt lat="43.1390621" lon="11.7074299"><ele>531.0</ele><time>2026-04-19T07:08:47.867Z</time></trkpt><trkpt lat="43.1390862" lon="11.7073199"><ele>531.0</ele><time>2026-04-19T07:08:48.866Z</time></trkpt><trkpt lat="43.1391348" lon="11.7072148"><ele>531.0</ele><time>2026-04-19T07:08:49.866Z</time></trkpt><trkpt lat="43.139257" lon="11.7072247"><ele>532.25</ele><time>2026-04-19T07:08:51.867Z</time></trkpt><trkpt lat="43.1393777" lon="11.7072744"><ele>533.5</ele><time>2026-04-19T07:08:52.866Z</time></trkpt><trkpt lat="43.1394973" lon="11.7073389"><ele>534.75</ele><time>2026-04-19T07:08:53.866Z</time></trkpt><trkpt lat="43.1396079" lon="11.7074016"><ele>536.0</ele><time>2026-04-19T07:08:54.866Z</time></trkpt><trkpt lat="43.1397083" lon="11.7074709"><ele>536.0</ele><time>2026-04-19T07:08:55.867Z</time></trkpt><trkpt lat="43.1397715" lon="11.7075383"><ele>536.0</ele><time>2026-04-19T07:08:56.866Z</time></trkpt><trkpt lat="43.1398036" lon="11.7076522"><ele>536.0</ele><time>2026-04-19T07:08:58.866Z</time></trkpt><trkpt lat="43.1398719" lon="11.7077004"><ele>536.0</ele><time>2026-04-19T07:08:59.866Z</time></trkpt><trkpt lat="43.1399606" lon="11.7077531"><ele>536.0</ele><time>2026-04-19T07:09:00.866Z</time></trkpt><trkpt lat="43.1400614" lon="11.7078396"><ele>537.25</ele><time>2026-04-19T07:09:01.866Z</time></trkpt><trkpt lat="43.1401665" lon="11.7079537"><ele>538.5</ele><time>2026-04-19T07:09:02.866Z</time></trkpt><trkpt lat="43.1402696" lon="11.7080773"><ele>539.75</ele><time>2026-04-19T07:09:03.867Z</time></trkpt><trkpt lat="43.1403695" lon="11.7081925"><ele>541.0</ele><time>2026-04-19T07:09:04.866Z</time></trkpt><trkpt lat="43.1404738" lon="11.7083019"><ele>541.0</ele><time>2026-04-19T07:09:05.866Z</time></trkpt><trkpt lat="43.1405776" lon="11.7084043"><ele>541.0</ele><time>2026-04-19T07:09:06.867Z</time></trkpt><trkpt lat="43.1406709" lon="11.7084823"><ele>541.0</ele><time>2026-04-19T07:09:07.866Z</time></trkpt><trkpt lat="43.140765" lon="11.7085477"><ele>541.0</ele><time>2026-04-19T07:09:08.866Z</time></trkpt><trkpt lat="43.1408693" lon="11.7085877"><ele>542.0</ele><time>2026-04-19T07:09:09.867Z</time></trkpt><trkpt lat="43.1409835" lon="11.7086279"><ele>543.0</ele><time>2026-04-19T07:09:10.866Z</time></trkpt><trkpt lat="43.1411031" lon="11.7086971"><ele>544.0</ele><time>2026-04-19T07:09:11.867Z</time></trkpt><trkpt lat="43.1412195" lon="11.7087917"><ele>545.0</ele><time>2026-04-19T07:09:12.867Z</time></trkpt><trkpt lat="43.1413232" lon="11.7088994"><ele>545.0</ele><time>2026-04-19T07:09:13.866Z</time></trkpt><trkpt lat="43.1414124" lon="11.7090038"><ele>545.0</ele><time>2026-04-19T07:09:14.866Z</time></trkpt><trkpt lat="43.1414937" lon="11.7090965"><ele>545.0</ele><time>2026-04-19T07:09:15.866Z</time></trkpt><trkpt lat="43.1415739" lon="11.70917"><ele>545.0</ele><time>2026-04-19T07:09:16.866Z</time></trkpt><trkpt lat="43.1416687" lon="11.7092032"><ele>545.0</ele><time>2026-04-19T07:09:17.866Z</time></trkpt><trkpt lat="43.1417907" lon="11.7091841"><ele>544.8</ele><time>2026-04-19T07:09:18.866Z</time></trkpt><trkpt lat="43.1419156" lon="11.7091575"><ele>544.6</ele><time>2026-04-19T07:09:19.866Z</time></trkpt><trkpt lat="43.14203" lon="11.7091348"><ele>544.4</ele><time>2026-04-19T07:09:20.866Z</time></trkpt><trkpt lat="43.1421146" lon="11.7091367"><ele>544.2</ele><time>2026-04-19T07:09:21.866Z</time></trkpt><trkpt lat="43.1421979" lon="11.7091719"><ele>544.0</ele><time>2026-04-19T07:09:22.866Z</time></trkpt><trkpt lat="43.1422947" lon="11.7092336"><ele>544.0</ele><time>2026-04-19T07:09:23.866Z</time></trkpt><trkpt lat="43.1424186" lon="11.7092932"><ele>544.0</ele><time>2026-04-19T07:09:24.866Z</time></trkpt><trkpt lat="43.1425607" lon="11.7093459"><ele>544.0</ele><time>2026-04-19T07:09:25.866Z</time></trkpt><trkpt lat="43.1426904" lon="11.7093885"><ele>544.0</ele><time>2026-04-19T07:09:26.866Z</time></trkpt><trkpt lat="43.142805" lon="11.7094283"><ele>544.0</ele><time>2026-04-19T07:09:27.866Z</time></trkpt><trkpt lat="43.1429148" lon="11.709447"><ele>544.0</ele><time>2026-04-19T07:09:28.867Z</time></trkpt><trkpt lat="43.1430211" lon="11.7094104"><ele>544.0</ele><time>2026-04-19T07:09:29.867Z</time></trkpt><trkpt lat="43.1431096" lon="11.7093353"><ele>544.0</ele><time>2026-04-19T07:09:30.866Z</time></trkpt><trkpt lat="43.1431921" lon="11.7092401"><ele>544.0</ele><time>2026-04-19T07:09:31.866Z</time></trkpt><trkpt lat="43.1432744" lon="11.7091555"><ele>545.8</ele><time>2026-04-19T07:09:32.866Z</time></trkpt><trkpt lat="43.1433628" lon="11.7090964"><ele>547.5999999999999</ele><time>2026-04-19T07:09:33.866Z</time></trkpt><trkpt lat="43.1434595" lon="11.7090848"><ele>549.4</ele><time>2026-04-19T07:09:34.866Z</time></trkpt><trkpt lat="43.1435553" lon="11.709102"><ele>551.1999999999999</ele><time>2026-04-19T07:09:35.866Z</time></trkpt><trkpt lat="43.1436369" lon="11.7091298"><ele>553.0</ele><time>2026-04-19T07:09:36.866Z</time></trkpt><trkpt lat="43.1437171" lon="11.709202"><ele>553.0</ele><time>2026-04-19T07:09:37.867Z</time></trkpt><trkpt lat="43.1437972" lon="11.7092916"><ele>553.0</ele><time>2026-04-19T07:09:38.867Z</time></trkpt><trkpt lat="43.1438799" lon="11.7093678"><ele>553.0</ele><time>2026-04-19T07:09:39.866Z</time></trkpt><trkpt lat="43.14396" lon="11.7094446"><ele>553.0</ele><time>2026-04-19T07:09:40.866Z</time></trkpt><trkpt lat="43.1440486" lon="11.7095067"><ele>553.0</ele><time>2026-04-19T07:09:41.866Z</time></trkpt><trkpt lat="43.1441336" lon="11.7095629"><ele>552.3333333333334</ele><time>2026-04-19T07:09:42.866Z</time></trkpt><trkpt lat="43.1442107" lon="11.7096144"><ele>551.6666666666667</ele><time>2026-04-19T07:09:43.866Z</time></trkpt><trkpt lat="43.1442992" lon="11.7096388"><ele>551.0</ele><time>2026-04-19T07:09:44.867Z</time></trkpt><trkpt lat="43.1443825" lon="11.7096361"><ele>550.3333333333334</ele><time>2026-04-19T07:09:45.866Z</time></trkpt><trkpt lat="43.1444493" lon="11.7096021"><ele>549.6666666666666</ele><time>2026-04-19T07:09:46.867Z</time></trkpt><trkpt lat="43.1445509" lon="11.7095255"><ele>549.0</ele><time>2026-04-19T07:09:48.867Z</time></trkpt><trkpt lat="43.1445937" lon="11.7094467"><ele>551.5</ele><time>2026-04-19T07:09:50.867Z</time></trkpt><trkpt lat="43.1445153" lon="11.7093236"><ele>554.0</ele><time>2026-04-19T07:09:52.867Z</time></trkpt><trkpt lat="43.1444312" lon="11.7092481"><ele>556.5</ele><time>2026-04-19T07:09:53.866Z</time></trkpt><trkpt lat="43.1443277" lon="11.7091615"><ele>559.0</ele><time>2026-04-19T07:09:54.867Z</time></trkpt><trkpt lat="43.1442183" lon="11.7090822"><ele>559.0</ele><time>2026-04-19T07:09:55.867Z</time></trkpt><trkpt lat="43.14412" lon="11.709028"><ele>559.0</ele><time>2026-04-19T07:09:56.866Z</time></trkpt><trkpt lat="43.1440227" lon="11.7089799"><ele>559.0</ele><time>2026-04-19T07:09:57.866Z</time></trkpt><trkpt lat="43.1439262" lon="11.7089028"><ele>559.0</ele><time>2026-04-19T07:09:58.866Z</time></trkpt><trkpt lat="43.1438423" lon="11.7088231"><ele>559.0</ele><time>2026-04-19T07:09:59.867Z</time></trkpt><trkpt lat="43.1437669" lon="11.7087519"><ele>558.6</ele><time>2026-04-19T07:10:00.866Z</time></trkpt><trkpt lat="43.1437228" lon="11.7086852"><ele>558.2</ele><time>2026-04-19T07:10:02.866Z</time></trkpt><trkpt lat="43.1436624" lon="11.7085893"><ele>557.8000000000001</ele><time>2026-04-19T07:10:04.866Z</time></trkpt><trkpt lat="43.1436035" lon="11.7085277"><ele>557.4</ele><time>2026-04-19T07:10:05.866Z</time></trkpt><trkpt lat="43.1435221" lon="11.7084427"><ele>557.0</ele><time>2026-04-19T07:10:06.867Z</time></trkpt><trkpt lat="43.1434293" lon="11.7083464"><ele>557.0</ele><time>2026-04-19T07:10:07.866Z</time></trkpt><trkpt lat="43.1433471" lon="11.708249"><ele>557.0</ele><time>2026-04-19T07:10:08.866Z</time></trkpt><trkpt lat="43.1432664" lon="11.7081571"><ele>557.0</ele><time>2026-04-19T07:10:09.866Z</time></trkpt><trkpt lat="43.1431834" lon="11.7080575"><ele>557.0</ele><time>2026-04-19T07:10:10.866Z</time></trkpt><trkpt lat="43.1431269" lon="11.7079925"><ele>557.0</ele><time>2026-04-19T07:10:11.866Z</time></trkpt><trkpt lat="43.1430598" lon="11.7079377"><ele>556.8333333333333</ele><time>2026-04-19T07:10:13.867Z</time></trkpt><trkpt lat="43.1430046" lon="11.7078768"><ele>556.6666666666666</ele><time>2026-04-19T07:10:16.866Z</time></trkpt><trkpt lat="43.1429676" lon="11.7077926"><ele>556.5</ele><time>2026-04-19T07:10:18.867Z</time></trkpt><trkpt lat="43.1429275" lon="11.7076885"><ele>556.3333333333334</ele><time>2026-04-19T07:10:20.866Z</time></trkpt><trkpt lat="43.142902" lon="11.7076041"><ele>556.1666666666667</ele><time>2026-04-19T07:10:21.867Z</time></trkpt><trkpt lat="43.1428788" lon="11.7074864"><ele>556.0</ele><time>2026-04-19T07:10:22.867Z</time></trkpt><trkpt lat="43.14286" lon="11.7073509"><ele>556.0</ele><time>2026-04-19T07:10:23.866Z</time></trkpt><trkpt lat="43.1428374" lon="11.7072218"><ele>556.0</ele><time>2026-04-19T07:10:24.867Z</time></trkpt><trkpt lat="43.1428185" lon="11.7071202"><ele>556.0</ele><time>2026-04-19T07:10:25.866Z</time></trkpt><trkpt lat="43.1427891" lon="11.7069589"><ele>556.0</ele><time>2026-04-19T07:10:27.867Z</time></trkpt><trkpt lat="43.1427117" lon="11.7068378"><ele>556.0</ele><time>2026-04-19T07:10:29.866Z</time></trkpt><trkpt lat="43.142619" lon="11.706721"><ele>556.1666666666667</ele><time>2026-04-19T07:10:31.867Z</time></trkpt><trkpt lat="43.1425614" lon="11.7066363"><ele>556.3333333333334</ele><time>2026-04-19T07:10:32.866Z</time></trkpt><trkpt lat="43.1424966" lon="11.7065582"><ele>556.5</ele><time>2026-04-19T07:10:33.866Z</time></trkpt><trkpt lat="43.1424316" lon="11.7064857"><ele>556.6666666666666</ele><time>2026-04-19T07:10:34.866Z</time></trkpt><trkpt lat="43.1423881" lon="11.7064215"><ele>556.8333333333333</ele><time>2026-04-19T07:10:35.866Z</time></trkpt><trkpt lat="43.1423375" lon="11.7063285"><ele>557.0</ele><time>2026-04-19T07:10:37.866Z</time></trkpt><trkpt lat="43.1423361" lon="11.7061947"><ele>557.2</ele><time>2026-04-19T07:10:39.866Z</time></trkpt><trkpt lat="43.142352" lon="11.7060904"><ele>557.4000000000001</ele><time>2026-04-19T07:10:40.866Z</time></trkpt><trkpt lat="43.1423765" lon="11.7059601"><ele>557.5999999999999</ele><time>2026-04-19T07:10:41.866Z</time></trkpt><trkpt lat="43.1423973" lon="11.7058123"><ele>557.8</ele><time>2026-04-19T07:10:42.866Z</time></trkpt><trkpt lat="43.1424137" lon="11.7056611"><ele>558.0</ele><time>2026-04-19T07:10:43.866Z</time></trkpt><trkpt lat="43.1424345" lon="11.7055128"><ele>557.1999999999999</ele><time>2026-04-19T07:10:44.866Z</time></trkpt><trkpt lat="43.1424579" lon="11.7053677"><ele>556.4</ele><time>2026-04-19T07:10:45.866Z</time></trkpt><trkpt lat="43.1424822" lon="11.7052257"><ele>555.5999999999999</ele><time>2026-04-19T07:10:46.866Z</time></trkpt><trkpt lat="43.1425055" lon="11.7050908"><ele>554.8</ele><time>2026-04-19T07:10:47.867Z</time></trkpt><trkpt lat="43.142534" lon="11.7049613"><ele>554.0</ele><time>2026-04-19T07:10:48.866Z</time></trkpt><trkpt lat="43.142551" lon="11.7048426"><ele>553.1428571428571</ele><time>2026-04-19T07:10:49.867Z</time></trkpt><trkpt lat="43.1425664" lon="11.7047312"><ele>552.2857142857142</ele><time>2026-04-19T07:10:50.867Z</time></trkpt><trkpt lat="43.1425813" lon="11.7046245"><ele>551.4285714285714</ele><time>2026-04-19T07:10:51.866Z</time></trkpt><trkpt lat="43.1425946" lon="11.704524"><ele>550.5714285714286</ele><time>2026-04-19T07:10:52.866Z</time></trkpt><trkpt lat="43.1426058" lon="11.704429"><ele>549.7142857142858</ele><time>2026-04-19T07:10:53.866Z</time></trkpt><trkpt lat="43.1426215" lon="11.7043369"><ele>548.8571428571429</ele><time>2026-04-19T07:10:54.866Z</time></trkpt><trkpt lat="43.1426382" lon="11.7042505"><ele>548.0</ele><time>2026-04-19T07:10:55.866Z</time></trkpt><trkpt lat="43.1426611" lon="11.7041452"><ele>546.8</ele><time>2026-04-19T07:10:56.867Z</time></trkpt><trkpt lat="43.1426808" lon="11.7040366"><ele>545.5999999999999</ele><time>2026-04-19T07:10:57.866Z</time></trkpt><trkpt lat="43.1426944" lon="11.7039363"><ele>544.4000000000001</ele><time>2026-04-19T07:10:58.866Z</time></trkpt><trkpt lat="43.1427127" lon="11.70382"><ele>543.2</ele><time>2026-04-19T07:11:00.866Z</time></trkpt><trkpt lat="43.1428181" lon="11.7037988"><ele>542.0</ele><time>2026-04-19T07:11:02.866Z</time></trkpt><trkpt lat="43.1429199" lon="11.7038036"><ele>542.0</ele><time>2026-04-19T07:11:03.866Z</time></trkpt><trkpt lat="43.1430315" lon="11.7037972"><ele>542.0</ele><time>2026-04-19T07:11:04.867Z</time></trkpt><trkpt lat="43.1431122" lon="11.7037744"><ele>542.0</ele><time>2026-04-19T07:11:05.866Z</time></trkpt><trkpt lat="43.1431764" lon="11.7037407"><ele>542.0</ele><time>2026-04-19T07:11:06.866Z</time></trkpt><trkpt lat="43.1432349" lon="11.7036811"><ele>542.0</ele><time>2026-04-19T07:11:07.866Z</time></trkpt><trkpt lat="43.1432935" lon="11.7036336"><ele>542.0</ele><time>2026-04-19T07:11:08.866Z</time></trkpt><trkpt lat="43.1433496" lon="11.7035942"><ele>542.5</ele><time>2026-04-19T07:11:09.866Z</time></trkpt><trkpt lat="43.1434106" lon="11.7035615"><ele>543.0</ele><time>2026-04-19T07:11:10.866Z</time></trkpt><trkpt lat="43.1435221" lon="11.7034863"><ele>543.5</ele><time>2026-04-19T07:11:12.866Z</time></trkpt><trkpt lat="43.1435825" lon="11.7034296"><ele>544.0</ele><time>2026-04-19T07:11:13.866Z</time></trkpt><trkpt lat="43.1436482" lon="11.7033701"><ele>544.5</ele><time>2026-04-19T07:11:14.866Z</time></trkpt><trkpt lat="43.1437058" lon="11.7033182"><ele>545.0</ele><time>2026-04-19T07:11:15.866Z</time></trkpt><trkpt lat="43.1437724" lon="11.7032657"><ele>545.0</ele><time>2026-04-19T07:11:16.866Z</time></trkpt><trkpt lat="43.1438448" lon="11.7032117"><ele>545.0</ele><time>2026-04-19T07:11:17.867Z</time></trkpt><trkpt lat="43.1439158" lon="11.7031624"><ele>545.0</ele><time>2026-04-19T07:11:18.867Z</time></trkpt><trkpt lat="43.143975" lon="11.7031191"><ele>545.0</ele><time>2026-04-19T07:11:19.866Z</time></trkpt><trkpt lat="43.1440208" lon="11.7030522"><ele>545.0</ele><time>2026-04-19T07:11:20.866Z</time></trkpt><trkpt lat="43.1440585" lon="11.7029705"><ele>545.0</ele><time>2026-04-19T07:11:21.866Z</time></trkpt><trkpt lat="43.144103" lon="11.7028802"><ele>545.0</ele><time>2026-04-19T07:11:22.866Z</time></trkpt><trkpt lat="43.1441649" lon="11.7027968"><ele>547.5</ele><time>2026-04-19T07:11:23.866Z</time></trkpt><trkpt lat="43.1442167" lon="11.702734"><ele>550.0</ele><time>2026-04-19T07:11:24.866Z</time></trkpt><trkpt lat="43.1442822" lon="11.7027541"><ele>552.5</ele><time>2026-04-19T07:11:27.867Z</time></trkpt><trkpt lat="43.1443207" lon="11.702857"><ele>555.0</ele><time>2026-04-19T07:12:04.867Z</time></trkpt><trkpt lat="43.1444387" lon="11.7029176"><ele>557.5</ele><time>2026-04-19T07:12:06.866Z</time></trkpt><trkpt lat="43.1445191" lon="11.7029233"><ele>560.0</ele><time>2026-04-19T07:12:07.866Z</time></trkpt><trkpt lat="43.1446126" lon="11.7029719"><ele>560.0</ele><time>2026-04-19T07:12:09.866Z</time></trkpt><trkpt lat="43.144622" lon="11.7031196"><ele>560.0</ele><time>2026-04-19T07:12:11.866Z</time></trkpt><trkpt lat="43.1446367" lon="11.7032337"><ele>560.0</ele><time>2026-04-19T07:12:12.867Z</time></trkpt><trkpt lat="43.1446725" lon="11.7033471"><ele>560.0</ele><time>2026-04-19T07:12:13.867Z</time></trkpt><trkpt lat="43.1447349" lon="11.7034426"><ele>560.0</ele><time>2026-04-19T07:12:14.866Z</time></trkpt><trkpt lat="43.1448224" lon="11.7035128"><ele>561.4</ele><time>2026-04-19T07:12:15.866Z</time></trkpt><trkpt lat="43.144928" lon="11.7035548"><ele>562.8</ele><time>2026-04-19T07:12:16.866Z</time></trkpt><trkpt lat="43.1450445" lon="11.7035986"><ele>564.2</ele><time>2026-04-19T07:12:17.866Z</time></trkpt><trkpt lat="43.1451467" lon="11.703648"><ele>565.6</ele><time>2026-04-19T07:12:18.866Z</time></trkpt><trkpt lat="43.145239" lon="11.7037184"><ele>567.0</ele><time>2026-04-19T07:12:19.866Z</time></trkpt><trkpt lat="43.1453348" lon="11.70381"><ele>567.0</ele><time>2026-04-19T07:12:20.866Z</time></trkpt><trkpt lat="43.1454213" lon="11.7038703"><ele>567.0</ele><time>2026-04-19T07:12:21.866Z</time></trkpt><trkpt lat="43.1454832" lon="11.7039117"><ele>567.0</ele><time>2026-04-19T07:12:22.867Z</time></trkpt><trkpt lat="43.1455395" lon="11.7039666"><ele>567.0</ele><time>2026-04-19T07:12:24.866Z</time></trkpt><trkpt lat="43.1456296" lon="11.7039754"><ele>567.0</ele><time>2026-04-19T07:14:46.867Z</time></trkpt><trkpt lat="43.1456983" lon="11.704008"><ele>567.0</ele><time>2026-04-19T07:14:48.867Z</time></trkpt><trkpt lat="43.1457617" lon="11.7040329"><ele>567.3333333333334</ele><time>2026-04-19T07:14:50.867Z</time></trkpt><trkpt lat="43.1457912" lon="11.7039522"><ele>567.6666666666666</ele><time>2026-04-19T07:14:52.868Z</time></trkpt><trkpt lat="43.1458102" lon="11.7038006"><ele>568.0</ele><time>2026-04-19T07:14:54.867Z</time></trkpt><trkpt lat="43.1458294" lon="11.7037081"><ele>568.3333333333333</ele><time>2026-04-19T07:14:55.867Z</time></trkpt><trkpt lat="43.1458578" lon="11.7036235"><ele>568.6666666666666</ele><time>2026-04-19T07:14:56.867Z</time></trkpt><trkpt lat="43.145885" lon="11.7035348"><ele>569.0</ele><time>2026-04-19T07:14:57.867Z</time></trkpt><trkpt lat="43.1459083" lon="11.7034507"><ele>567.75</ele><time>2026-04-19T07:14:58.867Z</time></trkpt><trkpt lat="43.1459441" lon="11.7033014"><ele>566.5</ele><time>2026-04-19T07:15:00.868Z</time></trkpt><trkpt lat="43.1459652" lon="11.7031434"><ele>565.25</ele><time>2026-04-19T07:15:02.867Z</time></trkpt><trkpt lat="43.145999" lon="11.7029952"><ele>564.0</ele><time>2026-04-19T07:15:04.868Z</time></trkpt><trkpt lat="43.1460313" lon="11.7028507"><ele>562.2</ele><time>2026-04-19T07:15:06.867Z</time></trkpt><trkpt lat="43.1460512" lon="11.7027073"><ele>560.4</ele><time>2026-04-19T07:15:08.868Z</time></trkpt><trkpt lat="43.1460534" lon="11.7025654"><ele>558.6</ele><time>2026-04-19T07:15:10.867Z</time></trkpt><trkpt lat="43.146033" lon="11.7024319"><ele>556.8</ele><time>2026-04-19T07:15:12.867Z</time></trkpt><trkpt lat="43.1459967" lon="11.7023127"><ele>555.0</ele><time>2026-04-19T07:15:14.867Z</time></trkpt><trkpt lat="43.1459935" lon="11.7021782"><ele>555.0</ele><time>2026-04-19T07:15:16.867Z</time></trkpt><trkpt lat="43.1460009" lon="11.7020919"><ele>555.0</ele><time>2026-04-19T07:15:17.867Z</time></trkpt><trkpt lat="43.1460109" lon="11.7019835"><ele>555.0</ele><time>2026-04-19T07:15:18.868Z</time></trkpt><trkpt lat="43.1460242" lon="11.7018588"><ele>555.0</ele><time>2026-04-19T07:15:19.867Z</time></trkpt><trkpt lat="43.1460231" lon="11.7017421"><ele>555.0</ele><time>2026-04-19T07:15:20.867Z</time></trkpt><trkpt lat="43.1460076" lon="11.7016257"><ele>555.0</ele><time>2026-04-19T07:15:21.868Z</time></trkpt><trkpt lat="43.1459862" lon="11.7015272"><ele>553.8571428571429</ele><time>2026-04-19T07:15:22.868Z</time></trkpt><trkpt lat="43.1459653" lon="11.7014374"><ele>552.7142857142858</ele><time>2026-04-19T07:15:23.867Z</time></trkpt><trkpt lat="43.1459455" lon="11.7013476"><ele>551.5714285714286</ele><time>2026-04-19T07:15:24.867Z</time></trkpt><trkpt lat="43.1459231" lon="11.7012445"><ele>550.4285714285714</ele><time>2026-04-19T07:15:25.868Z</time></trkpt><trkpt lat="43.1458869" lon="11.7011386"><ele>549.2857142857142</ele><time>2026-04-19T07:15:26.867Z</time></trkpt><trkpt lat="43.1458417" lon="11.7010627"><ele>548.1428571428571</ele><time>2026-04-19T07:15:27.867Z</time></trkpt><trkpt lat="43.1457885" lon="11.7009974"><ele>547.0</ele><time>2026-04-19T07:15:28.867Z</time></trkpt><trkpt lat="43.1457387" lon="11.7009238"><ele>545.8000000000001</ele><time>2026-04-19T07:15:29.868Z</time></trkpt><trkpt lat="43.1456855" lon="11.7008649"><ele>544.6</ele><time>2026-04-19T07:15:30.867Z</time></trkpt><trkpt lat="43.1455931" lon="11.7007739"><ele>543.4000000000001</ele><time>2026-04-19T07:15:32.868Z</time></trkpt><trkpt lat="43.1455365" lon="11.7007093"><ele>542.2</ele><time>2026-04-19T07:15:34.867Z</time></trkpt><trkpt lat="43.1455255" lon="11.7005366"><ele>541.0</ele><time>2026-04-19T07:15:36.867Z</time></trkpt><trkpt lat="43.1455123" lon="11.700427"><ele>541.0</ele><time>2026-04-19T07:15:37.867Z</time></trkpt><trkpt lat="43.1454976" lon="11.7003129"><ele>541.0</ele><time>2026-04-19T07:15:38.867Z</time></trkpt><trkpt lat="43.1454706" lon="11.7002029"><ele>541.0</ele><time>2026-04-19T07:15:39.867Z</time></trkpt><trkpt lat="43.1454395" lon="11.7000941"><ele>541.0</ele><time>2026-04-19T07:15:40.868Z</time></trkpt><trkpt lat="43.1454001" lon="11.6999646"><ele>541.0</ele><time>2026-04-19T07:15:41.868Z</time></trkpt><trkpt lat="43.1453596" lon="11.6998403"><ele>541.2</ele><time>2026-04-19T07:15:42.867Z</time></trkpt><trkpt lat="43.1453172" lon="11.6997186"><ele>541.4000000000001</ele><time>2026-04-19T07:15:43.867Z</time></trkpt><trkpt lat="43.145284" lon="11.6996184"><ele>541.6</ele><time>2026-04-19T07:15:44.867Z</time></trkpt><trkpt lat="43.1452522" lon="11.699509"><ele>541.8000000000001</ele><time>2026-04-19T07:15:45.867Z</time></trkpt><trkpt lat="43.145203" lon="11.6993796"><ele>542.0</ele><time>2026-04-19T07:15:46.867Z</time></trkpt><trkpt lat="43.1451371" lon="11.6992387"><ele>543.25</ele><time>2026-04-19T07:15:47.867Z</time></trkpt><trkpt lat="43.1450532" lon="11.6991112"><ele>544.5</ele><time>2026-04-19T07:15:48.867Z</time></trkpt><trkpt lat="43.1449619" lon="11.6990092"><ele>545.75</ele><time>2026-04-19T07:15:49.867Z</time></trkpt><trkpt lat="43.144863" lon="11.6989329"><ele>547.0</ele><time>2026-04-19T07:15:50.867Z</time></trkpt><trkpt lat="43.1447556" lon="11.6988606"><ele>547.0</ele><time>2026-04-19T07:15:51.867Z</time></trkpt><trkpt lat="43.1446353" lon="11.6987977"><ele>547.0</ele><time>2026-04-19T07:15:52.867Z</time></trkpt><trkpt lat="43.1444955" lon="11.69873"><ele>547.0</ele><time>2026-04-19T07:15:53.867Z</time></trkpt><trkpt lat="43.1443576" lon="11.6986799"><ele>547.0</ele><time>2026-04-19T07:15:54.867Z</time></trkpt><trkpt lat="43.1442292" lon="11.6986477"><ele>547.0</ele><time>2026-04-19T07:15:55.867Z</time></trkpt><trkpt lat="43.1441094" lon="11.698615"><ele>547.0</ele><time>2026-04-19T07:15:56.868Z</time></trkpt><trkpt lat="43.143999" lon="11.6985886"><ele>547.0</ele><time>2026-04-19T07:15:57.868Z</time></trkpt><trkpt lat="43.1439042" lon="11.6985656"><ele>547.0</ele><time>2026-04-19T07:15:58.867Z</time></trkpt><trkpt lat="43.1438188" lon="11.6985363"><ele>547.0</ele><time>2026-04-19T07:15:59.867Z</time></trkpt><trkpt lat="43.1437523" lon="11.6984827"><ele>546.5</ele><time>2026-04-19T07:16:00.867Z</time></trkpt><trkpt lat="43.1436885" lon="11.6984113"><ele>546.0</ele><time>2026-04-19T07:16:01.867Z</time></trkpt><trkpt lat="43.1436193" lon="11.6983451"><ele>545.5</ele><time>2026-04-19T07:16:02.868Z</time></trkpt><trkpt lat="43.1435447" lon="11.6982927"><ele>545.0</ele><time>2026-04-19T07:16:03.868Z</time></trkpt><trkpt lat="43.1434579" lon="11.6982586"><ele>544.5</ele><time>2026-04-19T07:16:04.867Z</time></trkpt><trkpt lat="43.1433734" lon="11.6982452"><ele>544.0</ele><time>2026-04-19T07:16:05.867Z</time></trkpt><trkpt lat="43.1432904" lon="11.6982473"><ele>544.0</ele><time>2026-04-19T07:16:06.868Z</time></trkpt><trkpt lat="43.1432226" lon="11.6982825"><ele>544.0</ele><time>2026-04-19T07:16:07.867Z</time></trkpt><trkpt lat="43.1431621" lon="11.6983311"><ele>544.0</ele><time>2026-04-19T07:16:08.867Z</time></trkpt><trkpt lat="43.1431052" lon="11.6983863"><ele>544.0</ele><time>2026-04-19T07:16:09.867Z</time></trkpt><trkpt lat="43.1430058" lon="11.6984572"><ele>544.0</ele><time>2026-04-19T07:16:11.867Z</time></trkpt><trkpt lat="43.1429162" lon="11.6983926"><ele>544.0</ele><time>2026-04-19T07:16:13.868Z</time></trkpt><trkpt lat="43.142863" lon="11.698317"><ele>542.4</ele><time>2026-04-19T07:16:14.867Z</time></trkpt><trkpt lat="43.1428106" lon="11.6982297"><ele>540.8</ele><time>2026-04-19T07:16:15.867Z</time></trkpt><trkpt lat="43.142756" lon="11.6981343"><ele>539.2</ele><time>2026-04-19T07:16:16.867Z</time></trkpt><trkpt lat="43.1426977" lon="11.6980235"><ele>537.6</ele><time>2026-04-19T07:16:17.867Z</time></trkpt><trkpt lat="43.1426349" lon="11.6979033"><ele>536.0</ele><time>2026-04-19T07:16:18.867Z</time></trkpt><trkpt lat="43.1425695" lon="11.6977798"><ele>535.2</ele><time>2026-04-19T07:16:19.867Z</time></trkpt><trkpt lat="43.1425027" lon="11.6976659"><ele>534.4000000000001</ele><time>2026-04-19T07:16:20.867Z</time></trkpt><trkpt lat="43.1424339" lon="11.6975615"><ele>533.6</ele><time>2026-04-19T07:16:21.867Z</time></trkpt><trkpt lat="43.1423726" lon="11.6974701"><ele>532.8000000000001</ele><time>2026-04-19T07:16:22.867Z</time></trkpt><trkpt lat="43.1423064" lon="11.6973931"><ele>532.0</ele><time>2026-04-19T07:16:23.867Z</time></trkpt><trkpt lat="43.1422354" lon="11.6973334"><ele>531.0</ele><time>2026-04-19T07:16:24.867Z</time></trkpt><trkpt lat="43.1421568" lon="11.6973027"><ele>530.0</ele><time>2026-04-19T07:16:25.868Z</time></trkpt><trkpt lat="43.142054" lon="11.6973122"><ele>529.0</ele><time>2026-04-19T07:16:26.867Z</time></trkpt><trkpt lat="43.14193" lon="11.6973169"><ele>528.0</ele><time>2026-04-19T07:16:27.867Z</time></trkpt><trkpt lat="43.1417873" lon="11.6973202"><ele>528.0</ele><time>2026-04-19T07:16:28.867Z</time></trkpt><trkpt lat="43.1416456" lon="11.6973242"><ele>528.0</ele><time>2026-04-19T07:16:29.868Z</time></trkpt><trkpt lat="43.1415187" lon="11.6973247"><ele>528.0</ele><time>2026-04-19T07:16:30.867Z</time></trkpt><trkpt lat="43.141402" lon="11.6973259"><ele>528.0</ele><time>2026-04-19T07:16:31.867Z</time></trkpt><trkpt lat="43.1412882" lon="11.6973259"><ele>526.8</ele><time>2026-04-19T07:16:32.868Z</time></trkpt><trkpt lat="43.1411769" lon="11.6973281"><ele>525.5999999999999</ele><time>2026-04-19T07:16:33.867Z</time></trkpt><trkpt lat="43.141067" lon="11.6973177"><ele>524.4000000000001</ele><time>2026-04-19T07:16:34.867Z</time></trkpt><trkpt lat="43.1409596" lon="11.6973077"><ele>523.2</ele><time>2026-04-19T07:16:35.867Z</time></trkpt><trkpt lat="43.1408549" lon="11.6972988"><ele>522.0</ele><time>2026-04-19T07:16:36.867Z</time></trkpt><trkpt lat="43.1407452" lon="11.6972873"><ele>518.75</ele><time>2026-04-19T07:16:37.867Z</time></trkpt><trkpt lat="43.1406372" lon="11.6972693"><ele>515.5</ele><time>2026-04-19T07:16:38.867Z</time></trkpt><trkpt lat="43.1405261" lon="11.6972523"><ele>512.25</ele><time>2026-04-19T07:16:39.867Z</time></trkpt><trkpt lat="43.1404143" lon="11.6972333"><ele>509.0</ele><time>2026-04-19T07:16:40.867Z</time></trkpt><trkpt lat="43.140298" lon="11.697214"><ele>509.0</ele><time>2026-04-19T07:16:41.867Z</time></trkpt><trkpt lat="43.1401808" lon="11.6971924"><ele>509.0</ele><time>2026-04-19T07:16:42.867Z</time></trkpt><trkpt lat="43.1400628" lon="11.6971817"><ele>509.0</ele><time>2026-04-19T07:16:43.868Z</time></trkpt><trkpt lat="43.139943" lon="11.697172"><ele>509.0</ele><time>2026-04-19T07:16:44.867Z</time></trkpt><trkpt lat="43.1398199" lon="11.697156"><ele>506.0</ele><time>2026-04-19T07:16:45.868Z</time></trkpt><trkpt lat="43.1396977" lon="11.697148"><ele>503.0</ele><time>2026-04-19T07:16:46.868Z</time></trkpt><trkpt lat="43.1395744" lon="11.6971413"><ele>500.0</ele><time>2026-04-19T07:16:47.867Z</time></trkpt><trkpt lat="43.1394498" lon="11.6971511"><ele>497.0</ele><time>2026-04-19T07:16:48.867Z</time></trkpt><trkpt lat="43.1393293" lon="11.6971655"><ele>497.0</ele><time>2026-04-19T07:16:49.867Z</time></trkpt><trkpt lat="43.1392142" lon="11.6971761"><ele>497.00000000000006</ele><time>2026-04-19T07:16:50.867Z</time></trkpt><trkpt lat="43.1391048" lon="11.697185"><ele>497.00000000000006</ele><time>2026-04-19T07:16:51.867Z</time></trkpt><trkpt lat="43.1390007" lon="11.6971957"><ele>497.0</ele><time>2026-04-19T07:16:52.868Z</time></trkpt><trkpt lat="43.1389025" lon="11.6971941"><ele>497.0</ele><time>2026-04-19T07:16:53.868Z</time></trkpt><trkpt lat="43.1388105" lon="11.6971871"><ele>495.0</ele><time>2026-04-19T07:16:54.867Z</time></trkpt><trkpt lat="43.1387226" lon="11.6971701"><ele>493.00000000000006</ele><time>2026-04-19T07:16:55.868Z</time></trkpt><trkpt lat="43.1386357" lon="11.6971475"><ele>491.00000000000006</ele><time>2026-04-19T07:16:56.867Z</time></trkpt><trkpt lat="43.1385469" lon="11.6971133"><ele>489.0</ele><time>2026-04-19T07:16:57.867Z</time></trkpt><trkpt lat="43.1384619" lon="11.6970674"><ele>487.0</ele><time>2026-04-19T07:16:58.867Z</time></trkpt><trkpt lat="43.1383729" lon="11.697005"><ele>487.0</ele><time>2026-04-19T07:16:59.867Z</time></trkpt><trkpt lat="43.1382807" lon="11.6969341"><ele>487.00000000000006</ele><time>2026-04-19T07:17:00.867Z</time></trkpt><trkpt lat="43.1381885" lon="11.696846"><ele>487.00000000000006</ele><time>2026-04-19T07:17:01.867Z</time></trkpt><trkpt lat="43.1381008" lon="11.6967612"><ele>487.0</ele><time>2026-04-19T07:17:02.867Z</time></trkpt><trkpt lat="43.1380117" lon="11.6966781"><ele>487.0</ele><time>2026-04-19T07:17:03.867Z</time></trkpt><trkpt lat="43.137927" lon="11.6966007"><ele>485.00000000000006</ele><time>2026-04-19T07:17:04.868Z</time></trkpt><trkpt lat="43.1378468" lon="11.6965233"><ele>483.0</ele><time>2026-04-19T07:17:05.867Z</time></trkpt><trkpt lat="43.1377816" lon="11.696457"><ele>481.0</ele><time>2026-04-19T07:17:06.867Z</time></trkpt><trkpt lat="43.137724" lon="11.6964015"><ele>479.0</ele><time>2026-04-19T07:17:07.867Z</time></trkpt><trkpt lat="43.1376336" lon="11.696324"><ele>477.00000000000006</ele><time>2026-04-19T07:17:09.867Z</time></trkpt><trkpt lat="43.1375619" lon="11.6963169"><ele>475.0</ele><time>2026-04-19T07:17:11.867Z</time></trkpt><trkpt lat="43.1374643" lon="11.6963292"><ele>473.4</ele><time>2026-04-19T07:17:13.867Z</time></trkpt><trkpt lat="43.1373266" lon="11.6963317"><ele>471.8</ele><time>2026-04-19T07:17:15.868Z</time></trkpt><trkpt lat="43.1372335" lon="11.6963276"><ele>470.20000000000005</ele><time>2026-04-19T07:17:16.868Z</time></trkpt><trkpt lat="43.1371471" lon="11.6963276"><ele>468.6</ele><time>2026-04-19T07:17:17.867Z</time></trkpt><trkpt lat="43.1370594" lon="11.6963291"><ele>467.0</ele><time>2026-04-19T07:17:18.867Z</time></trkpt><trkpt lat="43.136976" lon="11.6963285"><ele>466.99999999999994</ele><time>2026-04-19T07:17:19.867Z</time></trkpt><trkpt lat="43.1368942" lon="11.6963181"><ele>467.0</ele><time>2026-04-19T07:17:20.867Z</time></trkpt><trkpt lat="43.1368178" lon="11.6962984"><ele>467.0</ele><time>2026-04-19T07:17:21.867Z</time></trkpt><trkpt lat="43.1367474" lon="11.6962635"><ele>467.0</ele><time>2026-04-19T07:17:22.867Z</time></trkpt><trkpt lat="43.1366824" lon="11.6962192"><ele>466.99999999999994</ele><time>2026-04-19T07:17:23.867Z</time></trkpt><trkpt lat="43.136589" lon="11.6961115"><ele>467.0</ele><time>2026-04-19T07:17:25.867Z</time></trkpt><trkpt lat="43.1365153" lon="11.6960236"><ele>465.99999999999994</ele><time>2026-04-19T07:17:27.867Z</time></trkpt><trkpt lat="43.1364456" lon="11.6959919"><ele>465.0</ele><time>2026-04-19T07:17:29.867Z</time></trkpt><trkpt lat="43.1363799" lon="11.6959797"><ele>463.99999999999994</ele><time>2026-04-19T07:17:31.867Z</time></trkpt><trkpt lat="43.1363118" lon="11.6959741"><ele>462.99999999999994</ele><time>2026-04-19T07:17:33.867Z</time></trkpt><trkpt lat="43.1362468" lon="11.6959645"><ele>462.0</ele><time>2026-04-19T07:17:35.868Z</time></trkpt><trkpt lat="43.1361828" lon="11.6959578"><ele>460.99999999999994</ele><time>2026-04-19T07:17:37.868Z</time></trkpt><trkpt lat="43.1361158" lon="11.6959591"><ele>459.99999999999994</ele><time>2026-04-19T07:17:39.867Z</time></trkpt><trkpt lat="43.1360377" lon="11.695944"><ele>459.99999999999994</ele><time>2026-04-19T07:17:41.867Z</time></trkpt><trkpt lat="43.1359684" lon="11.6959417"><ele>460.0</ele><time>2026-04-19T07:17:43.867Z</time></trkpt><trkpt lat="43.1358905" lon="11.6959478"><ele>459.99999999999994</ele><time>2026-04-19T07:17:45.867Z</time></trkpt><trkpt lat="43.1358062" lon="11.6959449"><ele>459.99999999999994</ele><time>2026-04-19T07:17:48.867Z</time></trkpt><trkpt lat="43.1357505" lon="11.695888"><ele>460.0</ele><time>2026-04-19T07:17:52.867Z</time></trkpt><trkpt lat="43.1356998" lon="11.695816"><ele>459.99999999999994</ele><time>2026-04-19T07:18:13.023Z</time></trkpt><trkpt lat="43.1356346" lon="11.6957685"><ele>459.99999999999994</ele><time>2026-04-19T07:18:17.023Z</time></trkpt><trkpt lat="43.1355645" lon="11.6957083"><ele>458.6666666666667</ele><time>2026-04-19T07:18:21.022Z</time></trkpt><trkpt lat="43.1355212" lon="11.6955914"><ele>457.33333333333337</ele><time>2026-04-19T07:18:24.023Z</time></trkpt><trkpt lat="43.1354712" lon="11.6954979"><ele>456.0</ele><time>2026-04-19T07:18:26.023Z</time></trkpt><trkpt lat="43.1354064" lon="11.6954084"><ele>454.66666666666663</ele><time>2026-04-19T07:18:28.023Z</time></trkpt><trkpt lat="43.1353687" lon="11.6953233"><ele>453.3333333333333</ele><time>2026-04-19T07:18:30.023Z</time></trkpt><trkpt lat="43.1353677" lon="11.6952312"><ele>452.0</ele><time>2026-04-19T07:18:33.023Z</time></trkpt><trkpt lat="43.1354275" lon="11.6951694"><ele>451.57142857142856</ele><time>2026-04-19T07:18:52.023Z</time></trkpt><trkpt lat="43.1355172" lon="11.6951622"><ele>451.1428571428571</ele><time>2026-04-19T07:19:08.022Z</time></trkpt><trkpt lat="43.1355677" lon="11.6951063"><ele>450.71428571428567</ele><time>2026-04-19T07:19:11.023Z</time></trkpt><trkpt lat="43.1356273" lon="11.6950615"><ele>450.2857142857143</ele><time>2026-04-19T07:19:15.023Z</time></trkpt><trkpt lat="43.1356199" lon="11.6949758"><ele>449.8571428571428</ele><time>2026-04-19T07:19:22.023Z</time></trkpt><trkpt lat="43.1356856" lon="11.6949183"><ele>449.4285714285714</ele><time>2026-04-19T07:19:29.023Z</time></trkpt><trkpt lat="43.1357642" lon="11.6949056"><ele>449.0</ele><time>2026-04-19T07:19:33.023Z</time></trkpt><trkpt lat="43.1358396" lon="11.6949007"><ele>448.99999999999994</ele><time>2026-04-19T07:19:43.022Z</time></trkpt><trkpt lat="43.1359038" lon="11.6949332"><ele>449.0</ele><time>2026-04-19T07:19:46.022Z</time></trkpt><trkpt lat="43.1359818" lon="11.6949708"><ele>449.0</ele><time>2026-04-19T07:22:37.022Z</time></trkpt><trkpt lat="43.1360533" lon="11.6949641"><ele>449.0</ele><time>2026-04-19T07:22:59.023Z</time></trkpt><trkpt lat="43.1361215" lon="11.6949739"><ele>448.99999999999994</ele><time>2026-04-19T07:23:04.023Z</time></trkpt><trkpt lat="43.1362088" lon="11.6949909"><ele>449.0</ele><time>2026-04-19T07:23:20.023Z</time></trkpt><trkpt lat="43.1362786" lon="11.695028"><ele>448.99999999999994</ele><time>2026-04-19T07:23:22.024Z</time></trkpt><trkpt lat="43.1363738" lon="11.695075"><ele>449.0</ele><time>2026-04-19T07:23:25.024Z</time></trkpt><trkpt lat="43.1364432" lon="11.6950982"><ele>449.0</ele><time>2026-04-19T07:23:27.024Z</time></trkpt><trkpt lat="43.136514" lon="11.6951273"><ele>449.0</ele><time>2026-04-19T07:23:29.024Z</time></trkpt><trkpt lat="43.1365932" lon="11.69515"><ele>448.99999999999994</ele><time>2026-04-19T07:23:31.024Z</time></trkpt><trkpt lat="43.1366631" lon="11.695196"><ele>449.0</ele><time>2026-04-19T07:23:33.023Z</time></trkpt><trkpt lat="43.1367164" lon="11.6952467"><ele>451.4285714285714</ele><time>2026-04-19T07:23:36.024Z</time></trkpt><trkpt lat="43.1367858" lon="11.6952584"><ele>453.8571428571428</ele><time>2026-04-19T07:23:40.024Z</time></trkpt><trkpt lat="43.1368498" lon="11.6953"><ele>456.2857142857143</ele><time>2026-04-19T07:23:47.06Z</time></trkpt><trkpt lat="43.1369062" lon="11.6953579"><ele>458.71428571428567</ele><time>2026-04-19T07:23:57.119Z</time></trkpt><trkpt lat="43.1369631" lon="11.6953951"><ele>461.1428571428571</ele><time>2026-04-19T07:24:02.138Z</time></trkpt><trkpt lat="43.1370295" lon="11.6954399"><ele>463.57142857142856</ele><time>2026-04-19T07:24:05.745Z</time></trkpt><trkpt lat="43.1370921" lon="11.6954615"><ele>466.0</ele><time>2026-04-19T07:24:09.02Z</time></trkpt><trkpt lat="43.1371511" lon="11.6954977"><ele>466.0</ele><time>2026-04-19T07:24:14.023Z</time></trkpt><trkpt lat="43.1372151" lon="11.6955234"><ele>466.0</ele><time>2026-04-19T07:24:23.023Z</time></trkpt><trkpt lat="43.1372749" lon="11.6955536"><ele>466.0</ele><time>2026-04-19T07:24:26.024Z</time></trkpt><trkpt lat="43.1373334" lon="11.6955862"><ele>466.0</ele><time>2026-04-19T07:24:28.023Z</time></trkpt><trkpt lat="43.1374171" lon="11.6956189"><ele>466.0</ele><time>2026-04-19T07:24:30.023Z</time></trkpt><trkpt lat="43.137505" lon="11.6956436"><ele>466.0</ele><time>2026-04-19T07:24:32.023Z</time></trkpt><trkpt lat="43.1375709" lon="11.6956326"><ele>466.0</ele><time>2026-04-19T07:24:35.024Z</time></trkpt><trkpt lat="43.1376342" lon="11.6955986"><ele>467.28571428571433</ele><time>2026-04-19T07:24:53.024Z</time></trkpt><trkpt lat="43.1377008" lon="11.6956137"><ele>468.57142857142856</ele><time>2026-04-19T07:24:56.023Z</time></trkpt><trkpt lat="43.1377716" lon="11.6956339"><ele>469.8571428571429</ele><time>2026-04-19T07:24:59.024Z</time></trkpt><trkpt lat="43.1378344" lon="11.6956479"><ele>471.14285714285717</ele><time>2026-04-19T07:25:01.024Z</time></trkpt><trkpt lat="43.1379044" lon="11.6956543"><ele>472.42857142857144</ele><time>2026-04-19T07:25:03.023Z</time></trkpt><trkpt lat="43.1379717" lon="11.6956784"><ele>473.7142857142857</ele><time>2026-04-19T07:25:05.024Z</time></trkpt><trkpt lat="43.1380505" lon="11.6956775"><ele>475.0</ele><time>2026-04-19T07:25:07.024Z</time></trkpt><trkpt lat="43.1381299" lon="11.6957183"><ele>475.00000000000006</ele><time>2026-04-19T07:25:10.024Z</time></trkpt><trkpt lat="43.1381" lon="11.6958029"><ele>475.0</ele><time>2026-04-19T07:25:12.023Z</time></trkpt><trkpt lat="43.1380274" lon="11.6959284"><ele>475.0</ele><time>2026-04-19T07:25:14.023Z</time></trkpt><trkpt lat="43.137968" lon="11.695973"><ele>475.0</ele><time>2026-04-19T07:25:15.024Z</time></trkpt><trkpt lat="43.1378997" lon="11.696012"><ele>475.00000000000006</ele><time>2026-04-19T07:25:16.023Z</time></trkpt><trkpt lat="43.1378247" lon="11.6960369"><ele>475.0</ele><time>2026-04-19T07:25:17.023Z</time></trkpt><trkpt lat="43.13775" lon="11.6960586"><ele>475.0</ele><time>2026-04-19T07:25:18.023Z</time></trkpt><trkpt lat="43.1376481" lon="11.6961259"><ele>475.0</ele><time>2026-04-19T07:25:20.024Z</time></trkpt><trkpt lat="43.1376164" lon="11.6962668"><ele>475.0</ele><time>2026-04-19T07:25:22.024Z</time></trkpt><trkpt lat="43.1375699" lon="11.6963441"><ele>475.0</ele><time>2026-04-19T07:25:24.024Z</time></trkpt><trkpt lat="43.1374642" lon="11.6963647"><ele>475.0</ele><time>2026-04-19T07:25:26.024Z</time></trkpt><trkpt lat="43.1373877" lon="11.6963692"><ele>473.4</ele><time>2026-04-19T07:25:27.023Z</time></trkpt><trkpt lat="43.1372887" lon="11.6963645"><ele>471.8</ele><time>2026-04-19T07:25:28.024Z</time></trkpt><trkpt lat="43.1371818" lon="11.6963609"><ele>470.20000000000005</ele><time>2026-04-19T07:25:29.023Z</time></trkpt><trkpt lat="43.1370833" lon="11.6963554"><ele>468.6</ele><time>2026-04-19T07:25:30.024Z</time></trkpt><trkpt lat="43.1369913" lon="11.6963486"><ele>467.0</ele><time>2026-04-19T07:25:31.024Z</time></trkpt><trkpt lat="43.1369141" lon="11.6963343"><ele>466.99999999999994</ele><time>2026-04-19T07:25:32.023Z</time></trkpt><trkpt lat="43.1368455" lon="11.6963143"><ele>467.0</ele><time>2026-04-19T07:25:33.024Z</time></trkpt><trkpt lat="43.1367851" lon="11.6962854"><ele>466.99999999999994</ele><time>2026-04-19T07:25:34.024Z</time></trkpt><trkpt lat="43.1367201" lon="11.6962461"><ele>466.99999999999994</ele><time>2026-04-19T07:25:35.023Z</time></trkpt><trkpt lat="43.1366572" lon="11.6961882"><ele>467.0</ele><time>2026-04-19T07:25:36.024Z</time></trkpt><trkpt lat="43.1365949" lon="11.6961239"><ele>466.99999999999994</ele><time>2026-04-19T07:25:37.023Z</time></trkpt><trkpt lat="43.1365412" lon="11.6960705"><ele>466.99999999999994</ele><time>2026-04-19T07:25:38.024Z</time></trkpt><trkpt lat="43.1364454" lon="11.6960134"><ele>465.8333333333333</ele><time>2026-04-19T07:25:40.023Z</time></trkpt><trkpt lat="43.1363481" lon="11.6959825"><ele>464.66666666666663</ele><time>2026-04-19T07:25:42.024Z</time></trkpt><trkpt lat="43.1362843" lon="11.6959638"><ele>463.5</ele><time>2026-04-19T07:25:44.024Z</time></trkpt><trkpt lat="43.1362105" lon="11.6959581"><ele>462.33333333333337</ele><time>2026-04-19T07:25:46.023Z</time></trkpt><trkpt lat="43.1361219" lon="11.6959484"><ele>461.1666666666667</ele><time>2026-04-19T07:25:48.023Z</time></trkpt><trkpt lat="43.1360268" lon="11.6959238"><ele>460.0</ele><time>2026-04-19T07:25:50.023Z</time></trkpt><trkpt lat="43.135949" lon="11.6959268"><ele>460.00000000000006</ele><time>2026-04-19T07:25:52.024Z</time></trkpt><trkpt lat="43.1358641" lon="11.6959246"><ele>460.0</ele><time>2026-04-19T07:25:54.023Z</time></trkpt><trkpt lat="43.1357869" lon="11.6959349"><ele>460.0</ele><time>2026-04-19T07:25:57.024Z</time></trkpt><trkpt lat="43.1357394" lon="11.6958752"><ele>460.0</ele><time>2026-04-19T07:26:00.024Z</time></trkpt><trkpt lat="43.135661" lon="11.6957834"><ele>460.00000000000006</ele><time>2026-04-19T07:26:02.024Z</time></trkpt><trkpt lat="43.135576" lon="11.6957127"><ele>460.0</ele><time>2026-04-19T07:26:04.024Z</time></trkpt><trkpt lat="43.1355004" lon="11.6956522"><ele>458.6666666666667</ele><time>2026-04-19T07:26:06.023Z</time></trkpt><trkpt lat="43.1354595" lon="11.6955308"><ele>457.33333333333337</ele><time>2026-04-19T07:26:09.024Z</time></trkpt><trkpt lat="43.1354139" lon="11.6954453"><ele>456.0</ele><time>2026-04-19T07:26:11.024Z</time></trkpt><trkpt lat="43.1353573" lon="11.6953334"><ele>454.66666666666663</ele><time>2026-04-19T07:26:13.023Z</time></trkpt><trkpt lat="43.1353745" lon="11.6952272"><ele>453.3333333333333</ele><time>2026-04-19T07:26:16.024Z</time></trkpt><trkpt lat="43.1354393" lon="11.6952049"><ele>452.0</ele><time>2026-04-19T07:26:18.024Z</time></trkpt><trkpt lat="43.1355089" lon="11.6952048"><ele>451.49999999999994</ele><time>2026-04-19T07:26:23.023Z</time></trkpt><trkpt lat="43.1355835" lon="11.6951444"><ele>451.0</ele><time>2026-04-19T07:26:27.023Z</time></trkpt><trkpt lat="43.1356315" lon="11.6950708"><ele>450.5</ele><time>2026-04-19T07:26:30.023Z</time></trkpt><trkpt lat="43.1356168" lon="11.694971"><ele>450.0</ele><time>2026-04-19T07:26:33.024Z</time></trkpt><trkpt lat="43.1356858" lon="11.6949241"><ele>449.49999999999994</ele><time>2026-04-19T07:26:37.024Z</time></trkpt><trkpt lat="43.1357685" lon="11.694914"><ele>449.0</ele><time>2026-04-19T07:26:40.024Z</time></trkpt><trkpt lat="43.1358515" lon="11.6949237"><ele>449.0</ele><time>2026-04-19T07:26:43.023Z</time></trkpt><trkpt lat="43.1359157" lon="11.6949569"><ele>448.99999999999994</ele><time>2026-04-19T07:26:45.024Z</time></trkpt><trkpt lat="43.135978" lon="11.6949885"><ele>449.0</ele><time>2026-04-19T07:26:47.024Z</time></trkpt><trkpt lat="43.1360399" lon="11.6950117"><ele>449.0</ele><time>2026-04-19T07:26:50.023Z</time></trkpt><trkpt lat="43.1361037" lon="11.694999"><ele>448.99999999999994</ele><time>2026-04-19T07:26:54.023Z</time></trkpt><trkpt lat="43.1361759" lon="11.6949682"><ele>449.0</ele><time>2026-04-19T07:27:04.023Z</time></trkpt><trkpt lat="43.1362458" lon="11.6950047"><ele>449.0</ele><time>2026-04-19T07:27:06.024Z</time></trkpt><trkpt lat="43.1363007" lon="11.6950519"><ele>448.99999999999994</ele><time>2026-04-19T07:27:09.036Z</time></trkpt><trkpt lat="43.1363781" lon="11.6951098"><ele>449.0</ele><time>2026-04-19T07:27:11.094Z</time></trkpt><trkpt lat="43.1364535" lon="11.6951305"><ele>449.0</ele><time>2026-04-19T07:27:13.058Z</time></trkpt><trkpt lat="43.1365349" lon="11.6951445"><ele>449.0</ele><time>2026-04-19T07:27:15.068Z</time></trkpt><trkpt lat="43.1366199" lon="11.695175"><ele>448.99999999999994</ele><time>2026-04-19T07:27:17.079Z</time></trkpt><trkpt lat="43.1366728" lon="11.6952413"><ele>449.0</ele><time>2026-04-19T07:27:19.098Z</time></trkpt><trkpt lat="43.1367442" lon="11.6952212"><ele>451.4285714285714</ele><time>2026-04-19T07:27:26.119Z</time></trkpt><trkpt lat="43.1368" lon="11.6952747"><ele>453.8571428571428</ele><time>2026-04-19T07:27:30.028Z</time></trkpt><trkpt lat="43.1368529" lon="11.6953282"><ele>456.2857142857143</ele><time>2026-04-19T07:28:23.084Z</time></trkpt><trkpt lat="43.1369152" lon="11.6953752"><ele>458.71428571428567</ele><time>2026-04-19T07:28:26.098Z</time></trkpt><trkpt lat="43.1369807" lon="11.6953844"><ele>461.1428571428571</ele><time>2026-04-19T07:28:32.024Z</time></trkpt><trkpt lat="43.1370306" lon="11.6954461"><ele>463.57142857142856</ele><time>2026-04-19T07:30:50.086Z</time></trkpt><trkpt lat="43.1371055" lon="11.6954228"><ele>466.0</ele><time>2026-04-19T07:31:08.467Z</time></trkpt><trkpt lat="43.1371724" lon="11.6954573"><ele>466.0</ele><time>2026-04-19T07:31:13.054Z</time></trkpt><trkpt lat="43.1372312" lon="11.6955148"><ele>466.0</ele><time>2026-04-19T07:31:17.074Z</time></trkpt><trkpt lat="43.1372944" lon="11.6955659"><ele>466.0</ele><time>2026-04-19T07:31:24.005Z</time></trkpt><trkpt lat="43.137359" lon="11.6955809"><ele>466.0</ele><time>2026-04-19T07:31:26.023Z</time></trkpt><trkpt lat="43.1374436" lon="11.6956034"><ele>466.0</ele><time>2026-04-19T07:31:28.901Z</time></trkpt><trkpt lat="43.1375073" lon="11.695595"><ele>466.0</ele><time>2026-04-19T07:31:32.038Z</time></trkpt><trkpt lat="43.1375787" lon="11.6955965"><ele>466.0</ele><time>2026-04-19T07:32:27.465Z</time></trkpt><trkpt lat="43.1376506" lon="11.6956422"><ele>467.28571428571433</ele><time>2026-04-19T07:35:22.025Z</time></trkpt><trkpt lat="43.1377164" lon="11.6956385"><ele>468.57142857142856</ele><time>2026-04-19T07:35:28.025Z</time></trkpt><trkpt lat="43.1377831" lon="11.6956764"><ele>469.8571428571429</ele><time>2026-04-19T07:35:32.024Z</time></trkpt><trkpt lat="43.137709" lon="11.6955971"><ele>471.14285714285717</ele><time>2026-04-19T07:36:09.025Z</time></trkpt><trkpt lat="43.1376409" lon="11.6956101"><ele>472.42857142857144</ele><time>2026-04-19T07:36:18.025Z</time></trkpt><trkpt lat="43.1375826" lon="11.6956466"><ele>473.7142857142857</ele><time>2026-04-19T07:42:29.025Z</time></trkpt><trkpt lat="43.1376541" lon="11.6956266"><ele>475.0</ele><time>2026-04-19T07:50:18.024Z</time></trkpt><trkpt lat="43.1377225" lon="11.6956453"><ele>475.00000000000006</ele><time>2026-04-19T07:52:18.025Z</time></trkpt><trkpt lat="43.1378018" lon="11.6956696"><ele>475.0</ele><time>2026-04-19T07:52:31.025Z</time></trkpt><trkpt lat="43.1378891" lon="11.6956738"><ele>475.0</ele><time>2026-04-19T07:54:10.025Z</time></trkpt><trkpt lat="43.1379605" lon="11.6957061"><ele>475.0</ele><time>2026-04-19T07:54:17.024Z</time></trkpt><trkpt lat="43.1380382" lon="11.6957153"><ele>475.00000000000006</ele><time>2026-04-19T07:54:20.025Z</time></trkpt><trkpt lat="43.1381154" lon="11.6957267"><ele>475.0</ele><time>2026-04-19T07:54:23.025Z</time></trkpt><trkpt lat="43.1381975" lon="11.6956575"><ele>476.2</ele><time>2026-04-19T07:55:21.024Z</time></trkpt><trkpt lat="43.1382397" lon="11.6955346"><ele>477.4</ele><time>2026-04-19T07:55:23.025Z</time></trkpt><trkpt lat="43.1382898" lon="11.6953711"><ele>478.6</ele><time>2026-04-19T07:55:25.024Z</time></trkpt><trkpt lat="43.1383192" lon="11.6952735"><ele>479.8</ele><time>2026-04-19T07:55:26.024Z</time></trkpt><trkpt lat="43.1383576" lon="11.6951752"><ele>481.0</ele><time>2026-04-19T07:55:27.024Z</time></trkpt><trkpt lat="43.138385" lon="11.6950905"><ele>481.4</ele><time>2026-04-19T07:55:28.025Z</time></trkpt><trkpt lat="43.1383999" lon="11.6949933"><ele>481.8</ele><time>2026-04-19T07:55:29.025Z</time></trkpt><trkpt lat="43.1383881" lon="11.6948693"><ele>482.19999999999993</ele><time>2026-04-19T07:55:30.025Z</time></trkpt><trkpt lat="43.1383743" lon="11.6947318"><ele>482.59999999999997</ele><time>2026-04-19T07:55:31.025Z</time></trkpt><trkpt lat="43.1383601" lon="11.6945922"><ele>483.0</ele><time>2026-04-19T07:55:32.025Z</time></trkpt><trkpt lat="43.1383417" lon="11.6944445"><ele>483.59999999999997</ele><time>2026-04-19T07:55:33.025Z</time></trkpt><trkpt lat="43.1383243" lon="11.6942953"><ele>484.19999999999993</ele><time>2026-04-19T07:55:34.024Z</time></trkpt><trkpt lat="43.1383086" lon="11.694137"><ele>484.8</ele><time>2026-04-19T07:55:35.024Z</time></trkpt><trkpt lat="43.1382893" lon="11.6939872"><ele>485.4</ele><time>2026-04-19T07:55:36.025Z</time></trkpt><trkpt lat="43.1382663" lon="11.6938531"><ele>486.0</ele><time>2026-04-19T07:55:37.024Z</time></trkpt><trkpt lat="43.1382412" lon="11.6937309"><ele>486.0</ele><time>2026-04-19T07:55:38.025Z</time></trkpt><trkpt lat="43.1382245" lon="11.6936121"><ele>486.0</ele><time>2026-04-19T07:55:39.025Z</time></trkpt><trkpt lat="43.1382161" lon="11.6935101"><ele>486.0</ele><time>2026-04-19T07:55:40.025Z</time></trkpt><trkpt lat="43.1382068" lon="11.6934164"><ele>486.0</ele><time>2026-04-19T07:55:41.024Z</time></trkpt><trkpt lat="43.1381982" lon="11.6933194"><ele>486.0</ele><time>2026-04-19T07:55:42.025Z</time></trkpt><trkpt lat="43.1381952" lon="11.6932188"><ele>486.0</ele><time>2026-04-19T07:55:43.025Z</time></trkpt><trkpt lat="43.1381949" lon="11.6931198"><ele>486.0</ele><time>2026-04-19T07:55:44.024Z</time></trkpt><trkpt lat="43.1381986" lon="11.6930254"><ele>486.4</ele><time>2026-04-19T07:55:45.025Z</time></trkpt><trkpt lat="43.1382092" lon="11.6929312"><ele>486.8</ele><time>2026-04-19T07:55:46.024Z</time></trkpt><trkpt lat="43.1382375" lon="11.6927781"><ele>487.19999999999993</ele><time>2026-04-19T07:55:48.024Z</time></trkpt><trkpt lat="43.1383003" lon="11.6926741"><ele>487.59999999999997</ele><time>2026-04-19T07:55:50.025Z</time></trkpt><trkpt lat="43.1384076" lon="11.6925896"><ele>488.0</ele><time>2026-04-19T07:55:52.025Z</time></trkpt><trkpt lat="43.1384742" lon="11.6925544"><ele>488.79999999999995</ele><time>2026-04-19T07:55:53.025Z</time></trkpt><trkpt lat="43.1385479" lon="11.692517"><ele>489.59999999999997</ele><time>2026-04-19T07:55:54.024Z</time></trkpt><trkpt lat="43.1386377" lon="11.6924651"><ele>490.40000000000003</ele><time>2026-04-19T07:55:55.024Z</time></trkpt><trkpt lat="43.1387297" lon="11.6924074"><ele>491.20000000000005</ele><time>2026-04-19T07:55:56.024Z</time></trkpt><trkpt lat="43.1388208" lon="11.6923456"><ele>492.0</ele><time>2026-04-19T07:55:57.025Z</time></trkpt><trkpt lat="43.1389057" lon="11.6922816"><ele>492.0</ele><time>2026-04-19T07:55:58.025Z</time></trkpt><trkpt lat="43.1389879" lon="11.6922236"><ele>492.0</ele><time>2026-04-19T07:55:59.024Z</time></trkpt><trkpt lat="43.1390649" lon="11.6921678"><ele>492.0</ele><time>2026-04-19T07:56:00.025Z</time></trkpt><trkpt lat="43.1391365" lon="11.6921182"><ele>492.0</ele><time>2026-04-19T07:56:01.024Z</time></trkpt><trkpt lat="43.1392061" lon="11.692065"><ele>492.0</ele><time>2026-04-19T07:56:02.025Z</time></trkpt><trkpt lat="43.1392768" lon="11.6920337"><ele>492.0</ele><time>2026-04-19T07:56:03.024Z</time></trkpt><trkpt lat="43.1393511" lon="11.692013"><ele>492.5</ele><time>2026-04-19T07:56:04.025Z</time></trkpt><trkpt lat="43.1394224" lon="11.6919887"><ele>493.0</ele><time>2026-04-19T07:56:05.025Z</time></trkpt><trkpt lat="43.1394993" lon="11.6919701"><ele>493.5</ele><time>2026-04-19T07:56:06.025Z</time></trkpt><trkpt lat="43.1395819" lon="11.6919478"><ele>494.0</ele><time>2026-04-19T07:56:07.024Z</time></trkpt><trkpt lat="43.1396675" lon="11.6919347"><ele>494.5</ele><time>2026-04-19T07:56:08.025Z</time></trkpt><trkpt lat="43.1397553" lon="11.6919128"><ele>495.0</ele><time>2026-04-19T07:56:09.024Z</time></trkpt><trkpt lat="43.1398432" lon="11.6918914"><ele>493.3333333333333</ele><time>2026-04-19T07:56:10.024Z</time></trkpt><trkpt lat="43.1399273" lon="11.6918661"><ele>491.66666666666663</ele><time>2026-04-19T07:56:11.024Z</time></trkpt><trkpt lat="43.1399981" lon="11.6918276"><ele>490.0</ele><time>2026-04-19T07:56:12.024Z</time></trkpt><trkpt lat="43.1400614" lon="11.6917703"><ele>488.3333333333333</ele><time>2026-04-19T07:56:13.025Z</time></trkpt><trkpt lat="43.1401138" lon="11.6916827"><ele>486.66666666666663</ele><time>2026-04-19T07:56:14.025Z</time></trkpt><trkpt lat="43.1401774" lon="11.6915817"><ele>485.0</ele><time>2026-04-19T07:56:15.024Z</time></trkpt><trkpt lat="43.1402354" lon="11.6914893"><ele>485.0</ele><time>2026-04-19T07:56:16.025Z</time></trkpt><trkpt lat="43.1402989" lon="11.6913895"><ele>485.0</ele><time>2026-04-19T07:56:17.025Z</time></trkpt><trkpt lat="43.1403602" lon="11.6912997"><ele>485.0</ele><time>2026-04-19T07:56:18.024Z</time></trkpt><trkpt lat="43.1404232" lon="11.691211"><ele>485.0</ele><time>2026-04-19T07:56:19.025Z</time></trkpt><trkpt lat="43.1404845" lon="11.6911309"><ele>485.0</ele><time>2026-04-19T07:56:20.025Z</time></trkpt><trkpt lat="43.1405486" lon="11.691047"><ele>484.99999999999994</ele><time>2026-04-19T07:56:21.025Z</time></trkpt><trkpt lat="43.1405996" lon="11.6909768"><ele>485.0</ele><time>2026-04-19T07:56:22.025Z</time></trkpt><trkpt lat="43.1406415" lon="11.6909114"><ele>485.0</ele><time>2026-04-19T07:56:23.025Z</time></trkpt><trkpt lat="43.1407155" lon="11.6908154"><ele>485.0</ele><time>2026-04-19T07:56:25.025Z</time></trkpt><trkpt lat="43.1407898" lon="11.6907322"><ele>484.99999999999994</ele><time>2026-04-19T07:56:27.025Z</time></trkpt><trkpt lat="43.1408707" lon="11.6906893"><ele>485.0</ele><time>2026-04-19T07:56:29.024Z</time></trkpt><trkpt lat="43.140954" lon="11.6906763"><ele>485.0</ele><time>2026-04-19T07:56:31.024Z</time></trkpt><trkpt lat="43.1410516" lon="11.6906988"><ele>485.0</ele><time>2026-04-19T07:56:33.025Z</time></trkpt><trkpt lat="43.1411782" lon="11.6907309"><ele>485.0</ele><time>2026-04-19T07:56:35.025Z</time></trkpt><trkpt lat="43.141252" lon="11.6907387"><ele>485.0</ele><time>2026-04-19T07:56:36.024Z</time></trkpt><trkpt lat="43.1413281" lon="11.6907389"><ele>485.0</ele><time>2026-04-19T07:56:37.025Z</time></trkpt><trkpt lat="43.1414128" lon="11.6907377"><ele>484.99999999999994</ele><time>2026-04-19T07:56:38.025Z</time></trkpt><trkpt lat="43.1415009" lon="11.6907209"><ele>485.0</ele><time>2026-04-19T07:56:39.024Z</time></trkpt><trkpt lat="43.1415915" lon="11.6906838"><ele>485.0</ele><time>2026-04-19T07:56:40.024Z</time></trkpt><trkpt lat="43.141681" lon="11.6906398"><ele>485.0</ele><time>2026-04-19T07:56:41.024Z</time></trkpt><trkpt lat="43.141766" lon="11.6905889"><ele>484.99999999999994</ele><time>2026-04-19T07:56:42.025Z</time></trkpt><trkpt lat="43.1418389" lon="11.6905536"><ele>485.0</ele><time>2026-04-19T07:56:43.025Z</time></trkpt><trkpt lat="43.1419147" lon="11.6905271"><ele>482.99999999999994</ele><time>2026-04-19T07:56:44.025Z</time></trkpt><trkpt lat="43.1419918" lon="11.6905135"><ele>481.0</ele><time>2026-04-19T07:56:45.025Z</time></trkpt><trkpt lat="43.1420709" lon="11.6905258"><ele>479.0</ele><time>2026-04-19T07:56:46.025Z</time></trkpt><trkpt lat="43.1421553" lon="11.690548"><ele>477.0</ele><time>2026-04-19T07:56:47.024Z</time></trkpt><trkpt lat="43.1422354" lon="11.6905793"><ele>474.99999999999994</ele><time>2026-04-19T07:56:48.024Z</time></trkpt><trkpt lat="43.1423163" lon="11.6906132"><ele>473.0</ele><time>2026-04-19T07:56:49.024Z</time></trkpt><trkpt lat="43.1423924" lon="11.6906471"><ele>470.99999999999994</ele><time>2026-04-19T07:56:50.025Z</time></trkpt><trkpt lat="43.1424576" lon="11.6906698"><ele>469.0</ele><time>2026-04-19T07:56:51.024Z</time></trkpt><trkpt lat="43.1425197" lon="11.6906873"><ele>467.0</ele><time>2026-04-19T07:56:52.024Z</time></trkpt><trkpt lat="43.1426299" lon="11.6906462"><ele>465.0</ele><time>2026-04-19T07:56:54.024Z</time></trkpt><trkpt lat="43.1426782" lon="11.6905693"><ele>462.99999999999994</ele><time>2026-04-19T07:56:55.024Z</time></trkpt><trkpt lat="43.1427097" lon="11.6904691"><ele>461.0</ele><time>2026-04-19T07:56:56.025Z</time></trkpt><trkpt lat="43.1427381" lon="11.6903657"><ele>459.8333333333333</ele><time>2026-04-19T07:56:57.025Z</time></trkpt><trkpt lat="43.1427634" lon="11.6902442"><ele>458.66666666666663</ele><time>2026-04-19T07:56:58.025Z</time></trkpt><trkpt lat="43.1428015" lon="11.6901249"><ele>457.5</ele><time>2026-04-19T07:56:59.025Z</time></trkpt><trkpt lat="43.1428392" lon="11.6900125"><ele>456.33333333333337</ele><time>2026-04-19T07:57:00.024Z</time></trkpt><trkpt lat="43.1428815" lon="11.6899016"><ele>455.1666666666667</ele><time>2026-04-19T07:57:01.024Z</time></trkpt><trkpt lat="43.1429195" lon="11.6898135"><ele>454.0</ele><time>2026-04-19T07:57:02.025Z</time></trkpt><trkpt lat="43.1429713" lon="11.6897089"><ele>454.00000000000006</ele><time>2026-04-19T07:57:04.025Z</time></trkpt><trkpt lat="43.1429421" lon="11.689584"><ele>454.0</ele><time>2026-04-19T07:57:17.024Z</time></trkpt><trkpt lat="43.1428907" lon="11.6895007"><ele>454.0</ele><time>2026-04-19T07:57:18.024Z</time></trkpt><trkpt lat="43.1428334" lon="11.689425"><ele>454.0</ele><time>2026-04-19T07:57:19.025Z</time></trkpt><trkpt lat="43.142772" lon="11.689337"><ele>454.00000000000006</ele><time>2026-04-19T07:57:20.025Z</time></trkpt><trkpt lat="43.1427028" lon="11.6892579"><ele>454.0</ele><time>2026-04-19T07:57:21.024Z</time></trkpt><trkpt lat="43.1426308" lon="11.6891758"><ele>455.1666666666667</ele><time>2026-04-19T07:57:22.025Z</time></trkpt><trkpt lat="43.1425574" lon="11.6891102"><ele>456.33333333333337</ele><time>2026-04-19T07:57:23.025Z</time></trkpt><trkpt lat="43.1424806" lon="11.6890697"><ele>457.5</ele><time>2026-04-19T07:57:24.025Z</time></trkpt><trkpt lat="43.142396" lon="11.6890454"><ele>458.66666666666663</ele><time>2026-04-19T07:57:25.024Z</time></trkpt><trkpt lat="43.1423226" lon="11.6890162"><ele>459.8333333333333</ele><time>2026-04-19T07:57:26.024Z</time></trkpt><trkpt lat="43.1422497" lon="11.6889946"><ele>461.0</ele><time>2026-04-19T07:57:27.025Z</time></trkpt><trkpt lat="43.142188" lon="11.6889719"><ele>461.0</ele><time>2026-04-19T07:57:28.025Z</time></trkpt><trkpt lat="43.1421001" lon="11.6889049"><ele>461.0</ele><time>2026-04-19T07:57:30.024Z</time></trkpt><trkpt lat="43.1420958" lon="11.6887789"><ele>461.0</ele><time>2026-04-19T07:57:32.025Z</time></trkpt><trkpt lat="43.1420922" lon="11.6886061"><ele>461.0</ele><time>2026-04-19T07:57:34.025Z</time></trkpt><trkpt lat="43.1421091" lon="11.6884845"><ele>461.0</ele><time>2026-04-19T07:57:35.025Z</time></trkpt><trkpt lat="43.1421369" lon="11.6883452"><ele>462.0</ele><time>2026-04-19T07:57:36.025Z</time></trkpt><trkpt lat="43.1421613" lon="11.6881852"><ele>463.0</ele><time>2026-04-19T07:57:37.024Z</time></trkpt><trkpt lat="43.1421872" lon="11.6880304"><ele>464.0</ele><time>2026-04-19T07:57:38.025Z</time></trkpt><trkpt lat="43.1422166" lon="11.687889"><ele>465.0</ele><time>2026-04-19T07:57:39.025Z</time></trkpt><trkpt lat="43.1422642" lon="11.687781"><ele>466.0</ele><time>2026-04-19T07:57:40.025Z</time></trkpt><trkpt lat="43.1423214" lon="11.6876972"><ele>463.8</ele><time>2026-04-19T07:57:41.025Z</time></trkpt><trkpt lat="43.1423869" lon="11.6876236"><ele>461.6</ele><time>2026-04-19T07:57:42.025Z</time></trkpt><trkpt lat="43.1424535" lon="11.6875448"><ele>459.4</ele><time>2026-04-19T07:57:43.025Z</time></trkpt><trkpt lat="43.1425146" lon="11.6874521"><ele>457.2</ele><time>2026-04-19T07:57:44.024Z</time></trkpt><trkpt lat="43.1425636" lon="11.6873443"><ele>455.0</ele><time>2026-04-19T07:57:45.025Z</time></trkpt><trkpt lat="43.1425996" lon="11.6872158"><ele>455.0</ele><time>2026-04-19T07:57:46.024Z</time></trkpt><trkpt lat="43.1426097" lon="11.6870595"><ele>455.0</ele><time>2026-04-19T07:57:47.024Z</time></trkpt><trkpt lat="43.14259" lon="11.6868963"><ele>455.0</ele><time>2026-04-19T07:57:48.025Z</time></trkpt><trkpt lat="43.1425566" lon="11.6867344"><ele>455.0</ele><time>2026-04-19T07:57:49.024Z</time></trkpt><trkpt lat="43.1425164" lon="11.6865554"><ele>453.25</ele><time>2026-04-19T07:57:50.024Z</time></trkpt><trkpt lat="43.1424752" lon="11.6863709"><ele>451.5</ele><time>2026-04-19T07:57:51.025Z</time></trkpt><trkpt lat="43.1424271" lon="11.6861979"><ele>449.75</ele><time>2026-04-19T07:57:52.024Z</time></trkpt><trkpt lat="43.14236" lon="11.6860399"><ele>448.0</ele><time>2026-04-19T07:57:53.025Z</time></trkpt><trkpt lat="43.1422867" lon="11.6858912"><ele>445.0</ele><time>2026-04-19T07:57:54.024Z</time></trkpt><trkpt lat="43.142212" lon="11.6857459"><ele>442.0</ele><time>2026-04-19T07:57:55.025Z</time></trkpt><trkpt lat="43.1421396" lon="11.6856053"><ele>439.0</ele><time>2026-04-19T07:57:56.024Z</time></trkpt><trkpt lat="43.142073" lon="11.68547"><ele>436.0</ele><time>2026-04-19T07:57:57.025Z</time></trkpt><trkpt lat="43.1420091" lon="11.6853379"><ele>435.0</ele><time>2026-04-19T07:57:58.024Z</time></trkpt><trkpt lat="43.1419513" lon="11.6851998"><ele>434.0</ele><time>2026-04-19T07:57:59.024Z</time></trkpt><trkpt lat="43.1419097" lon="11.6850692"><ele>433.0</ele><time>2026-04-19T07:58:00.025Z</time></trkpt><trkpt lat="43.1418803" lon="11.6849538"><ele>432.0</ele><time>2026-04-19T07:58:01.024Z</time></trkpt><trkpt lat="43.1418534" lon="11.6848549"><ele>431.0</ele><time>2026-04-19T07:58:02.025Z</time></trkpt><trkpt lat="43.1418285" lon="11.6847731"><ele>430.99999999999994</ele><time>2026-04-19T07:58:03.025Z</time></trkpt><trkpt lat="43.1417913" lon="11.6846657"><ele>431.0</ele><time>2026-04-19T07:58:05.024Z</time></trkpt><trkpt lat="43.141864" lon="11.684626"><ele>431.0</ele><time>2026-04-19T07:58:08.025Z</time></trkpt><trkpt lat="43.1419912" lon="11.6846075"><ele>431.0</ele><time>2026-04-19T07:58:10.025Z</time></trkpt><trkpt lat="43.1420602" lon="11.6845769"><ele>430.99999999999994</ele><time>2026-04-19T07:58:11.025Z</time></trkpt><trkpt lat="43.1421221" lon="11.6845407"><ele>431.0</ele><time>2026-04-19T07:58:12.025Z</time></trkpt><trkpt lat="43.142223" lon="11.6844818"><ele>433.8</ele><time>2026-04-19T07:58:14.025Z</time></trkpt><trkpt lat="43.1422804" lon="11.6844278"><ele>436.6</ele><time>2026-04-19T07:58:16.024Z</time></trkpt><trkpt lat="43.1424395" lon="11.6842804"><ele>439.4</ele><time>2026-04-19T07:58:29.025Z</time></trkpt><trkpt lat="43.1424771" lon="11.6841657"><ele>442.2</ele><time>2026-04-19T07:58:31.024Z</time></trkpt><trkpt lat="43.1425217" lon="11.6840856"><ele>445.0</ele><time>2026-04-19T07:58:34.024Z</time></trkpt><trkpt lat="43.1426115" lon="11.6839455"><ele>445.0</ele><time>2026-04-19T07:59:27.024Z</time></trkpt><trkpt lat="43.1425687" lon="11.6838626"><ele>445.0</ele><time>2026-04-19T07:59:53.024Z</time></trkpt><trkpt lat="43.1426138" lon="11.6837996"><ele>445.0</ele><time>2026-04-19T08:03:26.025Z</time></trkpt><trkpt lat="43.1426636" lon="11.683734"><ele>445.0</ele><time>2026-04-19T08:03:56.024Z</time></trkpt><trkpt lat="43.142705" lon="11.6836612"><ele>445.0</ele><time>2026-04-19T08:04:03.024Z</time></trkpt><trkpt lat="43.1427629" lon="11.683608"><ele>445.0</ele><time>2026-04-19T08:04:10.024Z</time></trkpt><trkpt lat="43.142806" lon="11.6835116"><ele>445.0</ele><time>2026-04-19T08:04:18.024Z</time></trkpt><trkpt lat="43.1427297" lon="11.6834953"><ele>448.0</ele><time>2026-04-19T08:04:59.025Z</time></trkpt><trkpt lat="43.1427194" lon="11.6834038"><ele>451.0</ele><time>2026-04-19T08:06:08.025Z</time></trkpt><trkpt lat="43.142735" lon="11.683293"><ele>454.0</ele><time>2026-04-19T08:06:13.026Z</time></trkpt><trkpt lat="43.1427377" lon="11.6832037"><ele>457.0</ele><time>2026-04-19T08:06:15.026Z</time></trkpt><trkpt lat="43.1426901" lon="11.6831347"><ele>460.0</ele><time>2026-04-19T08:11:58.026Z</time></trkpt><trkpt lat="43.1426723" lon="11.6830518"><ele>463.0</ele><time>2026-04-19T08:12:04.026Z</time></trkpt><trkpt lat="43.142607" lon="11.6830253"><ele>466.0</ele><time>2026-04-19T08:12:18.026Z</time></trkpt><trkpt lat="43.14256" lon="11.6829433"><ele>466.0</ele><time>2026-04-19T08:12:26.025Z</time></trkpt><trkpt lat="43.1425289" lon="11.6828607"><ele>466.0</ele><time>2026-04-19T08:12:35.026Z</time></trkpt><trkpt lat="43.1424638" lon="11.6828946"><ele>466.0</ele><time>2026-04-19T08:12:40.026Z</time></trkpt><trkpt lat="43.1424043" lon="11.6829436"><ele>466.0</ele><time>2026-04-19T08:12:44.026Z</time></trkpt><trkpt lat="43.1423512" lon="11.6829908"><ele>466.0</ele><time>2026-04-19T08:12:50.026Z</time></trkpt><trkpt lat="43.1422867" lon="11.6829976"><ele>466.0</ele><time>2026-04-19T08:12:53.026Z</time></trkpt><trkpt lat="43.1422207" lon="11.6829802"><ele>466.0</ele><time>2026-04-19T08:12:56.026Z</time></trkpt><trkpt lat="43.1421405" lon="11.6829689"><ele>465.83333333333337</ele><time>2026-04-19T08:12:59.025Z</time></trkpt><trkpt lat="43.1420594" lon="11.6830283"><ele>465.6666666666667</ele><time>2026-04-19T08:13:02.025Z</time></trkpt><trkpt lat="43.1419905" lon="11.6831096"><ele>465.5</ele><time>2026-04-19T08:13:05.026Z</time></trkpt><trkpt lat="43.1419147" lon="11.6831353"><ele>465.33333333333337</ele><time>2026-04-19T08:13:07.025Z</time></trkpt><trkpt lat="43.1418431" lon="11.6831638"><ele>465.1666666666667</ele><time>2026-04-19T08:13:09.026Z</time></trkpt><trkpt lat="43.1417922" lon="11.6831106"><ele>465.0</ele><time>2026-04-19T08:13:12.025Z</time></trkpt><trkpt lat="43.1418406" lon="11.6830499"><ele>465.0</ele><time>2026-04-19T08:13:16.025Z</time></trkpt><trkpt lat="43.1419151" lon="11.6829887"><ele>465.0</ele><time>2026-04-19T08:13:19.025Z</time></trkpt><trkpt lat="43.1419679" lon="11.6829186"><ele>465.0</ele><time>2026-04-19T08:13:21.025Z</time></trkpt><trkpt lat="43.1420056" lon="11.6828406"><ele>465.0</ele><time>2026-04-19T08:13:26.026Z</time></trkpt><trkpt lat="43.1420377" lon="11.6827572"><ele>465.0</ele><time>2026-04-19T08:15:40.026Z</time></trkpt><trkpt lat="43.1420521" lon="11.6826596"><ele>465.0</ele><time>2026-04-19T08:15:41.025Z</time></trkpt><trkpt lat="43.1420784" lon="11.682527"><ele>468.0</ele><time>2026-04-19T08:15:42.026Z</time></trkpt><trkpt lat="43.1421153" lon="11.6823775"><ele>471.0</ele><time>2026-04-19T08:15:43.025Z</time></trkpt><trkpt lat="43.1421398" lon="11.682237"><ele>474.0</ele><time>2026-04-19T08:15:44.026Z</time></trkpt><trkpt lat="43.1421406" lon="11.68209"><ele>477.0</ele><time>2026-04-19T08:15:45.026Z</time></trkpt><trkpt lat="43.1421344" lon="11.6819419"><ele>480.0</ele><time>2026-04-19T08:15:46.026Z</time></trkpt><trkpt lat="43.1421209" lon="11.6818393"><ele>482.0</ele><time>2026-04-19T08:15:47.026Z</time></trkpt><trkpt lat="43.1421298" lon="11.6816794"><ele>484.0</ele><time>2026-04-19T08:15:49.025Z</time></trkpt><trkpt lat="43.1421453" lon="11.6815885"><ele>486.0</ele><time>2026-04-19T08:15:50.026Z</time></trkpt><trkpt lat="43.1421532" lon="11.6814995"><ele>488.0</ele><time>2026-04-19T08:15:51.026Z</time></trkpt><trkpt lat="43.1421453" lon="11.6814059"><ele>490.0</ele><time>2026-04-19T08:15:52.026Z</time></trkpt><trkpt lat="43.1421346" lon="11.6813193"><ele>492.0</ele><time>2026-04-19T08:15:53.026Z</time></trkpt><trkpt lat="43.1421881" lon="11.6812065"><ele>492.0</ele><time>2026-04-19T08:15:55.026Z</time></trkpt><trkpt lat="43.1422463" lon="11.681155"><ele>492.0</ele><time>2026-04-19T08:15:56.026Z</time></trkpt><trkpt lat="43.1423097" lon="11.6811"><ele>492.0</ele><time>2026-04-19T08:15:57.026Z</time></trkpt><trkpt lat="43.1423597" lon="11.6810426"><ele>492.0</ele><time>2026-04-19T08:15:58.025Z</time></trkpt><trkpt lat="43.1423973" lon="11.6809638"><ele>492.0</ele><time>2026-04-19T08:16:00.026Z</time></trkpt><trkpt lat="43.1424266" lon="11.6808508"><ele>492.0</ele><time>2026-04-19T08:16:03.026Z</time></trkpt><trkpt lat="43.1425309" lon="11.680806"><ele>496.6666666666667</ele><time>2026-04-19T08:16:05.026Z</time></trkpt><trkpt lat="43.1425986" lon="11.68078"><ele>501.33333333333337</ele><time>2026-04-19T08:16:06.026Z</time></trkpt><trkpt lat="43.142676" lon="11.6807479"><ele>506.0</ele><time>2026-04-19T08:16:07.025Z</time></trkpt><trkpt lat="43.1427464" lon="11.6807049"><ele>510.6666666666667</ele><time>2026-04-19T08:16:08.026Z</time></trkpt><trkpt lat="43.1428225" lon="11.68065"><ele>515.3333333333334</ele><time>2026-04-19T08:16:09.026Z</time></trkpt><trkpt lat="43.1428864" lon="11.6805971"><ele>520.0</ele><time>2026-04-19T08:16:10.026Z</time></trkpt><trkpt lat="43.1429425" lon="11.6805513"><ele>520.0</ele><time>2026-04-19T08:16:11.025Z</time></trkpt><trkpt lat="43.1430453" lon="11.680478"><ele>520.0</ele><time>2026-04-19T08:16:13.026Z</time></trkpt><trkpt lat="43.1431418" lon="11.6803453"><ele>520.0</ele><time>2026-04-19T08:16:15.026Z</time></trkpt><trkpt lat="43.1431885" lon="11.6802545"><ele>520.0</ele><time>2026-04-19T08:16:16.025Z</time></trkpt><trkpt lat="43.1432422" lon="11.680168"><ele>520.0</ele><time>2026-04-19T08:16:17.026Z</time></trkpt><trkpt lat="43.1432832" lon="11.6800996"><ele>524.75</ele><time>2026-04-19T08:16:18.026Z</time></trkpt><trkpt lat="43.1433473" lon="11.6799735"><ele>529.5</ele><time>2026-04-19T08:16:20.026Z</time></trkpt><trkpt lat="43.1434693" lon="11.6798641"><ele>534.25</ele><time>2026-04-19T08:16:22.026Z</time></trkpt><trkpt lat="43.1435633" lon="11.6798169"><ele>539.0</ele><time>2026-04-19T08:16:23.025Z</time></trkpt><trkpt lat="43.1436503" lon="11.6797779"><ele>539.0</ele><time>2026-04-19T08:16:24.025Z</time></trkpt><trkpt lat="43.1437173" lon="11.6797544"><ele>539.0</ele><time>2026-04-19T08:16:25.026Z</time></trkpt><trkpt lat="43.1438364" lon="11.6796612"><ele>539.0</ele><time>2026-04-19T08:16:27.026Z</time></trkpt><trkpt lat="43.1439169" lon="11.6796029"><ele>539.0</ele><time>2026-04-19T08:16:28.025Z</time></trkpt><trkpt lat="43.1439966" lon="11.6795723"><ele>539.0</ele><time>2026-04-19T08:16:29.025Z</time></trkpt><trkpt lat="43.1440692" lon="11.6795267"><ele>539.3333333333333</ele><time>2026-04-19T08:16:30.025Z</time></trkpt><trkpt lat="43.1441435" lon="11.6794567"><ele>539.6666666666666</ele><time>2026-04-19T08:16:31.026Z</time></trkpt><trkpt lat="43.1442139" lon="11.679392"><ele>540.0</ele><time>2026-04-19T08:16:32.026Z</time></trkpt><trkpt lat="43.1442749" lon="11.6793383"><ele>540.3333333333334</ele><time>2026-04-19T08:16:33.026Z</time></trkpt><trkpt lat="43.1443352" lon="11.6792838"><ele>540.6666666666667</ele><time>2026-04-19T08:16:34.026Z</time></trkpt><trkpt lat="43.1443944" lon="11.6792227"><ele>541.0</ele><time>2026-04-19T08:16:35.026Z</time></trkpt><trkpt lat="43.1444463" lon="11.6791528"><ele>542.6666666666667</ele><time>2026-04-19T08:16:36.026Z</time></trkpt><trkpt lat="43.1445024" lon="11.6790853"><ele>544.3333333333334</ele><time>2026-04-19T08:16:37.025Z</time></trkpt><trkpt lat="43.1445527" lon="11.6790225"><ele>546.0</ele><time>2026-04-19T08:16:38.025Z</time></trkpt><trkpt lat="43.1446347" lon="11.6788906"><ele>547.6666666666666</ele><time>2026-04-19T08:16:40.026Z</time></trkpt><trkpt lat="43.1446667" lon="11.6788115"><ele>549.3333333333333</ele><time>2026-04-19T08:16:41.026Z</time></trkpt><trkpt lat="43.1447019" lon="11.678727"><ele>551.0</ele><time>2026-04-19T08:16:42.026Z</time></trkpt><trkpt lat="43.1447352" lon="11.6786387"><ele>553.4</ele><time>2026-04-19T08:16:43.026Z</time></trkpt><trkpt lat="43.1447474" lon="11.6784857"><ele>555.8</ele><time>2026-04-19T08:16:45.026Z</time></trkpt><trkpt lat="43.1447074" lon="11.6783484"><ele>558.1999999999999</ele><time>2026-04-19T08:16:47.025Z</time></trkpt><trkpt lat="43.1447103" lon="11.6781592"><ele>560.6</ele><time>2026-04-19T08:16:49.025Z</time></trkpt><trkpt lat="43.1447249" lon="11.678045"><ele>563.0</ele><time>2026-04-19T08:16:50.025Z</time></trkpt><trkpt lat="43.1447523" lon="11.6779176"><ele>563.0</ele><time>2026-04-19T08:16:51.025Z</time></trkpt><trkpt lat="43.1447819" lon="11.6778057"><ele>563.0</ele><time>2026-04-19T08:16:52.025Z</time></trkpt><trkpt lat="43.1448129" lon="11.6777122"><ele>563.0</ele><time>2026-04-19T08:16:53.025Z</time></trkpt><trkpt lat="43.1448528" lon="11.677633"><ele>563.0</ele><time>2026-04-19T08:16:55.025Z</time></trkpt><trkpt lat="43.1448131" lon="11.6775316"><ele>563.0</ele><time>2026-04-19T08:17:15.025Z</time></trkpt><trkpt lat="43.1447873" lon="11.677382"><ele>563.0</ele><time>2026-04-19T08:17:17.025Z</time></trkpt><trkpt lat="43.1447615" lon="11.6772131"><ele>565.4</ele><time>2026-04-19T08:17:19.026Z</time></trkpt><trkpt lat="43.1447576" lon="11.6771022"><ele>567.8</ele><time>2026-04-19T08:17:20.026Z</time></trkpt><trkpt lat="43.1447624" lon="11.6770149"><ele>570.2</ele><time>2026-04-19T08:17:21.026Z</time></trkpt><trkpt lat="43.1447643" lon="11.6768401"><ele>572.6</ele><time>2026-04-19T08:17:23.025Z</time></trkpt><trkpt lat="43.1447457" lon="11.6767512"><ele>575.0</ele><time>2026-04-19T08:17:24.026Z</time></trkpt><trkpt lat="43.144726" lon="11.6765828"><ele>576.4</ele><time>2026-04-19T08:17:26.026Z</time></trkpt><trkpt lat="43.1447348" lon="11.6764328"><ele>577.8</ele><time>2026-04-19T08:17:28.026Z</time></trkpt><trkpt lat="43.1447489" lon="11.6762738"><ele>579.2</ele><time>2026-04-19T08:17:30.025Z</time></trkpt><trkpt lat="43.1447541" lon="11.6761764"><ele>580.6</ele><time>2026-04-19T08:17:32.026Z</time></trkpt><trkpt lat="43.1447696" lon="11.6760739"><ele>582.0</ele><time>2026-04-19T08:17:34.026Z</time></trkpt><trkpt lat="43.1448017" lon="11.6759393"><ele>582.0</ele><time>2026-04-19T08:17:36.026Z</time></trkpt><trkpt lat="43.1448642" lon="11.6758361"><ele>582.0</ele><time>2026-04-19T08:17:38.025Z</time></trkpt><trkpt lat="43.1449124" lon="11.6757312"><ele>582.0</ele><time>2026-04-19T08:17:40.026Z</time></trkpt><trkpt lat="43.1449617" lon="11.6756255"><ele>582.0</ele><time>2026-04-19T08:17:42.026Z</time></trkpt><trkpt lat="43.1449726" lon="11.6755007"><ele>582.0</ele><time>2026-04-19T08:17:44.025Z</time></trkpt><trkpt lat="43.1449783" lon="11.6753973"><ele>582.0</ele><time>2026-04-19T08:17:46.026Z</time></trkpt><trkpt lat="43.1450325" lon="11.6752419"><ele>583.0</ele><time>2026-04-19T08:17:48.026Z</time></trkpt><trkpt lat="43.1451351" lon="11.6751782"><ele>584.0</ele><time>2026-04-19T08:19:02.026Z</time></trkpt><trkpt lat="43.1452504" lon="11.6751389"><ele>585.0</ele><time>2026-04-19T08:19:04.026Z</time></trkpt><trkpt lat="43.1453442" lon="11.6751473"><ele>586.0</ele><time>2026-04-19T08:19:06.026Z</time></trkpt><trkpt lat="43.1454516" lon="11.675134"><ele>587.0</ele><time>2026-04-19T08:19:08.025Z</time></trkpt><trkpt lat="43.1455617" lon="11.675105"><ele>587.0</ele><time>2026-04-19T08:19:10.026Z</time></trkpt><trkpt lat="43.1456178" lon="11.6750505"><ele>587.0</ele><time>2026-04-19T08:19:11.026Z</time></trkpt><trkpt lat="43.1456765" lon="11.6750098"><ele>587.0</ele><time>2026-04-19T08:19:12.026Z</time></trkpt><trkpt lat="43.1457451" lon="11.6750001"><ele>587.0</ele><time>2026-04-19T08:19:13.026Z</time></trkpt><trkpt lat="43.1458201" lon="11.6749913"><ele>587.0</ele><time>2026-04-19T08:19:14.025Z</time></trkpt><trkpt lat="43.1458854" lon="11.6749842"><ele>587.0</ele><time>2026-04-19T08:19:15.025Z</time></trkpt><trkpt lat="43.1459521" lon="11.6749775"><ele>587.0</ele><time>2026-04-19T08:19:16.025Z</time></trkpt><trkpt lat="43.146023" lon="11.6749757"><ele>586.4</ele><time>2026-04-19T08:19:17.025Z</time></trkpt><trkpt lat="43.1460926" lon="11.6749671"><ele>585.8000000000001</ele><time>2026-04-19T08:19:18.025Z</time></trkpt><trkpt lat="43.1461613" lon="11.6749529"><ele>585.2</ele><time>2026-04-19T08:19:19.026Z</time></trkpt><trkpt lat="43.1462633" lon="11.6749298"><ele>584.6</ele><time>2026-04-19T08:19:21.026Z</time></trkpt><trkpt lat="43.1463655" lon="11.6748404"><ele>584.0</ele><time>2026-04-19T08:19:23.026Z</time></trkpt><trkpt lat="43.1464578" lon="11.6747718"><ele>584.0</ele><time>2026-04-19T08:19:25.026Z</time></trkpt><trkpt lat="43.1464994" lon="11.6746529"><ele>584.0</ele><time>2026-04-19T08:19:27.025Z</time></trkpt><trkpt lat="43.1465392" lon="11.6745476"><ele>584.0</ele><time>2026-04-19T08:19:29.026Z</time></trkpt><trkpt lat="43.1465957" lon="11.6744488"><ele>584.0</ele><time>2026-04-19T08:19:31.026Z</time></trkpt><trkpt lat="43.146657" lon="11.674348"><ele>584.0</ele><time>2026-04-19T08:19:33.026Z</time></trkpt><trkpt lat="43.1466955" lon="11.6742753"><ele>584.0</ele><time>2026-04-19T08:19:34.026Z</time></trkpt><trkpt lat="43.146766" lon="11.6741537"><ele>582.0</ele><time>2026-04-19T08:19:36.025Z</time></trkpt><trkpt lat="43.1468527" lon="11.6740416"><ele>580.0</ele><time>2026-04-19T08:19:38.025Z</time></trkpt><trkpt lat="43.1469115" lon="11.6739939"><ele>578.0</ele><time>2026-04-19T08:19:39.025Z</time></trkpt><trkpt lat="43.1469974" lon="11.6738978"><ele>576.0</ele><time>2026-04-19T08:19:41.025Z</time></trkpt><trkpt lat="43.14707" lon="11.673823"><ele>574.0</ele><time>2026-04-19T08:19:43.025Z</time></trkpt><trkpt lat="43.1471904" lon="11.6738267"><ele>574.0</ele><time>2026-04-19T08:19:45.025Z</time></trkpt><trkpt lat="43.1472954" lon="11.6738079"><ele>574.0</ele><time>2026-04-19T08:19:47.026Z</time></trkpt><trkpt lat="43.1473554" lon="11.6737768"><ele>574.0</ele><time>2026-04-19T08:19:48.025Z</time></trkpt><trkpt lat="43.14746" lon="11.6737091"><ele>574.0</ele><time>2026-04-19T08:19:50.026Z</time></trkpt><trkpt lat="43.1475087" lon="11.6736098"><ele>574.0</ele><time>2026-04-19T08:19:52.026Z</time></trkpt><trkpt lat="43.1475672" lon="11.6734812"><ele>571.3333333333334</ele><time>2026-04-19T08:19:54.025Z</time></trkpt><trkpt lat="43.1476115" lon="11.6734071"><ele>568.6666666666667</ele><time>2026-04-19T08:19:55.026Z</time></trkpt><trkpt lat="43.1476606" lon="11.6733362"><ele>566.0</ele><time>2026-04-19T08:19:56.025Z</time></trkpt><trkpt lat="43.1477076" lon="11.6732743"><ele>563.3333333333334</ele><time>2026-04-19T08:19:57.025Z</time></trkpt><trkpt lat="43.1477918" lon="11.673185"><ele>560.6666666666666</ele><time>2026-04-19T08:19:59.026Z</time></trkpt><trkpt lat="43.1478804" lon="11.6731831"><ele>558.0</ele><time>2026-04-19T08:20:01.026Z</time></trkpt><trkpt lat="43.1479751" lon="11.673296"><ele>557.9999999999999</ele><time>2026-04-19T08:20:03.025Z</time></trkpt><trkpt lat="43.1480104" lon="11.6733686"><ele>558.0</ele><time>2026-04-19T08:20:04.026Z</time></trkpt><trkpt lat="43.1480429" lon="11.6734481"><ele>558.0</ele><time>2026-04-19T08:20:05.026Z</time></trkpt><trkpt lat="43.1480751" lon="11.673537"><ele>558.0</ele><time>2026-04-19T08:20:06.026Z</time></trkpt><trkpt lat="43.1481019" lon="11.6736314"><ele>558.0</ele><time>2026-04-19T08:20:07.026Z</time></trkpt><trkpt lat="43.1481291" lon="11.6737323"><ele>557.9999999999999</ele><time>2026-04-19T08:20:08.026Z</time></trkpt><trkpt lat="43.1481411" lon="11.6738429"><ele>558.0</ele><time>2026-04-19T08:20:09.025Z</time></trkpt><trkpt lat="43.1481534" lon="11.6739672"><ele>556.25</ele><time>2026-04-19T08:20:10.026Z</time></trkpt><trkpt lat="43.1481752" lon="11.6741131"><ele>554.5</ele><time>2026-04-19T08:20:11.026Z</time></trkpt><trkpt lat="43.1482062" lon="11.6743081"><ele>552.75</ele><time>2026-04-19T08:20:12.026Z</time></trkpt><trkpt lat="43.1482298" lon="11.674505"><ele>551.0</ele><time>2026-04-19T08:20:13.026Z</time></trkpt><trkpt lat="43.1482375" lon="11.6747094"><ele>551.0</ele><time>2026-04-19T08:20:14.025Z</time></trkpt><trkpt lat="43.1482357" lon="11.6748942"><ele>551.0</ele><time>2026-04-19T08:20:15.026Z</time></trkpt><trkpt lat="43.1482495" lon="11.6750423"><ele>551.0</ele><time>2026-04-19T08:20:16.026Z</time></trkpt><trkpt lat="43.1483112" lon="11.6751668"><ele>551.0</ele><time>2026-04-19T08:20:17.025Z</time></trkpt><trkpt lat="43.1483864" lon="11.675289"><ele>552.25</ele><time>2026-04-19T08:20:18.025Z</time></trkpt><trkpt lat="43.1484718" lon="11.6754095"><ele>553.5</ele><time>2026-04-19T08:20:19.026Z</time></trkpt><trkpt lat="43.1485422" lon="11.675547"><ele>554.75</ele><time>2026-04-19T08:20:20.025Z</time></trkpt><trkpt lat="43.1485826" lon="11.6757228"><ele>556.0</ele><time>2026-04-19T08:20:21.026Z</time></trkpt><trkpt lat="43.1486189" lon="11.6758896"><ele>556.0</ele><time>2026-04-19T08:20:22.025Z</time></trkpt><trkpt lat="43.1486308" lon="11.6760368"><ele>556.0</ele><time>2026-04-19T08:20:23.026Z</time></trkpt><trkpt lat="43.1486555" lon="11.6761966"><ele>556.0</ele><time>2026-04-19T08:20:24.026Z</time></trkpt><trkpt lat="43.1487097" lon="11.6763618"><ele>556.0</ele><time>2026-04-19T08:20:25.026Z</time></trkpt><trkpt lat="43.148759" lon="11.6765269"><ele>554.8</ele><time>2026-04-19T08:20:26.026Z</time></trkpt><trkpt lat="43.1487891" lon="11.6766554"><ele>553.6</ele><time>2026-04-19T08:20:27.026Z</time></trkpt><trkpt lat="43.1488142" lon="11.6767579"><ele>552.4</ele><time>2026-04-19T08:20:28.025Z</time></trkpt><trkpt lat="43.1488571" lon="11.676879"><ele>551.2</ele><time>2026-04-19T08:20:30.025Z</time></trkpt><trkpt lat="43.1489576" lon="11.6769163"><ele>550.0</ele><time>2026-04-19T08:21:00.027Z</time></trkpt><trkpt lat="43.1490662" lon="11.6770473"><ele>547.6</ele><time>2026-04-19T08:21:02.026Z</time></trkpt><trkpt lat="43.1491215" lon="11.6771596"><ele>545.2</ele><time>2026-04-19T08:21:03.027Z</time></trkpt><trkpt lat="43.1491835" lon="11.6772481"><ele>542.8</ele><time>2026-04-19T08:21:04.027Z</time></trkpt><trkpt lat="43.1492415" lon="11.6773"><ele>540.4</ele><time>2026-04-19T08:21:05.026Z</time></trkpt><trkpt lat="43.1493312" lon="11.6773516"><ele>538.0</ele><time>2026-04-19T08:21:07.026Z</time></trkpt><trkpt lat="43.1494491" lon="11.6772638"><ele>538.0</ele><time>2026-04-19T08:21:09.027Z</time></trkpt><trkpt lat="43.1495175" lon="11.6772443"><ele>538.0</ele><time>2026-04-19T08:21:10.026Z</time></trkpt><trkpt lat="43.149584" lon="11.6772543"><ele>538.0</ele><time>2026-04-19T08:21:11.027Z</time></trkpt><trkpt lat="43.1496482" lon="11.6772593"><ele>538.0</ele><time>2026-04-19T08:21:12.027Z</time></trkpt><trkpt lat="43.1497113" lon="11.677224"><ele>538.0</ele><time>2026-04-19T08:21:13.026Z</time></trkpt><trkpt lat="43.149768" lon="11.6771591"><ele>538.0</ele><time>2026-04-19T08:21:14.026Z</time></trkpt><trkpt lat="43.1498287" lon="11.6771139"><ele>538.0</ele><time>2026-04-19T08:21:15.027Z</time></trkpt><trkpt lat="43.1499297" lon="11.677101"><ele>536.0</ele><time>2026-04-19T08:21:17.026Z</time></trkpt><trkpt lat="43.1499976" lon="11.6771219"><ele>534.0</ele><time>2026-04-19T08:21:18.026Z</time></trkpt><trkpt lat="43.1500689" lon="11.6771501"><ele>532.0</ele><time>2026-04-19T08:21:19.027Z</time></trkpt><trkpt lat="43.1501485" lon="11.677177"><ele>530.0</ele><time>2026-04-19T08:21:20.027Z</time></trkpt><trkpt lat="43.1502462" lon="11.6771986"><ele>528.0</ele><time>2026-04-19T08:21:21.026Z</time></trkpt><trkpt lat="43.1503833" lon="11.677231"><ele>528.0</ele><time>2026-04-19T08:21:22.027Z</time></trkpt><trkpt lat="43.1505219" lon="11.6772804"><ele>528.0</ele><time>2026-04-19T08:21:23.026Z</time></trkpt><trkpt lat="43.15063" lon="11.677353"><ele>528.0</ele><time>2026-04-19T08:21:24.026Z</time></trkpt><trkpt lat="43.1507111" lon="11.6774429"><ele>528.0</ele><time>2026-04-19T08:21:25.026Z</time></trkpt><trkpt lat="43.1507797" lon="11.6775884"><ele>527.8</ele><time>2026-04-19T08:21:26.026Z</time></trkpt><trkpt lat="43.150839" lon="11.6777597"><ele>527.5999999999999</ele><time>2026-04-19T08:21:27.026Z</time></trkpt><trkpt lat="43.1508958" lon="11.6779236"><ele>527.4000000000001</ele><time>2026-04-19T08:21:28.026Z</time></trkpt><trkpt lat="43.1509419" lon="11.6780459"><ele>527.2</ele><time>2026-04-19T08:21:29.027Z</time></trkpt><trkpt lat="43.1509925" lon="11.6781262"><ele>527.0</ele><time>2026-04-19T08:21:30.026Z</time></trkpt><trkpt lat="43.1510823" lon="11.6781935"><ele>527.0</ele><time>2026-04-19T08:21:32.026Z</time></trkpt><trkpt lat="43.1511572" lon="11.6780588"><ele>527.0</ele><time>2026-04-19T08:22:04.027Z</time></trkpt><trkpt lat="43.151205" lon="11.6779709"><ele>527.0</ele><time>2026-04-19T08:22:05.027Z</time></trkpt><trkpt lat="43.1512642" lon="11.6778496"><ele>527.0</ele><time>2026-04-19T08:22:06.027Z</time></trkpt><trkpt lat="43.15133" lon="11.6777113"><ele>527.0</ele><time>2026-04-19T08:22:07.027Z</time></trkpt><trkpt lat="43.1513886" lon="11.6775382"><ele>526.2</ele><time>2026-04-19T08:22:08.027Z</time></trkpt><trkpt lat="43.1514378" lon="11.6773541"><ele>525.4000000000001</ele><time>2026-04-19T08:22:09.027Z</time></trkpt><trkpt lat="43.1514745" lon="11.6772024"><ele>524.5999999999999</ele><time>2026-04-19T08:22:10.026Z</time></trkpt><trkpt lat="43.1515042" lon="11.6771108"><ele>523.8</ele><time>2026-04-19T08:22:11.026Z</time></trkpt><trkpt lat="43.1515442" lon="11.6769834"><ele>523.0</ele><time>2026-04-19T08:22:13.026Z</time></trkpt><trkpt lat="43.1515421" lon="11.6768175"><ele>522.0</ele><time>2026-04-19T08:22:15.027Z</time></trkpt><trkpt lat="43.1515028" lon="11.6767258"><ele>521.0</ele><time>2026-04-19T08:22:16.027Z</time></trkpt><trkpt lat="43.1514621" lon="11.6766303"><ele>520.0</ele><time>2026-04-19T08:22:17.027Z</time></trkpt><trkpt lat="43.1514312" lon="11.6765168"><ele>519.0</ele><time>2026-04-19T08:22:18.026Z</time></trkpt><trkpt lat="43.1514118" lon="11.6763959"><ele>518.0</ele><time>2026-04-19T08:22:19.026Z</time></trkpt><trkpt lat="43.1514075" lon="11.6762818"><ele>517.0</ele><time>2026-04-19T08:22:20.026Z</time></trkpt><trkpt lat="43.1514261" lon="11.6761578"><ele>516.4</ele><time>2026-04-19T08:22:21.027Z</time></trkpt><trkpt lat="43.1514488" lon="11.6760198"><ele>515.8000000000001</ele><time>2026-04-19T08:22:22.026Z</time></trkpt><trkpt lat="43.1514718" lon="11.6758848"><ele>515.2</ele><time>2026-04-19T08:22:23.027Z</time></trkpt><trkpt lat="43.1514969" lon="11.6757511"><ele>514.6</ele><time>2026-04-19T08:22:24.027Z</time></trkpt><trkpt lat="43.15153" lon="11.6756159"><ele>514.0</ele><time>2026-04-19T08:22:25.026Z</time></trkpt><trkpt lat="43.1515687" lon="11.6754786"><ele>514.0</ele><time>2026-04-19T08:22:26.026Z</time></trkpt><trkpt lat="43.1516236" lon="11.6753467"><ele>514.0</ele><time>2026-04-19T08:22:27.026Z</time></trkpt><trkpt lat="43.1516933" lon="11.6752365"><ele>514.0</ele><time>2026-04-19T08:22:28.026Z</time></trkpt><trkpt lat="43.151769" lon="11.6751309"><ele>514.0</ele><time>2026-04-19T08:22:29.027Z</time></trkpt><trkpt lat="43.1518438" lon="11.6750292"><ele>514.0</ele><time>2026-04-19T08:22:30.026Z</time></trkpt><trkpt lat="43.1519291" lon="11.674942"><ele>513.0</ele><time>2026-04-19T08:22:31.027Z</time></trkpt><trkpt lat="43.1520002" lon="11.6748403"><ele>512.0</ele><time>2026-04-19T08:22:32.026Z</time></trkpt><trkpt lat="43.1520155" lon="11.6747174"><ele>511.0</ele><time>2026-04-19T08:22:33.027Z</time></trkpt><trkpt lat="43.1519859" lon="11.6745949"><ele>510.0</ele><time>2026-04-19T08:22:34.027Z</time></trkpt><trkpt lat="43.1519363" lon="11.674453"><ele>509.0</ele><time>2026-04-19T08:22:35.026Z</time></trkpt><trkpt lat="43.1518989" lon="11.6743086"><ele>507.99999999999994</ele><time>2026-04-19T08:22:36.026Z</time></trkpt><trkpt lat="43.1518723" lon="11.6741854"><ele>507.0</ele><time>2026-04-19T08:22:37.027Z</time></trkpt><trkpt lat="43.1518893" lon="11.6740717"><ele>506.0</ele><time>2026-04-19T08:22:38.026Z</time></trkpt><trkpt lat="43.1519153" lon="11.6739705"><ele>505.0</ele><time>2026-04-19T08:22:39.026Z</time></trkpt><trkpt lat="43.1519293" lon="11.6738674"><ele>503.99999999999994</ele><time>2026-04-19T08:22:40.027Z</time></trkpt><trkpt lat="43.1519385" lon="11.6737376"><ele>503.0</ele><time>2026-04-19T08:22:41.026Z</time></trkpt><trkpt lat="43.1519483" lon="11.6735809"><ele>501.75</ele><time>2026-04-19T08:22:42.027Z</time></trkpt><trkpt lat="43.1519498" lon="11.6734015"><ele>500.5</ele><time>2026-04-19T08:22:43.027Z</time></trkpt><trkpt lat="43.1519477" lon="11.673233"><ele>499.25</ele><time>2026-04-19T08:22:44.026Z</time></trkpt><trkpt lat="43.1519434" lon="11.6730807"><ele>498.0</ele><time>2026-04-19T08:22:45.026Z</time></trkpt><trkpt lat="43.1519279" lon="11.6729445"><ele>498.0</ele><time>2026-04-19T08:22:46.027Z</time></trkpt><trkpt lat="43.1519112" lon="11.6728228"><ele>497.99999999999994</ele><time>2026-04-19T08:22:47.026Z</time></trkpt><trkpt lat="43.151909" lon="11.6727161"><ele>497.99999999999994</ele><time>2026-04-19T08:22:48.027Z</time></trkpt><trkpt lat="43.1519323" lon="11.6725931"><ele>498.0</ele><time>2026-04-19T08:22:49.027Z</time></trkpt><trkpt lat="43.1519721" lon="11.6724504"><ele>498.0</ele><time>2026-04-19T08:22:50.026Z</time></trkpt><trkpt lat="43.1520093" lon="11.6722864"><ele>497.2</ele><time>2026-04-19T08:22:51.027Z</time></trkpt><trkpt lat="43.1520429" lon="11.6721379"><ele>496.4</ele><time>2026-04-19T08:22:52.026Z</time></trkpt><trkpt lat="43.1520876" lon="11.6720106"><ele>495.59999999999997</ele><time>2026-04-19T08:22:53.027Z</time></trkpt><trkpt lat="43.1521628" lon="11.671916"><ele>494.79999999999995</ele><time>2026-04-19T08:22:54.027Z</time></trkpt><trkpt lat="43.1522636" lon="11.6718441"><ele>494.0</ele><time>2026-04-19T08:22:55.027Z</time></trkpt><trkpt lat="43.152353" lon="11.6717676"><ele>494.4</ele><time>2026-04-19T08:22:56.027Z</time></trkpt><trkpt lat="43.1524319" lon="11.6716878"><ele>494.79999999999995</ele><time>2026-04-19T08:22:57.026Z</time></trkpt><trkpt lat="43.1524837" lon="11.6715937"><ele>495.20000000000005</ele><time>2026-04-19T08:22:58.027Z</time></trkpt><trkpt lat="43.1525126" lon="11.671464"><ele>495.6</ele><time>2026-04-19T08:22:59.026Z</time></trkpt><trkpt lat="43.1525325" lon="11.671316"><ele>496.0</ele><time>2026-04-19T08:23:00.026Z</time></trkpt><trkpt lat="43.1525378" lon="11.6711455"><ele>496.25</ele><time>2026-04-19T08:23:01.027Z</time></trkpt><trkpt lat="43.1525153" lon="11.6709764"><ele>496.5</ele><time>2026-04-19T08:23:02.027Z</time></trkpt><trkpt lat="43.1524886" lon="11.6708147"><ele>496.75</ele><time>2026-04-19T08:23:03.027Z</time></trkpt><trkpt lat="43.1524576" lon="11.6706596"><ele>497.0</ele><time>2026-04-19T08:23:04.026Z</time></trkpt><trkpt lat="43.1524069" lon="11.6705216"><ele>494.75</ele><time>2026-04-19T08:23:05.027Z</time></trkpt><trkpt lat="43.1523434" lon="11.6703778"><ele>492.5</ele><time>2026-04-19T08:23:06.026Z</time></trkpt><trkpt lat="43.1522734" lon="11.6702427"><ele>490.25</ele><time>2026-04-19T08:23:07.026Z</time></trkpt><trkpt lat="43.152204" lon="11.6701305"><ele>488.0</ele><time>2026-04-19T08:23:08.026Z</time></trkpt><trkpt lat="43.152126" lon="11.6700298"><ele>487.4</ele><time>2026-04-19T08:23:09.026Z</time></trkpt><trkpt lat="43.1520484" lon="11.6699394"><ele>486.79999999999995</ele><time>2026-04-19T08:23:10.027Z</time></trkpt><trkpt lat="43.151977" lon="11.6698619"><ele>486.2</ele><time>2026-04-19T08:23:11.027Z</time></trkpt><trkpt lat="43.1519115" lon="11.6697986"><ele>485.6</ele><time>2026-04-19T08:23:12.027Z</time></trkpt><trkpt lat="43.1518212" lon="11.6697399"><ele>485.0</ele><time>2026-04-19T08:23:14.026Z</time></trkpt><trkpt lat="43.1519076" lon="11.6696935"><ele>484.99999999999994</ele><time>2026-04-19T08:23:26.027Z</time></trkpt><trkpt lat="43.1519861" lon="11.6696709"><ele>485.0</ele><time>2026-04-19T08:23:27.027Z</time></trkpt><trkpt lat="43.152069" lon="11.6696324"><ele>485.0</ele><time>2026-04-19T08:23:28.026Z</time></trkpt><trkpt lat="43.152143" lon="11.6695795"><ele>485.0</ele><time>2026-04-19T08:23:29.027Z</time></trkpt><trkpt lat="43.1522113" lon="11.6695281"><ele>484.99999999999994</ele><time>2026-04-19T08:23:30.026Z</time></trkpt><trkpt lat="43.1522884" lon="11.6694842"><ele>485.0</ele><time>2026-04-19T08:23:31.026Z</time></trkpt><trkpt lat="43.1523705" lon="11.6694472"><ele>483.66666666666663</ele><time>2026-04-19T08:23:32.027Z</time></trkpt><trkpt lat="43.1524526" lon="11.6694144"><ele>482.3333333333333</ele><time>2026-04-19T08:23:33.027Z</time></trkpt><trkpt lat="43.1525341" lon="11.6693918"><ele>481.0</ele><time>2026-04-19T08:23:34.026Z</time></trkpt><trkpt lat="43.1526145" lon="11.6693757"><ele>479.66666666666663</ele><time>2026-04-19T08:23:35.026Z</time></trkpt><trkpt lat="43.152687" lon="11.6693617"><ele>478.3333333333333</ele><time>2026-04-19T08:23:36.027Z</time></trkpt><trkpt lat="43.152765" lon="11.6693428"><ele>477.0</ele><time>2026-04-19T08:23:37.026Z</time></trkpt><trkpt lat="43.1528436" lon="11.6693276"><ele>477.0</ele><time>2026-04-19T08:23:38.026Z</time></trkpt><trkpt lat="43.1529284" lon="11.6693258"><ele>477.0</ele><time>2026-04-19T08:23:39.027Z</time></trkpt><trkpt lat="43.1530012" lon="11.669333"><ele>477.0</ele><time>2026-04-19T08:23:40.026Z</time></trkpt><trkpt lat="43.1530811" lon="11.6693401"><ele>477.0</ele><time>2026-04-19T08:23:42.026Z</time></trkpt><trkpt lat="43.1531417" lon="11.6693651"><ele>477.0</ele><time>2026-04-19T08:23:45.027Z</time></trkpt><trkpt lat="43.153229" lon="11.6693984"><ele>477.0</ele><time>2026-04-19T08:23:47.026Z</time></trkpt><trkpt lat="43.1532999" lon="11.6694036"><ele>476.1666666666667</ele><time>2026-04-19T08:23:48.026Z</time></trkpt><trkpt lat="43.1533721" lon="11.6693956"><ele>475.33333333333337</ele><time>2026-04-19T08:23:49.027Z</time></trkpt><trkpt lat="43.1534444" lon="11.6693881"><ele>474.5</ele><time>2026-04-19T08:23:50.027Z</time></trkpt><trkpt lat="43.1535488" lon="11.669376"><ele>473.6666666666667</ele><time>2026-04-19T08:23:52.027Z</time></trkpt><trkpt lat="43.1536238" lon="11.6693464"><ele>472.83333333333337</ele><time>2026-04-19T08:23:54.026Z</time></trkpt><trkpt lat="43.1536767" lon="11.6694466"><ele>472.0</ele><time>2026-04-19T08:23:56.027Z</time></trkpt><trkpt lat="43.1536942" lon="11.6695321"><ele>472.0</ele><time>2026-04-19T08:23:57.026Z</time></trkpt><trkpt lat="43.1537221" lon="11.6696853"><ele>472.00000000000006</ele><time>2026-04-19T08:23:59.026Z</time></trkpt><trkpt lat="43.1538026" lon="11.6696894"><ele>472.00000000000006</ele><time>2026-04-19T08:24:01.026Z</time></trkpt><trkpt lat="43.1538673" lon="11.6696202"><ele>472.0</ele><time>2026-04-19T08:24:02.027Z</time></trkpt><trkpt lat="43.1539343" lon="11.669546"><ele>472.0</ele><time>2026-04-19T08:24:03.026Z</time></trkpt><trkpt lat="43.154001" lon="11.6694651"><ele>468.33333333333337</ele><time>2026-04-19T08:24:04.027Z</time></trkpt><trkpt lat="43.15407" lon="11.6693793"><ele>464.6666666666667</ele><time>2026-04-19T08:24:05.027Z</time></trkpt><trkpt lat="43.1541242" lon="11.669284"><ele>461.0</ele><time>2026-04-19T08:24:06.027Z</time></trkpt><trkpt lat="43.1541572" lon="11.6691879"><ele>457.33333333333337</ele><time>2026-04-19T08:24:07.026Z</time></trkpt><trkpt lat="43.1541574" lon="11.6690938"><ele>453.6666666666667</ele><time>2026-04-19T08:24:08.027Z</time></trkpt><trkpt lat="43.1541582" lon="11.6689979"><ele>450.0</ele><time>2026-04-19T08:24:09.027Z</time></trkpt><trkpt lat="43.1541608" lon="11.6688511"><ele>450.0</ele><time>2026-04-19T08:24:11.027Z</time></trkpt><trkpt lat="43.1542189" lon="11.6687491"><ele>450.0</ele><time>2026-04-19T08:24:13.027Z</time></trkpt><trkpt lat="43.1542923" lon="11.6687171"><ele>450.0</ele><time>2026-04-19T08:24:15.026Z</time></trkpt><trkpt lat="43.1543713" lon="11.6686818"><ele>450.0</ele><time>2026-04-19T08:24:17.027Z</time></trkpt><trkpt lat="43.1544567" lon="11.668673"><ele>450.0</ele><time>2026-04-19T08:24:19.027Z</time></trkpt><trkpt lat="43.1545449" lon="11.6686325"><ele>450.0</ele><time>2026-04-19T08:24:21.027Z</time></trkpt><trkpt lat="43.1546296" lon="11.6685739"><ele>448.5</ele><time>2026-04-19T08:24:23.026Z</time></trkpt><trkpt lat="43.1547442" lon="11.6685348"><ele>447.0</ele><time>2026-04-19T08:24:25.027Z</time></trkpt><trkpt lat="43.1548026" lon="11.6684908"><ele>445.5</ele><time>2026-04-19T08:24:26.027Z</time></trkpt><trkpt lat="43.1548637" lon="11.6684575"><ele>444.0</ele><time>2026-04-19T08:24:27.026Z</time></trkpt><trkpt lat="43.1549222" lon="11.6684224"><ele>442.5</ele><time>2026-04-19T08:24:28.027Z</time></trkpt><trkpt lat="43.1549797" lon="11.6683772"><ele>441.0</ele><time>2026-04-19T08:24:29.027Z</time></trkpt><trkpt lat="43.1550735" lon="11.6683032"><ele>438.5</ele><time>2026-04-19T08:24:31.026Z</time></trkpt><trkpt lat="43.1551641" lon="11.6682546"><ele>436.0</ele><time>2026-04-19T08:24:33.026Z</time></trkpt><trkpt lat="43.1552443" lon="11.6682063"><ele>433.5</ele><time>2026-04-19T08:24:35.027Z</time></trkpt><trkpt lat="43.1553063" lon="11.6681796"><ele>431.0</ele><time>2026-04-19T08:24:37.026Z</time></trkpt><trkpt lat="43.1553819" lon="11.6681562"><ele>428.5</ele><time>2026-04-19T08:24:40.027Z</time></trkpt><trkpt lat="43.155454" lon="11.6681595"><ele>426.0</ele><time>2026-04-19T08:24:44.027Z</time></trkpt><trkpt lat="43.1554011" lon="11.6683394"><ele>425.99999999999994</ele><time>2026-04-19T08:25:17.026Z</time></trkpt><trkpt lat="43.1553709" lon="11.668422"><ele>426.0</ele><time>2026-04-19T08:25:19.027Z</time></trkpt><trkpt lat="43.1553487" lon="11.6685031"><ele>426.0</ele><time>2026-04-19T08:25:24.027Z</time></trkpt><trkpt lat="43.1553369" lon="11.6685907"><ele>426.0</ele><time>2026-04-19T08:25:28.027Z</time></trkpt><trkpt lat="43.155304" lon="11.6686844"><ele>426.0</ele><time>2026-04-19T08:25:31.027Z</time></trkpt><trkpt lat="43.1552731" lon="11.6687751"><ele>425.99999999999994</ele><time>2026-04-19T08:25:33.026Z</time></trkpt><trkpt lat="43.1552356" lon="11.6688905"><ele>426.0</ele><time>2026-04-19T08:25:35.026Z</time></trkpt><trkpt lat="43.1552055" lon="11.6690204"><ele>426.4</ele><time>2026-04-19T08:25:37.026Z</time></trkpt><trkpt lat="43.1551687" lon="11.6691525"><ele>426.8</ele><time>2026-04-19T08:25:39.026Z</time></trkpt><trkpt lat="43.1551505" lon="11.6693055"><ele>427.19999999999993</ele><time>2026-04-19T08:25:41.027Z</time></trkpt><trkpt lat="43.1551204" lon="11.6694632"><ele>427.59999999999997</ele><time>2026-04-19T08:25:43.027Z</time></trkpt><trkpt lat="43.1550966" lon="11.6695971"><ele>428.0</ele><time>2026-04-19T08:25:45.026Z</time></trkpt><trkpt lat="43.1551036" lon="11.6697287"><ele>428.49999999999994</ele><time>2026-04-19T08:25:47.027Z</time></trkpt><trkpt lat="43.1551129" lon="11.6698363"><ele>429.0</ele><time>2026-04-19T08:25:48.026Z</time></trkpt><trkpt lat="43.1551231" lon="11.6699502"><ele>429.5</ele><time>2026-04-19T08:25:49.026Z</time></trkpt><trkpt lat="43.1551459" lon="11.6700563"><ele>430.0</ele><time>2026-04-19T08:25:50.026Z</time></trkpt><trkpt lat="43.1551621" lon="11.670163"><ele>430.49999999999994</ele><time>2026-04-19T08:25:51.026Z</time></trkpt><trkpt lat="43.1551796" lon="11.670267"><ele>431.0</ele><time>2026-04-19T08:25:52.027Z</time></trkpt><trkpt lat="43.1552004" lon="11.670352"><ele>432.20000000000005</ele><time>2026-04-19T08:25:53.027Z</time></trkpt><trkpt lat="43.1552281" lon="11.6704808"><ele>433.40000000000003</ele><time>2026-04-19T08:25:55.027Z</time></trkpt><trkpt lat="43.1552474" lon="11.6705984"><ele>434.6</ele><time>2026-04-19T08:25:57.026Z</time></trkpt><trkpt lat="43.1552604" lon="11.6707032"><ele>435.8</ele><time>2026-04-19T08:25:59.027Z</time></trkpt><trkpt lat="43.1552854" lon="11.6708414"><ele>437.0</ele><time>2026-04-19T08:26:01.026Z</time></trkpt><trkpt lat="43.155285" lon="11.6709734"><ele>437.40000000000003</ele><time>2026-04-19T08:26:03.027Z</time></trkpt><trkpt lat="43.1552895" lon="11.6711307"><ele>437.80000000000007</ele><time>2026-04-19T08:26:05.026Z</time></trkpt><trkpt lat="43.1552979" lon="11.6712736"><ele>438.2</ele><time>2026-04-19T08:26:07.026Z</time></trkpt><trkpt lat="43.155307" lon="11.6713962"><ele>438.6</ele><time>2026-04-19T08:26:09.027Z</time></trkpt><trkpt lat="43.1553193" lon="11.6714972"><ele>439.0</ele><time>2026-04-19T08:26:11.026Z</time></trkpt><trkpt lat="43.1553276" lon="11.6716176"><ele>439.00000000000006</ele><time>2026-04-19T08:26:13.027Z</time></trkpt><trkpt lat="43.1553139" lon="11.6717464"><ele>439.0</ele><time>2026-04-19T08:26:15.026Z</time></trkpt><trkpt lat="43.1552983" lon="11.6718374"><ele>439.0</ele><time>2026-04-19T08:26:17.026Z</time></trkpt><trkpt lat="43.1553385" lon="11.6719288"><ele>439.0</ele><time>2026-04-19T08:26:22.026Z</time></trkpt><trkpt lat="43.1554156" lon="11.6719476"><ele>439.00000000000006</ele><time>2026-04-19T08:26:25.026Z</time></trkpt><trkpt lat="43.1553759" lon="11.6720309"><ele>439.0</ele><time>2026-04-19T08:27:03.027Z</time></trkpt><trkpt lat="43.1553093" lon="11.672094"><ele>439.33333333333337</ele><time>2026-04-19T08:27:05.027Z</time></trkpt><trkpt lat="43.1552175" lon="11.6721748"><ele>439.6666666666667</ele><time>2026-04-19T08:27:07.027Z</time></trkpt><trkpt lat="43.1551704" lon="11.6722372"><ele>440.0</ele><time>2026-04-19T08:27:08.026Z</time></trkpt><trkpt lat="43.1551293" lon="11.6723189"><ele>440.33333333333337</ele><time>2026-04-19T08:27:09.027Z</time></trkpt><trkpt lat="43.1550859" lon="11.6724"><ele>440.6666666666667</ele><time>2026-04-19T08:27:10.027Z</time></trkpt><trkpt lat="43.1550417" lon="11.6724811"><ele>441.0</ele><time>2026-04-19T08:27:11.027Z</time></trkpt><trkpt lat="43.1549981" lon="11.6725465"><ele>441.0</ele><time>2026-04-19T08:27:12.026Z</time></trkpt><trkpt lat="43.1549208" lon="11.6726473"><ele>441.0</ele><time>2026-04-19T08:27:14.026Z</time></trkpt><trkpt lat="43.1548764" lon="11.6728019"><ele>441.0</ele><time>2026-04-19T08:27:16.027Z</time></trkpt><trkpt lat="43.1549355" lon="11.6729109"><ele>441.0</ele><time>2026-04-19T08:27:18.027Z</time></trkpt><trkpt lat="43.1550815" lon="11.6730014"><ele>443.75</ele><time>2026-04-19T08:27:20.027Z</time></trkpt><trkpt lat="43.155181" lon="11.673073"><ele>446.5</ele><time>2026-04-19T08:27:21.027Z</time></trkpt><trkpt lat="43.1552849" lon="11.6731486"><ele>449.25</ele><time>2026-04-19T08:27:22.027Z</time></trkpt><trkpt lat="43.1553951" lon="11.6732353"><ele>452.0</ele><time>2026-04-19T08:27:23.026Z</time></trkpt><trkpt lat="43.1555156" lon="11.6733288"><ele>452.0</ele><time>2026-04-19T08:27:24.027Z</time></trkpt><trkpt lat="43.1556042" lon="11.673404"><ele>452.00000000000006</ele><time>2026-04-19T08:27:25.027Z</time></trkpt><trkpt lat="43.1556581" lon="11.6734782"><ele>452.00000000000006</ele><time>2026-04-19T08:27:26.027Z</time></trkpt><trkpt lat="43.1556814" lon="11.6735858"><ele>452.0</ele><time>2026-04-19T08:27:27.026Z</time></trkpt><trkpt lat="43.1556893" lon="11.6737221"><ele>452.0</ele><time>2026-04-19T08:27:28.027Z</time></trkpt><trkpt lat="43.1556866" lon="11.673863"><ele>454.6</ele><time>2026-04-19T08:27:29.027Z</time></trkpt><trkpt lat="43.1556651" lon="11.6739871"><ele>457.20000000000005</ele><time>2026-04-19T08:27:30.027Z</time></trkpt><trkpt lat="43.1556139" lon="11.6741044"><ele>459.8</ele><time>2026-04-19T08:27:31.027Z</time></trkpt><trkpt lat="43.1555578" lon="11.6742237"><ele>462.4</ele><time>2026-04-19T08:27:32.026Z</time></trkpt><trkpt lat="43.1555088" lon="11.6743432"><ele>465.0</ele><time>2026-04-19T08:27:33.026Z</time></trkpt><trkpt lat="43.1554712" lon="11.6744669"><ele>466.6666666666667</ele><time>2026-04-19T08:27:34.027Z</time></trkpt><trkpt lat="43.1554659" lon="11.6746162"><ele>468.33333333333337</ele><time>2026-04-19T08:27:35.027Z</time></trkpt><trkpt lat="43.1554919" lon="11.6747518"><ele>470.0</ele><time>2026-04-19T08:27:36.027Z</time></trkpt><trkpt lat="43.1555599" lon="11.6748094"><ele>471.6666666666667</ele><time>2026-04-19T08:27:39.027Z</time></trkpt><trkpt lat="43.1556295" lon="11.6748455"><ele>473.33333333333337</ele><time>2026-04-19T08:27:41.026Z</time></trkpt><trkpt lat="43.1556439" lon="11.674945"><ele>475.0</ele><time>2026-04-19T08:27:42.027Z</time></trkpt><trkpt lat="43.1556239" lon="11.6750859"><ele>475.0</ele><time>2026-04-19T08:27:43.026Z</time></trkpt><trkpt lat="43.1556043" lon="11.6752281"><ele>475.0</ele><time>2026-04-19T08:27:44.027Z</time></trkpt><trkpt lat="43.1555916" lon="11.6753702"><ele>475.0</ele><time>2026-04-19T08:27:45.026Z</time></trkpt><trkpt lat="43.1555707" lon="11.6755249"><ele>475.0</ele><time>2026-04-19T08:27:46.026Z</time></trkpt><trkpt lat="43.1555567" lon="11.6756723"><ele>475.0</ele><time>2026-04-19T08:27:47.026Z</time></trkpt><trkpt lat="43.1555173" lon="11.6758074"><ele>477.0</ele><time>2026-04-19T08:27:48.027Z</time></trkpt><trkpt lat="43.155474" lon="11.6759336"><ele>479.0</ele><time>2026-04-19T08:27:49.026Z</time></trkpt><trkpt lat="43.155434" lon="11.6760657"><ele>481.0</ele><time>2026-04-19T08:27:50.027Z</time></trkpt><trkpt lat="43.155407" lon="11.6762023"><ele>483.0</ele><time>2026-04-19T08:27:51.027Z</time></trkpt><trkpt lat="43.1553851" lon="11.6763438"><ele>485.0</ele><time>2026-04-19T08:27:52.027Z</time></trkpt><trkpt lat="43.1553794" lon="11.6764776"><ele>486.66666666666663</ele><time>2026-04-19T08:27:53.027Z</time></trkpt><trkpt lat="43.1553693" lon="11.6765968"><ele>488.3333333333333</ele><time>2026-04-19T08:27:54.026Z</time></trkpt><trkpt lat="43.1553349" lon="11.6766918"><ele>490.0</ele><time>2026-04-19T08:27:55.027Z</time></trkpt><trkpt lat="43.1552665" lon="11.6767727"><ele>491.66666666666663</ele><time>2026-04-19T08:27:56.027Z</time></trkpt><trkpt lat="43.1551891" lon="11.6768543"><ele>493.3333333333333</ele><time>2026-04-19T08:27:57.026Z</time></trkpt><trkpt lat="43.1551242" lon="11.6769462"><ele>495.0</ele><time>2026-04-19T08:27:58.027Z</time></trkpt><trkpt lat="43.1550814" lon="11.67707"><ele>495.0</ele><time>2026-04-19T08:27:59.027Z</time></trkpt><trkpt lat="43.1550438" lon="11.6771891"><ele>495.0</ele><time>2026-04-19T08:28:00.027Z</time></trkpt><trkpt lat="43.1549914" lon="11.6772777"><ele>495.0</ele><time>2026-04-19T08:28:01.026Z</time></trkpt><trkpt lat="43.1549139" lon="11.6773463"><ele>495.0</ele><time>2026-04-19T08:28:02.026Z</time></trkpt><trkpt lat="43.1548196" lon="11.6774023"><ele>495.0</ele><time>2026-04-19T08:28:03.027Z</time></trkpt><trkpt lat="43.154729" lon="11.6774555"><ele>498.0</ele><time>2026-04-19T08:28:04.027Z</time></trkpt><trkpt lat="43.1546628" lon="11.6774953"><ele>501.0</ele><time>2026-04-19T08:28:05.027Z</time></trkpt><trkpt lat="43.154594" lon="11.677519"><ele>504.0</ele><time>2026-04-19T08:28:07.027Z</time></trkpt><trkpt lat="43.1544731" lon="11.6773655"><ele>507.0</ele><time>2026-04-19T08:28:30.027Z</time></trkpt><trkpt lat="43.1544128" lon="11.6772179"><ele>510.0</ele><time>2026-04-19T08:28:31.027Z</time></trkpt><trkpt lat="43.1543167" lon="11.6770563"><ele>509.5</ele><time>2026-04-19T08:28:32.026Z</time></trkpt><trkpt lat="43.1542187" lon="11.6769094"><ele>509.0</ele><time>2026-04-19T08:28:33.027Z</time></trkpt><trkpt lat="43.1541155" lon="11.6768114"><ele>508.5</ele><time>2026-04-19T08:28:34.027Z</time></trkpt><trkpt lat="43.1539986" lon="11.6767488"><ele>508.0</ele><time>2026-04-19T08:28:35.027Z</time></trkpt><trkpt lat="43.1538903" lon="11.6767208"><ele>508.0</ele><time>2026-04-19T08:28:36.027Z</time></trkpt><trkpt lat="43.1538075" lon="11.6767217"><ele>507.99999999999994</ele><time>2026-04-19T08:28:37.027Z</time></trkpt><trkpt lat="43.1537824" lon="11.6768784"><ele>507.99999999999994</ele><time>2026-04-19T08:28:39.027Z</time></trkpt><trkpt lat="43.1538227" lon="11.6770199"><ele>508.0</ele><time>2026-04-19T08:28:40.027Z</time></trkpt><trkpt lat="43.1538732" lon="11.6771907"><ele>508.0</ele><time>2026-04-19T08:28:41.027Z</time></trkpt><trkpt lat="43.1539268" lon="11.6773773"><ele>510.0</ele><time>2026-04-19T08:28:42.027Z</time></trkpt><trkpt lat="43.1539726" lon="11.6775486"><ele>512.0</ele><time>2026-04-19T08:28:43.027Z</time></trkpt><trkpt lat="43.1540141" lon="11.6777221"><ele>514.0</ele><time>2026-04-19T08:28:44.027Z</time></trkpt><trkpt lat="43.1540335" lon="11.6778949"><ele>516.0</ele><time>2026-04-19T08:28:45.027Z</time></trkpt><trkpt lat="43.1540362" lon="11.6780426"><ele>518.4</ele><time>2026-04-19T08:28:46.026Z</time></trkpt><trkpt lat="43.1540003" lon="11.6781829"><ele>520.8</ele><time>2026-04-19T08:28:47.026Z</time></trkpt><trkpt lat="43.1539602" lon="11.6783294"><ele>523.1999999999999</ele><time>2026-04-19T08:28:48.027Z</time></trkpt><trkpt lat="43.1539538" lon="11.6784795"><ele>525.6</ele><time>2026-04-19T08:28:49.026Z</time></trkpt><trkpt lat="43.153975" lon="11.6786183"><ele>528.0</ele><time>2026-04-19T08:28:50.027Z</time></trkpt><trkpt lat="43.1540201" lon="11.678775"><ele>527.5</ele><time>2026-04-19T08:28:51.027Z</time></trkpt><trkpt lat="43.154064" lon="11.6789332"><ele>527.0</ele><time>2026-04-19T08:28:52.026Z</time></trkpt><trkpt lat="43.1540979" lon="11.6791"><ele>526.5</ele><time>2026-04-19T08:28:53.026Z</time></trkpt><trkpt lat="43.1541293" lon="11.6792637"><ele>526.0</ele><time>2026-04-19T08:28:54.027Z</time></trkpt><trkpt lat="43.1541918" lon="11.6794442"><ele>528.0</ele><time>2026-04-19T08:28:55.027Z</time></trkpt><trkpt lat="43.1542718" lon="11.6796497"><ele>530.0</ele><time>2026-04-19T08:28:56.027Z</time></trkpt><trkpt lat="43.1543647" lon="11.679852"><ele>532.0</ele><time>2026-04-19T08:28:57.027Z</time></trkpt><trkpt lat="43.1544552" lon="11.6800245"><ele>532.0</ele><time>2026-04-19T08:28:58.027Z</time></trkpt><trkpt lat="43.1545374" lon="11.6801434"><ele>532.0</ele><time>2026-04-19T08:28:59.026Z</time></trkpt><trkpt lat="43.1546262" lon="11.6802531"><ele>532.0</ele><time>2026-04-19T08:29:00.027Z</time></trkpt><trkpt lat="43.1547192" lon="11.6803559"><ele>532.0</ele><time>2026-04-19T08:29:01.026Z</time></trkpt><trkpt lat="43.1548041" lon="11.680447"><ele>531.0</ele><time>2026-04-19T08:29:02.027Z</time></trkpt><trkpt lat="43.1548663" lon="11.6805248"><ele>530.0</ele><time>2026-04-19T08:29:03.026Z</time></trkpt><trkpt lat="43.1549103" lon="11.6805876"><ele>529.0</ele><time>2026-04-19T08:29:04.027Z</time></trkpt><trkpt lat="43.1549841" lon="11.6806971"><ele>528.0</ele><time>2026-04-19T08:29:06.026Z</time></trkpt><trkpt lat="43.1550472" lon="11.6807638"><ele>527.0</ele><time>2026-04-19T08:29:08.026Z</time></trkpt><trkpt lat="43.155097" lon="11.6808349"><ele>526.0</ele><time>2026-04-19T08:29:12.026Z</time></trkpt><trkpt lat="43.1551301" lon="11.6809122"><ele>526.0</ele><time>2026-04-19T08:29:16.027Z</time></trkpt><trkpt lat="43.1551728" lon="11.6809848"><ele>526.0</ele><time>2026-04-19T08:29:17.026Z</time></trkpt><trkpt lat="43.1552284" lon="11.6810757"><ele>526.0</ele><time>2026-04-19T08:29:18.026Z</time></trkpt><trkpt lat="43.1552823" lon="11.681176"><ele>526.0</ele><time>2026-04-19T08:29:19.027Z</time></trkpt><trkpt lat="43.1553395" lon="11.6812801"><ele>526.0</ele><time>2026-04-19T08:29:20.027Z</time></trkpt><trkpt lat="43.1553814" lon="11.6813997"><ele>526.0</ele><time>2026-04-19T08:29:21.027Z</time></trkpt><trkpt lat="43.155421" lon="11.6815294"><ele>524.4</ele><time>2026-04-19T08:29:22.026Z</time></trkpt><trkpt lat="43.1554588" lon="11.6816606"><ele>522.8</ele><time>2026-04-19T08:29:23.027Z</time></trkpt><trkpt lat="43.1554918" lon="11.6817972"><ele>521.1999999999999</ele><time>2026-04-19T08:29:24.026Z</time></trkpt><trkpt lat="43.1555269" lon="11.6819311"><ele>519.6</ele><time>2026-04-19T08:29:25.026Z</time></trkpt><trkpt lat="43.155554" lon="11.6820605"><ele>518.0</ele><time>2026-04-19T08:29:26.026Z</time></trkpt><trkpt lat="43.1555797" lon="11.68218"><ele>517.4</ele><time>2026-04-19T08:29:27.027Z</time></trkpt><trkpt lat="43.1556134" lon="11.68229"><ele>516.8</ele><time>2026-04-19T08:29:28.026Z</time></trkpt><trkpt lat="43.1556699" lon="11.6823776"><ele>516.2</ele><time>2026-04-19T08:29:29.027Z</time></trkpt><trkpt lat="43.1557505" lon="11.6824517"><ele>515.6</ele><time>2026-04-19T08:29:30.027Z</time></trkpt><trkpt lat="43.1558426" lon="11.6825155"><ele>515.0</ele><time>2026-04-19T08:29:31.027Z</time></trkpt><trkpt lat="43.1559371" lon="11.6825903"><ele>517.2</ele><time>2026-04-19T08:29:32.026Z</time></trkpt><trkpt lat="43.1560329" lon="11.6826572"><ele>519.4</ele><time>2026-04-19T08:29:33.027Z</time></trkpt><trkpt lat="43.1561249" lon="11.6827235"><ele>521.6</ele><time>2026-04-19T08:29:34.027Z</time></trkpt><trkpt lat="43.1562121" lon="11.6827797"><ele>523.8</ele><time>2026-04-19T08:29:35.027Z</time></trkpt><trkpt lat="43.1562938" lon="11.6828484"><ele>526.0</ele><time>2026-04-19T08:29:36.027Z</time></trkpt><trkpt lat="43.156368" lon="11.68293"><ele>526.0</ele><time>2026-04-19T08:29:37.026Z</time></trkpt><trkpt lat="43.1564402" lon="11.6830294"><ele>526.0</ele><time>2026-04-19T08:29:38.027Z</time></trkpt><trkpt lat="43.156514" lon="11.6831376"><ele>526.0</ele><time>2026-04-19T08:29:39.027Z</time></trkpt><trkpt lat="43.1565921" lon="11.6832509"><ele>526.0</ele><time>2026-04-19T08:29:40.027Z</time></trkpt><trkpt lat="43.1566716" lon="11.6833771"><ele>526.0</ele><time>2026-04-19T08:29:41.027Z</time></trkpt><trkpt lat="43.1567583" lon="11.6835032"><ele>527.0</ele><time>2026-04-19T08:29:42.026Z</time></trkpt><trkpt lat="43.1568476" lon="11.6836334"><ele>528.0</ele><time>2026-04-19T08:29:43.027Z</time></trkpt><trkpt lat="43.1569286" lon="11.6837575"><ele>529.0</ele><time>2026-04-19T08:29:44.027Z</time></trkpt><trkpt lat="43.1570066" lon="11.6838865"><ele>530.0</ele><time>2026-04-19T08:29:45.027Z</time></trkpt><trkpt lat="43.1570825" lon="11.6840217"><ele>530.0</ele><time>2026-04-19T08:29:46.027Z</time></trkpt><trkpt lat="43.1571607" lon="11.6841593"><ele>530.0</ele><time>2026-04-19T08:29:47.027Z</time></trkpt><trkpt lat="43.1572389" lon="11.6842848"><ele>530.0</ele><time>2026-04-19T08:29:48.026Z</time></trkpt><trkpt lat="43.1573157" lon="11.6844028"><ele>530.0</ele><time>2026-04-19T08:29:49.026Z</time></trkpt><trkpt lat="43.1573939" lon="11.6844987"><ele>530.6</ele><time>2026-04-19T08:29:50.027Z</time></trkpt><trkpt lat="43.1574763" lon="11.6845616"><ele>531.2</ele><time>2026-04-19T08:29:51.027Z</time></trkpt><trkpt lat="43.1575663" lon="11.6845932"><ele>531.8</ele><time>2026-04-19T08:29:52.027Z</time></trkpt><trkpt lat="43.1576703" lon="11.6846013"><ele>532.4</ele><time>2026-04-19T08:29:53.026Z</time></trkpt><trkpt lat="43.1577761" lon="11.6845946"><ele>533.0</ele><time>2026-04-19T08:29:54.026Z</time></trkpt><trkpt lat="43.1578819" lon="11.6845928"><ele>533.0</ele><time>2026-04-19T08:29:55.027Z</time></trkpt><trkpt lat="43.1579789" lon="11.6845887"><ele>533.0</ele><time>2026-04-19T08:29:56.027Z</time></trkpt><trkpt lat="43.1580677" lon="11.6845963"><ele>533.0</ele><time>2026-04-19T08:29:57.026Z</time></trkpt><trkpt lat="43.1581472" lon="11.6846301"><ele>533.0</ele><time>2026-04-19T08:29:58.027Z</time></trkpt><trkpt lat="43.1582257" lon="11.6847056"><ele>533.0</ele><time>2026-04-19T08:29:59.027Z</time></trkpt><trkpt lat="43.1582963" lon="11.6848044"><ele>535.75</ele><time>2026-04-19T08:30:00.027Z</time></trkpt><trkpt lat="43.1583623" lon="11.6849167"><ele>538.5</ele><time>2026-04-19T08:30:01.026Z</time></trkpt><trkpt lat="43.1584121" lon="11.685049"><ele>541.25</ele><time>2026-04-19T08:30:02.027Z</time></trkpt><trkpt lat="43.1584529" lon="11.6852178"><ele>544.0</ele><time>2026-04-19T08:30:03.027Z</time></trkpt><trkpt lat="43.1584973" lon="11.6854031"><ele>544.5</ele><time>2026-04-19T08:30:04.026Z</time></trkpt><trkpt lat="43.1585383" lon="11.6855912"><ele>545.0</ele><time>2026-04-19T08:30:05.026Z</time></trkpt><trkpt lat="43.1585771" lon="11.6857636"><ele>545.5</ele><time>2026-04-19T08:30:06.026Z</time></trkpt><trkpt lat="43.1586141" lon="11.6859243"><ele>546.0</ele><time>2026-04-19T08:30:07.026Z</time></trkpt><trkpt lat="43.1586492" lon="11.6860674"><ele>545.5</ele><time>2026-04-19T08:30:08.027Z</time></trkpt><trkpt lat="43.1586781" lon="11.6861846"><ele>545.0</ele><time>2026-04-19T08:30:09.026Z</time></trkpt><trkpt lat="43.158707" lon="11.6862722"><ele>544.5</ele><time>2026-04-19T08:30:10.027Z</time></trkpt><trkpt lat="43.158784" lon="11.6863864"><ele>544.0</ele><time>2026-04-19T08:30:12.026Z</time></trkpt><trkpt lat="43.1588406" lon="11.6864344"><ele>543.5</ele><time>2026-04-19T08:30:13.026Z</time></trkpt><trkpt lat="43.158906" lon="11.6864704"><ele>543.0</ele><time>2026-04-19T08:30:14.026Z</time></trkpt><trkpt lat="43.1589904" lon="11.6864761"><ele>543.1999999999999</ele><time>2026-04-19T08:30:15.027Z</time></trkpt><trkpt lat="43.1590741" lon="11.6864984"><ele>543.4</ele><time>2026-04-19T08:30:16.027Z</time></trkpt><trkpt lat="43.1591715" lon="11.686535"><ele>543.5999999999999</ele><time>2026-04-19T08:30:17.027Z</time></trkpt><trkpt lat="43.1592792" lon="11.6865661"><ele>543.8</ele><time>2026-04-19T08:30:18.026Z</time></trkpt><trkpt lat="43.1593978" lon="11.6866006"><ele>544.0</ele><time>2026-04-19T08:30:19.026Z</time></trkpt><trkpt lat="43.1595195" lon="11.6866478"><ele>544.0</ele><time>2026-04-19T08:30:20.026Z</time></trkpt><trkpt lat="43.1596303" lon="11.686692"><ele>544.0</ele><time>2026-04-19T08:30:21.026Z</time></trkpt><trkpt lat="43.1597516" lon="11.6867557"><ele>544.0</ele><time>2026-04-19T08:30:22.026Z</time></trkpt><trkpt lat="43.1598607" lon="11.6868308"><ele>544.0</ele><time>2026-04-19T08:30:23.027Z</time></trkpt><trkpt lat="43.1599755" lon="11.6868975"><ele>543.25</ele><time>2026-04-19T08:30:24.027Z</time></trkpt><trkpt lat="43.160087" lon="11.6869612"><ele>542.5</ele><time>2026-04-19T08:30:25.027Z</time></trkpt><trkpt lat="43.1601942" lon="11.6870303"><ele>541.75</ele><time>2026-04-19T08:30:26.026Z</time></trkpt><trkpt lat="43.1603031" lon="11.687107"><ele>541.0</ele><time>2026-04-19T08:30:27.026Z</time></trkpt><trkpt lat="43.1603986" lon="11.6871849"><ele>541.0</ele><time>2026-04-19T08:30:28.026Z</time></trkpt><trkpt lat="43.1604856" lon="11.6872716"><ele>541.0</ele><time>2026-04-19T08:30:29.027Z</time></trkpt><trkpt lat="43.1605631" lon="11.6873701"><ele>541.0</ele><time>2026-04-19T08:30:30.027Z</time></trkpt><trkpt lat="43.1606115" lon="11.6874859"><ele>541.0</ele><time>2026-04-19T08:30:31.026Z</time></trkpt><trkpt lat="43.1606564" lon="11.6876462"><ele>541.0</ele><time>2026-04-19T08:30:32.026Z</time></trkpt><trkpt lat="43.1606993" lon="11.687809"><ele>543.5</ele><time>2026-04-19T08:30:33.027Z</time></trkpt><trkpt lat="43.1607517" lon="11.6879637"><ele>546.0</ele><time>2026-04-19T08:30:34.027Z</time></trkpt><trkpt lat="43.1608115" lon="11.6881087"><ele>548.5</ele><time>2026-04-19T08:30:35.026Z</time></trkpt><trkpt lat="43.1608928" lon="11.6882484"><ele>551.0</ele><time>2026-04-19T08:30:36.026Z</time></trkpt><trkpt lat="43.1609803" lon="11.6883811"><ele>551.0</ele><time>2026-04-19T08:30:37.027Z</time></trkpt><trkpt lat="43.1610541" lon="11.6884825"><ele>551.0</ele><time>2026-04-19T08:30:38.026Z</time></trkpt><trkpt lat="43.1611339" lon="11.6885635"><ele>551.0</ele><time>2026-04-19T08:30:39.027Z</time></trkpt><trkpt lat="43.1612284" lon="11.688605"><ele>551.0</ele><time>2026-04-19T08:30:40.026Z</time></trkpt><trkpt lat="43.1613358" lon="11.6886323"><ele>551.0</ele><time>2026-04-19T08:30:41.026Z</time></trkpt><trkpt lat="43.1614632" lon="11.688643"><ele>555.0</ele><time>2026-04-19T08:30:42.026Z</time></trkpt><trkpt lat="43.1616025" lon="11.6886536"><ele>559.0</ele><time>2026-04-19T08:30:43.027Z</time></trkpt><trkpt lat="43.1617518" lon="11.6886673"><ele>563.0</ele><time>2026-04-19T08:30:44.027Z</time></trkpt><trkpt lat="43.161892" lon="11.6887029"><ele>567.0</ele><time>2026-04-19T08:30:45.027Z</time></trkpt><trkpt lat="43.1620242" lon="11.6887207"><ele>567.0</ele><time>2026-04-19T08:30:46.027Z</time></trkpt><trkpt lat="43.162139" lon="11.6887278"><ele>567.0</ele><time>2026-04-19T08:30:47.027Z</time></trkpt><trkpt lat="43.1622677" lon="11.6887252"><ele>567.0</ele><time>2026-04-19T08:30:48.026Z</time></trkpt><trkpt lat="43.1623882" lon="11.6887118"><ele>567.0</ele><time>2026-04-19T08:30:49.027Z</time></trkpt><trkpt lat="43.1624966" lon="11.6887236"><ele>566.4</ele><time>2026-04-19T08:30:50.026Z</time></trkpt><trkpt lat="43.1625953" lon="11.6887616"><ele>565.8000000000001</ele><time>2026-04-19T08:30:51.026Z</time></trkpt><trkpt lat="43.1626781" lon="11.6888355"><ele>565.2</ele><time>2026-04-19T08:30:52.027Z</time></trkpt><trkpt lat="43.1627685" lon="11.688906"><ele>564.6</ele><time>2026-04-19T08:30:53.027Z</time></trkpt><trkpt lat="43.1628557" lon="11.6889799"><ele>564.0</ele><time>2026-04-19T08:30:54.026Z</time></trkpt><trkpt lat="43.1629506" lon="11.6890396"><ele>564.0</ele><time>2026-04-19T08:30:55.027Z</time></trkpt><trkpt lat="43.1630615" lon="11.6890861"><ele>564.0</ele><time>2026-04-19T08:30:56.027Z</time></trkpt><trkpt lat="43.1631779" lon="11.6891423"><ele>564.0</ele><time>2026-04-19T08:30:57.026Z</time></trkpt><trkpt lat="43.163296" lon="11.6891825"><ele>564.0</ele><time>2026-04-19T08:30:58.027Z</time></trkpt><trkpt lat="43.163423" lon="11.6892286"><ele>563.6</ele><time>2026-04-19T08:30:59.027Z</time></trkpt><trkpt lat="43.1635581" lon="11.689272"><ele>563.2</ele><time>2026-04-19T08:31:00.027Z</time></trkpt><trkpt lat="43.1636624" lon="11.6893204"><ele>562.8000000000001</ele><time>2026-04-19T08:31:01.027Z</time></trkpt><trkpt lat="43.1637621" lon="11.6893525"><ele>562.4</ele><time>2026-04-19T08:31:02.027Z</time></trkpt><trkpt lat="43.1638542" lon="11.6893566"><ele>562.0</ele><time>2026-04-19T08:31:03.026Z</time></trkpt><trkpt lat="43.1639311" lon="11.6893481"><ele>562.0</ele><time>2026-04-19T08:31:04.026Z</time></trkpt><trkpt lat="43.1639936" lon="11.6893352"><ele>562.0</ele><time>2026-04-19T08:31:05.026Z</time></trkpt><trkpt lat="43.1640653" lon="11.6892958"><ele>562.0</ele><time>2026-04-19T08:31:07.027Z</time></trkpt><trkpt lat="43.1641042" lon="11.6892266"><ele>562.0</ele><time>2026-04-19T08:31:09.027Z</time></trkpt><trkpt lat="43.1641021" lon="11.6891337"><ele>562.0</ele><time>2026-04-19T08:31:11.027Z</time></trkpt><trkpt lat="43.1640969" lon="11.6890316"><ele>562.0</ele><time>2026-04-19T08:31:13.026Z</time></trkpt><trkpt lat="43.1641506" lon="11.68887"><ele>563.5</ele><time>2026-04-19T08:31:21.026Z</time></trkpt><trkpt lat="43.1641946" lon="11.6887959"><ele>565.0</ele><time>2026-04-19T08:31:22.027Z</time></trkpt><trkpt lat="43.164251" lon="11.6887199"><ele>566.5</ele><time>2026-04-19T08:31:23.026Z</time></trkpt><trkpt lat="43.1643323" lon="11.6886626"><ele>568.0</ele><time>2026-04-19T08:31:24.027Z</time></trkpt><trkpt lat="43.1644286" lon="11.6886458"><ele>569.5</ele><time>2026-04-19T08:31:25.026Z</time></trkpt><trkpt lat="43.1645243" lon="11.6886396"><ele>571.0</ele><time>2026-04-19T08:31:26.027Z</time></trkpt><trkpt lat="43.1646066" lon="11.6886339"><ele>571.0</ele><time>2026-04-19T08:31:27.026Z</time></trkpt><trkpt lat="43.164688" lon="11.6886047"><ele>571.0</ele><time>2026-04-19T08:31:28.027Z</time></trkpt><trkpt lat="43.1647645" lon="11.6885577"><ele>571.0</ele><time>2026-04-19T08:31:29.026Z</time></trkpt><trkpt lat="43.1648539" lon="11.6885019"><ele>571.0</ele><time>2026-04-19T08:31:30.027Z</time></trkpt><trkpt lat="43.1649384" lon="11.6884363"><ele>571.0</ele><time>2026-04-19T08:31:31.027Z</time></trkpt><trkpt lat="43.1650262" lon="11.688363"><ele>571.8</ele><time>2026-04-19T08:31:32.027Z</time></trkpt><trkpt lat="43.165112" lon="11.6882744"><ele>572.6</ele><time>2026-04-19T08:31:33.026Z</time></trkpt><trkpt lat="43.1651993" lon="11.6881749"><ele>573.4</ele><time>2026-04-19T08:31:34.026Z</time></trkpt><trkpt lat="43.1652767" lon="11.6880877"><ele>574.2</ele><time>2026-04-19T08:31:35.026Z</time></trkpt><trkpt lat="43.1653479" lon="11.6880295"><ele>575.0</ele><time>2026-04-19T08:31:36.026Z</time></trkpt><trkpt lat="43.165424" lon="11.6880402"><ele>575.0</ele><time>2026-04-19T08:31:37.027Z</time></trkpt><trkpt lat="43.1654929" lon="11.6880956"><ele>575.0</ele><time>2026-04-19T08:31:38.026Z</time></trkpt><trkpt lat="43.1655534" lon="11.6881763"><ele>575.0</ele><time>2026-04-19T08:31:39.027Z</time></trkpt><trkpt lat="43.1656174" lon="11.6882446"><ele>575.0</ele><time>2026-04-19T08:31:40.026Z</time></trkpt><trkpt lat="43.1656776" lon="11.6882752"><ele>575.0</ele><time>2026-04-19T08:31:41.027Z</time></trkpt><trkpt lat="43.1657453" lon="11.6883137"><ele>575.0</ele><time>2026-04-19T08:31:42.026Z</time></trkpt><trkpt lat="43.1658159" lon="11.688367"><ele>574.6</ele><time>2026-04-19T08:31:43.026Z</time></trkpt><trkpt lat="43.1658831" lon="11.6884401"><ele>574.2</ele><time>2026-04-19T08:31:44.027Z</time></trkpt><trkpt lat="43.1659616" lon="11.6885277"><ele>573.8</ele><time>2026-04-19T08:31:45.027Z</time></trkpt><trkpt lat="43.1660429" lon="11.6886251"><ele>573.4</ele><time>2026-04-19T08:31:46.027Z</time></trkpt><trkpt lat="43.166122" lon="11.6887157"><ele>573.0</ele><time>2026-04-19T08:31:47.027Z</time></trkpt><trkpt lat="43.1661985" lon="11.6888065"><ele>572.4</ele><time>2026-04-19T08:31:48.026Z</time></trkpt><trkpt lat="43.1662755" lon="11.6888901"><ele>571.8</ele><time>2026-04-19T08:31:49.027Z</time></trkpt><trkpt lat="43.1663521" lon="11.688964"><ele>571.2</ele><time>2026-04-19T08:31:50.027Z</time></trkpt><trkpt lat="43.1664266" lon="11.6890277"><ele>570.6</ele><time>2026-04-19T08:31:51.027Z</time></trkpt><trkpt lat="43.1665076" lon="11.6890738"><ele>570.0</ele><time>2026-04-19T08:31:52.027Z</time></trkpt><trkpt lat="43.1665938" lon="11.6891044"><ele>570.0</ele><time>2026-04-19T08:31:53.026Z</time></trkpt><trkpt lat="43.1666777" lon="11.6891261"><ele>570.0</ele><time>2026-04-19T08:31:54.026Z</time></trkpt><trkpt lat="43.1667639" lon="11.6891409"><ele>570.0</ele><time>2026-04-19T08:31:55.026Z</time></trkpt><trkpt lat="43.1668428" lon="11.6891554"><ele>570.0</ele><time>2026-04-19T08:31:56.027Z</time></trkpt><trkpt lat="43.1669204" lon="11.6891764"><ele>570.0</ele><time>2026-04-19T08:31:57.027Z</time></trkpt><trkpt lat="43.1669923" lon="11.689217"><ele>570.0</ele><time>2026-04-19T08:31:58.027Z</time></trkpt><trkpt lat="43.1670678" lon="11.6892551"><ele>570.0</ele><time>2026-04-19T08:31:59.026Z</time></trkpt><trkpt lat="43.1671405" lon="11.6892833"><ele>570.0</ele><time>2026-04-19T08:32:00.027Z</time></trkpt><trkpt lat="43.1672243" lon="11.6893068"><ele>570.0</ele><time>2026-04-19T08:32:01.027Z</time></trkpt><trkpt lat="43.1673148" lon="11.6893339"><ele>570.0</ele><time>2026-04-19T08:32:02.027Z</time></trkpt><trkpt lat="43.1674137" lon="11.6893753"><ele>570.0</ele><time>2026-04-19T08:32:03.026Z</time></trkpt><trkpt lat="43.1675056" lon="11.6893985"><ele>569.6666666666666</ele><time>2026-04-19T08:32:04.026Z</time></trkpt><trkpt lat="43.1675909" lon="11.6894115"><ele>569.3333333333334</ele><time>2026-04-19T08:32:05.026Z</time></trkpt><trkpt lat="43.1676544" lon="11.6894156"><ele>569.0</ele><time>2026-04-19T08:32:06.027Z</time></trkpt><trkpt lat="43.1677226" lon="11.6893974"><ele>568.6666666666667</ele><time>2026-04-19T08:32:08.026Z</time></trkpt><trkpt lat="43.1677724" lon="11.6893347"><ele>568.3333333333334</ele><time>2026-04-19T08:32:10.027Z</time></trkpt><trkpt lat="43.1678778" lon="11.6892522"><ele>568.0</ele><time>2026-04-19T08:32:12.026Z</time></trkpt><trkpt lat="43.1679526" lon="11.6892198"><ele>568.0</ele><time>2026-04-19T08:32:13.027Z</time></trkpt><trkpt lat="43.1680303" lon="11.6892106"><ele>568.0</ele><time>2026-04-19T08:32:14.027Z</time></trkpt><trkpt lat="43.1681108" lon="11.6891948"><ele>568.0</ele><time>2026-04-19T08:32:15.027Z</time></trkpt><trkpt lat="43.1681875" lon="11.6891798"><ele>568.0</ele><time>2026-04-19T08:32:16.027Z</time></trkpt><trkpt lat="43.1682535" lon="11.6891509"><ele>568.0</ele><time>2026-04-19T08:32:17.026Z</time></trkpt><trkpt lat="43.1683067" lon="11.689063"><ele>568.0</ele><time>2026-04-19T08:32:19.027Z</time></trkpt><trkpt lat="43.1682705" lon="11.6889868"><ele>568.0</ele><time>2026-04-19T08:32:21.026Z</time></trkpt><trkpt lat="43.168172" lon="11.6888891"><ele>568.0</ele><time>2026-04-19T08:32:23.027Z</time></trkpt><trkpt lat="43.1680985" lon="11.6888433"><ele>568.0</ele><time>2026-04-19T08:32:24.026Z</time></trkpt><trkpt lat="43.1680246" lon="11.6888008"><ele>568.0</ele><time>2026-04-19T08:32:25.027Z</time></trkpt><trkpt lat="43.1679509" lon="11.6887547"><ele>568.0</ele><time>2026-04-19T08:32:26.027Z</time></trkpt><trkpt lat="43.167888" lon="11.6887067"><ele>568.0</ele><time>2026-04-19T08:32:27.026Z</time></trkpt><trkpt lat="43.167799" lon="11.6886018"><ele>567.3333333333334</ele><time>2026-04-19T08:32:29.026Z</time></trkpt><trkpt lat="43.1677732" lon="11.6884798"><ele>566.6666666666667</ele><time>2026-04-19T08:32:31.027Z</time></trkpt><trkpt lat="43.1677964" lon="11.6883812"><ele>566.0</ele><time>2026-04-19T08:32:33.027Z</time></trkpt><trkpt lat="43.1678492" lon="11.6882684"><ele>565.3333333333334</ele><time>2026-04-19T08:32:35.027Z</time></trkpt><trkpt lat="43.1678821" lon="11.6881902"><ele>564.6666666666666</ele><time>2026-04-19T08:32:36.026Z</time></trkpt><trkpt lat="43.1679118" lon="11.6881097"><ele>564.0</ele><time>2026-04-19T08:32:37.026Z</time></trkpt><trkpt lat="43.1679313" lon="11.6880069"><ele>564.0</ele><time>2026-04-19T08:32:38.027Z</time></trkpt><trkpt lat="43.1679576" lon="11.6878916"><ele>564.0</ele><time>2026-04-19T08:32:39.026Z</time></trkpt><trkpt lat="43.1679817" lon="11.6877801"><ele>564.0</ele><time>2026-04-19T08:32:40.027Z</time></trkpt><trkpt lat="43.1680055" lon="11.6876799"><ele>564.0</ele><time>2026-04-19T08:32:41.026Z</time></trkpt><trkpt lat="43.1680224" lon="11.6875804"><ele>564.0</ele><time>2026-04-19T08:32:42.026Z</time></trkpt><trkpt lat="43.1680326" lon="11.6874725"><ele>564.0</ele><time>2026-04-19T08:32:43.026Z</time></trkpt><trkpt lat="43.1680445" lon="11.687356"><ele>563.0</ele><time>2026-04-19T08:32:44.026Z</time></trkpt><trkpt lat="43.1680507" lon="11.6872359"><ele>562.0</ele><time>2026-04-19T08:32:45.027Z</time></trkpt><trkpt lat="43.1680523" lon="11.6871349"><ele>561.0</ele><time>2026-04-19T08:32:46.027Z</time></trkpt><trkpt lat="43.1680529" lon="11.6869945"><ele>560.0</ele><time>2026-04-19T08:32:48.026Z</time></trkpt><trkpt lat="43.1680956" lon="11.6869008"><ele>559.0</ele><time>2026-04-19T08:32:50.026Z</time></trkpt><trkpt lat="43.1682224" lon="11.6868411"><ele>554.5</ele><time>2026-04-19T08:32:52.027Z</time></trkpt><trkpt lat="43.1683004" lon="11.6868114"><ele>550.0</ele><time>2026-04-19T08:32:53.027Z</time></trkpt><trkpt lat="43.1683778" lon="11.6867764"><ele>545.5</ele><time>2026-04-19T08:32:54.027Z</time></trkpt><trkpt lat="43.1684445" lon="11.6867453"><ele>541.0</ele><time>2026-04-19T08:32:55.027Z</time></trkpt><trkpt lat="43.1685062" lon="11.6867003"><ele>536.5</ele><time>2026-04-19T08:32:56.026Z</time></trkpt><trkpt lat="43.1686273" lon="11.6866588"><ele>532.0</ele><time>2026-04-19T08:32:58.027Z</time></trkpt><trkpt lat="43.1687049" lon="11.6866508"><ele>532.0</ele><time>2026-04-19T08:32:59.026Z</time></trkpt><trkpt lat="43.1687915" lon="11.6866546"><ele>532.0</ele><time>2026-04-19T08:33:00.026Z</time></trkpt><trkpt lat="43.1688721" lon="11.6866579"><ele>532.0</ele><time>2026-04-19T08:33:01.026Z</time></trkpt><trkpt lat="43.1689524" lon="11.6866575"><ele>532.0</ele><time>2026-04-19T08:33:02.026Z</time></trkpt><trkpt lat="43.1690269" lon="11.6866696"><ele>532.0</ele><time>2026-04-19T08:33:03.026Z</time></trkpt><trkpt lat="43.1690973" lon="11.6866946"><ele>532.0</ele><time>2026-04-19T08:33:04.027Z</time></trkpt><trkpt lat="43.1691603" lon="11.6867133"><ele>530.2</ele><time>2026-04-19T08:33:05.027Z</time></trkpt><trkpt lat="43.1692747" lon="11.6867531"><ele>528.4000000000001</ele><time>2026-04-19T08:33:07.027Z</time></trkpt><trkpt lat="43.1693955" lon="11.6867473"><ele>526.5999999999999</ele><time>2026-04-19T08:33:09.027Z</time></trkpt><trkpt lat="43.1694653" lon="11.6867713"><ele>524.8</ele><time>2026-04-19T08:33:11.027Z</time></trkpt><trkpt lat="43.1694454" lon="11.6868912"><ele>523.0</ele><time>2026-04-19T08:33:13.027Z</time></trkpt><trkpt lat="43.1694294" lon="11.6869748"><ele>523.0</ele><time>2026-04-19T08:33:14.027Z</time></trkpt><trkpt lat="43.1694084" lon="11.687106"><ele>523.0</ele><time>2026-04-19T08:33:16.027Z</time></trkpt><trkpt lat="43.169472" lon="11.6871681"><ele>523.0</ele><time>2026-04-19T08:33:19.027Z</time></trkpt><trkpt lat="43.1695866" lon="11.6871278"><ele>523.0</ele><time>2026-04-19T08:33:21.026Z</time></trkpt><trkpt lat="43.169665" lon="11.6870997"><ele>523.0</ele><time>2026-04-19T08:33:22.027Z</time></trkpt><trkpt lat="43.1697453" lon="11.6870673"><ele>523.0</ele><time>2026-04-19T08:33:23.027Z</time></trkpt><trkpt lat="43.1698181" lon="11.687024"><ele>523.0</ele><time>2026-04-19T08:33:24.027Z</time></trkpt><trkpt lat="43.1698833" lon="11.6869775"><ele>523.0</ele><time>2026-04-19T08:33:25.027Z</time></trkpt><trkpt lat="43.1699479" lon="11.6869318"><ele>523.0</ele><time>2026-04-19T08:33:26.027Z</time></trkpt><trkpt lat="43.1700527" lon="11.6868451"><ele>523.0</ele><time>2026-04-19T08:33:28.027Z</time></trkpt><trkpt lat="43.1701492" lon="11.6867482"><ele>520.3333333333334</ele><time>2026-04-19T08:33:30.026Z</time></trkpt><trkpt lat="43.1702263" lon="11.6866236"><ele>517.6666666666667</ele><time>2026-04-19T08:33:32.026Z</time></trkpt><trkpt lat="43.1702644" lon="11.6865496"><ele>515.0</ele><time>2026-04-19T08:33:33.026Z</time></trkpt><trkpt lat="43.1703101" lon="11.6864652"><ele>512.3333333333334</ele><time>2026-04-19T08:33:34.026Z</time></trkpt><trkpt lat="43.1703422" lon="11.6863747"><ele>509.6666666666667</ele><time>2026-04-19T08:33:35.026Z</time></trkpt><trkpt lat="43.1703796" lon="11.6862847"><ele>507.0</ele><time>2026-04-19T08:33:36.026Z</time></trkpt><trkpt lat="43.1704251" lon="11.6862014"><ele>507.0</ele><time>2026-04-19T08:33:37.027Z</time></trkpt><trkpt lat="43.1704707" lon="11.6861186"><ele>507.0</ele><time>2026-04-19T08:33:38.026Z</time></trkpt><trkpt lat="43.170518" lon="11.6860369"><ele>507.0</ele><time>2026-04-19T08:33:39.027Z</time></trkpt><trkpt lat="43.1705636" lon="11.6859683"><ele>507.0</ele><time>2026-04-19T08:33:40.026Z</time></trkpt><trkpt lat="43.1706375" lon="11.6858524"><ele>507.0</ele><time>2026-04-19T08:33:42.026Z</time></trkpt><trkpt lat="43.1706997" lon="11.6857875"><ele>507.0</ele><time>2026-04-19T08:33:44.026Z</time></trkpt><trkpt lat="43.1707364" lon="11.6857098"><ele>504.2857142857143</ele><time>2026-04-19T08:33:48.027Z</time></trkpt><trkpt lat="43.170728" lon="11.6856174"><ele>501.57142857142856</ele><time>2026-04-19T08:33:54.026Z</time></trkpt><trkpt lat="43.1707472" lon="11.6855221"><ele>498.85714285714283</ele><time>2026-04-19T08:33:58.027Z</time></trkpt><trkpt lat="43.1708089" lon="11.6854601"><ele>496.1428571428571</ele><time>2026-04-19T08:34:01.027Z</time></trkpt><trkpt lat="43.1708481" lon="11.6853685"><ele>493.42857142857144</ele><time>2026-04-19T08:34:04.027Z</time></trkpt><trkpt lat="43.1708822" lon="11.6852903"><ele>490.71428571428567</ele><time>2026-04-19T08:34:07.027Z</time></trkpt><trkpt lat="43.170927" lon="11.6852255"><ele>487.99999999999994</ele><time>2026-04-19T08:34:10.026Z</time></trkpt><trkpt lat="43.1709521" lon="11.6851123"><ele>486.79999999999995</ele><time>2026-04-19T08:34:14.026Z</time></trkpt><trkpt lat="43.1710054" lon="11.6850183"><ele>485.59999999999997</ele><time>2026-04-19T08:34:17.026Z</time></trkpt><trkpt lat="43.1710566" lon="11.6849209"><ele>484.40000000000003</ele><time>2026-04-19T08:34:20.027Z</time></trkpt><trkpt lat="43.1710849" lon="11.6848116"><ele>483.20000000000005</ele><time>2026-04-19T08:34:23.027Z</time></trkpt><trkpt lat="43.1711297" lon="11.6846088"><ele>482.0</ele><time>2026-04-19T08:34:38.027Z</time></trkpt><trkpt lat="43.1713131" lon="11.6843763"><ele>481.49999999999994</ele><time>2026-04-19T08:34:52.026Z</time></trkpt><trkpt lat="43.171408" lon="11.6842532"><ele>481.0</ele><time>2026-04-19T08:34:54.026Z</time></trkpt><trkpt lat="43.1714546" lon="11.6841928"><ele>480.5</ele><time>2026-04-19T08:34:55.026Z</time></trkpt><trkpt lat="43.1715075" lon="11.6841274"><ele>480.0</ele><time>2026-04-19T08:34:56.027Z</time></trkpt><trkpt lat="43.1715667" lon="11.6840614"><ele>479.49999999999994</ele><time>2026-04-19T08:34:57.026Z</time></trkpt><trkpt lat="43.1716297" lon="11.6839852"><ele>479.0</ele><time>2026-04-19T08:34:59.027Z</time></trkpt><trkpt lat="43.1716646" lon="11.6838971"><ele>477.49999999999994</ele><time>2026-04-19T08:35:01.026Z</time></trkpt><trkpt lat="43.1716905" lon="11.6838124"><ele>476.0</ele><time>2026-04-19T08:35:03.026Z</time></trkpt><trkpt lat="43.1716559" lon="11.6837187"><ele>474.5</ele><time>2026-04-19T08:35:05.027Z</time></trkpt><trkpt lat="43.1715481" lon="11.6836088"><ele>473.0</ele><time>2026-04-19T08:35:07.026Z</time></trkpt><trkpt lat="43.1714863" lon="11.6835527"><ele>471.49999999999994</ele><time>2026-04-19T08:35:08.027Z</time></trkpt><trkpt lat="43.1714167" lon="11.6834946"><ele>470.0</ele><time>2026-04-19T08:35:09.027Z</time></trkpt><trkpt lat="43.1713591" lon="11.6834254"><ele>469.99999999999994</ele><time>2026-04-19T08:35:10.026Z</time></trkpt><trkpt lat="43.1713017" lon="11.6833711"><ele>470.0</ele><time>2026-04-19T08:35:11.027Z</time></trkpt><trkpt lat="43.1712301" lon="11.6833007"><ele>470.0</ele><time>2026-04-19T08:35:13.027Z</time></trkpt><trkpt lat="43.1711725" lon="11.6832282"><ele>470.0</ele><time>2026-04-19T08:35:16.026Z</time></trkpt><trkpt lat="43.1710891" lon="11.6831941"><ele>469.99999999999994</ele><time>2026-04-19T08:35:20.026Z</time></trkpt><trkpt lat="43.1710292" lon="11.6831296"><ele>470.0</ele><time>2026-04-19T08:35:22.027Z</time></trkpt><trkpt lat="43.1709878" lon="11.6830473"><ele>470.0</ele><time>2026-04-19T08:35:24.026Z</time></trkpt><trkpt lat="43.170964" lon="11.6829647"><ele>469.99999999999994</ele><time>2026-04-19T08:35:26.027Z</time></trkpt><trkpt lat="43.1708946" lon="11.6829029"><ele>470.0</ele><time>2026-04-19T08:35:29.027Z</time></trkpt><trkpt lat="43.1708453" lon="11.6829574"><ele>470.0</ele><time>2026-04-19T08:35:31.027Z</time></trkpt><trkpt lat="43.1708308" lon="11.6830696"><ele>469.99999999999994</ele><time>2026-04-19T08:35:33.027Z</time></trkpt><trkpt lat="43.1707883" lon="11.6831488"><ele>470.0</ele><time>2026-04-19T08:35:35.027Z</time></trkpt><trkpt lat="43.1707609" lon="11.6832358"><ele>470.0</ele><time>2026-04-19T08:35:37.027Z</time></trkpt><trkpt lat="43.1707348" lon="11.6833361"><ele>471.49999999999994</ele><time>2026-04-19T08:35:40.026Z</time></trkpt><trkpt lat="43.1706878" lon="11.6834278"><ele>473.0</ele><time>2026-04-19T08:35:43.027Z</time></trkpt><trkpt lat="43.170653" lon="11.6835119"><ele>474.5</ele><time>2026-04-19T08:35:45.027Z</time></trkpt><trkpt lat="43.1706084" lon="11.6835783"><ele>476.0</ele><time>2026-04-19T08:35:47.027Z</time></trkpt><trkpt lat="43.170642" lon="11.6836616"><ele>477.49999999999994</ele><time>2026-04-19T08:35:51.026Z</time></trkpt><trkpt lat="43.170734" lon="11.6837262"><ele>479.0</ele><time>2026-04-19T08:35:53.027Z</time></trkpt><trkpt lat="43.1708381" lon="11.6837992"><ele>478.99999999999994</ele><time>2026-04-19T08:35:55.027Z</time></trkpt><trkpt lat="43.1709617" lon="11.6838393"><ele>479.0</ele><time>2026-04-19T08:35:57.026Z</time></trkpt><trkpt lat="43.171037" lon="11.6838535"><ele>479.0</ele><time>2026-04-19T08:35:58.027Z</time></trkpt><trkpt lat="43.1711068" lon="11.6838774"><ele>479.0</ele><time>2026-04-19T08:35:59.027Z</time></trkpt><trkpt lat="43.1711676" lon="11.6839174"><ele>478.99999999999994</ele><time>2026-04-19T08:36:00.026Z</time></trkpt><trkpt lat="43.1712631" lon="11.6839653"><ele>479.0</ele><time>2026-04-19T08:36:02.027Z</time></trkpt><trkpt lat="43.171332" lon="11.6840132"><ele>478.99999999999994</ele><time>2026-04-19T08:36:04.026Z</time></trkpt><trkpt lat="43.1714008" lon="11.6840564"><ele>479.0</ele><time>2026-04-19T08:36:06.026Z</time></trkpt><trkpt lat="43.1714809" lon="11.6840792"><ele>479.0</ele><time>2026-04-19T08:36:08.027Z</time></trkpt><trkpt lat="43.171552" lon="11.684031"><ele>479.0</ele><time>2026-04-19T08:36:10.027Z</time></trkpt><trkpt lat="43.1716248" lon="11.6839576"><ele>478.99999999999994</ele><time>2026-04-19T08:36:12.026Z</time></trkpt><trkpt lat="43.1716684" lon="11.683878"><ele>479.0</ele><time>2026-04-19T08:36:14.026Z</time></trkpt><trkpt lat="43.1716961" lon="11.6837742"><ele>477.2</ele><time>2026-04-19T08:36:17.027Z</time></trkpt><trkpt lat="43.1716305" lon="11.6836818"><ele>475.4</ele><time>2026-04-19T08:36:19.026Z</time></trkpt><trkpt lat="43.171546" lon="11.6836231"><ele>473.6</ele><time>2026-04-19T08:36:20.027Z</time></trkpt><trkpt lat="43.171453" lon="11.683556"><ele>471.8</ele><time>2026-04-19T08:36:21.026Z</time></trkpt><trkpt lat="43.1713724" lon="11.6835048"><ele>470.0</ele><time>2026-04-19T08:36:22.027Z</time></trkpt><trkpt lat="43.1712976" lon="11.6834643"><ele>469.99999999999994</ele><time>2026-04-19T08:36:23.026Z</time></trkpt><trkpt lat="43.1712316" lon="11.6834158"><ele>470.0</ele><time>2026-04-19T08:36:24.027Z</time></trkpt><trkpt lat="43.1711543" lon="11.6833236"><ele>470.0</ele><time>2026-04-19T08:36:26.026Z</time></trkpt><trkpt lat="43.1710904" lon="11.6832563"><ele>470.0</ele><time>2026-04-19T08:36:29.026Z</time></trkpt><trkpt lat="43.1710238" lon="11.6832508"><ele>469.99999999999994</ele><time>2026-04-19T08:36:31.027Z</time></trkpt><trkpt lat="43.1709998" lon="11.6831074"><ele>470.0</ele><time>2026-04-19T08:38:02.027Z</time></trkpt><trkpt lat="43.1709524" lon="11.6830312"><ele>469.99999999999994</ele><time>2026-04-19T08:38:05.027Z</time></trkpt><trkpt lat="43.1709188" lon="11.6829302"><ele>470.0</ele><time>2026-04-19T08:38:08.026Z</time></trkpt><trkpt lat="43.1708485" lon="11.6828561"><ele>470.0</ele><time>2026-04-19T08:38:24.027Z</time></trkpt><trkpt lat="43.1707846" lon="11.6828764"><ele>470.0</ele><time>2026-04-19T08:38:32.027Z</time></trkpt><trkpt lat="43.1708457" lon="11.6829765"><ele>469.99999999999994</ele><time>2026-04-19T08:38:37.026Z</time></trkpt><trkpt lat="43.1708857" lon="11.6830432"><ele>470.0</ele><time>2026-04-19T08:38:38.026Z</time></trkpt><trkpt lat="43.1709374" lon="11.6831219"><ele>469.99999999999994</ele><time>2026-04-19T08:38:41.027Z</time></trkpt><trkpt lat="43.1710153" lon="11.6831041"><ele>470.0</ele><time>2026-04-19T08:50:57.028Z</time></trkpt><trkpt lat="43.1709826" lon="11.6830257"><ele>470.0</ele><time>2026-04-19T08:51:00.027Z</time></trkpt><trkpt lat="43.1709015" lon="11.6829592"><ele>470.0</ele><time>2026-04-19T08:51:02.027Z</time></trkpt><trkpt lat="43.1708195" lon="11.6829013"><ele>469.99999999999994</ele><time>2026-04-19T08:51:03.028Z</time></trkpt><trkpt lat="43.1707205" lon="11.6828523"><ele>470.0</ele><time>2026-04-19T08:51:04.028Z</time></trkpt><trkpt lat="43.1706213" lon="11.6827988"><ele>470.2</ele><time>2026-04-19T08:51:05.027Z</time></trkpt><trkpt lat="43.1705265" lon="11.6827448"><ele>470.4</ele><time>2026-04-19T08:51:06.028Z</time></trkpt><trkpt lat="43.1704373" lon="11.6827117"><ele>470.6</ele><time>2026-04-19T08:51:07.028Z</time></trkpt><trkpt lat="43.1703245" lon="11.6826933"><ele>470.8</ele><time>2026-04-19T08:51:08.027Z</time></trkpt><trkpt lat="43.1702194" lon="11.6826817"><ele>471.0</ele><time>2026-04-19T08:51:09.027Z</time></trkpt><trkpt lat="43.1701217" lon="11.6826663"><ele>471.0</ele><time>2026-04-19T08:51:10.028Z</time></trkpt><trkpt lat="43.1700321" lon="11.6826531"><ele>471.0</ele><time>2026-04-19T08:51:11.028Z</time></trkpt><trkpt lat="43.1699402" lon="11.6826219"><ele>471.0</ele><time>2026-04-19T08:51:12.028Z</time></trkpt><trkpt lat="43.1698382" lon="11.6826052"><ele>471.0</ele><time>2026-04-19T08:51:13.028Z</time></trkpt><trkpt lat="43.1697355" lon="11.6826143"><ele>471.0</ele><time>2026-04-19T08:51:14.028Z</time></trkpt><trkpt lat="43.1696536" lon="11.6826365"><ele>472.0</ele><time>2026-04-19T08:51:15.028Z</time></trkpt><trkpt lat="43.169584" lon="11.6826489"><ele>473.0</ele><time>2026-04-19T08:51:16.028Z</time></trkpt><trkpt lat="43.169483" lon="11.6825894"><ele>474.0</ele><time>2026-04-19T08:51:18.027Z</time></trkpt><trkpt lat="43.1693941" lon="11.6825973"><ele>475.0</ele><time>2026-04-19T08:51:20.027Z</time></trkpt><trkpt lat="43.1692947" lon="11.6826241"><ele>476.0</ele><time>2026-04-19T08:51:22.027Z</time></trkpt><trkpt lat="43.16923" lon="11.6826181"><ele>477.0</ele><time>2026-04-19T08:51:23.027Z</time></trkpt><trkpt lat="43.1691269" lon="11.6826311"><ele>477.0</ele><time>2026-04-19T08:51:25.027Z</time></trkpt><trkpt lat="43.1690489" lon="11.6826243"><ele>477.0</ele><time>2026-04-19T08:51:27.027Z</time></trkpt><trkpt lat="43.1689668" lon="11.6826942"><ele>477.0</ele><time>2026-04-19T08:51:30.027Z</time></trkpt><trkpt lat="43.1689037" lon="11.6827179"><ele>477.0</ele><time>2026-04-19T08:51:32.028Z</time></trkpt><trkpt lat="43.1688179" lon="11.6827327"><ele>477.0</ele><time>2026-04-19T08:51:34.027Z</time></trkpt><trkpt lat="43.1687178" lon="11.682751"><ele>477.0</ele><time>2026-04-19T08:51:36.028Z</time></trkpt><trkpt lat="43.1686202" lon="11.6827839"><ele>478.6</ele><time>2026-04-19T08:51:38.027Z</time></trkpt><trkpt lat="43.1685322" lon="11.6828126"><ele>480.20000000000005</ele><time>2026-04-19T08:51:40.027Z</time></trkpt><trkpt lat="43.1684091" lon="11.6828471"><ele>481.8</ele><time>2026-04-19T08:51:42.027Z</time></trkpt><trkpt lat="43.1683208" lon="11.682817"><ele>483.4</ele><time>2026-04-19T08:51:44.028Z</time></trkpt><trkpt lat="43.1682573" lon="11.6827775"><ele>485.0</ele><time>2026-04-19T08:51:47.027Z</time></trkpt><trkpt lat="43.1681676" lon="11.6828197"><ele>484.99999999999994</ele><time>2026-04-19T08:51:50.028Z</time></trkpt><trkpt lat="43.1680907" lon="11.68282"><ele>485.0</ele><time>2026-04-19T08:51:52.027Z</time></trkpt><trkpt lat="43.168028" lon="11.6828333"><ele>485.0</ele><time>2026-04-19T08:51:56.028Z</time></trkpt><trkpt lat="43.1679634" lon="11.6828786"><ele>485.0</ele><time>2026-04-19T08:52:00.027Z</time></trkpt><trkpt lat="43.1678768" lon="11.6829535"><ele>484.99999999999994</ele><time>2026-04-19T08:52:03.028Z</time></trkpt><trkpt lat="43.1677963" lon="11.6829885"><ele>485.0</ele><time>2026-04-19T08:52:05.028Z</time></trkpt><trkpt lat="43.1677217" lon="11.6830208"><ele>485.0</ele><time>2026-04-19T08:52:07.028Z</time></trkpt><trkpt lat="43.1676192" lon="11.6830545"><ele>485.0</ele><time>2026-04-19T08:52:09.027Z</time></trkpt><trkpt lat="43.1675289" lon="11.6831007"><ele>485.0</ele><time>2026-04-19T08:52:11.028Z</time></trkpt><trkpt lat="43.167446" lon="11.6831555"><ele>485.0</ele><time>2026-04-19T08:52:13.028Z</time></trkpt><trkpt lat="43.167383" lon="11.6831902"><ele>485.0</ele><time>2026-04-19T08:52:15.028Z</time></trkpt><trkpt lat="43.1672981" lon="11.6832359"><ele>486.16666666666663</ele><time>2026-04-19T08:52:18.027Z</time></trkpt><trkpt lat="43.1672144" lon="11.6832845"><ele>487.3333333333333</ele><time>2026-04-19T08:52:21.028Z</time></trkpt><trkpt lat="43.1671399" lon="11.6833393"><ele>488.5</ele><time>2026-04-19T08:52:23.027Z</time></trkpt><trkpt lat="43.1670684" lon="11.6834011"><ele>489.66666666666663</ele><time>2026-04-19T08:52:25.027Z</time></trkpt><trkpt lat="43.1670012" lon="11.6834645"><ele>490.8333333333333</ele><time>2026-04-19T08:52:27.028Z</time></trkpt><trkpt lat="43.1669247" lon="11.6835332"><ele>492.0</ele><time>2026-04-19T08:52:29.028Z</time></trkpt><trkpt lat="43.1668445" lon="11.6835934"><ele>492.5</ele><time>2026-04-19T08:52:31.027Z</time></trkpt><trkpt lat="43.1667733" lon="11.6836494"><ele>493.0</ele><time>2026-04-19T08:52:33.027Z</time></trkpt><trkpt lat="43.1666863" lon="11.683675"><ele>493.5</ele><time>2026-04-19T08:52:35.027Z</time></trkpt><trkpt lat="43.1665938" lon="11.6837077"><ele>494.0</ele><time>2026-04-19T08:52:37.028Z</time></trkpt><trkpt lat="43.1665349" lon="11.6837583"><ele>494.5</ele><time>2026-04-19T08:52:39.027Z</time></trkpt><trkpt lat="43.1664749" lon="11.6838253"><ele>495.0</ele><time>2026-04-19T08:52:41.028Z</time></trkpt><trkpt lat="43.1663962" lon="11.6838705"><ele>495.6</ele><time>2026-04-19T08:52:43.027Z</time></trkpt><trkpt lat="43.1663041" lon="11.6839253"><ele>496.2</ele><time>2026-04-19T08:52:45.028Z</time></trkpt><trkpt lat="43.1662142" lon="11.6840199"><ele>496.79999999999995</ele><time>2026-04-19T08:52:47.028Z</time></trkpt><trkpt lat="43.1661267" lon="11.6840753"><ele>497.4</ele><time>2026-04-19T08:52:49.028Z</time></trkpt><trkpt lat="43.1660336" lon="11.6841069"><ele>498.0</ele><time>2026-04-19T08:52:51.028Z</time></trkpt><trkpt lat="43.1659467" lon="11.6841783"><ele>498.0</ele><time>2026-04-19T08:52:53.028Z</time></trkpt><trkpt lat="43.1659003" lon="11.6842396"><ele>498.0</ele><time>2026-04-19T08:52:54.027Z</time></trkpt><trkpt lat="43.16585" lon="11.6843015"><ele>498.0</ele><time>2026-04-19T08:52:55.027Z</time></trkpt><trkpt lat="43.1657548" lon="11.6843979"><ele>498.0</ele><time>2026-04-19T08:52:57.028Z</time></trkpt><trkpt lat="43.1656831" lon="11.684464"><ele>498.0</ele><time>2026-04-19T08:52:59.027Z</time></trkpt><trkpt lat="43.1656358" lon="11.6845491"><ele>498.0</ele><time>2026-04-19T08:53:01.028Z</time></trkpt><trkpt lat="43.1655452" lon="11.6846933"><ele>500.1666666666667</ele><time>2026-04-19T08:53:03.027Z</time></trkpt><trkpt lat="43.1654876" lon="11.6847618"><ele>502.33333333333337</ele><time>2026-04-19T08:53:04.027Z</time></trkpt><trkpt lat="43.1654325" lon="11.6848191"><ele>504.5</ele><time>2026-04-19T08:53:05.028Z</time></trkpt><trkpt lat="43.1653117" lon="11.6848808"><ele>506.6666666666667</ele><time>2026-04-19T08:53:07.027Z</time></trkpt><trkpt lat="43.165243" lon="11.684908"><ele>508.83333333333337</ele><time>2026-04-19T08:53:08.027Z</time></trkpt><trkpt lat="43.1651796" lon="11.6849371"><ele>511.0</ele><time>2026-04-19T08:53:09.028Z</time></trkpt><trkpt lat="43.1650739" lon="11.6849903"><ele>511.0</ele><time>2026-04-19T08:53:11.028Z</time></trkpt><trkpt lat="43.1649721" lon="11.6850273"><ele>511.0</ele><time>2026-04-19T08:53:13.028Z</time></trkpt><trkpt lat="43.164872" lon="11.6850659"><ele>511.0</ele><time>2026-04-19T08:53:15.028Z</time></trkpt><trkpt lat="43.1647743" lon="11.6851354"><ele>511.0</ele><time>2026-04-19T08:53:17.028Z</time></trkpt><trkpt lat="43.1647199" lon="11.6851889"><ele>511.0</ele><time>2026-04-19T08:53:19.027Z</time></trkpt><trkpt lat="43.1646642" lon="11.6852429"><ele>515.0</ele><time>2026-04-19T08:53:21.028Z</time></trkpt><trkpt lat="43.1646738" lon="11.6853428"><ele>519.0</ele><time>2026-04-19T08:53:24.028Z</time></trkpt><trkpt lat="43.1646953" lon="11.6854486"><ele>523.0</ele><time>2026-04-19T08:54:27.028Z</time></trkpt><trkpt lat="43.1646657" lon="11.6855322"><ele>527.0</ele><time>2026-04-19T08:54:29.027Z</time></trkpt><trkpt lat="43.1646561" lon="11.6856221"><ele>531.0</ele><time>2026-04-19T08:54:32.027Z</time></trkpt><trkpt lat="43.1646534" lon="11.6857253"><ele>535.0</ele><time>2026-04-19T08:54:35.027Z</time></trkpt><trkpt lat="43.1646535" lon="11.6858228"><ele>539.0</ele><time>2026-04-19T08:54:39.027Z</time></trkpt><trkpt lat="43.1646531" lon="11.685914"><ele>539.0</ele><time>2026-04-19T08:54:42.028Z</time></trkpt><trkpt lat="43.1646311" lon="11.6860135"><ele>539.0</ele><time>2026-04-19T08:54:46.027Z</time></trkpt><trkpt lat="43.1646349" lon="11.686115"><ele>539.0</ele><time>2026-04-19T08:55:04.028Z</time></trkpt><trkpt lat="43.1645657" lon="11.6861501"><ele>539.0</ele><time>2026-04-19T08:55:11.028Z</time></trkpt><trkpt lat="43.1644902" lon="11.6861524"><ele>539.0</ele><time>2026-04-19T08:55:15.028Z</time></trkpt><trkpt lat="43.1645529" lon="11.6861125"><ele>539.0</ele><time>2026-04-19T08:56:33.027Z</time></trkpt><trkpt lat="43.1646116" lon="11.6861733"><ele>539.0</ele><time>2026-04-19T08:56:47.027Z</time></trkpt><trkpt lat="43.1645426" lon="11.68616"><ele>539.0</ele><time>2026-04-19T09:11:40.029Z</time></trkpt><trkpt lat="43.1644783" lon="11.6861402"><ele>539.0</ele><time>2026-04-19T09:11:57.029Z</time></trkpt><trkpt lat="43.1644248" lon="11.6860885"><ele>539.0</ele><time>2026-04-19T09:12:10.029Z</time></trkpt><trkpt lat="43.164343" lon="11.6860337"><ele>539.0</ele><time>2026-04-19T09:12:13.028Z</time></trkpt><trkpt lat="43.1642777" lon="11.6860025"><ele>539.0</ele><time>2026-04-19T09:12:15.029Z</time></trkpt><trkpt lat="43.164178" lon="11.685912"><ele>539.0</ele><time>2026-04-19T09:12:17.029Z</time></trkpt><trkpt lat="43.1641107" lon="11.6858221"><ele>539.0</ele><time>2026-04-19T09:12:19.029Z</time></trkpt><trkpt lat="43.1640385" lon="11.685721"><ele>539.0</ele><time>2026-04-19T09:12:21.029Z</time></trkpt><trkpt lat="43.163983" lon="11.6856415"><ele>539.0</ele><time>2026-04-19T09:12:23.028Z</time></trkpt><trkpt lat="43.1639737" lon="11.6855404"><ele>539.0</ele><time>2026-04-19T09:12:27.029Z</time></trkpt><trkpt lat="43.1640273" lon="11.6854187"><ele>539.0</ele><time>2026-04-19T09:12:30.028Z</time></trkpt><trkpt lat="43.1640618" lon="11.6853161"><ele>539.0</ele><time>2026-04-19T09:12:32.028Z</time></trkpt><trkpt lat="43.164087" lon="11.6852138"><ele>538.4</ele><time>2026-04-19T09:12:34.028Z</time></trkpt><trkpt lat="43.1640809" lon="11.6850664"><ele>537.8</ele><time>2026-04-19T09:12:36.029Z</time></trkpt><trkpt lat="43.1640618" lon="11.6849709"><ele>537.2</ele><time>2026-04-19T09:12:37.028Z</time></trkpt><trkpt lat="43.1640473" lon="11.6848268"><ele>536.6</ele><time>2026-04-19T09:12:39.029Z</time></trkpt><trkpt lat="43.1640407" lon="11.6846567"><ele>536.0</ele><time>2026-04-19T09:12:41.028Z</time></trkpt><trkpt lat="43.1640496" lon="11.6845648"><ele>536.0</ele><time>2026-04-19T09:12:42.029Z</time></trkpt><trkpt lat="43.1640701" lon="11.6844803"><ele>536.0</ele><time>2026-04-19T09:12:43.029Z</time></trkpt><trkpt lat="43.1641043" lon="11.6843884"><ele>536.0</ele><time>2026-04-19T09:12:44.028Z</time></trkpt><trkpt lat="43.1641523" lon="11.6842981"><ele>536.0</ele><time>2026-04-19T09:12:45.028Z</time></trkpt><trkpt lat="43.1642016" lon="11.6842113"><ele>536.0</ele><time>2026-04-19T09:12:46.028Z</time></trkpt><trkpt lat="43.1642452" lon="11.6841071"><ele>536.0</ele><time>2026-04-19T09:12:47.028Z</time></trkpt><trkpt lat="43.1642913" lon="11.6839891"><ele>536.1666666666666</ele><time>2026-04-19T09:12:48.029Z</time></trkpt><trkpt lat="43.164343" lon="11.6838828"><ele>536.3333333333333</ele><time>2026-04-19T09:12:49.028Z</time></trkpt><trkpt lat="43.1644023" lon="11.6837911"><ele>536.5</ele><time>2026-04-19T09:12:50.029Z</time></trkpt><trkpt lat="43.1644649" lon="11.6837109"><ele>536.6666666666666</ele><time>2026-04-19T09:12:51.028Z</time></trkpt><trkpt lat="43.1645315" lon="11.6836532"><ele>536.8333333333334</ele><time>2026-04-19T09:12:52.028Z</time></trkpt><trkpt lat="43.164594" lon="11.6836029"><ele>537.0</ele><time>2026-04-19T09:12:53.029Z</time></trkpt><trkpt lat="43.1646551" lon="11.6835479"><ele>536.1666666666666</ele><time>2026-04-19T09:12:54.028Z</time></trkpt><trkpt lat="43.1647187" lon="11.6834785"><ele>535.3333333333334</ele><time>2026-04-19T09:12:55.028Z</time></trkpt><trkpt lat="43.1647815" lon="11.6834075"><ele>534.5</ele><time>2026-04-19T09:12:56.029Z</time></trkpt><trkpt lat="43.1648468" lon="11.6833412"><ele>533.6666666666667</ele><time>2026-04-19T09:12:57.029Z</time></trkpt><trkpt lat="43.1649253" lon="11.6832667"><ele>532.8333333333334</ele><time>2026-04-19T09:12:58.029Z</time></trkpt><trkpt lat="43.16501" lon="11.6831931"><ele>532.0</ele><time>2026-04-19T09:12:59.028Z</time></trkpt><trkpt lat="43.1650976" lon="11.6831159"><ele>532.0</ele><time>2026-04-19T09:13:00.029Z</time></trkpt><trkpt lat="43.1651711" lon="11.6830529"><ele>532.0</ele><time>2026-04-19T09:13:01.029Z</time></trkpt><trkpt lat="43.1652454" lon="11.6830068"><ele>532.0</ele><time>2026-04-19T09:13:02.028Z</time></trkpt><trkpt lat="43.1653199" lon="11.6829561"><ele>532.0</ele><time>2026-04-19T09:13:03.029Z</time></trkpt><trkpt lat="43.165387" lon="11.6829075"><ele>532.0</ele><time>2026-04-19T09:13:04.028Z</time></trkpt><trkpt lat="43.1654518" lon="11.6828441"><ele>532.0</ele><time>2026-04-19T09:13:05.028Z</time></trkpt><trkpt lat="43.1655057" lon="11.6827898"><ele>532.1428571428571</ele><time>2026-04-19T09:13:06.029Z</time></trkpt><trkpt lat="43.1655572" lon="11.6827391"><ele>532.2857142857142</ele><time>2026-04-19T09:13:07.029Z</time></trkpt><trkpt lat="43.1656119" lon="11.6826948"><ele>532.4285714285714</ele><time>2026-04-19T09:13:08.028Z</time></trkpt><trkpt lat="43.1656777" lon="11.6826518"><ele>532.5714285714286</ele><time>2026-04-19T09:13:09.028Z</time></trkpt><trkpt lat="43.1657382" lon="11.6826036"><ele>532.7142857142857</ele><time>2026-04-19T09:13:10.029Z</time></trkpt><trkpt lat="43.1658094" lon="11.6825536"><ele>532.8571428571429</ele><time>2026-04-19T09:13:11.028Z</time></trkpt><trkpt lat="43.1658827" lon="11.6824973"><ele>533.0</ele><time>2026-04-19T09:13:12.028Z</time></trkpt><trkpt lat="43.1659486" lon="11.6824457"><ele>531.5</ele><time>2026-04-19T09:13:13.029Z</time></trkpt><trkpt lat="43.1660399" lon="11.6823595"><ele>530.0</ele><time>2026-04-19T09:13:15.029Z</time></trkpt><trkpt lat="43.1660825" lon="11.6824418"><ele>528.5</ele><time>2026-04-19T09:13:20.028Z</time></trkpt><trkpt lat="43.1660592" lon="11.6825244"><ele>527.0</ele><time>2026-04-19T09:13:22.028Z</time></trkpt><trkpt lat="43.1660381" lon="11.6826091"><ele>525.5</ele><time>2026-04-19T09:13:25.028Z</time></trkpt><trkpt lat="43.1660131" lon="11.6827348"><ele>524.0</ele><time>2026-04-19T09:13:28.028Z</time></trkpt><trkpt lat="43.1659962" lon="11.6828471"><ele>522.1666666666666</ele><time>2026-04-19T09:13:30.029Z</time></trkpt><trkpt lat="43.1659683" lon="11.6829642"><ele>520.3333333333333</ele><time>2026-04-19T09:13:32.028Z</time></trkpt><trkpt lat="43.1659263" lon="11.6830623"><ele>518.5</ele><time>2026-04-19T09:13:34.028Z</time></trkpt><trkpt lat="43.1658807" lon="11.6831491"><ele>516.6666666666666</ele><time>2026-04-19T09:13:36.029Z</time></trkpt><trkpt lat="43.1658457" lon="11.6832418"><ele>514.8333333333334</ele><time>2026-04-19T09:13:38.029Z</time></trkpt><trkpt lat="43.1658025" lon="11.6833567"><ele>513.0</ele><time>2026-04-19T09:13:40.028Z</time></trkpt><trkpt lat="43.1657487" lon="11.6835017"><ele>514.4</ele><time>2026-04-19T09:13:42.029Z</time></trkpt><trkpt lat="43.1656798" lon="11.683626"><ele>515.8</ele><time>2026-04-19T09:13:44.029Z</time></trkpt><trkpt lat="43.1656235" lon="11.6837708"><ele>517.2</ele><time>2026-04-19T09:13:46.028Z</time></trkpt><trkpt lat="43.1656012" lon="11.6838525"><ele>518.6</ele><time>2026-04-19T09:13:47.028Z</time></trkpt><trkpt lat="43.165565" lon="11.6839997"><ele>520.0</ele><time>2026-04-19T09:13:49.029Z</time></trkpt><trkpt lat="43.1655099" lon="11.6841496"><ele>520.0</ele><time>2026-04-19T09:13:51.028Z</time></trkpt><trkpt lat="43.1654435" lon="11.6843017"><ele>520.0</ele><time>2026-04-19T09:13:53.028Z</time></trkpt><trkpt lat="43.1654047" lon="11.6843777"><ele>520.0</ele><time>2026-04-19T09:13:54.029Z</time></trkpt><trkpt lat="43.1653708" lon="11.6844556"><ele>520.0</ele><time>2026-04-19T09:13:55.028Z</time></trkpt><trkpt lat="43.165329" lon="11.6845332"><ele>520.0</ele><time>2026-04-19T09:13:56.029Z</time></trkpt><trkpt lat="43.1652697" lon="11.6846544"><ele>520.0</ele><time>2026-04-19T09:13:58.029Z</time></trkpt><trkpt lat="43.1652042" lon="11.6847556"><ele>518.2</ele><time>2026-04-19T09:14:00.029Z</time></trkpt><trkpt lat="43.1651431" lon="11.6848351"><ele>516.4</ele><time>2026-04-19T09:14:02.028Z</time></trkpt><trkpt lat="43.1650819" lon="11.6848931"><ele>514.6</ele><time>2026-04-19T09:14:05.028Z</time></trkpt><trkpt lat="43.1650092" lon="11.684979"><ele>512.8</ele><time>2026-04-19T09:14:08.029Z</time></trkpt><trkpt lat="43.1649461" lon="11.6850447"><ele>511.0</ele><time>2026-04-19T09:14:10.029Z</time></trkpt><trkpt lat="43.1648443" lon="11.6851263"><ele>511.0</ele><time>2026-04-19T09:14:12.029Z</time></trkpt><trkpt lat="43.1647921" lon="11.6852051"><ele>511.0</ele><time>2026-04-19T09:14:14.028Z</time></trkpt><trkpt lat="43.1647373" lon="11.6852595"><ele>511.0</ele><time>2026-04-19T09:14:16.029Z</time></trkpt><trkpt lat="43.1646765" lon="11.6852897"><ele>511.0</ele><time>2026-04-19T09:14:21.029Z</time></trkpt><trkpt lat="43.1647266" lon="11.6852216"><ele>511.0</ele><time>2026-04-19T09:19:50.03Z</time></trkpt><trkpt lat="43.1647904" lon="11.6851543"><ele>511.0</ele><time>2026-04-19T09:19:52.03Z</time></trkpt><trkpt lat="43.1648456" lon="11.6850927"><ele>511.0</ele><time>2026-04-19T09:19:54.029Z</time></trkpt><trkpt lat="43.1649203" lon="11.6850369"><ele>511.0</ele><time>2026-04-19T09:19:56.029Z</time></trkpt><trkpt lat="43.1649791" lon="11.684994"><ele>511.0</ele><time>2026-04-19T09:19:59.03Z</time></trkpt><trkpt lat="43.165045" lon="11.6849492"><ele>511.0</ele><time>2026-04-19T09:20:03.03Z</time></trkpt><trkpt lat="43.1651017" lon="11.6849003"><ele>511.0</ele><time>2026-04-19T09:20:05.03Z</time></trkpt><trkpt lat="43.1651545" lon="11.6848444"><ele>511.0</ele><time>2026-04-19T09:20:06.03Z</time></trkpt><trkpt lat="43.165194" lon="11.6847595"><ele>511.0</ele><time>2026-04-19T09:20:07.029Z</time></trkpt><trkpt lat="43.165229" lon="11.6846631"><ele>511.0</ele><time>2026-04-19T09:20:08.03Z</time></trkpt><trkpt lat="43.1652738" lon="11.6845746"><ele>511.00000000000006</ele><time>2026-04-19T09:20:09.029Z</time></trkpt><trkpt lat="43.1653129" lon="11.6844777"><ele>511.0</ele><time>2026-04-19T09:20:10.029Z</time></trkpt><trkpt lat="43.1653536" lon="11.6843694"><ele>511.0</ele><time>2026-04-19T09:20:11.029Z</time></trkpt><trkpt lat="43.1653951" lon="11.6842718"><ele>511.0</ele><time>2026-04-19T09:20:12.03Z</time></trkpt><trkpt lat="43.1654243" lon="11.6841851"><ele>511.00000000000006</ele><time>2026-04-19T09:20:13.029Z</time></trkpt><trkpt lat="43.1654606" lon="11.6840849"><ele>511.0</ele><time>2026-04-19T09:20:14.03Z</time></trkpt><trkpt lat="43.1654765" lon="11.6839938"><ele>512.8</ele><time>2026-04-19T09:20:15.03Z</time></trkpt><trkpt lat="43.1654881" lon="11.6839055"><ele>514.6</ele><time>2026-04-19T09:20:16.03Z</time></trkpt><trkpt lat="43.1655173" lon="11.6837401"><ele>516.4</ele><time>2026-04-19T09:20:18.029Z</time></trkpt><trkpt lat="43.1655855" lon="11.6836078"><ele>518.2</ele><time>2026-04-19T09:20:20.029Z</time></trkpt><trkpt lat="43.1656285" lon="11.6835229"><ele>520.0</ele><time>2026-04-19T09:20:21.029Z</time></trkpt><trkpt lat="43.1656641" lon="11.6834271"><ele>519.0000000000001</ele><time>2026-04-19T09:20:22.03Z</time></trkpt><trkpt lat="43.1656976" lon="11.683346"><ele>518.0</ele><time>2026-04-19T09:20:23.03Z</time></trkpt><trkpt lat="43.1657333" lon="11.6832728"><ele>517.0</ele><time>2026-04-19T09:20:24.029Z</time></trkpt><trkpt lat="43.1657639" lon="11.6831948"><ele>516.0</ele><time>2026-04-19T09:20:25.03Z</time></trkpt><trkpt lat="43.1658042" lon="11.6831168"><ele>515.0</ele><time>2026-04-19T09:20:26.03Z</time></trkpt><trkpt lat="43.1658476" lon="11.6830494"><ele>514.0000000000001</ele><time>2026-04-19T09:20:27.03Z</time></trkpt><trkpt lat="43.1659163" lon="11.6829237"><ele>513.0</ele><time>2026-04-19T09:20:29.029Z</time></trkpt><trkpt lat="43.1659424" lon="11.6828388"><ele>515.1999999999999</ele><time>2026-04-19T09:20:30.03Z</time></trkpt><trkpt lat="43.1659603" lon="11.6827477"><ele>517.4</ele><time>2026-04-19T09:20:31.029Z</time></trkpt><trkpt lat="43.1659911" lon="11.682663"><ele>519.5999999999999</ele><time>2026-04-19T09:20:33.03Z</time></trkpt><trkpt lat="43.1660524" lon="11.6825298"><ele>521.8</ele><time>2026-04-19T09:20:40.03Z</time></trkpt><trkpt lat="43.1661728" lon="11.682356"><ele>524.0</ele><time>2026-04-19T09:22:23.03Z</time></trkpt><trkpt lat="43.1662788" lon="11.6823358"><ele>524.0</ele><time>2026-04-19T09:22:24.03Z</time></trkpt><trkpt lat="43.1663673" lon="11.6822985"><ele>524.0</ele><time>2026-04-19T09:22:25.03Z</time></trkpt><trkpt lat="43.1664612" lon="11.6822534"><ele>524.0</ele><time>2026-04-19T09:22:26.029Z</time></trkpt><trkpt lat="43.1665444" lon="11.6822015"><ele>524.0</ele><time>2026-04-19T09:22:27.03Z</time></trkpt><trkpt lat="43.1666006" lon="11.6821418"><ele>524.0</ele><time>2026-04-19T09:22:28.03Z</time></trkpt><trkpt lat="43.1666838" lon="11.6820444"><ele>521.6</ele><time>2026-04-19T09:22:30.029Z</time></trkpt><trkpt lat="43.1667836" lon="11.682002"><ele>519.2</ele><time>2026-04-19T09:22:32.029Z</time></trkpt><trkpt lat="43.1668937" lon="11.6819532"><ele>516.8000000000001</ele><time>2026-04-19T09:22:34.029Z</time></trkpt><trkpt lat="43.1670058" lon="11.6819672"><ele>514.4</ele><time>2026-04-19T09:22:36.03Z</time></trkpt><trkpt lat="43.16711" lon="11.6819271"><ele>512.0</ele><time>2026-04-19T09:22:38.03Z</time></trkpt><trkpt lat="43.1671777" lon="11.6818207"><ele>512.0</ele><time>2026-04-19T09:22:40.029Z</time></trkpt><trkpt lat="43.1672637" lon="11.6816712"><ele>512.0</ele><time>2026-04-19T09:22:53.029Z</time></trkpt><trkpt lat="43.167358" lon="11.681631"><ele>512.0</ele><time>2026-04-19T09:22:54.03Z</time></trkpt><trkpt lat="43.167457" lon="11.6815915"><ele>512.0</ele><time>2026-04-19T09:22:55.029Z</time></trkpt><trkpt lat="43.1675542" lon="11.6815609"><ele>512.0</ele><time>2026-04-19T09:22:56.03Z</time></trkpt><trkpt lat="43.1676527" lon="11.6815293"><ele>510.25</ele><time>2026-04-19T09:22:57.03Z</time></trkpt><trkpt lat="43.1677629" lon="11.6814815"><ele>508.5</ele><time>2026-04-19T09:22:58.03Z</time></trkpt><trkpt lat="43.1678878" lon="11.6814311"><ele>506.75</ele><time>2026-04-19T09:22:59.029Z</time></trkpt><trkpt lat="43.1680144" lon="11.6813875"><ele>505.0</ele><time>2026-04-19T09:23:00.029Z</time></trkpt><trkpt lat="43.1681416" lon="11.6813483"><ele>504.25</ele><time>2026-04-19T09:23:01.029Z</time></trkpt><trkpt lat="43.1682576" lon="11.6813167"><ele>503.5</ele><time>2026-04-19T09:23:02.029Z</time></trkpt><trkpt lat="43.168363" lon="11.6813068"><ele>502.75</ele><time>2026-04-19T09:23:03.03Z</time></trkpt><trkpt lat="43.1684723" lon="11.6813329"><ele>502.0</ele><time>2026-04-19T09:23:04.029Z</time></trkpt><trkpt lat="43.1685899" lon="11.6813632"><ele>502.0</ele><time>2026-04-19T09:23:05.03Z</time></trkpt><trkpt lat="43.1686988" lon="11.6813886"><ele>502.00000000000006</ele><time>2026-04-19T09:23:06.03Z</time></trkpt><trkpt lat="43.1688027" lon="11.6814131"><ele>502.00000000000006</ele><time>2026-04-19T09:23:07.03Z</time></trkpt><trkpt lat="43.1688862" lon="11.6814168"><ele>502.0</ele><time>2026-04-19T09:23:08.029Z</time></trkpt><trkpt lat="43.1689752" lon="11.6813296"><ele>502.0</ele><time>2026-04-19T09:23:10.03Z</time></trkpt><trkpt lat="43.1689891" lon="11.6812451"><ele>502.0</ele><time>2026-04-19T09:23:11.03Z</time></trkpt><trkpt lat="43.1690014" lon="11.6811479"><ele>502.00000000000006</ele><time>2026-04-19T09:23:12.03Z</time></trkpt><trkpt lat="43.1690506" lon="11.6810384"><ele>502.00000000000006</ele><time>2026-04-19T09:23:13.03Z</time></trkpt><trkpt lat="43.1691272" lon="11.6809591"><ele>502.0</ele><time>2026-04-19T09:23:14.03Z</time></trkpt><trkpt lat="43.1692182" lon="11.6808896"><ele>502.0</ele><time>2026-04-19T09:23:15.03Z</time></trkpt><trkpt lat="43.169326" lon="11.680838"><ele>500.25</ele><time>2026-04-19T09:23:16.029Z</time></trkpt><trkpt lat="43.1694475" lon="11.6808069"><ele>498.5</ele><time>2026-04-19T09:23:17.029Z</time></trkpt><trkpt lat="43.1695783" lon="11.6808181"><ele>496.75</ele><time>2026-04-19T09:23:18.03Z</time></trkpt><trkpt lat="43.1696984" lon="11.6808464"><ele>495.0</ele><time>2026-04-19T09:23:19.03Z</time></trkpt><trkpt lat="43.1698299" lon="11.6808645"><ele>494.5</ele><time>2026-04-19T09:23:20.029Z</time></trkpt><trkpt lat="43.1699731" lon="11.6808952"><ele>494.0</ele><time>2026-04-19T09:23:21.029Z</time></trkpt><trkpt lat="43.1701128" lon="11.6809235"><ele>493.5</ele><time>2026-04-19T09:23:22.03Z</time></trkpt><trkpt lat="43.1702412" lon="11.6809566"><ele>493.0</ele><time>2026-04-19T09:23:23.03Z</time></trkpt><trkpt lat="43.1703773" lon="11.6809986"><ele>493.0</ele><time>2026-04-19T09:23:24.029Z</time></trkpt><trkpt lat="43.170511" lon="11.6810387"><ele>493.0</ele><time>2026-04-19T09:23:25.03Z</time></trkpt><trkpt lat="43.1706493" lon="11.6810825"><ele>493.0</ele><time>2026-04-19T09:23:26.03Z</time></trkpt><trkpt lat="43.1707847" lon="11.6811442"><ele>493.0</ele><time>2026-04-19T09:23:27.03Z</time></trkpt><trkpt lat="43.1709108" lon="11.6811953"><ele>492.2</ele><time>2026-04-19T09:23:28.029Z</time></trkpt><trkpt lat="43.1710175" lon="11.681245"><ele>491.4</ele><time>2026-04-19T09:23:29.029Z</time></trkpt><trkpt lat="43.1711098" lon="11.6812975"><ele>490.59999999999997</ele><time>2026-04-19T09:23:30.03Z</time></trkpt><trkpt lat="43.1711934" lon="11.681359"><ele>489.79999999999995</ele><time>2026-04-19T09:23:31.029Z</time></trkpt><trkpt lat="43.1712879" lon="11.6814355"><ele>489.0</ele><time>2026-04-19T09:23:32.029Z</time></trkpt><trkpt lat="43.1713844" lon="11.6815253"><ele>489.0</ele><time>2026-04-19T09:23:33.029Z</time></trkpt><trkpt lat="43.1714807" lon="11.681613"><ele>489.0</ele><time>2026-04-19T09:23:34.03Z</time></trkpt><trkpt lat="43.1715782" lon="11.6817138"><ele>489.0</ele><time>2026-04-19T09:23:35.03Z</time></trkpt><trkpt lat="43.1716767" lon="11.6818026"><ele>489.0</ele><time>2026-04-19T09:23:36.029Z</time></trkpt><trkpt lat="43.1717846" lon="11.6818724"><ele>488.79999999999995</ele><time>2026-04-19T09:23:37.03Z</time></trkpt><trkpt lat="43.1718642" lon="11.6819047"><ele>488.59999999999997</ele><time>2026-04-19T09:23:38.029Z</time></trkpt><trkpt lat="43.1719709" lon="11.681875"><ele>488.4</ele><time>2026-04-19T09:23:40.029Z</time></trkpt><trkpt lat="43.172044" lon="11.6818367"><ele>488.2</ele><time>2026-04-19T09:23:41.03Z</time></trkpt><trkpt lat="43.1721469" lon="11.6817826"><ele>488.0</ele><time>2026-04-19T09:23:42.03Z</time></trkpt><trkpt lat="43.1722253" lon="11.6817353"><ele>488.0</ele><time>2026-04-19T09:23:43.03Z</time></trkpt><trkpt lat="43.1722852" lon="11.6816667"><ele>487.99999999999994</ele><time>2026-04-19T09:23:44.029Z</time></trkpt><trkpt lat="43.1723366" lon="11.6815877"><ele>487.99999999999994</ele><time>2026-04-19T09:23:45.03Z</time></trkpt><trkpt lat="43.1724232" lon="11.6814629"><ele>488.0</ele><time>2026-04-19T09:23:47.029Z</time></trkpt><trkpt lat="43.1724868" lon="11.6813601"><ele>488.0</ele><time>2026-04-19T09:23:49.03Z</time></trkpt><trkpt lat="43.1725301" lon="11.6812812"><ele>487.66666666666663</ele><time>2026-04-19T09:23:51.03Z</time></trkpt><trkpt lat="43.1725528" lon="11.6811924"><ele>487.3333333333333</ele><time>2026-04-19T09:23:54.029Z</time></trkpt><trkpt lat="43.1725925" lon="11.6811209"><ele>487.0</ele><time>2026-04-19T09:23:58.03Z</time></trkpt><trkpt lat="43.1725518" lon="11.6810024"><ele>486.66666666666663</ele><time>2026-04-19T09:24:03.03Z</time></trkpt><trkpt lat="43.1724952" lon="11.68089"><ele>486.3333333333333</ele><time>2026-04-19T09:24:05.03Z</time></trkpt><trkpt lat="43.1724453" lon="11.6807541"><ele>486.0</ele><time>2026-04-19T09:24:07.029Z</time></trkpt><trkpt lat="43.172412" lon="11.6806178"><ele>484.20000000000005</ele><time>2026-04-19T09:24:09.029Z</time></trkpt><trkpt lat="43.1723703" lon="11.6805031"><ele>482.40000000000003</ele><time>2026-04-19T09:24:11.03Z</time></trkpt><trkpt lat="43.1723394" lon="11.6804082"><ele>480.6</ele><time>2026-04-19T09:24:13.029Z</time></trkpt><trkpt lat="43.1723233" lon="11.6803142"><ele>478.8</ele><time>2026-04-19T09:24:15.03Z</time></trkpt><trkpt lat="43.1722831" lon="11.6801946"><ele>477.0</ele><time>2026-04-19T09:24:17.03Z</time></trkpt><trkpt lat="43.1722088" lon="11.6800614"><ele>473.8</ele><time>2026-04-19T09:24:19.03Z</time></trkpt><trkpt lat="43.1721655" lon="11.6799297"><ele>470.6</ele><time>2026-04-19T09:24:21.03Z</time></trkpt><trkpt lat="43.1722055" lon="11.6797785"><ele>467.40000000000003</ele><time>2026-04-19T09:24:23.029Z</time></trkpt><trkpt lat="43.1722767" lon="11.6797162"><ele>464.20000000000005</ele><time>2026-04-19T09:24:25.03Z</time></trkpt><trkpt lat="43.1723467" lon="11.6796987"><ele>461.0</ele><time>2026-04-19T09:24:27.029Z</time></trkpt><trkpt lat="43.1724204" lon="11.6797315"><ele>459.4</ele><time>2026-04-19T09:24:29.03Z</time></trkpt><trkpt lat="43.1725141" lon="11.6797732"><ele>457.8</ele><time>2026-04-19T09:24:30.029Z</time></trkpt><trkpt lat="43.1726164" lon="11.6798091"><ele>456.19999999999993</ele><time>2026-04-19T09:24:31.03Z</time></trkpt><trkpt lat="43.1727146" lon="11.6798497"><ele>454.59999999999997</ele><time>2026-04-19T09:24:32.03Z</time></trkpt><trkpt lat="43.1728179" lon="11.6799"><ele>453.0</ele><time>2026-04-19T09:24:33.03Z</time></trkpt><trkpt lat="43.1729251" lon="11.6799688"><ele>453.0</ele><time>2026-04-19T09:24:34.029Z</time></trkpt><trkpt lat="43.1730303" lon="11.6800552"><ele>453.0</ele><time>2026-04-19T09:24:35.029Z</time></trkpt><trkpt lat="43.1731326" lon="11.680151"><ele>453.0</ele><time>2026-04-19T09:24:36.03Z</time></trkpt><trkpt lat="43.1732268" lon="11.6802474"><ele>453.0</ele><time>2026-04-19T09:24:37.03Z</time></trkpt><trkpt lat="43.1733139" lon="11.6803398"><ele>453.0</ele><time>2026-04-19T09:24:38.029Z</time></trkpt><trkpt lat="43.1733968" lon="11.6804223"><ele>452.99999999999994</ele><time>2026-04-19T09:24:39.029Z</time></trkpt><trkpt lat="43.1734731" lon="11.6805002"><ele>452.99999999999994</ele><time>2026-04-19T09:24:40.03Z</time></trkpt><trkpt lat="43.1735425" lon="11.6805885"><ele>453.0</ele><time>2026-04-19T09:24:41.029Z</time></trkpt><trkpt lat="43.1735956" lon="11.6807052"><ele>453.0</ele><time>2026-04-19T09:24:42.03Z</time></trkpt><trkpt lat="43.1736281" lon="11.680854"><ele>453.0</ele><time>2026-04-19T09:24:43.03Z</time></trkpt><trkpt lat="43.17367" lon="11.6810276"><ele>453.0</ele><time>2026-04-19T09:24:44.03Z</time></trkpt><trkpt lat="43.173703" lon="11.6812032"><ele>453.0</ele><time>2026-04-19T09:24:45.03Z</time></trkpt><trkpt lat="43.1737376" lon="11.6813675"><ele>453.0</ele><time>2026-04-19T09:24:46.03Z</time></trkpt><trkpt lat="43.1737679" lon="11.681505"><ele>454.0</ele><time>2026-04-19T09:24:47.029Z</time></trkpt><trkpt lat="43.1737953" lon="11.6816212"><ele>455.0</ele><time>2026-04-19T09:24:48.029Z</time></trkpt><trkpt lat="43.1738097" lon="11.6817272"><ele>456.0</ele><time>2026-04-19T09:24:49.029Z</time></trkpt><trkpt lat="43.173817" lon="11.6818308"><ele>457.0</ele><time>2026-04-19T09:24:50.03Z</time></trkpt><trkpt lat="43.1738196" lon="11.6819392"><ele>458.0</ele><time>2026-04-19T09:24:51.029Z</time></trkpt><trkpt lat="43.1738293" lon="11.6820317"><ele>459.0</ele><time>2026-04-19T09:24:52.029Z</time></trkpt><trkpt lat="43.1738248" lon="11.682139"><ele>459.0</ele><time>2026-04-19T09:24:53.03Z</time></trkpt><trkpt lat="43.1738051" lon="11.6822543"><ele>459.0</ele><time>2026-04-19T09:24:54.03Z</time></trkpt><trkpt lat="43.1737971" lon="11.682367"><ele>459.0</ele><time>2026-04-19T09:24:55.029Z</time></trkpt><trkpt lat="43.1737887" lon="11.6824703"><ele>459.0</ele><time>2026-04-19T09:24:56.029Z</time></trkpt><trkpt lat="43.1737939" lon="11.6825702"><ele>459.0</ele><time>2026-04-19T09:24:57.029Z</time></trkpt><trkpt lat="43.1737947" lon="11.6827301"><ele>459.0</ele><time>2026-04-19T09:24:59.03Z</time></trkpt><trkpt lat="43.1737363" lon="11.6828838"><ele>458.0</ele><time>2026-04-19T09:25:01.03Z</time></trkpt><trkpt lat="43.1737033" lon="11.6829675"><ele>457.0</ele><time>2026-04-19T09:25:02.03Z</time></trkpt><trkpt lat="43.1736384" lon="11.6831067"><ele>456.0</ele><time>2026-04-19T09:25:04.03Z</time></trkpt><trkpt lat="43.1736045" lon="11.6831795"><ele>455.0</ele><time>2026-04-19T09:25:05.03Z</time></trkpt><trkpt lat="43.1735402" lon="11.6833183"><ele>454.0</ele><time>2026-04-19T09:25:07.03Z</time></trkpt><trkpt lat="43.1734963" lon="11.683427"><ele>454.00000000000006</ele><time>2026-04-19T09:25:09.03Z</time></trkpt><trkpt lat="43.1734607" lon="11.6835163"><ele>454.0</ele><time>2026-04-19T09:25:11.029Z</time></trkpt><trkpt lat="43.1734067" lon="11.6836083"><ele>454.0</ele><time>2026-04-19T09:25:13.03Z</time></trkpt><trkpt lat="43.1733448" lon="11.6836954"><ele>454.0</ele><time>2026-04-19T09:25:15.03Z</time></trkpt><trkpt lat="43.1732867" lon="11.6837772"><ele>454.00000000000006</ele><time>2026-04-19T09:25:17.029Z</time></trkpt><trkpt lat="43.1732051" lon="11.6838423"><ele>454.0</ele><time>2026-04-19T09:25:20.03Z</time></trkpt><trkpt lat="43.1731368" lon="11.6838834"><ele>455.00000000000006</ele><time>2026-04-19T09:25:23.029Z</time></trkpt><trkpt lat="43.1730647" lon="11.68393"><ele>456.0</ele><time>2026-04-19T09:25:26.029Z</time></trkpt><trkpt lat="43.1729783" lon="11.6839864"><ele>457.0</ele><time>2026-04-19T09:25:29.03Z</time></trkpt><trkpt lat="43.1728857" lon="11.6840294"><ele>458.0</ele><time>2026-04-19T09:25:31.029Z</time></trkpt><trkpt lat="43.1727947" lon="11.6840711"><ele>459.00000000000006</ele><time>2026-04-19T09:25:33.029Z</time></trkpt><trkpt lat="43.1727176" lon="11.684078"><ele>460.0</ele><time>2026-04-19T09:25:35.029Z</time></trkpt><trkpt lat="43.1724826" lon="11.6840132"><ele>460.0</ele><time>2026-04-19T09:25:43.03Z</time></trkpt><trkpt lat="43.172405" lon="11.6839657"><ele>460.0</ele><time>2026-04-19T09:25:45.03Z</time></trkpt><trkpt lat="43.1723419" lon="11.6839085"><ele>460.0</ele><time>2026-04-19T09:25:47.029Z</time></trkpt><trkpt lat="43.1722565" lon="11.684032"><ele>460.0</ele><time>2026-04-19T09:28:10.029Z</time></trkpt><trkpt lat="43.1723805" lon="11.6841121"><ele>460.0</ele><time>2026-04-19T09:28:12.03Z</time></trkpt><trkpt lat="43.1724837" lon="11.6841516"><ele>460.0</ele><time>2026-04-19T09:28:14.03Z</time></trkpt><trkpt lat="43.1725631" lon="11.6841889"><ele>460.0</ele><time>2026-04-19T09:28:16.03Z</time></trkpt><trkpt lat="43.1726343" lon="11.6842195"><ele>460.0</ele><time>2026-04-19T09:28:19.029Z</time></trkpt><trkpt lat="43.1725726" lon="11.6843241"><ele>460.0</ele><time>2026-04-19T09:28:25.03Z</time></trkpt><trkpt lat="43.1724776" lon="11.6843928"><ele>460.0</ele><time>2026-04-19T09:28:27.03Z</time></trkpt><trkpt lat="43.1723835" lon="11.6844443"><ele>464.4</ele><time>2026-04-19T09:28:29.029Z</time></trkpt><trkpt lat="43.1722858" lon="11.6844743"><ele>468.8</ele><time>2026-04-19T09:28:31.03Z</time></trkpt><trkpt lat="43.1721428" lon="11.6845014"><ele>473.20000000000005</ele><time>2026-04-19T09:28:33.029Z</time></trkpt><trkpt lat="43.1720502" lon="11.6845178"><ele>477.6</ele><time>2026-04-19T09:28:34.029Z</time></trkpt><trkpt lat="43.1719634" lon="11.6845218"><ele>482.0</ele><time>2026-04-19T09:28:35.029Z</time></trkpt><trkpt lat="43.171881" lon="11.6845241"><ele>482.0</ele><time>2026-04-19T09:28:36.029Z</time></trkpt><trkpt lat="43.1717947" lon="11.6845372"><ele>482.00000000000006</ele><time>2026-04-19T09:28:37.029Z</time></trkpt><trkpt lat="43.1717047" lon="11.6845688"><ele>482.00000000000006</ele><time>2026-04-19T09:28:38.029Z</time></trkpt><trkpt lat="43.1716032" lon="11.6846248"><ele>482.0</ele><time>2026-04-19T09:28:39.029Z</time></trkpt><trkpt lat="43.1715002" lon="11.6846909"><ele>482.0</ele><time>2026-04-19T09:28:40.029Z</time></trkpt><trkpt lat="43.1714066" lon="11.6847548"><ele>481.99999999999994</ele><time>2026-04-19T09:28:41.029Z</time></trkpt><trkpt lat="43.1713244" lon="11.6848293"><ele>482.0</ele><time>2026-04-19T09:28:42.029Z</time></trkpt><trkpt lat="43.1712497" lon="11.6848977"><ele>482.0</ele><time>2026-04-19T09:28:43.03Z</time></trkpt><trkpt lat="43.171181" lon="11.6849489"><ele>482.0</ele><time>2026-04-19T09:28:44.029Z</time></trkpt><trkpt lat="43.1711306" lon="11.6850052"><ele>481.99999999999994</ele><time>2026-04-19T09:28:45.029Z</time></trkpt><trkpt lat="43.171051" lon="11.6850869"><ele>482.0</ele><time>2026-04-19T09:28:47.029Z</time></trkpt><trkpt lat="43.1709919" lon="11.6851659"><ele>482.0</ele><time>2026-04-19T09:28:49.03Z</time></trkpt><trkpt lat="43.1709425" lon="11.6852345"><ele>482.0</ele><time>2026-04-19T09:28:51.029Z</time></trkpt><trkpt lat="43.1710608" lon="11.6855194"><ele>482.0</ele><time>2026-04-19T09:29:10.03Z</time></trkpt><trkpt lat="43.1711679" lon="11.6856367"><ele>482.0</ele><time>2026-04-19T09:29:12.03Z</time></trkpt><trkpt lat="43.1712212" lon="11.6857078"><ele>483.20000000000005</ele><time>2026-04-19T09:29:13.03Z</time></trkpt><trkpt lat="43.1713248" lon="11.6857902"><ele>484.40000000000003</ele><time>2026-04-19T09:29:15.029Z</time></trkpt><trkpt lat="43.1714094" lon="11.6858676"><ele>485.59999999999997</ele><time>2026-04-19T09:29:17.03Z</time></trkpt><trkpt lat="43.1714707" lon="11.6859106"><ele>486.79999999999995</ele><time>2026-04-19T09:29:20.03Z</time></trkpt><trkpt lat="43.1715352" lon="11.6857845"><ele>488.0</ele><time>2026-04-19T09:29:24.03Z</time></trkpt><trkpt lat="43.1715871" lon="11.6856978"><ele>490.4</ele><time>2026-04-19T09:29:26.029Z</time></trkpt><trkpt lat="43.1716419" lon="11.6855956"><ele>492.79999999999995</ele><time>2026-04-19T09:29:28.03Z</time></trkpt><trkpt lat="43.171731" lon="11.685493"><ele>495.2</ele><time>2026-04-19T09:29:30.03Z</time></trkpt><trkpt lat="43.1717827" lon="11.6854316"><ele>497.6</ele><time>2026-04-19T09:29:31.029Z</time></trkpt><trkpt lat="43.1718841" lon="11.6853609"><ele>500.0</ele><time>2026-04-19T09:29:33.029Z</time></trkpt><trkpt lat="43.1720023" lon="11.68532"><ele>499.99999999999994</ele><time>2026-04-19T09:29:35.03Z</time></trkpt><trkpt lat="43.1721197" lon="11.6852856"><ele>500.0</ele><time>2026-04-19T09:29:37.029Z</time></trkpt><trkpt lat="43.1721819" lon="11.6852707"><ele>500.0</ele><time>2026-04-19T09:29:38.03Z</time></trkpt><trkpt lat="43.1722484" lon="11.6852517"><ele>500.0</ele><time>2026-04-19T09:29:39.029Z</time></trkpt><trkpt lat="43.1723638" lon="11.6852038"><ele>499.99999999999994</ele><time>2026-04-19T09:29:41.029Z</time></trkpt><trkpt lat="43.1724273" lon="11.685181"><ele>500.0</ele><time>2026-04-19T09:29:42.03Z</time></trkpt><trkpt lat="43.1724998" lon="11.6851682"><ele>497.49999999999994</ele><time>2026-04-19T09:29:43.029Z</time></trkpt><trkpt lat="43.1725764" lon="11.6851513"><ele>495.0</ele><time>2026-04-19T09:29:44.029Z</time></trkpt><trkpt lat="43.1726557" lon="11.685131"><ele>492.5</ele><time>2026-04-19T09:29:45.029Z</time></trkpt><trkpt lat="43.1727363" lon="11.6851118"><ele>490.0</ele><time>2026-04-19T09:29:46.029Z</time></trkpt><trkpt lat="43.1728197" lon="11.685086"><ele>487.49999999999994</ele><time>2026-04-19T09:29:47.029Z</time></trkpt><trkpt lat="43.1728974" lon="11.6850506"><ele>485.0</ele><time>2026-04-19T09:29:48.029Z</time></trkpt><trkpt lat="43.1729657" lon="11.6850225"><ele>484.99999999999994</ele><time>2026-04-19T09:29:49.03Z</time></trkpt><trkpt lat="43.1730345" lon="11.6849863"><ele>485.0</ele><time>2026-04-19T09:29:50.029Z</time></trkpt><trkpt lat="43.1731108" lon="11.6849674"><ele>485.0</ele><time>2026-04-19T09:29:51.029Z</time></trkpt><trkpt lat="43.1731893" lon="11.684958"><ele>485.0</ele><time>2026-04-19T09:29:52.03Z</time></trkpt><trkpt lat="43.1732725" lon="11.6849201"><ele>484.99999999999994</ele><time>2026-04-19T09:29:53.03Z</time></trkpt><trkpt lat="43.1733663" lon="11.6848676"><ele>485.0</ele><time>2026-04-19T09:29:54.03Z</time></trkpt><trkpt lat="43.1734628" lon="11.6848231"><ele>486.16666666666663</ele><time>2026-04-19T09:29:55.029Z</time></trkpt><trkpt lat="43.1735474" lon="11.6847725"><ele>487.3333333333333</ele><time>2026-04-19T09:29:56.03Z</time></trkpt><trkpt lat="43.1736342" lon="11.6847293"><ele>488.5</ele><time>2026-04-19T09:29:57.03Z</time></trkpt><trkpt lat="43.1737067" lon="11.6846921"><ele>489.66666666666663</ele><time>2026-04-19T09:29:58.029Z</time></trkpt><trkpt lat="43.1737768" lon="11.6846818"><ele>490.8333333333333</ele><time>2026-04-19T09:29:59.029Z</time></trkpt><trkpt lat="43.1738468" lon="11.6846759"><ele>492.0</ele><time>2026-04-19T09:30:00.03Z</time></trkpt><trkpt lat="43.173927" lon="11.6846596"><ele>492.0</ele><time>2026-04-19T09:30:01.03Z</time></trkpt><trkpt lat="43.1740063" lon="11.6846577"><ele>492.0</ele><time>2026-04-19T09:30:02.029Z</time></trkpt><trkpt lat="43.1740982" lon="11.6846635"><ele>492.0</ele><time>2026-04-19T09:30:03.03Z</time></trkpt><trkpt lat="43.1741987" lon="11.6846857"><ele>492.0</ele><time>2026-04-19T09:30:04.03Z</time></trkpt><trkpt lat="43.1742985" lon="11.6847136"><ele>492.0</ele><time>2026-04-19T09:30:05.029Z</time></trkpt><trkpt lat="43.1743635" lon="11.684729"><ele>492.0</ele><time>2026-04-19T09:30:06.03Z</time></trkpt><trkpt lat="43.1744154" lon="11.6846544"><ele>493.5</ele><time>2026-04-19T09:30:08.029Z</time></trkpt><trkpt lat="43.1744344" lon="11.684568"><ele>495.0</ele><time>2026-04-19T09:30:09.03Z</time></trkpt><trkpt lat="43.1744609" lon="11.6844731"><ele>496.5</ele><time>2026-04-19T09:30:10.029Z</time></trkpt><trkpt lat="43.1744903" lon="11.6843875"><ele>498.0</ele><time>2026-04-19T09:30:11.029Z</time></trkpt><trkpt lat="43.1745792" lon="11.6842772"><ele>499.5</ele><time>2026-04-19T09:30:13.03Z</time></trkpt><trkpt lat="43.1746708" lon="11.6841931"><ele>501.0</ele><time>2026-04-19T09:30:15.029Z</time></trkpt><trkpt lat="43.1747744" lon="11.6841278"><ele>500.5</ele><time>2026-04-19T09:30:17.03Z</time></trkpt><trkpt lat="43.1748416" lon="11.684102"><ele>500.0</ele><time>2026-04-19T09:30:18.03Z</time></trkpt><trkpt lat="43.174905" lon="11.6840815"><ele>499.5</ele><time>2026-04-19T09:30:19.029Z</time></trkpt><trkpt lat="43.174987" lon="11.6840673"><ele>499.0</ele><time>2026-04-19T09:30:21.029Z</time></trkpt><trkpt lat="43.1749965" lon="11.6841641"><ele>498.5</ele><time>2026-04-19T09:30:44.029Z</time></trkpt><trkpt lat="43.1749402" lon="11.684251"><ele>498.0</ele><time>2026-04-19T09:30:46.029Z</time></trkpt><trkpt lat="43.174891" lon="11.6843521"><ele>498.5</ele><time>2026-04-19T09:30:48.03Z</time></trkpt><trkpt lat="43.174853" lon="11.6844711"><ele>499.0</ele><time>2026-04-19T09:30:50.029Z</time></trkpt><trkpt lat="43.1748204" lon="11.6846174"><ele>499.5</ele><time>2026-04-19T09:30:52.03Z</time></trkpt><trkpt lat="43.1748105" lon="11.6847053"><ele>500.0</ele><time>2026-04-19T09:30:53.029Z</time></trkpt><trkpt lat="43.1748088" lon="11.6848176"><ele>500.5</ele><time>2026-04-19T09:30:54.03Z</time></trkpt><trkpt lat="43.1748094" lon="11.6849313"><ele>501.0</ele><time>2026-04-19T09:30:55.03Z</time></trkpt><trkpt lat="43.1748052" lon="11.6850241"><ele>501.0</ele><time>2026-04-19T09:30:56.03Z</time></trkpt><trkpt lat="43.1748408" lon="11.6851927"><ele>501.0</ele><time>2026-04-19T09:30:58.029Z</time></trkpt><trkpt lat="43.1748757" lon="11.6852736"><ele>501.0</ele><time>2026-04-19T09:30:59.03Z</time></trkpt><trkpt lat="43.1749134" lon="11.6853555"><ele>501.0</ele><time>2026-04-19T09:31:00.029Z</time></trkpt><trkpt lat="43.1749284" lon="11.6854596"><ele>501.0</ele><time>2026-04-19T09:31:03.03Z</time></trkpt><trkpt lat="43.1748975" lon="11.6855417"><ele>501.0</ele><time>2026-04-19T09:31:14.03Z</time></trkpt><trkpt lat="43.1747957" lon="11.6856146"><ele>505.1666666666667</ele><time>2026-04-19T09:31:16.029Z</time></trkpt><trkpt lat="43.1747367" lon="11.6856531"><ele>509.33333333333337</ele><time>2026-04-19T09:31:17.029Z</time></trkpt><trkpt lat="43.1746789" lon="11.6856969"><ele>513.5</ele><time>2026-04-19T09:31:18.029Z</time></trkpt><trkpt lat="43.174624" lon="11.6857496"><ele>517.6666666666667</ele><time>2026-04-19T09:31:19.03Z</time></trkpt><trkpt lat="43.1745311" lon="11.6858377"><ele>521.8333333333334</ele><time>2026-04-19T09:31:21.03Z</time></trkpt><trkpt lat="43.1744526" lon="11.6858453"><ele>526.0</ele><time>2026-04-19T09:31:23.029Z</time></trkpt><trkpt lat="43.1743661" lon="11.6857898"><ele>526.0</ele><time>2026-04-19T09:31:25.03Z</time></trkpt><trkpt lat="43.1742424" lon="11.6857324"><ele>526.0</ele><time>2026-04-19T09:31:27.03Z</time></trkpt><trkpt lat="43.1741558" lon="11.6857295"><ele>526.0</ele><time>2026-04-19T09:31:28.03Z</time></trkpt><trkpt lat="43.1740677" lon="11.6857412"><ele>526.0</ele><time>2026-04-19T09:31:29.029Z</time></trkpt><trkpt lat="43.1739798" lon="11.6857818"><ele>526.0</ele><time>2026-04-19T09:31:30.029Z</time></trkpt><trkpt lat="43.1739047" lon="11.6858419"><ele>525.0</ele><time>2026-04-19T09:31:31.029Z</time></trkpt><trkpt lat="43.173837" lon="11.6859118"><ele>524.0</ele><time>2026-04-19T09:31:32.03Z</time></trkpt><trkpt lat="43.1737882" lon="11.6859917"><ele>523.0</ele><time>2026-04-19T09:31:33.029Z</time></trkpt><trkpt lat="43.1737428" lon="11.6860634"><ele>522.0</ele><time>2026-04-19T09:31:34.03Z</time></trkpt><trkpt lat="43.1736973" lon="11.6861455"><ele>521.0</ele><time>2026-04-19T09:31:35.029Z</time></trkpt><trkpt lat="43.1736483" lon="11.6862186"><ele>520.0</ele><time>2026-04-19T09:31:36.03Z</time></trkpt><trkpt lat="43.1736013" lon="11.6862892"><ele>519.0</ele><time>2026-04-19T09:31:37.03Z</time></trkpt><trkpt lat="43.1735056" lon="11.6863899"><ele>520.8333333333334</ele><time>2026-04-19T09:31:39.03Z</time></trkpt><trkpt lat="43.1733929" lon="11.6864821"><ele>522.6666666666666</ele><time>2026-04-19T09:31:41.029Z</time></trkpt><trkpt lat="43.1733365" lon="11.6865532"><ele>524.5</ele><time>2026-04-19T09:31:42.03Z</time></trkpt><trkpt lat="43.1732757" lon="11.6866332"><ele>526.3333333333333</ele><time>2026-04-19T09:31:43.03Z</time></trkpt><trkpt lat="43.1732263" lon="11.6867134"><ele>528.1666666666666</ele><time>2026-04-19T09:31:44.03Z</time></trkpt><trkpt lat="43.1731748" lon="11.6867826"><ele>530.0</ele><time>2026-04-19T09:31:45.03Z</time></trkpt><trkpt lat="43.1730935" lon="11.6868897"><ele>533.2</ele><time>2026-04-19T09:31:47.03Z</time></trkpt><trkpt lat="43.1730249" lon="11.6870188"><ele>536.4</ele><time>2026-04-19T09:31:49.029Z</time></trkpt><trkpt lat="43.1729598" lon="11.6871402"><ele>539.6</ele><time>2026-04-19T09:31:51.029Z</time></trkpt><trkpt lat="43.1728987" lon="11.6872808"><ele>542.8</ele><time>2026-04-19T09:31:53.029Z</time></trkpt><trkpt lat="43.1728648" lon="11.6873851"><ele>546.0</ele><time>2026-04-19T09:31:54.029Z</time></trkpt><trkpt lat="43.1728247" lon="11.687505"><ele>546.0</ele><time>2026-04-19T09:31:55.029Z</time></trkpt><trkpt lat="43.1727766" lon="11.6876306"><ele>546.0</ele><time>2026-04-19T09:31:56.029Z</time></trkpt><trkpt lat="43.1727325" lon="11.6877556"><ele>546.0</ele><time>2026-04-19T09:31:57.029Z</time></trkpt><trkpt lat="43.1727037" lon="11.6878758"><ele>546.0</ele><time>2026-04-19T09:31:58.029Z</time></trkpt><trkpt lat="43.172682" lon="11.6879834"><ele>546.0</ele><time>2026-04-19T09:31:59.03Z</time></trkpt><trkpt lat="43.1726668" lon="11.6880761"><ele>546.0</ele><time>2026-04-19T09:32:00.029Z</time></trkpt><trkpt lat="43.1726377" lon="11.6881967"><ele>548.0</ele><time>2026-04-19T09:32:02.03Z</time></trkpt><trkpt lat="43.172605" lon="11.6883023"><ele>550.0</ele><time>2026-04-19T09:32:05.029Z</time></trkpt><trkpt lat="43.1725579" lon="11.6884175"><ele>552.0</ele><time>2026-04-19T09:32:07.03Z</time></trkpt><trkpt lat="43.1725082" lon="11.6885434"><ele>554.0</ele><time>2026-04-19T09:32:09.029Z</time></trkpt><trkpt lat="43.1724769" lon="11.6886405"><ele>556.0</ele><time>2026-04-19T09:32:11.03Z</time></trkpt><trkpt lat="43.1725651" lon="11.6885794"><ele>556.0</ele><time>2026-04-19T09:32:23.029Z</time></trkpt><trkpt lat="43.1726087" lon="11.68851"><ele>556.0</ele><time>2026-04-19T09:32:24.03Z</time></trkpt><trkpt lat="43.1726562" lon="11.6884319"><ele>556.0</ele><time>2026-04-19T09:32:25.03Z</time></trkpt><trkpt lat="43.172695" lon="11.6883634"><ele>556.0</ele><time>2026-04-19T09:32:26.03Z</time></trkpt><trkpt lat="43.1727382" lon="11.6882878"><ele>556.0</ele><time>2026-04-19T09:32:27.03Z</time></trkpt><trkpt lat="43.1727778" lon="11.6882093"><ele>556.0</ele><time>2026-04-19T09:32:28.03Z</time></trkpt><trkpt lat="43.1728155" lon="11.6881354"><ele>556.0</ele><time>2026-04-19T09:32:29.031Z</time></trkpt><trkpt lat="43.1728626" lon="11.6880548"><ele>556.0</ele><time>2026-04-19T09:32:30.03Z</time></trkpt><trkpt lat="43.1729083" lon="11.6879735"><ele>556.0</ele><time>2026-04-19T09:32:31.03Z</time></trkpt><trkpt lat="43.1729525" lon="11.6879034"><ele>556.0</ele><time>2026-04-19T09:32:32.031Z</time></trkpt><trkpt lat="43.1729994" lon="11.6878358"><ele>556.0</ele><time>2026-04-19T09:32:33.03Z</time></trkpt><trkpt lat="43.1730519" lon="11.6877674"><ele>556.0</ele><time>2026-04-19T09:32:34.031Z</time></trkpt><trkpt lat="43.1731027" lon="11.687699"><ele>556.0</ele><time>2026-04-19T09:32:35.031Z</time></trkpt><trkpt lat="43.1731617" lon="11.6876392"><ele>556.0</ele><time>2026-04-19T09:32:36.03Z</time></trkpt><trkpt lat="43.1732183" lon="11.6875804"><ele>555.8333333333334</ele><time>2026-04-19T09:32:37.031Z</time></trkpt><trkpt lat="43.173279" lon="11.6875168"><ele>555.6666666666667</ele><time>2026-04-19T09:32:38.031Z</time></trkpt><trkpt lat="43.1733343" lon="11.6874473"><ele>555.5</ele><time>2026-04-19T09:32:39.03Z</time></trkpt><trkpt lat="43.1733972" lon="11.6873763"><ele>555.3333333333334</ele><time>2026-04-19T09:32:40.031Z</time></trkpt><trkpt lat="43.1734622" lon="11.6873023"><ele>555.1666666666666</ele><time>2026-04-19T09:32:41.03Z</time></trkpt><trkpt lat="43.1735119" lon="11.6872424"><ele>555.0</ele><time>2026-04-19T09:32:42.031Z</time></trkpt><trkpt lat="43.1736051" lon="11.6871339"><ele>555.0</ele><time>2026-04-19T09:32:44.03Z</time></trkpt><trkpt lat="43.1736774" lon="11.6870743"><ele>555.0</ele><time>2026-04-19T09:32:46.031Z</time></trkpt><trkpt lat="43.1737352" lon="11.6869713"><ele>555.0</ele><time>2026-04-19T09:32:49.031Z</time></trkpt><trkpt lat="43.1738156" lon="11.6869189"><ele>555.0</ele><time>2026-04-19T09:32:51.03Z</time></trkpt><trkpt lat="43.173926" lon="11.6868132"><ele>555.0</ele><time>2026-04-19T09:32:53.031Z</time></trkpt><trkpt lat="43.1739832" lon="11.6867464"><ele>552.8</ele><time>2026-04-19T09:32:54.031Z</time></trkpt><trkpt lat="43.1740357" lon="11.6866912"><ele>550.6</ele><time>2026-04-19T09:32:55.031Z</time></trkpt><trkpt lat="43.1741656" lon="11.6866164"><ele>548.4</ele><time>2026-04-19T09:32:57.031Z</time></trkpt><trkpt lat="43.174275" lon="11.6866034"><ele>546.2</ele><time>2026-04-19T09:32:58.03Z</time></trkpt><trkpt lat="43.1743835" lon="11.6865981"><ele>544.0</ele><time>2026-04-19T09:32:59.03Z</time></trkpt><trkpt lat="43.1745012" lon="11.6865894"><ele>544.0</ele><time>2026-04-19T09:33:00.03Z</time></trkpt><trkpt lat="43.174615" lon="11.6865731"><ele>544.0</ele><time>2026-04-19T09:33:01.031Z</time></trkpt><trkpt lat="43.1747286" lon="11.6865584"><ele>544.0</ele><time>2026-04-19T09:33:02.03Z</time></trkpt><trkpt lat="43.1748339" lon="11.686552"><ele>544.0</ele><time>2026-04-19T09:33:03.03Z</time></trkpt><trkpt lat="43.174912" lon="11.6865529"><ele>544.0</ele><time>2026-04-19T09:33:04.03Z</time></trkpt><trkpt lat="43.1749798" lon="11.6865531"><ele>543.6</ele><time>2026-04-19T09:33:05.03Z</time></trkpt><trkpt lat="43.1750822" lon="11.6865509"><ele>543.2</ele><time>2026-04-19T09:33:07.031Z</time></trkpt><trkpt lat="43.1751676" lon="11.6865383"><ele>542.8000000000001</ele><time>2026-04-19T09:33:09.03Z</time></trkpt><trkpt lat="43.1752617" lon="11.6865137"><ele>542.4</ele><time>2026-04-19T09:33:11.031Z</time></trkpt><trkpt lat="43.1753457" lon="11.6864535"><ele>542.0</ele><time>2026-04-19T09:33:13.031Z</time></trkpt><trkpt lat="43.175424" lon="11.6863872"><ele>542.0</ele><time>2026-04-19T09:33:15.03Z</time></trkpt><trkpt lat="43.175468" lon="11.686302"><ele>542.0</ele><time>2026-04-19T09:33:18.031Z</time></trkpt><trkpt lat="43.1755522" lon="11.6863299"><ele>542.0</ele><time>2026-04-19T09:33:32.031Z</time></trkpt><trkpt lat="43.175596" lon="11.6864107"><ele>542.0</ele><time>2026-04-19T09:33:33.03Z</time></trkpt><trkpt lat="43.1756303" lon="11.6864988"><ele>542.0</ele><time>2026-04-19T09:33:34.031Z</time></trkpt><trkpt lat="43.1756705" lon="11.6865858"><ele>542.0</ele><time>2026-04-19T09:33:35.031Z</time></trkpt><trkpt lat="43.1757262" lon="11.6866778"><ele>542.4</ele><time>2026-04-19T09:33:36.031Z</time></trkpt><trkpt lat="43.1757945" lon="11.6867734"><ele>542.8000000000001</ele><time>2026-04-19T09:33:37.03Z</time></trkpt><trkpt lat="43.1758588" lon="11.6868746"><ele>543.2</ele><time>2026-04-19T09:33:38.03Z</time></trkpt><trkpt lat="43.1759176" lon="11.6869708"><ele>543.6</ele><time>2026-04-19T09:33:39.031Z</time></trkpt><trkpt lat="43.1759773" lon="11.6870596"><ele>544.0</ele><time>2026-04-19T09:33:40.03Z</time></trkpt><trkpt lat="43.1760362" lon="11.6871422"><ele>544.6666666666667</ele><time>2026-04-19T09:33:41.03Z</time></trkpt><trkpt lat="43.1760924" lon="11.6872215"><ele>545.3333333333334</ele><time>2026-04-19T09:33:42.03Z</time></trkpt><trkpt lat="43.1761431" lon="11.6872976"><ele>546.0</ele><time>2026-04-19T09:33:43.03Z</time></trkpt><trkpt lat="43.1761974" lon="11.6873737"><ele>546.6666666666666</ele><time>2026-04-19T09:33:44.031Z</time></trkpt><trkpt lat="43.1762541" lon="11.6874502"><ele>547.3333333333333</ele><time>2026-04-19T09:33:45.03Z</time></trkpt><trkpt lat="43.1763082" lon="11.6875162"><ele>548.0</ele><time>2026-04-19T09:33:46.03Z</time></trkpt><trkpt lat="43.1763575" lon="11.687583"><ele>548.0</ele><time>2026-04-19T09:33:47.03Z</time></trkpt><trkpt lat="43.1764018" lon="11.687651"><ele>548.0</ele><time>2026-04-19T09:33:48.03Z</time></trkpt><trkpt lat="43.1764478" lon="11.6877173"><ele>548.0</ele><time>2026-04-19T09:33:49.03Z</time></trkpt><trkpt lat="43.1765304" lon="11.6878193"><ele>548.0</ele><time>2026-04-19T09:33:51.031Z</time></trkpt><trkpt lat="43.1765999" lon="11.6879182"><ele>548.0</ele><time>2026-04-19T09:33:53.03Z</time></trkpt><trkpt lat="43.1766529" lon="11.6880118"><ele>548.0</ele><time>2026-04-19T09:33:55.031Z</time></trkpt><trkpt lat="43.1766952" lon="11.6881011"><ele>543.1666666666666</ele><time>2026-04-19T09:33:57.031Z</time></trkpt><trkpt lat="43.1767407" lon="11.6881948"><ele>538.3333333333333</ele><time>2026-04-19T09:33:59.03Z</time></trkpt><trkpt lat="43.1767695" lon="11.6883218"><ele>533.5</ele><time>2026-04-19T09:34:01.031Z</time></trkpt><trkpt lat="43.1767698" lon="11.6884175"><ele>528.6666666666666</ele><time>2026-04-19T09:34:02.03Z</time></trkpt><trkpt lat="43.1767577" lon="11.6885111"><ele>523.8333333333334</ele><time>2026-04-19T09:34:03.03Z</time></trkpt><trkpt lat="43.1767427" lon="11.6886051"><ele>519.0</ele><time>2026-04-19T09:34:04.031Z</time></trkpt><trkpt lat="43.1766976" lon="11.6887369"><ele>520.0</ele><time>2026-04-19T09:34:06.03Z</time></trkpt><trkpt lat="43.1766406" lon="11.688849"><ele>521.0</ele><time>2026-04-19T09:34:08.031Z</time></trkpt><trkpt lat="43.1765675" lon="11.6889802"><ele>522.0</ele><time>2026-04-19T09:34:10.03Z</time></trkpt><trkpt lat="43.1765012" lon="11.6890874"><ele>523.0</ele><time>2026-04-19T09:34:12.031Z</time></trkpt><trkpt lat="43.1764252" lon="11.6892016"><ele>524.0</ele><time>2026-04-19T09:34:14.03Z</time></trkpt><trkpt lat="43.1763733" lon="11.6893516"><ele>518.5</ele><time>2026-04-19T09:34:16.031Z</time></trkpt><trkpt lat="43.176333" lon="11.6894419"><ele>513.0</ele><time>2026-04-19T09:34:17.031Z</time></trkpt><trkpt lat="43.1762787" lon="11.6895416"><ele>507.5</ele><time>2026-04-19T09:34:18.03Z</time></trkpt><trkpt lat="43.1762158" lon="11.6896381"><ele>502.0</ele><time>2026-04-19T09:34:19.031Z</time></trkpt><trkpt lat="43.176147" lon="11.689718"><ele>496.49999999999994</ele><time>2026-04-19T09:34:20.03Z</time></trkpt><trkpt lat="43.1760947" lon="11.6897722"><ele>491.0</ele><time>2026-04-19T09:34:21.031Z</time></trkpt><trkpt lat="43.1760011" lon="11.6898767"><ele>491.0</ele><time>2026-04-19T09:34:23.031Z</time></trkpt><trkpt lat="43.1759361" lon="11.689947"><ele>491.0</ele><time>2026-04-19T09:34:24.031Z</time></trkpt><trkpt lat="43.175885" lon="11.6900264"><ele>491.0</ele><time>2026-04-19T09:34:25.031Z</time></trkpt><trkpt lat="43.1758332" lon="11.6900965"><ele>491.0</ele><time>2026-04-19T09:34:26.03Z</time></trkpt><trkpt lat="43.1757512" lon="11.6902098"><ele>491.0</ele><time>2026-04-19T09:34:28.03Z</time></trkpt><trkpt lat="43.1756805" lon="11.6903226"><ele>491.75</ele><time>2026-04-19T09:34:30.03Z</time></trkpt><trkpt lat="43.1756176" lon="11.6904212"><ele>492.5</ele><time>2026-04-19T09:34:32.031Z</time></trkpt><trkpt lat="43.1755661" lon="11.6905151"><ele>493.25</ele><time>2026-04-19T09:34:34.03Z</time></trkpt><trkpt lat="43.1754248" lon="11.6907236"><ele>494.0</ele><time>2026-04-19T09:35:02.031Z</time></trkpt><trkpt lat="43.1754077" lon="11.6908076"><ele>493.99999999999994</ele><time>2026-04-19T09:35:04.03Z</time></trkpt><trkpt lat="43.1753957" lon="11.6909371"><ele>494.0</ele><time>2026-04-19T09:35:07.031Z</time></trkpt><trkpt lat="43.1753688" lon="11.6910498"><ele>494.0</ele><time>2026-04-19T09:35:09.03Z</time></trkpt><trkpt lat="43.1753329" lon="11.691151"><ele>494.0</ele><time>2026-04-19T09:35:11.031Z</time></trkpt><trkpt lat="43.175281" lon="11.6912262"><ele>493.99999999999994</ele><time>2026-04-19T09:35:13.031Z</time></trkpt><trkpt lat="43.1752962" lon="11.6913598"><ele>494.0</ele><time>2026-04-19T09:37:32.031Z</time></trkpt><trkpt lat="43.1754078" lon="11.691303"><ele>493.99999999999994</ele><time>2026-04-19T09:37:34.03Z</time></trkpt><trkpt lat="43.1754614" lon="11.6912567"><ele>494.0</ele><time>2026-04-19T09:37:35.031Z</time></trkpt><trkpt lat="43.1755238" lon="11.6912031"><ele>494.0</ele><time>2026-04-19T09:37:36.031Z</time></trkpt><trkpt lat="43.1755952" lon="11.6911314"><ele>494.0</ele><time>2026-04-19T09:37:37.031Z</time></trkpt><trkpt lat="43.1756677" lon="11.6910349"><ele>493.99999999999994</ele><time>2026-04-19T09:37:38.03Z</time></trkpt><trkpt lat="43.1757354" lon="11.6909198"><ele>494.0</ele><time>2026-04-19T09:37:39.031Z</time></trkpt><trkpt lat="43.1758028" lon="11.6908024"><ele>487.75</ele><time>2026-04-19T09:37:40.03Z</time></trkpt><trkpt lat="43.1758791" lon="11.6906739"><ele>481.5</ele><time>2026-04-19T09:37:41.03Z</time></trkpt><trkpt lat="43.1759529" lon="11.6905513"><ele>475.25</ele><time>2026-04-19T09:37:42.03Z</time></trkpt><trkpt lat="43.1760427" lon="11.6904426"><ele>469.0</ele><time>2026-04-19T09:37:43.031Z</time></trkpt><trkpt lat="43.176135" lon="11.690344"><ele>469.0</ele><time>2026-04-19T09:37:44.031Z</time></trkpt><trkpt lat="43.1762241" lon="11.6902632"><ele>469.0</ele><time>2026-04-19T09:37:45.03Z</time></trkpt><trkpt lat="43.1763135" lon="11.6901938"><ele>469.0</ele><time>2026-04-19T09:37:46.031Z</time></trkpt><trkpt lat="43.1764197" lon="11.6901289"><ele>469.0</ele><time>2026-04-19T09:37:47.031Z</time></trkpt><trkpt lat="43.1765298" lon="11.6900611"><ele>469.0</ele><time>2026-04-19T09:37:48.03Z</time></trkpt><trkpt lat="43.1766443" lon="11.6899867"><ele>468.25</ele><time>2026-04-19T09:37:49.031Z</time></trkpt><trkpt lat="43.1767578" lon="11.6899115"><ele>467.5</ele><time>2026-04-19T09:37:50.031Z</time></trkpt><trkpt lat="43.1768706" lon="11.6898425"><ele>466.75</ele><time>2026-04-19T09:37:51.031Z</time></trkpt><trkpt lat="43.1769802" lon="11.6897716"><ele>466.0</ele><time>2026-04-19T09:37:52.031Z</time></trkpt><trkpt lat="43.1770963" lon="11.6896928"><ele>466.0</ele><time>2026-04-19T09:37:53.031Z</time></trkpt><trkpt lat="43.1772162" lon="11.6896023"><ele>466.0</ele><time>2026-04-19T09:37:54.031Z</time></trkpt><trkpt lat="43.1773324" lon="11.6895108"><ele>466.0</ele><time>2026-04-19T09:37:55.031Z</time></trkpt><trkpt lat="43.1774458" lon="11.6894187"><ele>466.0</ele><time>2026-04-19T09:37:56.031Z</time></trkpt><trkpt lat="43.1775577" lon="11.6893211"><ele>466.75</ele><time>2026-04-19T09:37:57.03Z</time></trkpt><trkpt lat="43.1776621" lon="11.6892348"><ele>467.5</ele><time>2026-04-19T09:37:58.031Z</time></trkpt><trkpt lat="43.1777601" lon="11.6891505"><ele>468.25</ele><time>2026-04-19T09:37:59.031Z</time></trkpt><trkpt lat="43.1778563" lon="11.6890735"><ele>469.0</ele><time>2026-04-19T09:38:00.03Z</time></trkpt><trkpt lat="43.17795" lon="11.6889987"><ele>469.0</ele><time>2026-04-19T09:38:01.031Z</time></trkpt><trkpt lat="43.178039" lon="11.6889363"><ele>469.0</ele><time>2026-04-19T09:38:02.031Z</time></trkpt><trkpt lat="43.178135" lon="11.6888882"><ele>469.0</ele><time>2026-04-19T09:38:03.031Z</time></trkpt><trkpt lat="43.178232" lon="11.6888444"><ele>469.0</ele><time>2026-04-19T09:38:04.03Z</time></trkpt><trkpt lat="43.1783406" lon="11.6887999"><ele>469.0</ele><time>2026-04-19T09:38:05.03Z</time></trkpt><trkpt lat="43.1784511" lon="11.6887463"><ele>470.0</ele><time>2026-04-19T09:38:06.031Z</time></trkpt><trkpt lat="43.1785646" lon="11.6886898"><ele>471.0</ele><time>2026-04-19T09:38:07.031Z</time></trkpt><trkpt lat="43.1786853" lon="11.6886097"><ele>472.0</ele><time>2026-04-19T09:38:08.031Z</time></trkpt><trkpt lat="43.178794" lon="11.6884929"><ele>473.0</ele><time>2026-04-19T09:38:09.031Z</time></trkpt><trkpt lat="43.1788931" lon="11.6883628"><ele>473.0</ele><time>2026-04-19T09:38:10.031Z</time></trkpt><trkpt lat="43.1789863" lon="11.6882371"><ele>473.0</ele><time>2026-04-19T09:38:11.03Z</time></trkpt><trkpt lat="43.1790788" lon="11.6881098"><ele>473.0</ele><time>2026-04-19T09:38:12.031Z</time></trkpt><trkpt lat="43.1791721" lon="11.6879909"><ele>473.0</ele><time>2026-04-19T09:38:13.031Z</time></trkpt><trkpt lat="43.17927" lon="11.6878887"><ele>472.5</ele><time>2026-04-19T09:38:14.031Z</time></trkpt><trkpt lat="43.1793744" lon="11.687818"><ele>472.0</ele><time>2026-04-19T09:38:15.031Z</time></trkpt><trkpt lat="43.1794838" lon="11.687755"><ele>471.5</ele><time>2026-04-19T09:38:16.03Z</time></trkpt><trkpt lat="43.1796013" lon="11.6877009"><ele>471.0</ele><time>2026-04-19T09:38:17.031Z</time></trkpt><trkpt lat="43.1797125" lon="11.6876405"><ele>471.0</ele><time>2026-04-19T09:38:18.031Z</time></trkpt><trkpt lat="43.1798182" lon="11.6875785"><ele>471.0</ele><time>2026-04-19T09:38:19.03Z</time></trkpt><trkpt lat="43.1799262" lon="11.6875177"><ele>471.0</ele><time>2026-04-19T09:38:20.03Z</time></trkpt><trkpt lat="43.1800286" lon="11.6874487"><ele>471.0</ele><time>2026-04-19T09:38:21.03Z</time></trkpt><trkpt lat="43.1801228" lon="11.6873763"><ele>465.5</ele><time>2026-04-19T09:38:22.031Z</time></trkpt><trkpt lat="43.1802274" lon="11.6873074"><ele>460.0</ele><time>2026-04-19T09:38:23.031Z</time></trkpt><trkpt lat="43.1803402" lon="11.6872457"><ele>454.5</ele><time>2026-04-19T09:38:24.03Z</time></trkpt><trkpt lat="43.1804542" lon="11.687191"><ele>449.0</ele><time>2026-04-19T09:38:25.03Z</time></trkpt><trkpt lat="43.1805784" lon="11.6871473"><ele>445.5</ele><time>2026-04-19T09:38:26.03Z</time></trkpt><trkpt lat="43.1807134" lon="11.6871014"><ele>442.0</ele><time>2026-04-19T09:38:27.03Z</time></trkpt><trkpt lat="43.1808475" lon="11.6870572"><ele>438.5</ele><time>2026-04-19T09:38:28.031Z</time></trkpt><trkpt lat="43.1809857" lon="11.6870214"><ele>435.0</ele><time>2026-04-19T09:38:29.03Z</time></trkpt><trkpt lat="43.181119" lon="11.6869513"><ele>438.75</ele><time>2026-04-19T09:38:30.031Z</time></trkpt><trkpt lat="43.1812239" lon="11.6868545"><ele>442.5</ele><time>2026-04-19T09:38:31.03Z</time></trkpt><trkpt lat="43.1813097" lon="11.6867195"><ele>446.25</ele><time>2026-04-19T09:38:32.03Z</time></trkpt><trkpt lat="43.1813751" lon="11.6865747"><ele>450.0</ele><time>2026-04-19T09:38:33.03Z</time></trkpt><trkpt lat="43.1814376" lon="11.6864232"><ele>450.0</ele><time>2026-04-19T09:38:34.031Z</time></trkpt><trkpt lat="43.181495" lon="11.686266"><ele>450.0</ele><time>2026-04-19T09:38:35.031Z</time></trkpt><trkpt lat="43.1815617" lon="11.6861122"><ele>450.0</ele><time>2026-04-19T09:38:36.03Z</time></trkpt><trkpt lat="43.1816355" lon="11.6859628"><ele>450.0</ele><time>2026-04-19T09:38:37.031Z</time></trkpt><trkpt lat="43.1817102" lon="11.6858214"><ele>451.6</ele><time>2026-04-19T09:38:38.031Z</time></trkpt><trkpt lat="43.1817866" lon="11.6856924"><ele>453.2</ele><time>2026-04-19T09:38:39.031Z</time></trkpt><trkpt lat="43.181852" lon="11.6855735"><ele>454.79999999999995</ele><time>2026-04-19T09:38:40.031Z</time></trkpt><trkpt lat="43.1819129" lon="11.685459"><ele>456.4</ele><time>2026-04-19T09:38:41.03Z</time></trkpt><trkpt lat="43.1819661" lon="11.6853493"><ele>458.0</ele><time>2026-04-19T09:38:42.031Z</time></trkpt><trkpt lat="43.1820202" lon="11.685243"><ele>458.0</ele><time>2026-04-19T09:38:43.03Z</time></trkpt><trkpt lat="43.1820755" lon="11.6851318"><ele>457.99999999999994</ele><time>2026-04-19T09:38:44.031Z</time></trkpt><trkpt lat="43.1821285" lon="11.685025"><ele>457.99999999999994</ele><time>2026-04-19T09:38:45.03Z</time></trkpt><trkpt lat="43.1821759" lon="11.6849355"><ele>458.0</ele><time>2026-04-19T09:38:46.031Z</time></trkpt><trkpt lat="43.1822143" lon="11.6848635"><ele>458.0</ele><time>2026-04-19T09:38:47.031Z</time></trkpt><trkpt lat="43.1822829" lon="11.6847417"><ele>458.0</ele><time>2026-04-19T09:38:49.03Z</time></trkpt><trkpt lat="43.1823428" lon="11.6846528"><ele>457.99999999999994</ele><time>2026-04-19T09:38:51.031Z</time></trkpt><trkpt lat="43.1823606" lon="11.6844915"><ele>457.99999999999994</ele><time>2026-04-19T09:39:10.031Z</time></trkpt><trkpt lat="43.1823662" lon="11.684397"><ele>458.0</ele><time>2026-04-19T09:39:12.03Z</time></trkpt><trkpt lat="43.1823705" lon="11.6842616"><ele>458.0</ele><time>2026-04-19T09:39:14.03Z</time></trkpt><trkpt lat="43.1823684" lon="11.6841087"><ele>455.66666666666663</ele><time>2026-04-19T09:39:16.031Z</time></trkpt><trkpt lat="43.1823618" lon="11.6839621"><ele>453.3333333333333</ele><time>2026-04-19T09:39:18.03Z</time></trkpt><trkpt lat="43.1824294" lon="11.6839894"><ele>451.0</ele><time>2026-04-19T09:42:33.031Z</time></trkpt><trkpt lat="43.1824405" lon="11.6841014"><ele>448.66666666666663</ele><time>2026-04-19T09:42:36.03Z</time></trkpt><trkpt lat="43.1824575" lon="11.6841993"><ele>446.3333333333333</ele><time>2026-04-19T09:42:39.031Z</time></trkpt><trkpt lat="43.1824724" lon="11.6843049"><ele>444.0</ele><time>2026-04-19T09:42:43.03Z</time></trkpt><trkpt lat="43.1824486" lon="11.6843916"><ele>444.0</ele><time>2026-04-19T09:43:05.031Z</time></trkpt><trkpt lat="43.1824405" lon="11.6844918"><ele>444.0</ele><time>2026-04-19T09:43:11.03Z</time></trkpt><trkpt lat="43.1823889" lon="11.6845852"><ele>444.0</ele><time>2026-04-19T09:43:14.03Z</time></trkpt><trkpt lat="43.1823716" lon="11.6844999"><ele>444.0</ele><time>2026-04-19T09:43:31.031Z</time></trkpt><trkpt lat="43.1823802" lon="11.6843983"><ele>444.0</ele><time>2026-04-19T09:44:10.031Z</time></trkpt><trkpt lat="43.1823627" lon="11.6842988"><ele>444.0</ele><time>2026-04-19T09:44:13.031Z</time></trkpt><trkpt lat="43.1823536" lon="11.6841793"><ele>444.0</ele><time>2026-04-19T09:44:16.03Z</time></trkpt><trkpt lat="43.1823644" lon="11.6840724"><ele>444.0</ele><time>2026-04-19T09:44:19.031Z</time></trkpt><trkpt lat="43.1823514" lon="11.6839657"><ele>444.0</ele><time>2026-04-19T09:44:43.031Z</time></trkpt><trkpt lat="43.1823357" lon="11.683874"><ele>444.0</ele><time>2026-04-19T09:44:46.03Z</time></trkpt><trkpt lat="43.1823148" lon="11.6837918"><ele>444.0</ele><time>2026-04-19T09:44:49.031Z</time></trkpt><trkpt lat="43.1822905" lon="11.6837091"><ele>444.0</ele><time>2026-04-19T09:44:52.031Z</time></trkpt><trkpt lat="43.1822733" lon="11.6836135"><ele>444.0</ele><time>2026-04-19T09:44:56.031Z</time></trkpt><trkpt lat="43.1822649" lon="11.6835202"><ele>454.5</ele><time>2026-04-19T09:44:59.031Z</time></trkpt><trkpt lat="43.1822404" lon="11.6834306"><ele>465.0</ele><time>2026-04-19T09:45:02.031Z</time></trkpt><trkpt lat="43.1822073" lon="11.6833339"><ele>475.5</ele><time>2026-04-19T09:45:05.03Z</time></trkpt><trkpt lat="43.1821791" lon="11.6832363"><ele>486.0</ele><time>2026-04-19T09:45:22.03Z</time></trkpt><trkpt lat="43.1821612" lon="11.68313"><ele>496.5</ele><time>2026-04-19T09:45:26.031Z</time></trkpt><trkpt lat="43.1821527" lon="11.6830065"><ele>507.0</ele><time>2026-04-19T09:45:33.03Z</time></trkpt><trkpt lat="43.1821262" lon="11.6828867"><ele>507.0</ele><time>2026-04-19T09:45:37.031Z</time></trkpt><trkpt lat="43.1821175" lon="11.6829732"><ele>507.0</ele><time>2026-04-19T09:46:11.031Z</time></trkpt><trkpt lat="43.1820761" lon="11.6828922"><ele>507.0</ele><time>2026-04-19T09:48:19.03Z</time></trkpt><trkpt lat="43.1820547" lon="11.6827921"><ele>507.0</ele><time>2026-04-19T09:48:42.031Z</time></trkpt><trkpt lat="43.1820051" lon="11.6827159"><ele>507.0</ele><time>2026-04-19T09:48:50.031Z</time></trkpt><trkpt lat="43.1819547" lon="11.6826411"><ele>507.0</ele><time>2026-04-19T09:48:55.03Z</time></trkpt><trkpt lat="43.1819023" lon="11.6825803"><ele>507.0</ele><time>2026-04-19T09:49:04.031Z</time></trkpt><trkpt lat="43.1818513" lon="11.6825134"><ele>506.3333333333333</ele><time>2026-04-19T09:49:22.031Z</time></trkpt><trkpt lat="43.1818072" lon="11.6824382"><ele>505.66666666666663</ele><time>2026-04-19T09:49:27.031Z</time></trkpt><trkpt lat="43.1817372" lon="11.6824077"><ele>505.0</ele><time>2026-04-19T09:49:35.03Z</time></trkpt><trkpt lat="43.1816681" lon="11.6823111"><ele>504.3333333333333</ele><time>2026-04-19T09:51:34.031Z</time></trkpt><trkpt lat="43.1816123" lon="11.682238"><ele>503.66666666666663</ele><time>2026-04-19T09:51:37.031Z</time></trkpt><trkpt lat="43.1815449" lon="11.6821751"><ele>503.0</ele><time>2026-04-19T09:51:41.031Z</time></trkpt><trkpt lat="43.1814532" lon="11.6821527"><ele>505.8333333333333</ele><time>2026-04-19T09:51:43.03Z</time></trkpt><trkpt lat="43.1813705" lon="11.6821634"><ele>508.66666666666663</ele><time>2026-04-19T09:51:45.031Z</time></trkpt><trkpt lat="43.1812921" lon="11.6821895"><ele>511.5</ele><time>2026-04-19T09:51:47.031Z</time></trkpt><trkpt lat="43.1812166" lon="11.6822114"><ele>514.3333333333334</ele><time>2026-04-19T09:51:49.031Z</time></trkpt><trkpt lat="43.1811373" lon="11.6822551"><ele>517.1666666666667</ele><time>2026-04-19T09:51:51.03Z</time></trkpt><trkpt lat="43.1810669" lon="11.6822963"><ele>520.0</ele><time>2026-04-19T09:51:53.031Z</time></trkpt><trkpt lat="43.1809951" lon="11.6823213"><ele>520.0000000000001</ele><time>2026-04-19T09:51:55.03Z</time></trkpt><trkpt lat="43.1809192" lon="11.6823651"><ele>520.0</ele><time>2026-04-19T09:51:57.031Z</time></trkpt><trkpt lat="43.1808502" lon="11.6823979"><ele>520.0</ele><time>2026-04-19T09:51:59.031Z</time></trkpt><trkpt lat="43.1807818" lon="11.6824314"><ele>520.0</ele><time>2026-04-19T09:52:01.03Z</time></trkpt><trkpt lat="43.1807211" lon="11.6824588"><ele>520.0</ele><time>2026-04-19T09:52:03.031Z</time></trkpt><trkpt lat="43.1806509" lon="11.6824899"><ele>520.0000000000001</ele><time>2026-04-19T09:52:05.031Z</time></trkpt><trkpt lat="43.1805757" lon="11.6825293"><ele>520.0</ele><time>2026-04-19T09:52:07.03Z</time></trkpt><trkpt lat="43.1804853" lon="11.6825827"><ele>520.8571428571429</ele><time>2026-04-19T09:52:09.03Z</time></trkpt><trkpt lat="43.1804176" lon="11.6826184"><ele>521.7142857142858</ele><time>2026-04-19T09:52:11.031Z</time></trkpt><trkpt lat="43.1803552" lon="11.682673"><ele>522.5714285714286</ele><time>2026-04-19T09:52:15.031Z</time></trkpt><trkpt lat="43.1802967" lon="11.6827398"><ele>523.4285714285714</ele><time>2026-04-19T09:52:19.031Z</time></trkpt><trkpt lat="43.1802423" lon="11.6827966"><ele>524.2857142857142</ele><time>2026-04-19T09:52:23.031Z</time></trkpt><trkpt lat="43.180256" lon="11.6829079"><ele>525.1428571428571</ele><time>2026-04-19T09:52:38.031Z</time></trkpt><trkpt lat="43.1802945" lon="11.6829976"><ele>526.0</ele><time>2026-04-19T09:52:42.031Z</time></trkpt><trkpt lat="43.1802995" lon="11.6831058"><ele>530.0</ele><time>2026-04-19T09:52:46.031Z</time></trkpt><trkpt lat="43.1803125" lon="11.6832055"><ele>534.0</ele><time>2026-04-19T09:52:53.03Z</time></trkpt><trkpt lat="43.1802868" lon="11.6832876"><ele>538.0</ele><time>2026-04-19T09:52:56.031Z</time></trkpt><trkpt lat="43.180276" lon="11.6833933"><ele>542.0</ele><time>2026-04-19T09:52:59.031Z</time></trkpt><trkpt lat="43.1802954" lon="11.6834791"><ele>546.0</ele><time>2026-04-19T09:53:02.031Z</time></trkpt><trkpt lat="43.1802781" lon="11.6835633"><ele>550.0</ele><time>2026-04-19T09:53:04.03Z</time></trkpt><trkpt lat="43.1802095" lon="11.6836024"><ele>554.0</ele><time>2026-04-19T09:53:07.03Z</time></trkpt><trkpt lat="43.180144" lon="11.6835907"><ele>554.0</ele><time>2026-04-19T09:53:09.031Z</time></trkpt><trkpt lat="43.1800628" lon="11.6835923"><ele>554.0</ele><time>2026-04-19T09:53:11.031Z</time></trkpt><trkpt lat="43.1799523" lon="11.6836031"><ele>554.0</ele><time>2026-04-19T09:53:13.031Z</time></trkpt><trkpt lat="43.1798256" lon="11.6836285"><ele>554.0</ele><time>2026-04-19T09:53:15.03Z</time></trkpt><trkpt lat="43.1797596" lon="11.6836499"><ele>554.0</ele><time>2026-04-19T09:53:16.031Z</time></trkpt><trkpt lat="43.1796932" lon="11.6836643"><ele>558.3333333333333</ele><time>2026-04-19T09:53:17.031Z</time></trkpt><trkpt lat="43.1796218" lon="11.683692"><ele>562.6666666666666</ele><time>2026-04-19T09:53:18.031Z</time></trkpt><trkpt lat="43.1795505" lon="11.6837166"><ele>567.0</ele><time>2026-04-19T09:53:19.03Z</time></trkpt><trkpt lat="43.1794885" lon="11.6837429"><ele>571.3333333333334</ele><time>2026-04-19T09:53:20.031Z</time></trkpt><trkpt lat="43.1794169" lon="11.6837719"><ele>575.6666666666667</ele><time>2026-04-19T09:53:22.031Z</time></trkpt><trkpt lat="43.1793092" lon="11.6837661"><ele>580.0</ele><time>2026-04-19T09:53:25.03Z</time></trkpt><trkpt lat="43.1791954" lon="11.683779"><ele>580.0</ele><time>2026-04-19T09:53:27.031Z</time></trkpt><trkpt lat="43.1791268" lon="11.6837972"><ele>580.0</ele><time>2026-04-19T09:53:28.031Z</time></trkpt><trkpt lat="43.1790027" lon="11.6838293"><ele>580.0</ele><time>2026-04-19T09:53:30.031Z</time></trkpt><trkpt lat="43.1788795" lon="11.6838769"><ele>580.0</ele><time>2026-04-19T09:53:32.031Z</time></trkpt><trkpt lat="43.1788073" lon="11.6839008"><ele>580.0</ele><time>2026-04-19T09:53:33.031Z</time></trkpt><trkpt lat="43.1787347" lon="11.6839347"><ele>579.5</ele><time>2026-04-19T09:53:34.031Z</time></trkpt><trkpt lat="43.1786607" lon="11.6839644"><ele>579.0</ele><time>2026-04-19T09:53:35.03Z</time></trkpt><trkpt lat="43.1785812" lon="11.6839969"><ele>578.5</ele><time>2026-04-19T09:53:36.031Z</time></trkpt><trkpt lat="43.1785005" lon="11.6840322"><ele>578.0</ele><time>2026-04-19T09:53:37.03Z</time></trkpt><trkpt lat="43.1784096" lon="11.6840678"><ele>577.5</ele><time>2026-04-19T09:53:38.031Z</time></trkpt><trkpt lat="43.1783137" lon="11.6841097"><ele>577.0</ele><time>2026-04-19T09:53:39.031Z</time></trkpt><trkpt lat="43.1782224" lon="11.6841455"><ele>574.6666666666667</ele><time>2026-04-19T09:53:40.031Z</time></trkpt><trkpt lat="43.1781547" lon="11.6841678"><ele>572.3333333333334</ele><time>2026-04-19T09:53:41.031Z</time></trkpt><trkpt lat="43.1780845" lon="11.6842062"><ele>570.0</ele><time>2026-04-19T09:53:44.031Z</time></trkpt><trkpt lat="43.1779882" lon="11.6842495"><ele>567.6666666666666</ele><time>2026-04-19T09:53:46.031Z</time></trkpt><trkpt lat="43.1779154" lon="11.6842788"><ele>565.3333333333333</ele><time>2026-04-19T09:53:47.031Z</time></trkpt><trkpt lat="43.1778344" lon="11.6843091"><ele>563.0</ele><time>2026-04-19T09:53:48.03Z</time></trkpt><trkpt lat="43.1777508" lon="11.6843509"><ele>563.0</ele><time>2026-04-19T09:53:49.03Z</time></trkpt><trkpt lat="43.1776708" lon="11.6843915"><ele>563.0</ele><time>2026-04-19T09:53:50.03Z</time></trkpt><trkpt lat="43.1775983" lon="11.6844402"><ele>563.0</ele><time>2026-04-19T09:53:51.031Z</time></trkpt><trkpt lat="43.1775239" lon="11.6844996"><ele>563.0</ele><time>2026-04-19T09:53:52.031Z</time></trkpt><trkpt lat="43.1774536" lon="11.6845733"><ele>563.0</ele><time>2026-04-19T09:53:53.03Z</time></trkpt><trkpt lat="43.1773865" lon="11.6846607"><ele>563.0</ele><time>2026-04-19T09:53:54.03Z</time></trkpt><trkpt lat="43.1773243" lon="11.6847477"><ele>562.8333333333333</ele><time>2026-04-19T09:53:55.031Z</time></trkpt><trkpt lat="43.1772647" lon="11.6848203"><ele>562.6666666666666</ele><time>2026-04-19T09:53:56.031Z</time></trkpt><trkpt lat="43.1772181" lon="11.6849067"><ele>562.5</ele><time>2026-04-19T09:53:57.03Z</time></trkpt><trkpt lat="43.1771837" lon="11.6850051"><ele>562.3333333333334</ele><time>2026-04-19T09:53:58.03Z</time></trkpt><trkpt lat="43.177142" lon="11.6851003"><ele>562.1666666666667</ele><time>2026-04-19T09:53:59.031Z</time></trkpt><trkpt lat="43.1770947" lon="11.6851875"><ele>562.0</ele><time>2026-04-19T09:54:00.03Z</time></trkpt><trkpt lat="43.1770455" lon="11.6852861"><ele>563.4</ele><time>2026-04-19T09:54:01.03Z</time></trkpt><trkpt lat="43.1769979" lon="11.6853928"><ele>564.8000000000001</ele><time>2026-04-19T09:54:02.031Z</time></trkpt><trkpt lat="43.1769586" lon="11.6855054"><ele>566.2</ele><time>2026-04-19T09:54:03.031Z</time></trkpt><trkpt lat="43.1769224" lon="11.6856054"><ele>567.6</ele><time>2026-04-19T09:54:04.031Z</time></trkpt><trkpt lat="43.1768568" lon="11.6857378"><ele>569.0</ele><time>2026-04-19T09:54:06.03Z</time></trkpt><trkpt lat="43.176797" lon="11.6858348"><ele>569.0</ele><time>2026-04-19T09:54:08.031Z</time></trkpt><trkpt lat="43.1767586" lon="11.6859142"><ele>569.0</ele><time>2026-04-19T09:54:10.03Z</time></trkpt><trkpt lat="43.1767176" lon="11.6859948"><ele>569.0</ele><time>2026-04-19T09:54:12.03Z</time></trkpt><trkpt lat="43.1766574" lon="11.6860744"><ele>569.0</ele><time>2026-04-19T09:54:14.03Z</time></trkpt><trkpt lat="43.1765572" lon="11.6861295"><ele>569.0</ele><time>2026-04-19T09:54:16.03Z</time></trkpt><trkpt lat="43.176485" lon="11.6861301"><ele>569.0</ele><time>2026-04-19T09:54:18.03Z</time></trkpt><trkpt lat="43.1764034" lon="11.6860642"><ele>564.0</ele><time>2026-04-19T09:54:21.03Z</time></trkpt><trkpt lat="43.1763624" lon="11.6859862"><ele>559.0</ele><time>2026-04-19T09:54:23.031Z</time></trkpt><trkpt lat="43.1763355" lon="11.6858844"><ele>554.0</ele><time>2026-04-19T09:54:25.03Z</time></trkpt><trkpt lat="43.1762858" lon="11.6857616"><ele>549.0</ele><time>2026-04-19T09:54:27.031Z</time></trkpt><trkpt lat="43.1762482" lon="11.6856253"><ele>544.0</ele><time>2026-04-19T09:54:29.03Z</time></trkpt><trkpt lat="43.1762039" lon="11.6855115"><ele>544.0</ele><time>2026-04-19T09:54:31.031Z</time></trkpt><trkpt lat="43.1761428" lon="11.6854637"><ele>544.0</ele><time>2026-04-19T09:54:33.031Z</time></trkpt><trkpt lat="43.176056" lon="11.6855104"><ele>544.0</ele><time>2026-04-19T09:54:36.031Z</time></trkpt><trkpt lat="43.1759972" lon="11.6855923"><ele>544.0</ele><time>2026-04-19T09:54:38.031Z</time></trkpt><trkpt lat="43.1759295" lon="11.6856837"><ele>544.0</ele><time>2026-04-19T09:54:40.031Z</time></trkpt><trkpt lat="43.1758755" lon="11.6857801"><ele>544.0</ele><time>2026-04-19T09:54:42.031Z</time></trkpt><trkpt lat="43.1758219" lon="11.6858616"><ele>544.0</ele><time>2026-04-19T09:54:44.031Z</time></trkpt><trkpt lat="43.1757532" lon="11.6859773"><ele>544.0</ele><time>2026-04-19T09:54:46.03Z</time></trkpt><trkpt lat="43.1757132" lon="11.6860445"><ele>544.0</ele><time>2026-04-19T09:54:47.031Z</time></trkpt><trkpt lat="43.1756234" lon="11.6861469"><ele>544.0</ele><time>2026-04-19T09:54:49.03Z</time></trkpt><trkpt lat="43.1755266" lon="11.6862651"><ele>544.0</ele><time>2026-04-19T09:54:51.03Z</time></trkpt><trkpt lat="43.1754809" lon="11.6863494"><ele>543.6</ele><time>2026-04-19T09:54:52.031Z</time></trkpt><trkpt lat="43.1754318" lon="11.6864169"><ele>543.2</ele><time>2026-04-19T09:54:53.03Z</time></trkpt><trkpt lat="43.1753377" lon="11.6864946"><ele>542.8000000000001</ele><time>2026-04-19T09:54:55.031Z</time></trkpt><trkpt lat="43.1752241" lon="11.686562"><ele>542.4</ele><time>2026-04-19T09:54:57.03Z</time></trkpt><trkpt lat="43.1751147" lon="11.6865773"><ele>542.0</ele><time>2026-04-19T09:54:59.03Z</time></trkpt><trkpt lat="43.1749948" lon="11.6865609"><ele>542.0</ele><time>2026-04-19T09:55:01.031Z</time></trkpt><trkpt lat="43.174928" lon="11.68656"><ele>542.0</ele><time>2026-04-19T09:55:02.031Z</time></trkpt><trkpt lat="43.1748491" lon="11.6865556"><ele>542.0</ele><time>2026-04-19T09:55:03.031Z</time></trkpt><trkpt lat="43.1747419" lon="11.6865586"><ele>542.0</ele><time>2026-04-19T09:55:04.031Z</time></trkpt><trkpt lat="43.1746218" lon="11.6865815"><ele>542.0</ele><time>2026-04-19T09:55:05.031Z</time></trkpt><trkpt lat="43.1745004" lon="11.6866014"><ele>542.0</ele><time>2026-04-19T09:55:06.03Z</time></trkpt><trkpt lat="43.174385" lon="11.6866092"><ele>542.0</ele><time>2026-04-19T09:55:07.031Z</time></trkpt><trkpt lat="43.1742878" lon="11.6866026"><ele>542.0</ele><time>2026-04-19T09:55:08.031Z</time></trkpt><trkpt lat="43.1741991" lon="11.6866034"><ele>542.0</ele><time>2026-04-19T09:55:09.031Z</time></trkpt><trkpt lat="43.1741214" lon="11.6866256"><ele>542.0</ele><time>2026-04-19T09:55:10.031Z</time></trkpt><trkpt lat="43.174062" lon="11.6866657"><ele>542.0</ele><time>2026-04-19T09:55:11.03Z</time></trkpt><trkpt lat="43.1740092" lon="11.686722"><ele>542.0</ele><time>2026-04-19T09:55:12.031Z</time></trkpt><trkpt lat="43.1739571" lon="11.6867912"><ele>542.0</ele><time>2026-04-19T09:55:13.031Z</time></trkpt><trkpt lat="43.1739133" lon="11.6868583"><ele>542.0</ele><time>2026-04-19T09:55:14.03Z</time></trkpt><trkpt lat="43.1738682" lon="11.6869294"><ele>542.0</ele><time>2026-04-19T09:55:16.031Z</time></trkpt><trkpt lat="43.1737968" lon="11.6869988"><ele>542.0</ele><time>2026-04-19T09:55:19.031Z</time></trkpt><trkpt lat="43.1737288" lon="11.6870803"><ele>542.0</ele><time>2026-04-19T09:55:22.03Z</time></trkpt><trkpt lat="43.173662" lon="11.6871396"><ele>544.1666666666666</ele><time>2026-04-19T09:55:24.031Z</time></trkpt><trkpt lat="43.1736016" lon="11.6872009"><ele>546.3333333333333</ele><time>2026-04-19T09:55:25.031Z</time></trkpt><trkpt lat="43.1735424" lon="11.6872718"><ele>548.5</ele><time>2026-04-19T09:55:26.03Z</time></trkpt><trkpt lat="43.1734844" lon="11.6873443"><ele>550.6666666666666</ele><time>2026-04-19T09:55:27.03Z</time></trkpt><trkpt lat="43.1734284" lon="11.6874173"><ele>552.8333333333334</ele><time>2026-04-19T09:55:28.031Z</time></trkpt><trkpt lat="43.1733649" lon="11.6874999"><ele>555.0</ele><time>2026-04-19T09:55:29.031Z</time></trkpt><trkpt lat="43.1733037" lon="11.6875665"><ele>555.0000000000001</ele><time>2026-04-19T09:55:30.031Z</time></trkpt><trkpt lat="43.1732518" lon="11.6876328"><ele>555.0</ele><time>2026-04-19T09:55:31.03Z</time></trkpt><trkpt lat="43.1732018" lon="11.6876929"><ele>555.0</ele><time>2026-04-19T09:55:32.031Z</time></trkpt><trkpt lat="43.1731475" lon="11.6877632"><ele>555.0</ele><time>2026-04-19T09:55:33.031Z</time></trkpt><trkpt lat="43.1730972" lon="11.6878378"><ele>555.0</ele><time>2026-04-19T09:55:34.03Z</time></trkpt><trkpt lat="43.1730504" lon="11.6878958"><ele>555.0000000000001</ele><time>2026-04-19T09:55:35.031Z</time></trkpt><trkpt lat="43.1729815" lon="11.6879891"><ele>555.0</ele><time>2026-04-19T09:55:37.03Z</time></trkpt><trkpt lat="43.1728984" lon="11.6881242"><ele>555.1428571428572</ele><time>2026-04-19T09:55:39.031Z</time></trkpt><trkpt lat="43.172855" lon="11.6881963"><ele>555.2857142857143</ele><time>2026-04-19T09:55:40.03Z</time></trkpt><trkpt lat="43.1728173" lon="11.6882699"><ele>555.4285714285714</ele><time>2026-04-19T09:55:41.031Z</time></trkpt><trkpt lat="43.172772" lon="11.6883467"><ele>555.5714285714287</ele><time>2026-04-19T09:55:42.03Z</time></trkpt><trkpt lat="43.1727354" lon="11.6884273"><ele>555.7142857142858</ele><time>2026-04-19T09:55:43.03Z</time></trkpt><trkpt lat="43.1727049" lon="11.6885092"><ele>555.8571428571429</ele><time>2026-04-19T09:55:44.032Z</time></trkpt><trkpt lat="43.1726352" lon="11.6886201"><ele>556.0</ele><time>2026-04-19T09:55:46.031Z</time></trkpt><trkpt lat="43.1725535" lon="11.688725"><ele>556.6</ele><time>2026-04-19T09:55:48.032Z</time></trkpt><trkpt lat="43.1724765" lon="11.6888117"><ele>557.2</ele><time>2026-04-19T09:55:50.031Z</time></trkpt><trkpt lat="43.1723983" lon="11.6889286"><ele>557.8</ele><time>2026-04-19T09:55:52.032Z</time></trkpt><trkpt lat="43.1723175" lon="11.6890349"><ele>558.4</ele><time>2026-04-19T09:55:54.032Z</time></trkpt><trkpt lat="43.1722075" lon="11.6890534"><ele>559.0</ele><time>2026-04-19T09:55:56.031Z</time></trkpt><trkpt lat="43.1721226" lon="11.6890471"><ele>559.4</ele><time>2026-04-19T09:55:57.031Z</time></trkpt><trkpt lat="43.1720403" lon="11.6890377"><ele>559.8</ele><time>2026-04-19T09:55:58.032Z</time></trkpt><trkpt lat="43.171954" lon="11.6890366"><ele>560.2</ele><time>2026-04-19T09:55:59.031Z</time></trkpt><trkpt lat="43.1718783" lon="11.6890528"><ele>560.6</ele><time>2026-04-19T09:56:00.031Z</time></trkpt><trkpt lat="43.1717691" lon="11.6890814"><ele>561.0</ele><time>2026-04-19T09:56:02.031Z</time></trkpt><trkpt lat="43.1716754" lon="11.6891411"><ele>561.0</ele><time>2026-04-19T09:56:04.031Z</time></trkpt><trkpt lat="43.1715533" lon="11.6892401"><ele>561.0</ele><time>2026-04-19T09:56:06.032Z</time></trkpt><trkpt lat="43.1714672" lon="11.6893094"><ele>561.0</ele><time>2026-04-19T09:56:07.031Z</time></trkpt><trkpt lat="43.1713747" lon="11.6893686"><ele>561.0</ele><time>2026-04-19T09:56:08.031Z</time></trkpt><trkpt lat="43.1712916" lon="11.6894048"><ele>561.0</ele><time>2026-04-19T09:56:09.032Z</time></trkpt><trkpt lat="43.1712237" lon="11.6894298"><ele>562.2</ele><time>2026-04-19T09:56:10.032Z</time></trkpt><trkpt lat="43.1711141" lon="11.6894822"><ele>563.4000000000001</ele><time>2026-04-19T09:56:12.031Z</time></trkpt><trkpt lat="43.1710096" lon="11.6895435"><ele>564.6</ele><time>2026-04-19T09:56:14.032Z</time></trkpt><trkpt lat="43.1708962" lon="11.6895846"><ele>565.8000000000001</ele><time>2026-04-19T09:56:16.032Z</time></trkpt><trkpt lat="43.1708337" lon="11.6895732"><ele>567.0</ele><time>2026-04-19T09:56:17.031Z</time></trkpt><trkpt lat="43.170766" lon="11.6895519"><ele>567.8333333333334</ele><time>2026-04-19T09:56:18.032Z</time></trkpt><trkpt lat="43.1706897" lon="11.6895227"><ele>568.6666666666666</ele><time>2026-04-19T09:56:19.032Z</time></trkpt><trkpt lat="43.1706057" lon="11.6894973"><ele>569.5</ele><time>2026-04-19T09:56:20.032Z</time></trkpt><trkpt lat="43.1705328" lon="11.6894907"><ele>570.3333333333333</ele><time>2026-04-19T09:56:21.032Z</time></trkpt><trkpt lat="43.1704688" lon="11.689486"><ele>571.1666666666666</ele><time>2026-04-19T09:56:22.031Z</time></trkpt><trkpt lat="43.1703979" lon="11.6894925"><ele>572.0</ele><time>2026-04-19T09:56:23.032Z</time></trkpt><trkpt lat="43.1703144" lon="11.6894939"><ele>572.0</ele><time>2026-04-19T09:56:24.031Z</time></trkpt><trkpt lat="43.1702273" lon="11.6894929"><ele>572.0</ele><time>2026-04-19T09:56:25.032Z</time></trkpt><trkpt lat="43.1701361" lon="11.6894924"><ele>572.0</ele><time>2026-04-19T09:56:26.032Z</time></trkpt><trkpt lat="43.1700466" lon="11.6895026"><ele>572.0</ele><time>2026-04-19T09:56:27.032Z</time></trkpt><trkpt lat="43.1699548" lon="11.6895413"><ele>572.0</ele><time>2026-04-19T09:56:28.032Z</time></trkpt><trkpt lat="43.169878" lon="11.6895969"><ele>571.0</ele><time>2026-04-19T09:56:29.032Z</time></trkpt><trkpt lat="43.1698098" lon="11.6896405"><ele>570.0</ele><time>2026-04-19T09:56:30.032Z</time></trkpt><trkpt lat="43.16974" lon="11.6896874"><ele>569.0</ele><time>2026-04-19T09:56:31.032Z</time></trkpt><trkpt lat="43.1696817" lon="11.6897326"><ele>568.0</ele><time>2026-04-19T09:56:32.031Z</time></trkpt><trkpt lat="43.1695834" lon="11.6898192"><ele>567.0</ele><time>2026-04-19T09:56:34.031Z</time></trkpt><trkpt lat="43.1695015" lon="11.6899183"><ele>566.0</ele><time>2026-04-19T09:56:36.032Z</time></trkpt><trkpt lat="43.169445" lon="11.6899663"><ele>566.0</ele><time>2026-04-19T09:56:37.032Z</time></trkpt><trkpt lat="43.1693763" lon="11.6900042"><ele>566.0</ele><time>2026-04-19T09:56:38.032Z</time></trkpt><trkpt lat="43.1693014" lon="11.6900407"><ele>566.0</ele><time>2026-04-19T09:56:39.032Z</time></trkpt><trkpt lat="43.1692182" lon="11.6900772"><ele>566.0</ele><time>2026-04-19T09:56:40.032Z</time></trkpt><trkpt lat="43.1691292" lon="11.6901005"><ele>566.0</ele><time>2026-04-19T09:56:41.031Z</time></trkpt><trkpt lat="43.1690438" lon="11.690119"><ele>566.0</ele><time>2026-04-19T09:56:42.032Z</time></trkpt><trkpt lat="43.1689642" lon="11.6901362"><ele>566.8333333333333</ele><time>2026-04-19T09:56:43.032Z</time></trkpt><trkpt lat="43.1688939" lon="11.6901437"><ele>567.6666666666666</ele><time>2026-04-19T09:56:44.031Z</time></trkpt><trkpt lat="43.1688282" lon="11.6901372"><ele>568.5</ele><time>2026-04-19T09:56:45.031Z</time></trkpt><trkpt lat="43.1687629" lon="11.6901129"><ele>569.3333333333334</ele><time>2026-04-19T09:56:46.032Z</time></trkpt><trkpt lat="43.1686553" lon="11.6900402"><ele>570.1666666666667</ele><time>2026-04-19T09:56:48.031Z</time></trkpt><trkpt lat="43.1685585" lon="11.6899734"><ele>571.0</ele><time>2026-04-19T09:56:50.031Z</time></trkpt><trkpt lat="43.1684599" lon="11.689887"><ele>571.0</ele><time>2026-04-19T09:56:52.032Z</time></trkpt><trkpt lat="43.1684058" lon="11.6898425"><ele>571.0</ele><time>2026-04-19T09:56:53.032Z</time></trkpt><trkpt lat="43.168338" lon="11.6898017"><ele>571.0</ele><time>2026-04-19T09:56:54.032Z</time></trkpt><trkpt lat="43.1682651" lon="11.6897618"><ele>571.0</ele><time>2026-04-19T09:56:55.032Z</time></trkpt><trkpt lat="43.1681919" lon="11.6897231"><ele>571.0</ele><time>2026-04-19T09:56:56.031Z</time></trkpt><trkpt lat="43.1681172" lon="11.689677"><ele>571.0</ele><time>2026-04-19T09:56:57.031Z</time></trkpt><trkpt lat="43.1680442" lon="11.6896229"><ele>570.8333333333334</ele><time>2026-04-19T09:56:58.032Z</time></trkpt><trkpt lat="43.1679726" lon="11.6895648"><ele>570.6666666666667</ele><time>2026-04-19T09:56:59.032Z</time></trkpt><trkpt lat="43.1678936" lon="11.6895083"><ele>570.5</ele><time>2026-04-19T09:57:00.032Z</time></trkpt><trkpt lat="43.167799" lon="11.6894613"><ele>570.3333333333334</ele><time>2026-04-19T09:57:01.032Z</time></trkpt><trkpt lat="43.1677113" lon="11.689424"><ele>570.1666666666666</ele><time>2026-04-19T09:57:02.032Z</time></trkpt><trkpt lat="43.1676294" lon="11.6894015"><ele>570.0</ele><time>2026-04-19T09:57:03.031Z</time></trkpt><trkpt lat="43.1675474" lon="11.6893758"><ele>570.0</ele><time>2026-04-19T09:57:04.032Z</time></trkpt><trkpt lat="43.1674688" lon="11.6893703"><ele>570.0</ele><time>2026-04-19T09:57:05.032Z</time></trkpt><trkpt lat="43.167394" lon="11.6893652"><ele>570.0</ele><time>2026-04-19T09:57:06.032Z</time></trkpt><trkpt lat="43.1673195" lon="11.6893521"><ele>570.0</ele><time>2026-04-19T09:57:07.032Z</time></trkpt><trkpt lat="43.1672472" lon="11.6893335"><ele>570.0</ele><time>2026-04-19T09:57:08.031Z</time></trkpt><trkpt lat="43.1671706" lon="11.6893171"><ele>570.0</ele><time>2026-04-19T09:57:09.032Z</time></trkpt><trkpt lat="43.1670968" lon="11.689295"><ele>570.0</ele><time>2026-04-19T09:57:10.031Z</time></trkpt><trkpt lat="43.1670259" lon="11.6892804"><ele>570.0</ele><time>2026-04-19T09:57:11.032Z</time></trkpt><trkpt lat="43.1669131" lon="11.6892385"><ele>570.0</ele><time>2026-04-19T09:57:13.031Z</time></trkpt><trkpt lat="43.166801" lon="11.6891781"><ele>570.0</ele><time>2026-04-19T09:57:15.031Z</time></trkpt><trkpt lat="43.1667403" lon="11.6891539"><ele>570.0</ele><time>2026-04-19T09:57:16.031Z</time></trkpt><trkpt lat="43.1666629" lon="11.6891258"><ele>570.0</ele><time>2026-04-19T09:57:17.032Z</time></trkpt><trkpt lat="43.1665888" lon="11.6890899"><ele>570.0</ele><time>2026-04-19T09:57:18.031Z</time></trkpt><trkpt lat="43.1665123" lon="11.6890676"><ele>570.0</ele><time>2026-04-19T09:57:19.031Z</time></trkpt><trkpt lat="43.1664402" lon="11.6890415"><ele>570.0</ele><time>2026-04-19T09:57:20.031Z</time></trkpt><trkpt lat="43.1663743" lon="11.6890076"><ele>570.0</ele><time>2026-04-19T09:57:21.031Z</time></trkpt><trkpt lat="43.1663076" lon="11.6889583"><ele>570.0</ele><time>2026-04-19T09:57:22.032Z</time></trkpt><trkpt lat="43.1662402" lon="11.6888966"><ele>570.6</ele><time>2026-04-19T09:57:23.031Z</time></trkpt><trkpt lat="43.1661641" lon="11.6888151"><ele>571.2</ele><time>2026-04-19T09:57:24.031Z</time></trkpt><trkpt lat="43.1660924" lon="11.6887356"><ele>571.8</ele><time>2026-04-19T09:57:25.031Z</time></trkpt><trkpt lat="43.1660211" lon="11.6886527"><ele>572.4</ele><time>2026-04-19T09:57:26.031Z</time></trkpt><trkpt lat="43.1659502" lon="11.6885744"><ele>573.0</ele><time>2026-04-19T09:57:27.032Z</time></trkpt><trkpt lat="43.1658845" lon="11.6884921"><ele>573.0</ele><time>2026-04-19T09:57:28.032Z</time></trkpt><trkpt lat="43.1658124" lon="11.6884177"><ele>573.0</ele><time>2026-04-19T09:57:29.032Z</time></trkpt><trkpt lat="43.1657468" lon="11.6883559"><ele>573.0</ele><time>2026-04-19T09:57:30.032Z</time></trkpt><trkpt lat="43.1656892" lon="11.6883093"><ele>573.0</ele><time>2026-04-19T09:57:31.031Z</time></trkpt><trkpt lat="43.1655973" lon="11.6882608"><ele>573.0</ele><time>2026-04-19T09:57:33.031Z</time></trkpt><trkpt lat="43.1654945" lon="11.6881776"><ele>573.4</ele><time>2026-04-19T09:57:35.031Z</time></trkpt><trkpt lat="43.1654368" lon="11.6881133"><ele>573.8</ele><time>2026-04-19T09:57:36.032Z</time></trkpt><trkpt lat="43.1653424" lon="11.6880599"><ele>574.2</ele><time>2026-04-19T09:57:38.031Z</time></trkpt><trkpt lat="43.1652236" lon="11.688149"><ele>574.6</ele><time>2026-04-19T09:57:40.031Z</time></trkpt><trkpt lat="43.1651615" lon="11.6882285"><ele>575.0</ele><time>2026-04-19T09:57:41.031Z</time></trkpt><trkpt lat="43.1650958" lon="11.6883094"><ele>575.0</ele><time>2026-04-19T09:57:42.031Z</time></trkpt><trkpt lat="43.1650176" lon="11.6883846"><ele>575.0</ele><time>2026-04-19T09:57:43.031Z</time></trkpt><trkpt lat="43.1649434" lon="11.6884535"><ele>575.0</ele><time>2026-04-19T09:57:44.032Z</time></trkpt><trkpt lat="43.1648717" lon="11.6885059"><ele>575.0</ele><time>2026-04-19T09:57:45.032Z</time></trkpt><trkpt lat="43.1648075" lon="11.6885467"><ele>575.0</ele><time>2026-04-19T09:57:46.032Z</time></trkpt><trkpt lat="43.1647393" lon="11.6885878"><ele>575.0</ele><time>2026-04-19T09:57:47.032Z</time></trkpt><trkpt lat="43.1646799" lon="11.6886255"><ele>574.2</ele><time>2026-04-19T09:57:48.031Z</time></trkpt><trkpt lat="43.1645563" lon="11.6886689"><ele>573.4</ele><time>2026-04-19T09:57:50.032Z</time></trkpt><trkpt lat="43.1644868" lon="11.6886805"><ele>572.6</ele><time>2026-04-19T09:57:51.032Z</time></trkpt><trkpt lat="43.1644212" lon="11.6886738"><ele>571.8</ele><time>2026-04-19T09:57:52.032Z</time></trkpt><trkpt lat="43.1643568" lon="11.688671"><ele>571.0</ele><time>2026-04-19T09:57:53.032Z</time></trkpt><trkpt lat="43.1642367" lon="11.6887061"><ele>571.0</ele><time>2026-04-19T09:57:55.032Z</time></trkpt><trkpt lat="43.1641887" lon="11.6887624"><ele>571.0</ele><time>2026-04-19T09:57:56.032Z</time></trkpt><trkpt lat="43.1641189" lon="11.6888847"><ele>571.0</ele><time>2026-04-19T09:57:58.032Z</time></trkpt><trkpt lat="43.16408" lon="11.6889912"><ele>571.0</ele><time>2026-04-19T09:58:00.032Z</time></trkpt><trkpt lat="43.1640521" lon="11.6891194"><ele>571.0</ele><time>2026-04-19T09:58:02.032Z</time></trkpt><trkpt lat="43.1639991" lon="11.6892703"><ele>569.2</ele><time>2026-04-19T09:58:04.032Z</time></trkpt><trkpt lat="43.163892" lon="11.6893527"><ele>567.4000000000001</ele><time>2026-04-19T09:58:06.031Z</time></trkpt><trkpt lat="43.163812" lon="11.6893647"><ele>565.6</ele><time>2026-04-19T09:58:07.031Z</time></trkpt><trkpt lat="43.1637118" lon="11.6893616"><ele>563.8000000000001</ele><time>2026-04-19T09:58:08.032Z</time></trkpt><trkpt lat="43.163611" lon="11.689353"><ele>562.0</ele><time>2026-04-19T09:58:09.032Z</time></trkpt><trkpt lat="43.1634961" lon="11.6893106"><ele>562.0</ele><time>2026-04-19T09:58:10.032Z</time></trkpt><trkpt lat="43.1633678" lon="11.6892525"><ele>562.0</ele><time>2026-04-19T09:58:11.031Z</time></trkpt><trkpt lat="43.1632338" lon="11.6891904"><ele>562.0</ele><time>2026-04-19T09:58:12.031Z</time></trkpt><trkpt lat="43.1631056" lon="11.6891353"><ele>562.0</ele><time>2026-04-19T09:58:13.031Z</time></trkpt><trkpt lat="43.1629788" lon="11.6890751"><ele>562.5</ele><time>2026-04-19T09:58:14.031Z</time></trkpt><trkpt lat="43.1628509" lon="11.6890098"><ele>563.0</ele><time>2026-04-19T09:58:15.031Z</time></trkpt><trkpt lat="43.1627253" lon="11.6889416"><ele>563.5</ele><time>2026-04-19T09:58:16.032Z</time></trkpt><trkpt lat="43.1625993" lon="11.6888732"><ele>564.0</ele><time>2026-04-19T09:58:17.032Z</time></trkpt><trkpt lat="43.1624852" lon="11.6888023"><ele>564.0</ele><time>2026-04-19T09:58:18.031Z</time></trkpt><trkpt lat="43.1623782" lon="11.6887435"><ele>564.0</ele><time>2026-04-19T09:58:19.032Z</time></trkpt><trkpt lat="43.1622739" lon="11.6887097"><ele>564.0</ele><time>2026-04-19T09:58:20.032Z</time></trkpt><trkpt lat="43.1621561" lon="11.6886955"><ele>564.0</ele><time>2026-04-19T09:58:21.032Z</time></trkpt><trkpt lat="43.1620237" lon="11.6887024"><ele>565.0</ele><time>2026-04-19T09:58:22.031Z</time></trkpt><trkpt lat="43.1618729" lon="11.6886948"><ele>566.0</ele><time>2026-04-19T09:58:23.032Z</time></trkpt><trkpt lat="43.1617116" lon="11.6886709"><ele>567.0</ele><time>2026-04-19T09:58:24.032Z</time></trkpt><trkpt lat="43.1615499" lon="11.6886299"><ele>563.0</ele><time>2026-04-19T09:58:25.032Z</time></trkpt><trkpt lat="43.1614048" lon="11.6885853"><ele>559.0</ele><time>2026-04-19T09:58:26.032Z</time></trkpt><trkpt lat="43.1612688" lon="11.6885506"><ele>555.0</ele><time>2026-04-19T09:58:27.032Z</time></trkpt><trkpt lat="43.1611599" lon="11.6885198"><ele>551.0</ele><time>2026-04-19T09:58:28.032Z</time></trkpt><trkpt lat="43.161064" lon="11.6884943"><ele>551.0</ele><time>2026-04-19T09:58:29.032Z</time></trkpt><trkpt lat="43.1609659" lon="11.6884472"><ele>551.0</ele><time>2026-04-19T09:58:30.032Z</time></trkpt><trkpt lat="43.1608759" lon="11.68837"><ele>551.0</ele><time>2026-04-19T09:58:31.031Z</time></trkpt><trkpt lat="43.160793" lon="11.6882641"><ele>551.0</ele><time>2026-04-19T09:58:32.032Z</time></trkpt><trkpt lat="43.1607205" lon="11.688124"><ele>551.0</ele><time>2026-04-19T09:58:33.031Z</time></trkpt><trkpt lat="43.16066" lon="11.6879782"><ele>550.5</ele><time>2026-04-19T09:58:34.031Z</time></trkpt><trkpt lat="43.1606008" lon="11.6878269"><ele>550.0</ele><time>2026-04-19T09:58:35.031Z</time></trkpt><trkpt lat="43.1605543" lon="11.6876731"><ele>549.5</ele><time>2026-04-19T09:58:36.031Z</time></trkpt><trkpt lat="43.1605143" lon="11.6875384"><ele>549.0</ele><time>2026-04-19T09:58:37.032Z</time></trkpt><trkpt lat="43.1604706" lon="11.6874142"><ele>547.0</ele><time>2026-04-19T09:58:38.031Z</time></trkpt><trkpt lat="43.160404" lon="11.6872995"><ele>545.0</ele><time>2026-04-19T09:58:39.032Z</time></trkpt><trkpt lat="43.1603106" lon="11.6871939"><ele>543.0</ele><time>2026-04-19T09:58:40.032Z</time></trkpt><trkpt lat="43.1601957" lon="11.6870879"><ele>541.0</ele><time>2026-04-19T09:58:41.032Z</time></trkpt><trkpt lat="43.1600534" lon="11.6869777"><ele>540.0</ele><time>2026-04-19T09:58:42.032Z</time></trkpt><trkpt lat="43.1599081" lon="11.6868708"><ele>539.0</ele><time>2026-04-19T09:58:43.032Z</time></trkpt><trkpt lat="43.1597689" lon="11.6867654"><ele>538.0</ele><time>2026-04-19T09:58:44.031Z</time></trkpt><trkpt lat="43.1596296" lon="11.6866816"><ele>540.0</ele><time>2026-04-19T09:58:45.031Z</time></trkpt><trkpt lat="43.1594717" lon="11.686595"><ele>542.0</ele><time>2026-04-19T09:58:46.032Z</time></trkpt><trkpt lat="43.1592919" lon="11.6865262"><ele>544.0</ele><time>2026-04-19T09:58:47.031Z</time></trkpt><trkpt lat="43.1591135" lon="11.6864697"><ele>543.75</ele><time>2026-04-19T09:58:48.032Z</time></trkpt><trkpt lat="43.1589536" lon="11.686413"><ele>543.5</ele><time>2026-04-19T09:58:49.031Z</time></trkpt><trkpt lat="43.1588047" lon="11.6863771"><ele>543.25</ele><time>2026-04-19T09:58:50.031Z</time></trkpt><trkpt lat="43.1586901" lon="11.686358"><ele>543.0</ele><time>2026-04-19T09:58:51.032Z</time></trkpt><trkpt lat="43.1585863" lon="11.6863691"><ele>543.0</ele><time>2026-04-19T09:58:52.032Z</time></trkpt><trkpt lat="43.1584781" lon="11.6864102"><ele>543.0</ele><time>2026-04-19T09:58:53.032Z</time></trkpt><trkpt lat="43.1583521" lon="11.6864537"><ele>543.0</ele><time>2026-04-19T09:58:54.031Z</time></trkpt><trkpt lat="43.158207" lon="11.6865178"><ele>543.0</ele><time>2026-04-19T09:58:55.031Z</time></trkpt><trkpt lat="43.1580501" lon="11.6865918"><ele>541.3333333333334</ele><time>2026-04-19T09:58:56.032Z</time></trkpt><trkpt lat="43.1578927" lon="11.686666"><ele>539.6666666666667</ele><time>2026-04-19T09:58:57.031Z</time></trkpt><trkpt lat="43.15774" lon="11.6867496"><ele>538.0</ele><time>2026-04-19T09:58:58.032Z</time></trkpt><trkpt lat="43.1575656" lon="11.6868044"><ele>538.0</ele><time>2026-04-19T09:58:59.031Z</time></trkpt><trkpt lat="43.157387" lon="11.6868494"><ele>538.0</ele><time>2026-04-19T09:59:00.032Z</time></trkpt><trkpt lat="43.1572093" lon="11.6868811"><ele>538.0</ele><time>2026-04-19T09:59:01.031Z</time></trkpt><trkpt lat="43.1570296" lon="11.6869008"><ele>536.0</ele><time>2026-04-19T09:59:02.032Z</time></trkpt><trkpt lat="43.1568562" lon="11.6869012"><ele>534.0</ele><time>2026-04-19T09:59:03.032Z</time></trkpt><trkpt lat="43.1566862" lon="11.6868837"><ele>532.0</ele><time>2026-04-19T09:59:04.031Z</time></trkpt><trkpt lat="43.1565141" lon="11.686872"><ele>531.5</ele><time>2026-04-19T09:59:05.032Z</time></trkpt><trkpt lat="43.1563531" lon="11.686863"><ele>531.0</ele><time>2026-04-19T09:59:06.032Z</time></trkpt><trkpt lat="43.1562045" lon="11.6868646"><ele>530.5</ele><time>2026-04-19T09:59:07.031Z</time></trkpt><trkpt lat="43.1560702" lon="11.6868738"><ele>530.0</ele><time>2026-04-19T09:59:08.032Z</time></trkpt><trkpt lat="43.1559352" lon="11.6869028"><ele>529.0</ele><time>2026-04-19T09:59:09.031Z</time></trkpt><trkpt lat="43.1557883" lon="11.68696"><ele>528.0</ele><time>2026-04-19T09:59:10.031Z</time></trkpt><trkpt lat="43.1556377" lon="11.6870221"><ele>527.0</ele><time>2026-04-19T09:59:11.031Z</time></trkpt><trkpt lat="43.1554695" lon="11.687098"><ele>529.0</ele><time>2026-04-19T09:59:12.031Z</time></trkpt><trkpt lat="43.1553059" lon="11.6871621"><ele>531.0</ele><time>2026-04-19T09:59:13.031Z</time></trkpt><trkpt lat="43.1551533" lon="11.6872264"><ele>533.0</ele><time>2026-04-19T09:59:14.032Z</time></trkpt><trkpt lat="43.1550035" lon="11.6872829"><ele>534.5</ele><time>2026-04-19T09:59:15.032Z</time></trkpt><trkpt lat="43.154858" lon="11.6873358"><ele>536.0</ele><time>2026-04-19T09:59:16.031Z</time></trkpt><trkpt lat="43.1547313" lon="11.6873829"><ele>537.5</ele><time>2026-04-19T09:59:17.032Z</time></trkpt><trkpt lat="43.1546052" lon="11.6874326"><ele>539.0</ele><time>2026-04-19T09:59:18.031Z</time></trkpt><trkpt lat="43.1544858" lon="11.6874804"><ele>539.0</ele><time>2026-04-19T09:59:19.032Z</time></trkpt><trkpt lat="43.1543672" lon="11.6875144"><ele>539.0</ele><time>2026-04-19T09:59:20.032Z</time></trkpt><trkpt lat="43.1542533" lon="11.6875367"><ele>539.0</ele><time>2026-04-19T09:59:21.032Z</time></trkpt><trkpt lat="43.1541437" lon="11.6875436"><ele>539.0</ele><time>2026-04-19T09:59:22.031Z</time></trkpt><trkpt lat="43.1540312" lon="11.6875309"><ele>538.6</ele><time>2026-04-19T09:59:23.031Z</time></trkpt><trkpt lat="43.1539188" lon="11.6875208"><ele>538.2</ele><time>2026-04-19T09:59:24.032Z</time></trkpt><trkpt lat="43.153814" lon="11.6875073"><ele>537.8000000000001</ele><time>2026-04-19T09:59:25.032Z</time></trkpt><trkpt lat="43.1537151" lon="11.6875"><ele>537.4</ele><time>2026-04-19T09:59:26.032Z</time></trkpt><trkpt lat="43.1536155" lon="11.6874924"><ele>537.0</ele><time>2026-04-19T09:59:27.032Z</time></trkpt><trkpt lat="43.1535231" lon="11.6875022"><ele>537.0</ele><time>2026-04-19T09:59:28.032Z</time></trkpt><trkpt lat="43.1534335" lon="11.6875282"><ele>537.0</ele><time>2026-04-19T09:59:29.032Z</time></trkpt><trkpt lat="43.1533346" lon="11.6875789"><ele>537.0</ele><time>2026-04-19T09:59:30.031Z</time></trkpt><trkpt lat="43.1532376" lon="11.6876322"><ele>537.0</ele><time>2026-04-19T09:59:31.032Z</time></trkpt><trkpt lat="43.1531471" lon="11.6876762"><ele>537.0</ele><time>2026-04-19T09:59:32.031Z</time></trkpt><trkpt lat="43.1530765" lon="11.6877055"><ele>534.1666666666666</ele><time>2026-04-19T09:59:33.032Z</time></trkpt><trkpt lat="43.1530183" lon="11.6877434"><ele>531.3333333333334</ele><time>2026-04-19T09:59:34.031Z</time></trkpt><trkpt lat="43.1529226" lon="11.687813"><ele>528.5</ele><time>2026-04-19T09:59:36.032Z</time></trkpt><trkpt lat="43.1528403" lon="11.687828"><ele>525.6666666666667</ele><time>2026-04-19T09:59:38.031Z</time></trkpt><trkpt lat="43.1527455" lon="11.6877815"><ele>522.8333333333334</ele><time>2026-04-19T09:59:40.032Z</time></trkpt><trkpt lat="43.1526917" lon="11.6876922"><ele>520.0</ele><time>2026-04-19T09:59:41.032Z</time></trkpt><trkpt lat="43.1526264" lon="11.6875555"><ele>520.0</ele><time>2026-04-19T09:59:42.032Z</time></trkpt><trkpt lat="43.1525577" lon="11.6874135"><ele>520.0</ele><time>2026-04-19T09:59:43.031Z</time></trkpt><trkpt lat="43.1524983" lon="11.6872825"><ele>520.0</ele><time>2026-04-19T09:59:44.031Z</time></trkpt><trkpt lat="43.1524387" lon="11.6871675"><ele>520.0</ele><time>2026-04-19T09:59:45.031Z</time></trkpt><trkpt lat="43.1523864" lon="11.6870728"><ele>520.0</ele><time>2026-04-19T09:59:46.032Z</time></trkpt><trkpt lat="43.1523364" lon="11.6869785"><ele>517.4</ele><time>2026-04-19T09:59:47.032Z</time></trkpt><trkpt lat="43.1522843" lon="11.6868939"><ele>514.8</ele><time>2026-04-19T09:59:48.031Z</time></trkpt><trkpt lat="43.1522175" lon="11.6868246"><ele>512.2</ele><time>2026-04-19T09:59:49.031Z</time></trkpt><trkpt lat="43.1521124" lon="11.6867845"><ele>509.6</ele><time>2026-04-19T09:59:50.031Z</time></trkpt><trkpt lat="43.1519931" lon="11.6867485"><ele>507.0</ele><time>2026-04-19T09:59:51.032Z</time></trkpt><trkpt lat="43.1518818" lon="11.6867329"><ele>507.0</ele><time>2026-04-19T09:59:52.031Z</time></trkpt><trkpt lat="43.1517824" lon="11.6867115"><ele>507.0</ele><time>2026-04-19T09:59:53.031Z</time></trkpt><trkpt lat="43.1516989" lon="11.6866942"><ele>507.0</ele><time>2026-04-19T09:59:54.031Z</time></trkpt><trkpt lat="43.1516144" lon="11.6866965"><ele>507.0</ele><time>2026-04-19T09:59:55.032Z</time></trkpt><trkpt lat="43.1515399" lon="11.6867283"><ele>507.0</ele><time>2026-04-19T09:59:56.032Z</time></trkpt><trkpt lat="43.1514523" lon="11.6867896"><ele>507.0</ele><time>2026-04-19T09:59:57.031Z</time></trkpt><trkpt lat="43.1513326" lon="11.6868729"><ele>503.66666666666663</ele><time>2026-04-19T09:59:58.032Z</time></trkpt><trkpt lat="43.1512003" lon="11.6869571"><ele>500.3333333333333</ele><time>2026-04-19T09:59:59.031Z</time></trkpt><trkpt lat="43.1510625" lon="11.6870385"><ele>497.0</ele><time>2026-04-19T10:00:00.032Z</time></trkpt><trkpt lat="43.150913" lon="11.6871469"><ele>497.0</ele><time>2026-04-19T10:00:01.031Z</time></trkpt><trkpt lat="43.1507543" lon="11.687288"><ele>497.0</ele><time>2026-04-19T10:00:02.031Z</time></trkpt><trkpt lat="43.150603" lon="11.6874276"><ele>497.0</ele><time>2026-04-19T10:00:03.032Z</time></trkpt><trkpt lat="43.1504557" lon="11.687566"><ele>495.0</ele><time>2026-04-19T10:00:04.032Z</time></trkpt><trkpt lat="43.1503164" lon="11.6876935"><ele>493.0</ele><time>2026-04-19T10:00:05.032Z</time></trkpt><trkpt lat="43.1501774" lon="11.6878138"><ele>491.0</ele><time>2026-04-19T10:00:06.032Z</time></trkpt><trkpt lat="43.1500246" lon="11.6879324"><ele>489.0</ele><time>2026-04-19T10:00:07.032Z</time></trkpt><trkpt lat="43.1498558" lon="11.6880437"><ele>487.0</ele><time>2026-04-19T10:00:08.032Z</time></trkpt><trkpt lat="43.1496879" lon="11.6881455"><ele>485.0</ele><time>2026-04-19T10:00:09.032Z</time></trkpt><trkpt lat="43.1495235" lon="11.6882547"><ele>485.0</ele><time>2026-04-19T10:00:10.031Z</time></trkpt><trkpt lat="43.1493496" lon="11.6883731"><ele>485.0</ele><time>2026-04-19T10:00:11.032Z</time></trkpt><trkpt lat="43.1491638" lon="11.6885021"><ele>485.0</ele><time>2026-04-19T10:00:12.032Z</time></trkpt><trkpt lat="43.1489825" lon="11.6886325"><ele>485.3333333333333</ele><time>2026-04-19T10:00:13.031Z</time></trkpt><trkpt lat="43.1488133" lon="11.6887583"><ele>485.66666666666663</ele><time>2026-04-19T10:00:14.031Z</time></trkpt><trkpt lat="43.1486588" lon="11.6888762"><ele>486.0</ele><time>2026-04-19T10:00:15.031Z</time></trkpt><trkpt lat="43.148515" lon="11.6889813"><ele>486.0</ele><time>2026-04-19T10:00:16.031Z</time></trkpt><trkpt lat="43.1483809" lon="11.6890773"><ele>486.0</ele><time>2026-04-19T10:00:17.032Z</time></trkpt><trkpt lat="43.1482454" lon="11.6891448"><ele>486.0</ele><time>2026-04-19T10:00:18.032Z</time></trkpt><trkpt lat="43.14812" lon="11.6891891"><ele>486.0</ele><time>2026-04-19T10:00:19.032Z</time></trkpt><trkpt lat="43.1479924" lon="11.6892044"><ele>486.66666666666663</ele><time>2026-04-19T10:00:20.031Z</time></trkpt><trkpt lat="43.1478527" lon="11.6892142"><ele>487.3333333333333</ele><time>2026-04-19T10:00:21.032Z</time></trkpt><trkpt lat="43.1476944" lon="11.6892308"><ele>488.0</ele><time>2026-04-19T10:00:22.032Z</time></trkpt><trkpt lat="43.1475256" lon="11.6892478"><ele>488.0</ele><time>2026-04-19T10:00:23.031Z</time></trkpt><trkpt lat="43.1473425" lon="11.6892702"><ele>488.0</ele><time>2026-04-19T10:00:24.032Z</time></trkpt><trkpt lat="43.1471614" lon="11.6892895"><ele>488.0</ele><time>2026-04-19T10:00:25.032Z</time></trkpt><trkpt lat="43.1469938" lon="11.6893097"><ele>488.0</ele><time>2026-04-19T10:00:26.032Z</time></trkpt><trkpt lat="43.1468425" lon="11.6893288"><ele>488.0</ele><time>2026-04-19T10:00:27.031Z</time></trkpt><trkpt lat="43.1467003" lon="11.6893454"><ele>488.0</ele><time>2026-04-19T10:00:28.031Z</time></trkpt><trkpt lat="43.1465623" lon="11.6893506"><ele>488.0</ele><time>2026-04-19T10:00:29.031Z</time></trkpt><trkpt lat="43.1464085" lon="11.6893553"><ele>489.3333333333333</ele><time>2026-04-19T10:00:30.031Z</time></trkpt><trkpt lat="43.1462452" lon="11.6893647"><ele>490.66666666666663</ele><time>2026-04-19T10:00:31.032Z</time></trkpt><trkpt lat="43.1460929" lon="11.689381"><ele>492.0</ele><time>2026-04-19T10:00:32.031Z</time></trkpt><trkpt lat="43.1459591" lon="11.6894027"><ele>490.25</ele><time>2026-04-19T10:00:33.031Z</time></trkpt><trkpt lat="43.1458356" lon="11.6894384"><ele>488.5</ele><time>2026-04-19T10:00:34.032Z</time></trkpt><trkpt lat="43.1457224" lon="11.6894927"><ele>486.75</ele><time>2026-04-19T10:00:35.031Z</time></trkpt><trkpt lat="43.1456187" lon="11.6895671"><ele>485.0</ele><time>2026-04-19T10:00:36.031Z</time></trkpt><trkpt lat="43.1455158" lon="11.6896504"><ele>484.75</ele><time>2026-04-19T10:00:37.032Z</time></trkpt><trkpt lat="43.1454162" lon="11.6897283"><ele>484.5</ele><time>2026-04-19T10:00:38.032Z</time></trkpt><trkpt lat="43.1453184" lon="11.6897835"><ele>484.25</ele><time>2026-04-19T10:00:39.032Z</time></trkpt><trkpt lat="43.1452141" lon="11.6898148"><ele>484.0</ele><time>2026-04-19T10:00:40.032Z</time></trkpt><trkpt lat="43.1450785" lon="11.6898323"><ele>484.0</ele><time>2026-04-19T10:00:41.032Z</time></trkpt><trkpt lat="43.144936" lon="11.6898524"><ele>484.0</ele><time>2026-04-19T10:00:42.032Z</time></trkpt><trkpt lat="43.1447957" lon="11.6898644"><ele>484.0</ele><time>2026-04-19T10:00:43.032Z</time></trkpt><trkpt lat="43.144654" lon="11.6898743"><ele>484.0</ele><time>2026-04-19T10:00:44.032Z</time></trkpt><trkpt lat="43.1445133" lon="11.6898919"><ele>482.5</ele><time>2026-04-19T10:00:45.031Z</time></trkpt><trkpt lat="43.1443747" lon="11.6899078"><ele>481.0</ele><time>2026-04-19T10:00:46.032Z</time></trkpt><trkpt lat="43.1442469" lon="11.6899231"><ele>479.5</ele><time>2026-04-19T10:00:47.032Z</time></trkpt><trkpt lat="43.1441348" lon="11.6899377"><ele>478.0</ele><time>2026-04-19T10:00:48.031Z</time></trkpt><trkpt lat="43.1440336" lon="11.689954"><ele>475.00000000000006</ele><time>2026-04-19T10:00:49.032Z</time></trkpt><trkpt lat="43.1439511" lon="11.6899635"><ele>472.0</ele><time>2026-04-19T10:00:50.032Z</time></trkpt><trkpt lat="43.1438727" lon="11.6899521"><ele>469.0</ele><time>2026-04-19T10:00:51.031Z</time></trkpt><trkpt lat="43.1437939" lon="11.6899163"><ele>466.0</ele><time>2026-04-19T10:00:52.032Z</time></trkpt><trkpt lat="43.1437103" lon="11.6898504"><ele>463.00000000000006</ele><time>2026-04-19T10:00:53.031Z</time></trkpt><trkpt lat="43.1436232" lon="11.6897736"><ele>460.0</ele><time>2026-04-19T10:00:54.032Z</time></trkpt><trkpt lat="43.1435383" lon="11.6896812"><ele>460.0</ele><time>2026-04-19T10:00:55.031Z</time></trkpt><trkpt lat="43.1434496" lon="11.689571"><ele>460.0</ele><time>2026-04-19T10:00:56.031Z</time></trkpt><trkpt lat="43.1433606" lon="11.6894501"><ele>460.0</ele><time>2026-04-19T10:00:57.031Z</time></trkpt><trkpt lat="43.1432739" lon="11.6893216"><ele>460.0</ele><time>2026-04-19T10:00:58.032Z</time></trkpt><trkpt lat="43.143195" lon="11.6892075"><ele>460.6</ele><time>2026-04-19T10:00:59.032Z</time></trkpt><trkpt lat="43.1431182" lon="11.6891045"><ele>461.2</ele><time>2026-04-19T10:01:00.031Z</time></trkpt><trkpt lat="43.1430329" lon="11.6890131"><ele>461.79999999999995</ele><time>2026-04-19T10:01:01.031Z</time></trkpt><trkpt lat="43.1429413" lon="11.6889391"><ele>462.4</ele><time>2026-04-19T10:01:02.031Z</time></trkpt><trkpt lat="43.1428355" lon="11.6888671"><ele>463.0</ele><time>2026-04-19T10:01:03.032Z</time></trkpt><trkpt lat="43.1427227" lon="11.6888205"><ele>463.0</ele><time>2026-04-19T10:01:04.031Z</time></trkpt><trkpt lat="43.1426083" lon="11.688779"><ele>462.99999999999994</ele><time>2026-04-19T10:01:05.032Z</time></trkpt><trkpt lat="43.1424956" lon="11.6887374"><ele>462.99999999999994</ele><time>2026-04-19T10:01:06.031Z</time></trkpt><trkpt lat="43.1423929" lon="11.6886818"><ele>463.0</ele><time>2026-04-19T10:01:07.031Z</time></trkpt><trkpt lat="43.1423043" lon="11.688632"><ele>463.0</ele><time>2026-04-19T10:01:08.031Z</time></trkpt><trkpt lat="43.1422351" lon="11.6885923"><ele>462.59999999999997</ele><time>2026-04-19T10:01:09.032Z</time></trkpt><trkpt lat="43.142131" lon="11.6885586"><ele>462.19999999999993</ele><time>2026-04-19T10:01:11.032Z</time></trkpt><trkpt lat="43.1420649" lon="11.6885976"><ele>461.8</ele><time>2026-04-19T10:01:15.032Z</time></trkpt><trkpt lat="43.1420558" lon="11.6887291"><ele>461.4</ele><time>2026-04-19T10:01:17.032Z</time></trkpt><trkpt lat="43.1420227" lon="11.6888642"><ele>461.0</ele><time>2026-04-19T10:01:19.031Z</time></trkpt><trkpt lat="43.1418961" lon="11.68893"><ele>461.0</ele><time>2026-04-19T10:01:21.032Z</time></trkpt><trkpt lat="43.1417972" lon="11.6889495"><ele>461.0</ele><time>2026-04-19T10:01:22.032Z</time></trkpt><trkpt lat="43.1416862" lon="11.6889676"><ele>461.0</ele><time>2026-04-19T10:01:23.032Z</time></trkpt><trkpt lat="43.141575" lon="11.6889566"><ele>461.0</ele><time>2026-04-19T10:01:24.031Z</time></trkpt><trkpt lat="43.1414523" lon="11.6888765"><ele>462.3333333333333</ele><time>2026-04-19T10:01:25.031Z</time></trkpt><trkpt lat="43.1413112" lon="11.6887797"><ele>463.66666666666663</ele><time>2026-04-19T10:01:26.031Z</time></trkpt><trkpt lat="43.1411734" lon="11.6886589"><ele>465.0</ele><time>2026-04-19T10:01:27.032Z</time></trkpt><trkpt lat="43.1410491" lon="11.6885427"><ele>463.5</ele><time>2026-04-19T10:01:28.032Z</time></trkpt><trkpt lat="43.1409373" lon="11.6884409"><ele>462.0</ele><time>2026-04-19T10:01:29.031Z</time></trkpt><trkpt lat="43.1408418" lon="11.6883498"><ele>460.5</ele><time>2026-04-19T10:01:30.031Z</time></trkpt><trkpt lat="43.1407544" lon="11.6882624"><ele>459.0</ele><time>2026-04-19T10:01:31.032Z</time></trkpt><trkpt lat="43.1406786" lon="11.6881824"><ele>459.0</ele><time>2026-04-19T10:01:32.031Z</time></trkpt><trkpt lat="43.1406147" lon="11.6881017"><ele>459.0</ele><time>2026-04-19T10:01:33.032Z</time></trkpt><trkpt lat="43.1405594" lon="11.6879985"><ele>459.0</ele><time>2026-04-19T10:01:34.032Z</time></trkpt><trkpt lat="43.1405054" lon="11.687871"><ele>459.0</ele><time>2026-04-19T10:01:35.032Z</time></trkpt><trkpt lat="43.1404602" lon="11.6877282"><ele>459.0</ele><time>2026-04-19T10:01:36.032Z</time></trkpt><trkpt lat="43.1404286" lon="11.6876001"><ele>457.4</ele><time>2026-04-19T10:01:37.031Z</time></trkpt><trkpt lat="43.1404236" lon="11.6874783"><ele>455.79999999999995</ele><time>2026-04-19T10:01:38.032Z</time></trkpt><trkpt lat="43.1404421" lon="11.6873417"><ele>454.20000000000005</ele><time>2026-04-19T10:01:39.032Z</time></trkpt><trkpt lat="43.140477" lon="11.6872196"><ele>452.6</ele><time>2026-04-19T10:01:40.032Z</time></trkpt><trkpt lat="43.1405248" lon="11.6871116"><ele>451.0</ele><time>2026-04-19T10:01:41.032Z</time></trkpt><trkpt lat="43.1405776" lon="11.6870314"><ele>451.00000000000006</ele><time>2026-04-19T10:01:42.031Z</time></trkpt><trkpt lat="43.1406367" lon="11.6869935"><ele>451.0</ele><time>2026-04-19T10:01:43.031Z</time></trkpt><trkpt lat="43.1407103" lon="11.6869769"><ele>451.0</ele><time>2026-04-19T10:01:45.031Z</time></trkpt><trkpt lat="43.1407783" lon="11.6869896"><ele>451.0</ele><time>2026-04-19T10:01:48.031Z</time></trkpt><trkpt lat="43.1408769" lon="11.6870256"><ele>451.00000000000006</ele><time>2026-04-19T10:01:51.032Z</time></trkpt><trkpt lat="43.1409744" lon="11.6870841"><ele>451.0</ele><time>2026-04-19T10:01:53.032Z</time></trkpt><trkpt lat="43.1410429" lon="11.6871705"><ele>455.00000000000006</ele><time>2026-04-19T10:01:55.031Z</time></trkpt><trkpt lat="43.1410999" lon="11.6873048"><ele>459.0</ele><time>2026-04-19T10:01:57.031Z</time></trkpt><trkpt lat="43.1411417" lon="11.6874273"><ele>463.0</ele><time>2026-04-19T10:01:59.031Z</time></trkpt><trkpt lat="43.1411779" lon="11.6875027"><ele>467.0</ele><time>2026-04-19T10:02:01.032Z</time></trkpt><trkpt lat="43.1412278" lon="11.6875645"><ele>471.00000000000006</ele><time>2026-04-19T10:02:03.032Z</time></trkpt><trkpt lat="43.1412964" lon="11.6876529"><ele>475.0</ele><time>2026-04-19T10:02:05.031Z</time></trkpt><trkpt lat="43.1413531" lon="11.6877534"><ele>474.6666666666667</ele><time>2026-04-19T10:02:07.031Z</time></trkpt><trkpt lat="43.1414127" lon="11.6878624"><ele>474.33333333333337</ele><time>2026-04-19T10:02:09.031Z</time></trkpt><trkpt lat="43.1414584" lon="11.6879764"><ele>474.0</ele><time>2026-04-19T10:02:11.032Z</time></trkpt><trkpt lat="43.1414984" lon="11.6880664"><ele>473.66666666666663</ele><time>2026-04-19T10:02:13.031Z</time></trkpt><trkpt lat="43.141509" lon="11.6881768"><ele>473.3333333333333</ele><time>2026-04-19T10:02:16.031Z</time></trkpt><trkpt lat="43.1415449" lon="11.6882676"><ele>473.0</ele><time>2026-04-19T10:02:20.031Z</time></trkpt><trkpt lat="43.1416142" lon="11.6882284"><ele>473.0</ele><time>2026-04-19T10:02:24.032Z</time></trkpt><trkpt lat="43.1415495" lon="11.6882248"><ele>473.0</ele><time>2026-04-19T10:03:17.032Z</time></trkpt><trkpt lat="43.1415182" lon="11.6883131"><ele>473.0</ele><time>2026-04-19T10:03:20.032Z</time></trkpt><trkpt lat="43.1415459" lon="11.6883922"><ele>473.0</ele><time>2026-04-19T10:03:22.032Z</time></trkpt><trkpt lat="43.1415752" lon="11.6884893"><ele>473.0</ele><time>2026-04-19T10:03:26.032Z</time></trkpt><trkpt lat="43.1415755" lon="11.6885827"><ele>473.0</ele><time>2026-04-19T10:03:28.032Z</time></trkpt><trkpt lat="43.1415756" lon="11.6886866"><ele>473.0</ele><time>2026-04-19T10:03:30.032Z</time></trkpt><trkpt lat="43.141515" lon="11.6888188"><ele>471.4</ele><time>2026-04-19T10:03:32.032Z</time></trkpt><trkpt lat="43.1414462" lon="11.6888505"><ele>469.79999999999995</ele><time>2026-04-19T10:03:35.032Z</time></trkpt><trkpt lat="43.1415613" lon="11.6889369"><ele>468.2</ele><time>2026-04-19T10:03:40.032Z</time></trkpt><trkpt lat="43.1416401" lon="11.6889776"><ele>466.6</ele><time>2026-04-19T10:03:41.032Z</time></trkpt><trkpt lat="43.1417293" lon="11.6889916"><ele>465.0</ele><time>2026-04-19T10:03:42.032Z</time></trkpt><trkpt lat="43.1418131" lon="11.6889863"><ele>464.3333333333333</ele><time>2026-04-19T10:03:43.031Z</time></trkpt><trkpt lat="43.1418927" lon="11.6889712"><ele>463.66666666666663</ele><time>2026-04-19T10:03:44.032Z</time></trkpt><trkpt lat="43.1419575" lon="11.6889703"><ele>463.0</ele><time>2026-04-19T10:03:45.031Z</time></trkpt><trkpt lat="43.1420806" lon="11.6889975"><ele>462.3333333333333</ele><time>2026-04-19T10:03:47.031Z</time></trkpt><trkpt lat="43.1421507" lon="11.6890282"><ele>461.66666666666663</ele><time>2026-04-19T10:03:48.032Z</time></trkpt><trkpt lat="43.1422237" lon="11.6890655"><ele>461.0</ele><time>2026-04-19T10:03:49.032Z</time></trkpt><trkpt lat="43.1423054" lon="11.6891112"><ele>461.4</ele><time>2026-04-19T10:03:50.032Z</time></trkpt><trkpt lat="43.1424003" lon="11.6891569"><ele>461.8</ele><time>2026-04-19T10:03:51.031Z</time></trkpt><trkpt lat="43.1424931" lon="11.6891904"><ele>462.19999999999993</ele><time>2026-04-19T10:03:52.032Z</time></trkpt><trkpt lat="43.142582" lon="11.689232"><ele>462.59999999999997</ele><time>2026-04-19T10:03:53.031Z</time></trkpt><trkpt lat="43.1426635" lon="11.6892919"><ele>463.0</ele><time>2026-04-19T10:03:54.031Z</time></trkpt><trkpt lat="43.1427371" lon="11.6893639"><ele>461.2</ele><time>2026-04-19T10:03:55.031Z</time></trkpt><trkpt lat="43.1428052" lon="11.6894571"><ele>459.4</ele><time>2026-04-19T10:03:56.032Z</time></trkpt><trkpt lat="43.1428728" lon="11.6895561"><ele>457.59999999999997</ele><time>2026-04-19T10:03:57.031Z</time></trkpt><trkpt lat="43.1429407" lon="11.6896487"><ele>455.79999999999995</ele><time>2026-04-19T10:03:58.032Z</time></trkpt><trkpt lat="43.1430134" lon="11.6897467"><ele>454.0</ele><time>2026-04-19T10:03:59.032Z</time></trkpt><trkpt lat="43.1430846" lon="11.6898474"><ele>454.0</ele><time>2026-04-19T10:04:00.032Z</time></trkpt><trkpt lat="43.1431577" lon="11.6899455"><ele>454.0</ele><time>2026-04-19T10:04:01.031Z</time></trkpt><trkpt lat="43.1432315" lon="11.6900354"><ele>454.0</ele><time>2026-04-19T10:04:02.032Z</time></trkpt><trkpt lat="43.143308" lon="11.6901223"><ele>454.0</ele><time>2026-04-19T10:04:03.032Z</time></trkpt><trkpt lat="43.1433774" lon="11.6902081"><ele>454.0</ele><time>2026-04-19T10:04:04.032Z</time></trkpt><trkpt lat="43.1434388" lon="11.690281"><ele>454.42857142857144</ele><time>2026-04-19T10:04:05.032Z</time></trkpt><trkpt lat="43.1434985" lon="11.6903506"><ele>454.8571428571429</ele><time>2026-04-19T10:04:06.031Z</time></trkpt><trkpt lat="43.1435501" lon="11.6904069"><ele>455.28571428571433</ele><time>2026-04-19T10:04:07.032Z</time></trkpt><trkpt lat="43.1436039" lon="11.6904579"><ele>455.7142857142858</ele><time>2026-04-19T10:04:08.031Z</time></trkpt><trkpt lat="43.1436537" lon="11.6905148"><ele>456.14285714285717</ele><time>2026-04-19T10:04:09.031Z</time></trkpt><trkpt lat="43.1437076" lon="11.6905734"><ele>456.57142857142867</ele><time>2026-04-19T10:04:10.032Z</time></trkpt><trkpt lat="43.1437785" lon="11.6906692"><ele>457.00000000000006</ele><time>2026-04-19T10:04:12.032Z</time></trkpt><trkpt lat="43.1438304" lon="11.6907357"><ele>457.00000000000006</ele><time>2026-04-19T10:04:26.032Z</time></trkpt><trkpt lat="43.1438945" lon="11.6907916"><ele>457.0</ele><time>2026-04-19T10:04:27.032Z</time></trkpt><trkpt lat="43.1439595" lon="11.6908656"><ele>457.0</ele><time>2026-04-19T10:04:28.032Z</time></trkpt><trkpt lat="43.144029" lon="11.6909345"><ele>457.0</ele><time>2026-04-19T10:04:29.031Z</time></trkpt><trkpt lat="43.1440993" lon="11.6910174"><ele>457.00000000000006</ele><time>2026-04-19T10:04:30.032Z</time></trkpt><trkpt lat="43.1441788" lon="11.6911127"><ele>457.0</ele><time>2026-04-19T10:04:31.031Z</time></trkpt><trkpt lat="43.1442708" lon="11.6912096"><ele>457.25</ele><time>2026-04-19T10:04:32.032Z</time></trkpt><trkpt lat="43.1443683" lon="11.6913074"><ele>457.5</ele><time>2026-04-19T10:04:33.031Z</time></trkpt><trkpt lat="43.1444641" lon="11.691414"><ele>457.75</ele><time>2026-04-19T10:04:34.032Z</time></trkpt><trkpt lat="43.1445585" lon="11.6915215"><ele>458.0</ele><time>2026-04-19T10:04:35.032Z</time></trkpt><trkpt lat="43.1446495" lon="11.6916245"><ele>458.0</ele><time>2026-04-19T10:04:36.032Z</time></trkpt><trkpt lat="43.1447418" lon="11.6917294"><ele>458.0</ele><time>2026-04-19T10:04:37.032Z</time></trkpt><trkpt lat="43.1448346" lon="11.6918352"><ele>458.0</ele><time>2026-04-19T10:04:38.032Z</time></trkpt><trkpt lat="43.1449226" lon="11.6919453"><ele>458.0</ele><time>2026-04-19T10:04:39.031Z</time></trkpt><trkpt lat="43.1450046" lon="11.692058"><ele>459.0</ele><time>2026-04-19T10:04:40.032Z</time></trkpt><trkpt lat="43.1450803" lon="11.6921831"><ele>460.0</ele><time>2026-04-19T10:04:41.032Z</time></trkpt><trkpt lat="43.1451534" lon="11.6923043"><ele>461.0</ele><time>2026-04-19T10:04:42.031Z</time></trkpt><trkpt lat="43.1452198" lon="11.6924384"><ele>462.0</ele><time>2026-04-19T10:04:43.032Z</time></trkpt><trkpt lat="43.1452862" lon="11.6925647"><ele>462.0</ele><time>2026-04-19T10:04:44.032Z</time></trkpt><trkpt lat="43.1453458" lon="11.6926867"><ele>462.00000000000006</ele><time>2026-04-19T10:04:45.032Z</time></trkpt><trkpt lat="43.1454062" lon="11.6928083"><ele>462.00000000000006</ele><time>2026-04-19T10:04:46.031Z</time></trkpt><trkpt lat="43.1454647" lon="11.6929275"><ele>462.0</ele><time>2026-04-19T10:04:47.032Z</time></trkpt><trkpt lat="43.1455253" lon="11.6930485"><ele>462.0</ele><time>2026-04-19T10:04:48.032Z</time></trkpt><trkpt lat="43.1455911" lon="11.693182"><ele>463.25</ele><time>2026-04-19T10:04:49.031Z</time></trkpt><trkpt lat="43.1456602" lon="11.6933276"><ele>464.5</ele><time>2026-04-19T10:04:50.032Z</time></trkpt><trkpt lat="43.1457294" lon="11.6934742"><ele>465.75</ele><time>2026-04-19T10:04:51.031Z</time></trkpt><trkpt lat="43.1458" lon="11.6936289"><ele>467.0</ele><time>2026-04-19T10:04:52.032Z</time></trkpt><trkpt lat="43.1458645" lon="11.6937853"><ele>468.5</ele><time>2026-04-19T10:04:53.031Z</time></trkpt><trkpt lat="43.1459234" lon="11.693944"><ele>470.0</ele><time>2026-04-19T10:04:54.031Z</time></trkpt><trkpt lat="43.145981" lon="11.694105"><ele>471.5</ele><time>2026-04-19T10:04:55.031Z</time></trkpt><trkpt lat="43.1460289" lon="11.6942798"><ele>473.0</ele><time>2026-04-19T10:04:56.031Z</time></trkpt><trkpt lat="43.1460794" lon="11.6944633"><ele>474.66666666666663</ele><time>2026-04-19T10:04:57.031Z</time></trkpt><trkpt lat="43.1461272" lon="11.6946567"><ele>476.33333333333337</ele><time>2026-04-19T10:04:58.032Z</time></trkpt><trkpt lat="43.1461727" lon="11.6948587"><ele>478.0</ele><time>2026-04-19T10:04:59.031Z</time></trkpt><trkpt lat="43.1462158" lon="11.6950684"><ele>480.0</ele><time>2026-04-19T10:05:00.031Z</time></trkpt><trkpt lat="43.1462619" lon="11.6952917"><ele>482.0</ele><time>2026-04-19T10:05:01.032Z</time></trkpt><trkpt lat="43.1463046" lon="11.6955025"><ele>484.0</ele><time>2026-04-19T10:05:02.032Z</time></trkpt><trkpt lat="43.1463405" lon="11.6957061"><ele>484.0</ele><time>2026-04-19T10:05:03.031Z</time></trkpt><trkpt lat="43.1463749" lon="11.6958943"><ele>484.0</ele><time>2026-04-19T10:05:04.031Z</time></trkpt><trkpt lat="43.1464123" lon="11.6960726"><ele>484.0</ele><time>2026-04-19T10:05:05.031Z</time></trkpt><trkpt lat="43.1464505" lon="11.6962564"><ele>484.0</ele><time>2026-04-19T10:05:06.032Z</time></trkpt><trkpt lat="43.1464936" lon="11.6964353"><ele>485.25</ele><time>2026-04-19T10:05:07.032Z</time></trkpt><trkpt lat="43.1465528" lon="11.6966112"><ele>486.5</ele><time>2026-04-19T10:05:08.031Z</time></trkpt><trkpt lat="43.1466164" lon="11.6967869"><ele>487.75</ele><time>2026-04-19T10:05:09.031Z</time></trkpt><trkpt lat="43.1466897" lon="11.6969572"><ele>489.0</ele><time>2026-04-19T10:05:10.031Z</time></trkpt><trkpt lat="43.1467739" lon="11.6971273"><ele>491.0</ele><time>2026-04-19T10:05:11.032Z</time></trkpt><trkpt lat="43.1468748" lon="11.6972841"><ele>493.0</ele><time>2026-04-19T10:05:12.032Z</time></trkpt><trkpt lat="43.1469924" lon="11.697434"><ele>495.0</ele><time>2026-04-19T10:05:13.031Z</time></trkpt><trkpt lat="43.1471189" lon="11.6975802"><ele>495.0</ele><time>2026-04-19T10:05:14.031Z</time></trkpt><trkpt lat="43.1472567" lon="11.6977039"><ele>495.0</ele><time>2026-04-19T10:05:15.032Z</time></trkpt><trkpt lat="43.1474085" lon="11.6978214"><ele>495.0</ele><time>2026-04-19T10:05:16.032Z</time></trkpt><trkpt lat="43.1475649" lon="11.6979176"><ele>498.66666666666663</ele><time>2026-04-19T10:05:17.032Z</time></trkpt><trkpt lat="43.1477245" lon="11.6980172"><ele>502.3333333333333</ele><time>2026-04-19T10:05:18.032Z</time></trkpt><trkpt lat="43.1478846" lon="11.6981151"><ele>506.0</ele><time>2026-04-19T10:05:19.032Z</time></trkpt><trkpt lat="43.1480396" lon="11.6982316"><ele>506.0</ele><time>2026-04-19T10:05:20.032Z</time></trkpt><trkpt lat="43.1481884" lon="11.6983606"><ele>506.0</ele><time>2026-04-19T10:05:21.031Z</time></trkpt><trkpt lat="43.148334" lon="11.6985037"><ele>506.0</ele><time>2026-04-19T10:05:22.031Z</time></trkpt><trkpt lat="43.1484744" lon="11.6986447"><ele>509.0</ele><time>2026-04-19T10:05:23.032Z</time></trkpt><trkpt lat="43.1486118" lon="11.6987842"><ele>512.0</ele><time>2026-04-19T10:05:24.031Z</time></trkpt><trkpt lat="43.1487481" lon="11.698919"><ele>515.0</ele><time>2026-04-19T10:05:25.032Z</time></trkpt><trkpt lat="43.1488822" lon="11.6990303"><ele>515.0</ele><time>2026-04-19T10:05:26.031Z</time></trkpt><trkpt lat="43.1490176" lon="11.6991276"><ele>515.0</ele><time>2026-04-19T10:05:27.031Z</time></trkpt><trkpt lat="43.1491456" lon="11.6991714"><ele>515.0</ele><time>2026-04-19T10:05:28.031Z</time></trkpt><trkpt lat="43.149278" lon="11.6991786"><ele>515.0</ele><time>2026-04-19T10:05:29.032Z</time></trkpt><trkpt lat="43.1494129" lon="11.6991313"><ele>515.0</ele><time>2026-04-19T10:05:30.032Z</time></trkpt><trkpt lat="43.1495498" lon="11.6990373"><ele>515.0</ele><time>2026-04-19T10:05:31.032Z</time></trkpt><trkpt lat="43.1496865" lon="11.6989185"><ele>515.0</ele><time>2026-04-19T10:05:32.031Z</time></trkpt><trkpt lat="43.1498279" lon="11.6988014"><ele>517.3333333333333</ele><time>2026-04-19T10:05:33.032Z</time></trkpt><trkpt lat="43.1499721" lon="11.6987022"><ele>519.6666666666666</ele><time>2026-04-19T10:05:34.032Z</time></trkpt><trkpt lat="43.150125" lon="11.6986202"><ele>522.0</ele><time>2026-04-19T10:05:35.031Z</time></trkpt><trkpt lat="43.150284" lon="11.6985453"><ele>522.6666666666666</ele><time>2026-04-19T10:05:36.031Z</time></trkpt><trkpt lat="43.1504415" lon="11.6984773"><ele>523.3333333333333</ele><time>2026-04-19T10:05:37.032Z</time></trkpt><trkpt lat="43.150597" lon="11.698413"><ele>524.0</ele><time>2026-04-19T10:05:38.032Z</time></trkpt><trkpt lat="43.1507533" lon="11.6983503"><ele>525.25</ele><time>2026-04-19T10:05:39.032Z</time></trkpt><trkpt lat="43.1509084" lon="11.6982916"><ele>526.5</ele><time>2026-04-19T10:05:40.032Z</time></trkpt><trkpt lat="43.1510557" lon="11.6982487"><ele>527.75</ele><time>2026-04-19T10:05:41.032Z</time></trkpt><trkpt lat="43.1511802" lon="11.6982063"><ele>529.0</ele><time>2026-04-19T10:05:42.031Z</time></trkpt><trkpt lat="43.151283" lon="11.6981687"><ele>529.0</ele><time>2026-04-19T10:05:43.031Z</time></trkpt><trkpt lat="43.1513585" lon="11.6981428"><ele>529.0</ele><time>2026-04-19T10:05:44.032Z</time></trkpt><trkpt lat="43.1514436" lon="11.6981203"><ele>529.0</ele><time>2026-04-19T10:05:46.032Z</time></trkpt><trkpt lat="43.1515013" lon="11.6982735"><ele>529.0</ele><time>2026-04-19T10:05:59.032Z</time></trkpt><trkpt lat="43.151497" lon="11.6983635"><ele>529.0</ele><time>2026-04-19T10:06:02.032Z</time></trkpt><trkpt lat="43.1514274" lon="11.6984208"><ele>529.0</ele><time>2026-04-19T10:07:48.032Z</time></trkpt><trkpt lat="43.1514298" lon="11.6985151"><ele>529.0</ele><time>2026-04-19T10:08:22.031Z</time></trkpt><trkpt lat="43.151427" lon="11.6986019"><ele>529.0</ele><time>2026-04-19T10:08:30.032Z</time></trkpt><trkpt lat="43.1514776" lon="11.6985246"><ele>529.0</ele><time>2026-04-19T10:09:25.038Z</time></trkpt><trkpt lat="43.1515092" lon="11.6984412"><ele>529.0</ele><time>2026-04-19T10:11:15.11Z</time></trkpt><trkpt lat="43.1515335" lon="11.6983606"><ele>529.0</ele><time>2026-04-19T10:11:18.131Z</time></trkpt><trkpt lat="43.1515701" lon="11.6982734"><ele>529.0</ele><time>2026-04-19T10:11:22.05Z</time></trkpt><trkpt lat="43.1515498" lon="11.6981863"><ele>529.0</ele><time>2026-04-19T10:11:30.107Z</time></trkpt><trkpt lat="43.1515955" lon="11.6982699"><ele>529.0</ele><time>2026-04-19T10:12:01.122Z</time></trkpt><trkpt lat="43.1516136" lon="11.6983651"><ele>529.0</ele><time>2026-04-19T10:12:07.06Z</time></trkpt><trkpt lat="43.1515573" lon="11.6983082"><ele>529.0</ele><time>2026-04-19T10:12:08.067Z</time></trkpt><trkpt lat="43.1514754" lon="11.6982611"><ele>529.0</ele><time>2026-04-19T10:12:10.05Z</time></trkpt><trkpt lat="43.1514529" lon="11.6981566"><ele>529.0</ele><time>2026-04-19T10:12:12.145Z</time></trkpt><trkpt lat="43.1513823" lon="11.6981133"><ele>529.0</ele><time>2026-04-19T10:12:46.032Z</time></trkpt><trkpt lat="43.1512736" lon="11.6981346"><ele>529.0</ele><time>2026-04-19T10:12:48.032Z</time></trkpt><trkpt lat="43.1511509" lon="11.6981711"><ele>529.0</ele><time>2026-04-19T10:12:50.032Z</time></trkpt><trkpt lat="43.1510733" lon="11.6982032"><ele>529.0</ele><time>2026-04-19T10:12:51.032Z</time></trkpt><trkpt lat="43.1509837" lon="11.698239"><ele>529.0</ele><time>2026-04-19T10:12:52.032Z</time></trkpt><trkpt lat="43.1508942" lon="11.698274"><ele>529.0</ele><time>2026-04-19T10:12:53.031Z</time></trkpt><trkpt lat="43.1507911" lon="11.6983129"><ele>527.75</ele><time>2026-04-19T10:12:54.032Z</time></trkpt><trkpt lat="43.150681" lon="11.6983503"><ele>526.5</ele><time>2026-04-19T10:12:55.031Z</time></trkpt><trkpt lat="43.1505649" lon="11.6983887"><ele>525.25</ele><time>2026-04-19T10:12:56.032Z</time></trkpt><trkpt lat="43.1504438" lon="11.6984266"><ele>524.0</ele><time>2026-04-19T10:12:57.031Z</time></trkpt><trkpt lat="43.1503223" lon="11.698465"><ele>524.0</ele><time>2026-04-19T10:12:58.031Z</time></trkpt><trkpt lat="43.1501916" lon="11.6985192"><ele>524.0</ele><time>2026-04-19T10:12:59.031Z</time></trkpt><trkpt lat="43.1500592" lon="11.6985855"><ele>524.0</ele><time>2026-04-19T10:13:00.032Z</time></trkpt><trkpt lat="43.1499269" lon="11.6986465"><ele>524.0</ele><time>2026-04-19T10:13:01.031Z</time></trkpt><trkpt lat="43.1498041" lon="11.6987191"><ele>521.75</ele><time>2026-04-19T10:13:02.031Z</time></trkpt><trkpt lat="43.1496772" lon="11.6987979"><ele>519.5</ele><time>2026-04-19T10:13:03.031Z</time></trkpt><trkpt lat="43.1495556" lon="11.698882"><ele>517.25</ele><time>2026-04-19T10:13:04.031Z</time></trkpt><trkpt lat="43.1494413" lon="11.6989655"><ele>515.0</ele><time>2026-04-19T10:13:05.031Z</time></trkpt><trkpt lat="43.1493193" lon="11.6990346"><ele>515.0</ele><time>2026-04-19T10:13:06.032Z</time></trkpt><trkpt lat="43.1491966" lon="11.6990738"><ele>515.0</ele><time>2026-04-19T10:13:07.032Z</time></trkpt><trkpt lat="43.1490767" lon="11.699071"><ele>515.0</ele><time>2026-04-19T10:13:08.031Z</time></trkpt><trkpt lat="43.1489508" lon="11.699042"><ele>515.0</ele><time>2026-04-19T10:13:09.032Z</time></trkpt><trkpt lat="43.1488392" lon="11.6989795"><ele>515.0</ele><time>2026-04-19T10:13:10.031Z</time></trkpt><trkpt lat="43.1487343" lon="11.6988911"><ele>515.0</ele><time>2026-04-19T10:13:11.032Z</time></trkpt><trkpt lat="43.1486313" lon="11.6987971"><ele>515.0</ele><time>2026-04-19T10:13:12.032Z</time></trkpt><trkpt lat="43.1485292" lon="11.6986786"><ele>515.0</ele><time>2026-04-19T10:13:13.031Z</time></trkpt><trkpt lat="43.1484266" lon="11.6985573"><ele>513.0</ele><time>2026-04-19T10:13:14.032Z</time></trkpt><trkpt lat="43.1483224" lon="11.698436"><ele>511.0</ele><time>2026-04-19T10:13:15.032Z</time></trkpt><trkpt lat="43.1482112" lon="11.6983215"><ele>509.0</ele><time>2026-04-19T10:13:16.031Z</time></trkpt><trkpt lat="43.1480967" lon="11.6982034"><ele>507.0</ele><time>2026-04-19T10:13:17.031Z</time></trkpt><trkpt lat="43.1479778" lon="11.6980976"><ele>506.75</ele><time>2026-04-19T10:13:18.031Z</time></trkpt><trkpt lat="43.1478529" lon="11.6979993"><ele>506.5</ele><time>2026-04-19T10:13:19.032Z</time></trkpt><trkpt lat="43.1477327" lon="11.6979084"><ele>506.25</ele><time>2026-04-19T10:13:20.031Z</time></trkpt><trkpt lat="43.1476025" lon="11.6978255"><ele>506.0</ele><time>2026-04-19T10:13:21.031Z</time></trkpt><trkpt lat="43.1474642" lon="11.6977399"><ele>502.3333333333333</ele><time>2026-04-19T10:13:22.031Z</time></trkpt><trkpt lat="43.1473256" lon="11.6976436"><ele>498.66666666666663</ele><time>2026-04-19T10:13:23.031Z</time></trkpt><trkpt lat="43.1471917" lon="11.6975405"><ele>495.0</ele><time>2026-04-19T10:13:24.031Z</time></trkpt><trkpt lat="43.1470684" lon="11.6974203"><ele>495.0</ele><time>2026-04-19T10:13:25.032Z</time></trkpt><trkpt lat="43.1469541" lon="11.6972848"><ele>495.0</ele><time>2026-04-19T10:13:26.032Z</time></trkpt><trkpt lat="43.1468485" lon="11.6971331"><ele>495.0</ele><time>2026-04-19T10:13:27.031Z</time></trkpt><trkpt lat="43.1467521" lon="11.6969766"><ele>495.75</ele><time>2026-04-19T10:13:28.032Z</time></trkpt><trkpt lat="43.146673" lon="11.6968073"><ele>496.5</ele><time>2026-04-19T10:13:29.032Z</time></trkpt><trkpt lat="43.1466013" lon="11.6966422"><ele>497.25</ele><time>2026-04-19T10:13:30.032Z</time></trkpt><trkpt lat="43.1465527" lon="11.6964591"><ele>498.0</ele><time>2026-04-19T10:13:31.032Z</time></trkpt><trkpt lat="43.1465021" lon="11.6962841"><ele>498.0</ele><time>2026-04-19T10:13:32.032Z</time></trkpt><trkpt lat="43.1464541" lon="11.6960943"><ele>498.0</ele><time>2026-04-19T10:13:33.031Z</time></trkpt><trkpt lat="43.14641" lon="11.6959046"><ele>498.0</ele><time>2026-04-19T10:13:34.032Z</time></trkpt><trkpt lat="43.1463733" lon="11.6957323"><ele>498.0</ele><time>2026-04-19T10:13:35.032Z</time></trkpt><trkpt lat="43.1463284" lon="11.695545"><ele>494.5</ele><time>2026-04-19T10:13:36.031Z</time></trkpt><trkpt lat="43.1462918" lon="11.6953648"><ele>491.0</ele><time>2026-04-19T10:13:37.031Z</time></trkpt><trkpt lat="43.1462522" lon="11.695181"><ele>487.5</ele><time>2026-04-19T10:13:38.031Z</time></trkpt><trkpt lat="43.146221" lon="11.6950026"><ele>484.0</ele><time>2026-04-19T10:13:39.032Z</time></trkpt><trkpt lat="43.146193" lon="11.6948558"><ele>483.00000000000006</ele><time>2026-04-19T10:13:40.031Z</time></trkpt><trkpt lat="43.1461685" lon="11.6947304"><ele>482.0</ele><time>2026-04-19T10:13:41.031Z</time></trkpt><trkpt lat="43.1461423" lon="11.6946169"><ele>481.0</ele><time>2026-04-19T10:13:42.032Z</time></trkpt><trkpt lat="43.1461239" lon="11.6945156"><ele>480.0</ele><time>2026-04-19T10:13:43.032Z</time></trkpt><trkpt lat="43.1460853" lon="11.6944036"><ele>479.00000000000006</ele><time>2026-04-19T10:13:45.031Z</time></trkpt><trkpt lat="43.1460333" lon="11.6943262"><ele>478.0</ele><time>2026-04-19T10:13:47.032Z</time></trkpt><trkpt lat="43.1460964" lon="11.694324"><ele>477.1666666666667</ele><time>2026-04-19T10:14:27.682Z</time></trkpt><trkpt lat="43.1461571" lon="11.6943641"><ele>476.33333333333337</ele><time>2026-04-19T10:14:40.032Z</time></trkpt><trkpt lat="43.1462274" lon="11.6943933"><ele>475.5</ele><time>2026-04-19T10:15:24.032Z</time></trkpt><trkpt lat="43.1463267" lon="11.6943864"><ele>474.66666666666663</ele><time>2026-04-19T10:16:33.05Z</time></trkpt><trkpt lat="43.1463623" lon="11.6943099"><ele>473.8333333333333</ele><time>2026-04-19T10:17:16.032Z</time></trkpt><trkpt lat="43.1464283" lon="11.6943012"><ele>473.0</ele><time>2026-04-19T10:18:25.098Z</time></trkpt><trkpt lat="43.1463882" lon="11.6942092"><ele>472.99999999999994</ele><time>2026-04-19T10:18:37.098Z</time></trkpt><trkpt lat="43.1463005" lon="11.6942414"><ele>473.0</ele><time>2026-04-19T10:18:47.101Z</time></trkpt><trkpt lat="43.1462352" lon="11.6942595"><ele>473.0</ele><time>2026-04-19T10:18:52.075Z</time></trkpt><trkpt lat="43.1461695" lon="11.6943176"><ele>473.0</ele><time>2026-04-19T10:19:00.032Z</time></trkpt><trkpt lat="43.1462425" lon="11.6943106"><ele>472.99999999999994</ele><time>2026-04-19T10:19:03.031Z</time></trkpt><trkpt lat="43.1463042" lon="11.6942846"><ele>473.0</ele><time>2026-04-19T10:19:12.031Z</time></trkpt><trkpt lat="43.146356" lon="11.6941487"><ele>473.0</ele><time>2026-04-19T10:20:51.031Z</time></trkpt><trkpt lat="43.146308" lon="11.694209"><ele>472.99999999999994</ele><time>2026-04-19T10:22:39.031Z</time></trkpt><trkpt lat="43.1463617" lon="11.6944008"><ele>472.99999999999994</ele><time>2026-04-19T10:23:39.083Z</time></trkpt><trkpt lat="43.1462992" lon="11.6943816"><ele>473.0</ele><time>2026-04-19T10:24:09.092Z</time></trkpt><trkpt lat="43.1462387" lon="11.6943278"><ele>473.0</ele><time>2026-04-19T10:24:16.032Z</time></trkpt><trkpt lat="43.1463294" lon="11.6941246"><ele>473.0</ele><time>2026-04-19T10:24:25.031Z</time></trkpt><trkpt lat="43.1463329" lon="11.6942153"><ele>473.0</ele><time>2026-04-19T10:26:16.033Z</time></trkpt><trkpt lat="43.146376" lon="11.6942878"><ele>473.0</ele><time>2026-04-19T10:27:07.064Z</time></trkpt><trkpt lat="43.1464185" lon="11.6943605"><ele>473.0</ele><time>2026-04-19T10:27:12.034Z</time></trkpt><trkpt lat="43.1464688" lon="11.6944198"><ele>473.0</ele><time>2026-04-19T10:27:17.034Z</time></trkpt><trkpt lat="43.1464609" lon="11.6945111"><ele>473.0</ele><time>2026-04-19T10:28:01.034Z</time></trkpt><trkpt lat="43.1463776" lon="11.6944521"><ele>473.0</ele><time>2026-04-19T10:28:18.033Z</time></trkpt><trkpt lat="43.146385" lon="11.6940675"><ele>473.0</ele><time>2026-04-19T10:30:17.033Z</time></trkpt><trkpt lat="43.1463343" lon="11.6938705"><ele>473.0</ele><time>2026-04-19T10:30:34.326Z</time></trkpt><trkpt lat="43.1461598" lon="11.6944177"><ele>473.0</ele><time>2026-04-19T10:31:03.065Z</time></trkpt><trkpt lat="43.1462365" lon="11.6942554"><ele>473.0</ele><time>2026-04-19T10:31:24.156Z</time></trkpt></trkseg></trk></gpx>